<?xml version="1.0" encoding="UTF-8" standalone="no" ?>
<gpx xmlns="http://www.topografix.com/GPX/1/1" xmlns:xsi="http://www.w3.org/2001/XMLSchema-instance" xsi:schemaLocation="http://www.topografix.com/GPX/1/1 http://www.topografix.com/GPX/1/1/gpx.xsd" version="1.1" creator="VisuGPX - https://www.visugpx.com">
  <metadata>
    <name>Rando Aiguilles et Mont de la Baulme vers Oberson</name>
    <desc><![CDATA[Départ du parking de la Gataz \'Suisse). Monté aux Aiguilles, puis rando sur les crêtes.]]></desc>
  </metadata>
  <trk>
    <name><![CDATA[Rando Oberson Mont et Aiguilles de la Baulme]]></name>
    <trkseg>
      <trkpt lat="46.80453" lon="6.47835">
        <ele>1236.1999511719</ele>
        <time>2014-07-26T07:56:10.000Z</time>
      </trkpt>
      <trkpt lat="46.8046" lon="6.47825">
        <ele>1235.4000244141</ele>
        <time>2014-07-26T07:56:17.000Z</time>
      </trkpt>
      <trkpt lat="46.80469" lon="6.47814">
        <ele>1234.5999755859</ele>
        <time>2014-07-26T07:56:25.000Z</time>
      </trkpt>
      <trkpt lat="46.80476" lon="6.47794">
        <ele>1234.4000244141</ele>
        <time>2014-07-26T07:56:35.000Z</time>
      </trkpt>
      <trkpt lat="46.80483" lon="6.47781">
        <ele>1234.1999511719</ele>
        <time>2014-07-26T07:56:43.000Z</time>
      </trkpt>
      <trkpt lat="46.80489" lon="6.4777">
        <ele>1234</ele>
        <time>2014-07-26T07:56:50.000Z</time>
      </trkpt>
      <trkpt lat="46.80505" lon="6.47756">
        <ele>1234.1999511719</ele>
        <time>2014-07-26T07:56:59.000Z</time>
      </trkpt>
      <trkpt lat="46.80521" lon="6.47742">
        <ele>1234.5999755859</ele>
        <time>2014-07-26T07:57:08.000Z</time>
      </trkpt>
      <trkpt lat="46.80532" lon="6.47729">
        <ele>1235</ele>
        <time>2014-07-26T07:57:16.000Z</time>
      </trkpt>
      <trkpt lat="46.80544" lon="6.47716">
        <ele>1235.5999755859</ele>
        <time>2014-07-26T07:57:25.000Z</time>
      </trkpt>
      <trkpt lat="46.80555" lon="6.47703">
        <ele>1236.1999511719</ele>
        <time>2014-07-26T07:57:34.000Z</time>
      </trkpt>
      <trkpt lat="46.80566" lon="6.47691">
        <ele>1237.1999511719</ele>
        <time>2014-07-26T07:57:44.000Z</time>
      </trkpt>
      <trkpt lat="46.80579" lon="6.47676">
        <ele>1238</ele>
        <time>2014-07-26T07:57:56.000Z</time>
      </trkpt>
      <trkpt lat="46.80588" lon="6.47672">
        <ele>1238</ele>
        <time>2014-07-26T07:58:03.000Z</time>
      </trkpt>
      <trkpt lat="46.80596" lon="6.47672">
        <ele>1238</ele>
        <time>2014-07-26T07:58:09.000Z</time>
      </trkpt>
      <trkpt lat="46.80606" lon="6.47674">
        <ele>1238</ele>
        <time>2014-07-26T07:58:17.000Z</time>
      </trkpt>
      <trkpt lat="46.80615" lon="6.47678">
        <ele>1237.8000488281</ele>
        <time>2014-07-26T07:58:24.000Z</time>
      </trkpt>
      <trkpt lat="46.80623" lon="6.47682">
        <ele>1237.8000488281</ele>
        <time>2014-07-26T07:58:31.000Z</time>
      </trkpt>
      <trkpt lat="46.80624" lon="6.47682">
        <ele>1237.5999755859</ele>
        <time>2014-07-26T07:58:32.000Z</time>
      </trkpt>
      <trkpt lat="46.8063" lon="6.47684">
        <ele>1237.5999755859</ele>
        <time>2014-07-26T07:58:37.000Z</time>
      </trkpt>
      <trkpt lat="46.80634" lon="6.47684">
        <ele>1237.5999755859</ele>
        <time>2014-07-26T07:58:41.000Z</time>
      </trkpt>
      <trkpt lat="46.80642" lon="6.47679">
        <ele>1238</ele>
        <time>2014-07-26T07:58:50.000Z</time>
      </trkpt>
      <trkpt lat="46.80642" lon="6.47678">
        <ele>1238.1999511719</ele>
        <time>2014-07-26T07:58:52.000Z</time>
      </trkpt>
      <trkpt lat="46.8064" lon="6.47672">
        <ele>1238.4000244141</ele>
        <time>2014-07-26T07:58:58.000Z</time>
      </trkpt>
      <trkpt lat="46.80636" lon="6.47666">
        <ele>1238.8000488281</ele>
        <time>2014-07-26T07:59:04.000Z</time>
      </trkpt>
      <trkpt lat="46.80629" lon="6.47655">
        <ele>1239.4000244141</ele>
        <time>2014-07-26T07:59:12.000Z</time>
      </trkpt>
      <trkpt lat="46.80623" lon="6.47645">
        <ele>1239.8000488281</ele>
        <time>2014-07-26T07:59:19.000Z</time>
      </trkpt>
      <trkpt lat="46.80616" lon="6.47634">
        <ele>1240</ele>
        <time>2014-07-26T07:59:27.000Z</time>
      </trkpt>
      <trkpt lat="46.8061" lon="6.47622">
        <ele>1240.4000244141</ele>
        <time>2014-07-26T07:59:34.000Z</time>
      </trkpt>
      <trkpt lat="46.80606" lon="6.4761">
        <ele>1240.8000488281</ele>
        <time>2014-07-26T07:59:41.000Z</time>
      </trkpt>
      <trkpt lat="46.80601" lon="6.47599">
        <ele>1241.1999511719</ele>
        <time>2014-07-26T07:59:48.000Z</time>
      </trkpt>
      <trkpt lat="46.80596" lon="6.47587">
        <ele>1241.5999755859</ele>
        <time>2014-07-26T07:59:55.000Z</time>
      </trkpt>
      <trkpt lat="46.80589" lon="6.47573">
        <ele>1242.1999511719</ele>
        <time>2014-07-26T08:00:04.000Z</time>
      </trkpt>
      <trkpt lat="46.80585" lon="6.47564">
        <ele>1242.5999755859</ele>
        <time>2014-07-26T08:00:09.000Z</time>
      </trkpt>
      <trkpt lat="46.80578" lon="6.4755">
        <ele>1243.4000244141</ele>
        <time>2014-07-26T08:00:17.000Z</time>
      </trkpt>
      <trkpt lat="46.80571" lon="6.47538">
        <ele>1244</ele>
        <time>2014-07-26T08:00:25.000Z</time>
      </trkpt>
      <trkpt lat="46.80566" lon="6.47528">
        <ele>1244.5999755859</ele>
        <time>2014-07-26T08:00:32.000Z</time>
      </trkpt>
      <trkpt lat="46.8056" lon="6.4752">
        <ele>1245</ele>
        <time>2014-07-26T08:00:39.000Z</time>
      </trkpt>
      <trkpt lat="46.80554" lon="6.47511">
        <ele>1245.4000244141</ele>
        <time>2014-07-26T08:00:47.000Z</time>
      </trkpt>
      <trkpt lat="46.80537" lon="6.47485">
        <ele>1246.5999755859</ele>
        <time>2014-07-26T08:01:07.000Z</time>
      </trkpt>
      <trkpt lat="46.8053" lon="6.47474">
        <ele>1247</ele>
        <time>2014-07-26T08:01:14.000Z</time>
      </trkpt>
      <trkpt lat="46.80522" lon="6.47462">
        <ele>1247.4000244141</ele>
        <time>2014-07-26T08:01:23.000Z</time>
      </trkpt>
      <trkpt lat="46.80514" lon="6.47451">
        <ele>1247.8000488281</ele>
        <time>2014-07-26T08:01:31.000Z</time>
      </trkpt>
      <trkpt lat="46.80505" lon="6.4744">
        <ele>1248.1999511719</ele>
        <time>2014-07-26T08:01:40.000Z</time>
      </trkpt>
      <trkpt lat="46.80498" lon="6.4743">
        <ele>1248.5999755859</ele>
        <time>2014-07-26T08:01:48.000Z</time>
      </trkpt>
      <trkpt lat="46.80492" lon="6.47422">
        <ele>1248.8000488281</ele>
        <time>2014-07-26T08:01:55.000Z</time>
      </trkpt>
      <trkpt lat="46.80485" lon="6.47412">
        <ele>1249.4000244141</ele>
        <time>2014-07-26T08:02:03.000Z</time>
      </trkpt>
      <trkpt lat="46.80478" lon="6.47401">
        <ele>1250.1999511719</ele>
        <time>2014-07-26T08:02:11.000Z</time>
      </trkpt>
      <trkpt lat="46.80474" lon="6.47395">
        <ele>1250.4000244141</ele>
        <time>2014-07-26T08:02:15.000Z</time>
      </trkpt>
      <trkpt lat="46.80467" lon="6.47384">
        <ele>1250.8000488281</ele>
        <time>2014-07-26T08:02:23.000Z</time>
      </trkpt>
      <trkpt lat="46.80458" lon="6.47371">
        <ele>1251</ele>
        <time>2014-07-26T08:02:32.000Z</time>
      </trkpt>
      <trkpt lat="46.80452" lon="6.47362">
        <ele>1251.4000244141</ele>
        <time>2014-07-26T08:02:39.000Z</time>
      </trkpt>
      <trkpt lat="46.80444" lon="6.47352">
        <ele>1251.8000488281</ele>
        <time>2014-07-26T08:02:47.000Z</time>
      </trkpt>
      <trkpt lat="46.80435" lon="6.47339">
        <ele>1252.4000244141</ele>
        <time>2014-07-26T08:02:57.000Z</time>
      </trkpt>
      <trkpt lat="46.80428" lon="6.4733">
        <ele>1252.8000488281</ele>
        <time>2014-07-26T08:03:04.000Z</time>
      </trkpt>
      <trkpt lat="46.8042" lon="6.4732">
        <ele>1253.1999511719</ele>
        <time>2014-07-26T08:03:12.000Z</time>
      </trkpt>
      <trkpt lat="46.80413" lon="6.47311">
        <ele>1253.4000244141</ele>
        <time>2014-07-26T08:03:20.000Z</time>
      </trkpt>
      <trkpt lat="46.80403" lon="6.47297">
        <ele>1253.4000244141</ele>
        <time>2014-07-26T08:03:30.000Z</time>
      </trkpt>
      <trkpt lat="46.80397" lon="6.47288">
        <ele>1253.8000488281</ele>
        <time>2014-07-26T08:03:37.000Z</time>
      </trkpt>
      <trkpt lat="46.8039" lon="6.47279">
        <ele>1254</ele>
        <time>2014-07-26T08:03:44.000Z</time>
      </trkpt>
      <trkpt lat="46.80383" lon="6.47269">
        <ele>1254.4000244141</ele>
        <time>2014-07-26T08:03:52.000Z</time>
      </trkpt>
      <trkpt lat="46.80374" lon="6.47258">
        <ele>1254.8000488281</ele>
        <time>2014-07-26T08:04:01.000Z</time>
      </trkpt>
      <trkpt lat="46.80365" lon="6.47246">
        <ele>1255.1999511719</ele>
        <time>2014-07-26T08:04:11.000Z</time>
      </trkpt>
      <trkpt lat="46.80358" lon="6.47236">
        <ele>1255.5999755859</ele>
        <time>2014-07-26T08:04:19.000Z</time>
      </trkpt>
      <trkpt lat="46.80349" lon="6.47224">
        <ele>1256.4000244141</ele>
        <time>2014-07-26T08:04:28.000Z</time>
      </trkpt>
      <trkpt lat="46.80342" lon="6.47215">
        <ele>1257</ele>
        <time>2014-07-26T08:04:35.000Z</time>
      </trkpt>
      <trkpt lat="46.80331" lon="6.47204">
        <ele>1258</ele>
        <time>2014-07-26T08:04:45.000Z</time>
      </trkpt>
      <trkpt lat="46.80319" lon="6.47197">
        <ele>1258.5999755859</ele>
        <time>2014-07-26T08:04:55.000Z</time>
      </trkpt>
      <trkpt lat="46.80306" lon="6.47191">
        <ele>1259.4000244141</ele>
        <time>2014-07-26T08:05:05.000Z</time>
      </trkpt>
      <trkpt lat="46.80295" lon="6.47188">
        <ele>1259.8000488281</ele>
        <time>2014-07-26T08:05:13.000Z</time>
      </trkpt>
      <trkpt lat="46.80285" lon="6.47186">
        <ele>1260.1999511719</ele>
        <time>2014-07-26T08:05:21.000Z</time>
      </trkpt>
      <trkpt lat="46.80272" lon="6.47185">
        <ele>1260.8000488281</ele>
        <time>2014-07-26T08:05:31.000Z</time>
      </trkpt>
      <trkpt lat="46.80262" lon="6.47185">
        <ele>1261.4000244141</ele>
        <time>2014-07-26T08:05:39.000Z</time>
      </trkpt>
      <trkpt lat="46.8025" lon="6.47185">
        <ele>1262.4000244141</ele>
        <time>2014-07-26T08:05:48.000Z</time>
      </trkpt>
      <trkpt lat="46.8024" lon="6.47184">
        <ele>1263</ele>
        <time>2014-07-26T08:05:56.000Z</time>
      </trkpt>
      <trkpt lat="46.80225" lon="6.47184">
        <ele>1263.5999755859</ele>
        <time>2014-07-26T08:06:07.000Z</time>
      </trkpt>
      <trkpt lat="46.80213" lon="6.47184">
        <ele>1264</ele>
        <time>2014-07-26T08:06:16.000Z</time>
      </trkpt>
      <trkpt lat="46.80203" lon="6.47184">
        <ele>1264.4000244141</ele>
        <time>2014-07-26T08:06:24.000Z</time>
      </trkpt>
      <trkpt lat="46.80192" lon="6.47184">
        <ele>1264.8000488281</ele>
        <time>2014-07-26T08:06:33.000Z</time>
      </trkpt>
      <trkpt lat="46.80182" lon="6.47185">
        <ele>1265.5999755859</ele>
        <time>2014-07-26T08:06:40.000Z</time>
      </trkpt>
      <trkpt lat="46.8017" lon="6.47185">
        <ele>1266.8000488281</ele>
        <time>2014-07-26T08:06:50.000Z</time>
      </trkpt>
      <trkpt lat="46.8016" lon="6.47185">
        <ele>1267.8000488281</ele>
        <time>2014-07-26T08:06:58.000Z</time>
      </trkpt>
      <trkpt lat="46.80148" lon="6.47186">
        <ele>1269</ele>
        <time>2014-07-26T08:07:07.000Z</time>
      </trkpt>
      <trkpt lat="46.80137" lon="6.47188">
        <ele>1269.8000488281</ele>
        <time>2014-07-26T08:07:15.000Z</time>
      </trkpt>
      <trkpt lat="46.80127" lon="6.47188">
        <ele>1270.8000488281</ele>
        <time>2014-07-26T08:07:23.000Z</time>
      </trkpt>
      <trkpt lat="46.80118" lon="6.47188">
        <ele>1271.4000244141</ele>
        <time>2014-07-26T08:07:30.000Z</time>
      </trkpt>
      <trkpt lat="46.80117" lon="6.47188">
        <ele>1271.5999755859</ele>
        <time>2014-07-26T08:07:31.000Z</time>
      </trkpt>
      <trkpt lat="46.80106" lon="6.4719">
        <ele>1272.5999755859</ele>
        <time>2014-07-26T08:07:40.000Z</time>
      </trkpt>
      <trkpt lat="46.80098" lon="6.47191">
        <ele>1273.4000244141</ele>
        <time>2014-07-26T08:07:48.000Z</time>
      </trkpt>
      <trkpt lat="46.80088" lon="6.47194">
        <ele>1274.5999755859</ele>
        <time>2014-07-26T08:07:56.000Z</time>
      </trkpt>
      <trkpt lat="46.8008" lon="6.47198">
        <ele>1275.5999755859</ele>
        <time>2014-07-26T08:08:04.000Z</time>
      </trkpt>
      <trkpt lat="46.80074" lon="6.47201">
        <ele>1276.1999511719</ele>
        <time>2014-07-26T08:08:10.000Z</time>
      </trkpt>
      <trkpt lat="46.80067" lon="6.47207">
        <ele>1277.1999511719</ele>
        <time>2014-07-26T08:08:18.000Z</time>
      </trkpt>
      <trkpt lat="46.80061" lon="6.47213">
        <ele>1278.4000244141</ele>
        <time>2014-07-26T08:08:26.000Z</time>
      </trkpt>
      <trkpt lat="46.80054" lon="6.47219">
        <ele>1279.1999511719</ele>
        <time>2014-07-26T08:08:33.000Z</time>
      </trkpt>
      <trkpt lat="46.80049" lon="6.47224">
        <ele>1279.8000488281</ele>
        <time>2014-07-26T08:08:39.000Z</time>
      </trkpt>
      <trkpt lat="46.80041" lon="6.47234">
        <ele>1280.5999755859</ele>
        <time>2014-07-26T08:08:47.000Z</time>
      </trkpt>
      <trkpt lat="46.80034" lon="6.47242">
        <ele>1281.5999755859</ele>
        <time>2014-07-26T08:08:54.000Z</time>
      </trkpt>
      <trkpt lat="46.80029" lon="6.47249">
        <ele>1282.5999755859</ele>
        <time>2014-07-26T08:09:00.000Z</time>
      </trkpt>
      <trkpt lat="46.8002" lon="6.4726">
        <ele>1284</ele>
        <time>2014-07-26T08:09:10.000Z</time>
      </trkpt>
      <trkpt lat="46.80017" lon="6.47263">
        <ele>1284.4000244141</ele>
        <time>2014-07-26T08:09:12.000Z</time>
      </trkpt>
      <trkpt lat="46.80009" lon="6.47273">
        <ele>1285.4000244141</ele>
        <time>2014-07-26T08:09:21.000Z</time>
      </trkpt>
      <trkpt lat="46.80002" lon="6.47281">
        <ele>1286.4000244141</ele>
        <time>2014-07-26T08:09:30.000Z</time>
      </trkpt>
      <trkpt lat="46.8" lon="6.47281">
        <ele>1286.4000244141</ele>
        <time>2014-07-26T08:09:41.000Z</time>
      </trkpt>
      <trkpt lat="46.79998" lon="6.47281">
        <ele>1286.5999755859</ele>
        <time>2014-07-26T08:10:34.000Z</time>
      </trkpt>
      <trkpt lat="46.79993" lon="6.47283">
        <ele>1287</ele>
        <time>2014-07-26T08:11:03.000Z</time>
      </trkpt>
      <trkpt lat="46.79985" lon="6.47286">
        <ele>1287.8000488281</ele>
        <time>2014-07-26T08:11:11.000Z</time>
      </trkpt>
      <trkpt lat="46.79982" lon="6.47286">
        <ele>1288</ele>
        <time>2014-07-26T08:11:14.000Z</time>
      </trkpt>
      <trkpt lat="46.79981" lon="6.47285">
        <ele>1288</ele>
        <time>2014-07-26T08:11:15.000Z</time>
      </trkpt>
      <trkpt lat="46.79977" lon="6.47282">
        <ele>1288</ele>
        <time>2014-07-26T08:11:21.000Z</time>
      </trkpt>
      <trkpt lat="46.79966" lon="6.47283">
        <ele>1288.8000488281</ele>
        <time>2014-07-26T08:11:29.000Z</time>
      </trkpt>
      <trkpt lat="46.79954" lon="6.47283">
        <ele>1289.4000244141</ele>
        <time>2014-07-26T08:11:39.000Z</time>
      </trkpt>
      <trkpt lat="46.79944" lon="6.47282">
        <ele>1290.1999511719</ele>
        <time>2014-07-26T08:11:47.000Z</time>
      </trkpt>
      <trkpt lat="46.79933" lon="6.47282">
        <ele>1291</ele>
        <time>2014-07-26T08:11:55.000Z</time>
      </trkpt>
      <trkpt lat="46.79922" lon="6.47281">
        <ele>1291.5999755859</ele>
        <time>2014-07-26T08:12:04.000Z</time>
      </trkpt>
      <trkpt lat="46.79912" lon="6.4728">
        <ele>1292.4000244141</ele>
        <time>2014-07-26T08:12:13.000Z</time>
      </trkpt>
      <trkpt lat="46.79902" lon="6.47279">
        <ele>1293</ele>
        <time>2014-07-26T08:12:21.000Z</time>
      </trkpt>
      <trkpt lat="46.79893" lon="6.47279">
        <ele>1293.8000488281</ele>
        <time>2014-07-26T08:12:28.000Z</time>
      </trkpt>
      <trkpt lat="46.79883" lon="6.47278">
        <ele>1294.5999755859</ele>
        <time>2014-07-26T08:12:37.000Z</time>
      </trkpt>
      <trkpt lat="46.79874" lon="6.47276">
        <ele>1295.1999511719</ele>
        <time>2014-07-26T08:12:44.000Z</time>
      </trkpt>
      <trkpt lat="46.79865" lon="6.47273">
        <ele>1295.8000488281</ele>
        <time>2014-07-26T08:12:52.000Z</time>
      </trkpt>
      <trkpt lat="46.79857" lon="6.47271">
        <ele>1296.1999511719</ele>
        <time>2014-07-26T08:12:59.000Z</time>
      </trkpt>
      <trkpt lat="46.79845" lon="6.47267">
        <ele>1297</ele>
        <time>2014-07-26T08:13:09.000Z</time>
      </trkpt>
      <trkpt lat="46.79833" lon="6.47264">
        <ele>1297.5999755859</ele>
        <time>2014-07-26T08:13:19.000Z</time>
      </trkpt>
      <trkpt lat="46.79823" lon="6.4726">
        <ele>1298.1999511719</ele>
        <time>2014-07-26T08:13:28.000Z</time>
      </trkpt>
      <trkpt lat="46.79817" lon="6.47257">
        <ele>1298.5999755859</ele>
        <time>2014-07-26T08:13:33.000Z</time>
      </trkpt>
      <trkpt lat="46.79813" lon="6.47253">
        <ele>1298.8000488281</ele>
        <time>2014-07-26T08:13:38.000Z</time>
      </trkpt>
      <trkpt lat="46.79804" lon="6.47248">
        <ele>1299.4000244141</ele>
        <time>2014-07-26T08:13:48.000Z</time>
      </trkpt>
      <trkpt lat="46.79794" lon="6.47245">
        <ele>1300.1999511719</ele>
        <time>2014-07-26T08:13:56.000Z</time>
      </trkpt>
      <trkpt lat="46.79785" lon="6.4724">
        <ele>1300.8000488281</ele>
        <time>2014-07-26T08:14:04.000Z</time>
      </trkpt>
      <trkpt lat="46.79775" lon="6.47235">
        <ele>1301.5999755859</ele>
        <time>2014-07-26T08:14:13.000Z</time>
      </trkpt>
      <trkpt lat="46.79765" lon="6.47229">
        <ele>1302.1999511719</ele>
        <time>2014-07-26T08:14:23.000Z</time>
      </trkpt>
      <trkpt lat="46.79756" lon="6.47224">
        <ele>1302.8000488281</ele>
        <time>2014-07-26T08:14:32.000Z</time>
      </trkpt>
      <trkpt lat="46.79744" lon="6.47218">
        <ele>1303.4000244141</ele>
        <time>2014-07-26T08:14:42.000Z</time>
      </trkpt>
      <trkpt lat="46.79734" lon="6.47213">
        <ele>1304.1999511719</ele>
        <time>2014-07-26T08:14:51.000Z</time>
      </trkpt>
      <trkpt lat="46.79724" lon="6.47209">
        <ele>1305.1999511719</ele>
        <time>2014-07-26T08:15:00.000Z</time>
      </trkpt>
      <trkpt lat="46.79714" lon="6.47202">
        <ele>1306</ele>
        <time>2014-07-26T08:15:09.000Z</time>
      </trkpt>
      <trkpt lat="46.79702" lon="6.47194">
        <ele>1307</ele>
        <time>2014-07-26T08:15:19.000Z</time>
      </trkpt>
      <trkpt lat="46.79689" lon="6.47185">
        <ele>1308</ele>
        <time>2014-07-26T08:15:30.000Z</time>
      </trkpt>
      <trkpt lat="46.79675" lon="6.47175">
        <ele>1309</ele>
        <time>2014-07-26T08:15:42.000Z</time>
      </trkpt>
      <trkpt lat="46.79663" lon="6.47166">
        <ele>1309.8000488281</ele>
        <time>2014-07-26T08:15:52.000Z</time>
      </trkpt>
      <trkpt lat="46.79651" lon="6.47156">
        <ele>1310.5999755859</ele>
        <time>2014-07-26T08:16:02.000Z</time>
      </trkpt>
      <trkpt lat="46.7964" lon="6.47148">
        <ele>1311.1999511719</ele>
        <time>2014-07-26T08:16:11.000Z</time>
      </trkpt>
      <trkpt lat="46.79628" lon="6.47139">
        <ele>1311.5999755859</ele>
        <time>2014-07-26T08:16:21.000Z</time>
      </trkpt>
      <trkpt lat="46.79614" lon="6.47128">
        <ele>1311.8000488281</ele>
        <time>2014-07-26T08:16:32.000Z</time>
      </trkpt>
      <trkpt lat="46.79602" lon="6.47117">
        <ele>1312</ele>
        <time>2014-07-26T08:16:43.000Z</time>
      </trkpt>
      <trkpt lat="46.79593" lon="6.4711">
        <ele>1312.1999511719</ele>
        <time>2014-07-26T08:16:52.000Z</time>
      </trkpt>
      <trkpt lat="46.79583" lon="6.47103">
        <ele>1312.4000244141</ele>
        <time>2014-07-26T08:17:00.000Z</time>
      </trkpt>
      <trkpt lat="46.79575" lon="6.47097">
        <ele>1312.5999755859</ele>
        <time>2014-07-26T08:17:08.000Z</time>
      </trkpt>
      <trkpt lat="46.79567" lon="6.47101">
        <ele>1314.5999755859</ele>
        <time>2014-07-26T08:17:15.000Z</time>
      </trkpt>
      <trkpt lat="46.79561" lon="6.47108">
        <ele>1316.5999755859</ele>
        <time>2014-07-26T08:17:23.000Z</time>
      </trkpt>
      <trkpt lat="46.79554" lon="6.47114">
        <ele>1319.1999511719</ele>
        <time>2014-07-26T08:17:31.000Z</time>
      </trkpt>
      <trkpt lat="46.79547" lon="6.4712">
        <ele>1321.4000244141</ele>
        <time>2014-07-26T08:17:38.000Z</time>
      </trkpt>
      <trkpt lat="46.79542" lon="6.47125">
        <ele>1323.5999755859</ele>
        <time>2014-07-26T08:17:44.000Z</time>
      </trkpt>
      <trkpt lat="46.79535" lon="6.47127">
        <ele>1326.8000488281</ele>
        <time>2014-07-26T08:17:52.000Z</time>
      </trkpt>
      <trkpt lat="46.79534" lon="6.47127">
        <ele>1327.1999511719</ele>
        <time>2014-07-26T08:17:53.000Z</time>
      </trkpt>
      <trkpt lat="46.79528" lon="6.4713">
        <ele>1330</ele>
        <time>2014-07-26T08:18:00.000Z</time>
      </trkpt>
      <trkpt lat="46.79524" lon="6.47134">
        <ele>1332.4000244141</ele>
        <time>2014-07-26T08:18:08.000Z</time>
      </trkpt>
      <trkpt lat="46.79521" lon="6.47134">
        <ele>1333.5999755859</ele>
        <time>2014-07-26T08:18:13.000Z</time>
      </trkpt>
      <trkpt lat="46.79519" lon="6.47136">
        <ele>1334.8000488281</ele>
        <time>2014-07-26T08:18:19.000Z</time>
      </trkpt>
      <trkpt lat="46.79518" lon="6.47136">
        <ele>1335.1999511719</ele>
        <time>2014-07-26T08:18:27.000Z</time>
      </trkpt>
      <trkpt lat="46.79514" lon="6.47133">
        <ele>1335.8000488281</ele>
        <time>2014-07-26T08:18:34.000Z</time>
      </trkpt>
      <trkpt lat="46.79512" lon="6.47131">
        <ele>1336</ele>
        <time>2014-07-26T08:18:40.000Z</time>
      </trkpt>
      <trkpt lat="46.79509" lon="6.47128">
        <ele>1336.5999755859</ele>
        <time>2014-07-26T08:18:46.000Z</time>
      </trkpt>
      <trkpt lat="46.79507" lon="6.47126">
        <ele>1337</ele>
        <time>2014-07-26T08:18:50.000Z</time>
      </trkpt>
      <trkpt lat="46.79504" lon="6.47124">
        <ele>1337.8000488281</ele>
        <time>2014-07-26T08:18:55.000Z</time>
      </trkpt>
      <trkpt lat="46.795" lon="6.47123">
        <ele>1338.8000488281</ele>
        <time>2014-07-26T08:19:04.000Z</time>
      </trkpt>
      <trkpt lat="46.79495" lon="6.47122">
        <ele>1340.5999755859</ele>
        <time>2014-07-26T08:19:14.000Z</time>
      </trkpt>
      <trkpt lat="46.79494" lon="6.47122">
        <ele>1340.8000488281</ele>
        <time>2014-07-26T08:19:15.000Z</time>
      </trkpt>
      <trkpt lat="46.79487" lon="6.47114">
        <ele>1341.8000488281</ele>
        <time>2014-07-26T08:19:23.000Z</time>
      </trkpt>
      <trkpt lat="46.79482" lon="6.4711">
        <ele>1343.1999511719</ele>
        <time>2014-07-26T08:19:30.000Z</time>
      </trkpt>
      <trkpt lat="46.79481" lon="6.4711">
        <ele>1343.5999755859</ele>
        <time>2014-07-26T08:19:31.000Z</time>
      </trkpt>
      <trkpt lat="46.79475" lon="6.47106">
        <ele>1345.4000244141</ele>
        <time>2014-07-26T08:19:38.000Z</time>
      </trkpt>
      <trkpt lat="46.79474" lon="6.47105">
        <ele>1345.4000244141</ele>
        <time>2014-07-26T08:19:39.000Z</time>
      </trkpt>
      <trkpt lat="46.7947" lon="6.47102">
        <ele>1346.1999511719</ele>
        <time>2014-07-26T08:19:44.000Z</time>
      </trkpt>
      <trkpt lat="46.7947" lon="6.47101">
        <ele>1346.1999511719</ele>
        <time>2014-07-26T08:19:45.000Z</time>
      </trkpt>
      <trkpt lat="46.79465" lon="6.47097">
        <ele>1347.5999755859</ele>
        <time>2014-07-26T08:19:52.000Z</time>
      </trkpt>
      <trkpt lat="46.79464" lon="6.47096">
        <ele>1347.8000488281</ele>
        <time>2014-07-26T08:19:54.000Z</time>
      </trkpt>
      <trkpt lat="46.79461" lon="6.47094">
        <ele>1348.1999511719</ele>
        <time>2014-07-26T08:19:57.000Z</time>
      </trkpt>
      <trkpt lat="46.7946" lon="6.47092">
        <ele>1348.5999755859</ele>
        <time>2014-07-26T08:20:00.000Z</time>
      </trkpt>
      <trkpt lat="46.79455" lon="6.47088">
        <ele>1349.8000488281</ele>
        <time>2014-07-26T08:20:07.000Z</time>
      </trkpt>
      <trkpt lat="46.79452" lon="6.47085">
        <ele>1350.1999511719</ele>
        <time>2014-07-26T08:20:12.000Z</time>
      </trkpt>
      <trkpt lat="46.79449" lon="6.47082">
        <ele>1351.1999511719</ele>
        <time>2014-07-26T08:20:18.000Z</time>
      </trkpt>
      <trkpt lat="46.79445" lon="6.4708">
        <ele>1352.4000244141</ele>
        <time>2014-07-26T08:20:23.000Z</time>
      </trkpt>
      <trkpt lat="46.7944" lon="6.47079">
        <ele>1354.1999511719</ele>
        <time>2014-07-26T08:20:30.000Z</time>
      </trkpt>
      <trkpt lat="46.79437" lon="6.47078">
        <ele>1355.1999511719</ele>
        <time>2014-07-26T08:20:37.000Z</time>
      </trkpt>
      <trkpt lat="46.79433" lon="6.47079">
        <ele>1357</ele>
        <time>2014-07-26T08:20:45.000Z</time>
      </trkpt>
      <trkpt lat="46.79429" lon="6.47078">
        <ele>1358.5999755859</ele>
        <time>2014-07-26T08:20:50.000Z</time>
      </trkpt>
      <trkpt lat="46.79423" lon="6.47077">
        <ele>1360.5999755859</ele>
        <time>2014-07-26T08:20:56.000Z</time>
      </trkpt>
      <trkpt lat="46.79421" lon="6.47077">
        <ele>1361.8000488281</ele>
        <time>2014-07-26T08:21:00.000Z</time>
      </trkpt>
      <trkpt lat="46.79417" lon="6.47078">
        <ele>1363.4000244141</ele>
        <time>2014-07-26T08:21:10.000Z</time>
      </trkpt>
      <trkpt lat="46.79417" lon="6.47077">
        <ele>1363.1999511719</ele>
        <time>2014-07-26T08:21:11.000Z</time>
      </trkpt>
      <trkpt lat="46.79419" lon="6.47077">
        <ele>1362.4000244141</ele>
        <time>2014-07-26T08:21:19.000Z</time>
      </trkpt>
      <trkpt lat="46.79416" lon="6.47077">
        <ele>1363.8000488281</ele>
        <time>2014-07-26T08:21:26.000Z</time>
      </trkpt>
      <trkpt lat="46.79412" lon="6.47079">
        <ele>1366.5999755859</ele>
        <time>2014-07-26T08:21:34.000Z</time>
      </trkpt>
      <trkpt lat="46.79408" lon="6.47079">
        <ele>1368.5999755859</ele>
        <time>2014-07-26T08:21:40.000Z</time>
      </trkpt>
      <trkpt lat="46.79405" lon="6.47075">
        <ele>1368.8000488281</ele>
        <time>2014-07-26T08:21:46.000Z</time>
      </trkpt>
      <trkpt lat="46.79402" lon="6.47071">
        <ele>1368.5999755859</ele>
        <time>2014-07-26T08:21:52.000Z</time>
      </trkpt>
      <trkpt lat="46.794" lon="6.47066">
        <ele>1368.1999511719</ele>
        <time>2014-07-26T08:21:58.000Z</time>
      </trkpt>
      <trkpt lat="46.79397" lon="6.47065">
        <ele>1369.1999511719</ele>
        <time>2014-07-26T08:22:02.000Z</time>
      </trkpt>
      <trkpt lat="46.79395" lon="6.47061">
        <ele>1369</ele>
        <time>2014-07-26T08:22:07.000Z</time>
      </trkpt>
      <trkpt lat="46.79393" lon="6.47058">
        <ele>1369.1999511719</ele>
        <time>2014-07-26T08:22:12.000Z</time>
      </trkpt>
      <trkpt lat="46.79389" lon="6.47054">
        <ele>1369.8000488281</ele>
        <time>2014-07-26T08:22:17.000Z</time>
      </trkpt>
      <trkpt lat="46.79387" lon="6.47053">
        <ele>1370.1999511719</ele>
        <time>2014-07-26T08:22:18.000Z</time>
      </trkpt>
      <trkpt lat="46.79384" lon="6.4705">
        <ele>1370.5999755859</ele>
        <time>2014-07-26T08:22:22.000Z</time>
      </trkpt>
      <trkpt lat="46.7938" lon="6.47047">
        <ele>1371.4000244141</ele>
        <time>2014-07-26T08:22:29.000Z</time>
      </trkpt>
      <trkpt lat="46.79379" lon="6.47046">
        <ele>1371.4000244141</ele>
        <time>2014-07-26T08:22:30.000Z</time>
      </trkpt>
      <trkpt lat="46.79378" lon="6.47045">
        <ele>1372</ele>
        <time>2014-07-26T08:22:34.000Z</time>
      </trkpt>
      <trkpt lat="46.79372" lon="6.47045">
        <ele>1374.5999755859</ele>
        <time>2014-07-26T08:22:42.000Z</time>
      </trkpt>
      <trkpt lat="46.79368" lon="6.47045">
        <ele>1376.8000488281</ele>
        <time>2014-07-26T08:22:47.000Z</time>
      </trkpt>
      <trkpt lat="46.79367" lon="6.47045">
        <ele>1377</ele>
        <time>2014-07-26T08:22:48.000Z</time>
      </trkpt>
      <trkpt lat="46.79362" lon="6.47043">
        <ele>1378.8000488281</ele>
        <time>2014-07-26T08:22:56.000Z</time>
      </trkpt>
      <trkpt lat="46.79358" lon="6.47045">
        <ele>1381.1999511719</ele>
        <time>2014-07-26T08:23:06.000Z</time>
      </trkpt>
      <trkpt lat="46.79359" lon="6.47043">
        <ele>1380.5999755859</ele>
        <time>2014-07-26T08:23:12.000Z</time>
      </trkpt>
      <trkpt lat="46.7936" lon="6.4704">
        <ele>1378.8000488281</ele>
        <time>2014-07-26T08:23:45.000Z</time>
      </trkpt>
      <trkpt lat="46.79354" lon="6.47039">
        <ele>1381.1999511719</ele>
        <time>2014-07-26T08:23:56.000Z</time>
      </trkpt>
      <trkpt lat="46.79352" lon="6.47038">
        <ele>1381.8000488281</ele>
        <time>2014-07-26T08:24:02.000Z</time>
      </trkpt>
      <trkpt lat="46.79352" lon="6.47033">
        <ele>1380.4000244141</ele>
        <time>2014-07-26T08:24:11.000Z</time>
      </trkpt>
      <trkpt lat="46.79348" lon="6.47031">
        <ele>1381.4000244141</ele>
        <time>2014-07-26T08:24:20.000Z</time>
      </trkpt>
      <trkpt lat="46.79346" lon="6.47029">
        <ele>1382</ele>
        <time>2014-07-26T08:24:25.000Z</time>
      </trkpt>
      <trkpt lat="46.79341" lon="6.47025">
        <ele>1383</ele>
        <time>2014-07-26T08:24:32.000Z</time>
      </trkpt>
      <trkpt lat="46.79339" lon="6.47024">
        <ele>1383.8000488281</ele>
        <time>2014-07-26T08:24:34.000Z</time>
      </trkpt>
      <trkpt lat="46.79334" lon="6.47024">
        <ele>1385.5999755859</ele>
        <time>2014-07-26T08:24:38.000Z</time>
      </trkpt>
      <trkpt lat="46.79333" lon="6.47022">
        <ele>1385.5999755859</ele>
        <time>2014-07-26T08:24:40.000Z</time>
      </trkpt>
      <trkpt lat="46.79329" lon="6.47018">
        <ele>1386.4000244141</ele>
        <time>2014-07-26T08:24:46.000Z</time>
      </trkpt>
      <trkpt lat="46.79324" lon="6.47018">
        <ele>1388.4000244141</ele>
        <time>2014-07-26T08:24:52.000Z</time>
      </trkpt>
      <trkpt lat="46.79319" lon="6.47014">
        <ele>1389.5999755859</ele>
        <time>2014-07-26T08:25:00.000Z</time>
      </trkpt>
      <trkpt lat="46.79313" lon="6.4701">
        <ele>1391.5999755859</ele>
        <time>2014-07-26T08:25:13.000Z</time>
      </trkpt>
      <trkpt lat="46.79309" lon="6.47009">
        <ele>1393.1999511719</ele>
        <time>2014-07-26T08:25:19.000Z</time>
      </trkpt>
      <trkpt lat="46.79309" lon="6.47008">
        <ele>1393.1999511719</ele>
        <time>2014-07-26T08:25:20.000Z</time>
      </trkpt>
      <trkpt lat="46.79304" lon="6.47007">
        <ele>1394.8000488281</ele>
        <time>2014-07-26T08:25:24.000Z</time>
      </trkpt>
      <trkpt lat="46.79303" lon="6.47008">
        <ele>1396</ele>
        <time>2014-07-26T08:25:26.000Z</time>
      </trkpt>
      <trkpt lat="46.79299" lon="6.47006">
        <ele>1397.4000244141</ele>
        <time>2014-07-26T08:25:33.000Z</time>
      </trkpt>
      <trkpt lat="46.79295" lon="6.47005">
        <ele>1398.8000488281</ele>
        <time>2014-07-26T08:25:39.000Z</time>
      </trkpt>
      <trkpt lat="46.79285" lon="6.47004">
        <ele>1403.4000244141</ele>
        <time>2014-07-26T08:25:56.000Z</time>
      </trkpt>
      <trkpt lat="46.79281" lon="6.47001">
        <ele>1404.5999755859</ele>
        <time>2014-07-26T08:26:03.000Z</time>
      </trkpt>
      <trkpt lat="46.79276" lon="6.47">
        <ele>1407</ele>
        <time>2014-07-26T08:26:10.000Z</time>
      </trkpt>
      <trkpt lat="46.79272" lon="6.46998">
        <ele>1408</ele>
        <time>2014-07-26T08:26:16.000Z</time>
      </trkpt>
      <trkpt lat="46.7927" lon="6.46997">
        <ele>1408.5999755859</ele>
        <time>2014-07-26T08:26:22.000Z</time>
      </trkpt>
      <trkpt lat="46.79267" lon="6.46992">
        <ele>1408.8000488281</ele>
        <time>2014-07-26T08:26:38.000Z</time>
      </trkpt>
      <trkpt lat="46.79264" lon="6.46991">
        <ele>1409.5999755859</ele>
        <time>2014-07-26T08:26:43.000Z</time>
      </trkpt>
      <trkpt lat="46.79262" lon="6.4699">
        <ele>1410.4000244141</ele>
        <time>2014-07-26T08:26:53.000Z</time>
      </trkpt>
      <trkpt lat="46.7926" lon="6.46989">
        <ele>1411.1999511719</ele>
        <time>2014-07-26T08:27:02.000Z</time>
      </trkpt>
      <trkpt lat="46.79256" lon="6.46989">
        <ele>1412.8000488281</ele>
        <time>2014-07-26T08:27:09.000Z</time>
      </trkpt>
      <trkpt lat="46.79254" lon="6.46987">
        <ele>1413.1999511719</ele>
        <time>2014-07-26T08:27:15.000Z</time>
      </trkpt>
      <trkpt lat="46.79252" lon="6.46985">
        <ele>1414</ele>
        <time>2014-07-26T08:27:24.000Z</time>
      </trkpt>
      <trkpt lat="46.79249" lon="6.46983">
        <ele>1414.8000488281</ele>
        <time>2014-07-26T08:27:31.000Z</time>
      </trkpt>
      <trkpt lat="46.79245" lon="6.46984">
        <ele>1416.5999755859</ele>
        <time>2014-07-26T08:27:38.000Z</time>
      </trkpt>
      <trkpt lat="46.79244" lon="6.46984">
        <ele>1417.4000244141</ele>
        <time>2014-07-26T08:27:49.000Z</time>
      </trkpt>
      <trkpt lat="46.79244" lon="6.46987">
        <ele>1418.5999755859</ele>
        <time>2014-07-26T08:27:56.000Z</time>
      </trkpt>
      <trkpt lat="46.79242" lon="6.4699">
        <ele>1420.5999755859</ele>
        <time>2014-07-26T08:27:58.000Z</time>
      </trkpt>
      <trkpt lat="46.79244" lon="6.46995">
        <ele>1422</ele>
        <time>2014-07-26T08:28:06.000Z</time>
      </trkpt>
      <trkpt lat="46.79242" lon="6.46996">
        <ele>1423.5999755859</ele>
        <time>2014-07-26T08:28:20.000Z</time>
      </trkpt>
      <trkpt lat="46.79239" lon="6.46995">
        <ele>1425.1999511719</ele>
        <time>2014-07-26T08:28:25.000Z</time>
      </trkpt>
      <trkpt lat="46.79238" lon="6.46996">
        <ele>1425.4000244141</ele>
        <time>2014-07-26T08:28:30.000Z</time>
      </trkpt>
      <trkpt lat="46.7924" lon="6.46998">
        <ele>1425.5999755859</ele>
        <time>2014-07-26T08:28:35.000Z</time>
      </trkpt>
      <trkpt lat="46.79241" lon="6.46999">
        <ele>1425.1999511719</ele>
        <time>2014-07-26T08:28:39.000Z</time>
      </trkpt>
      <trkpt lat="46.79243" lon="6.47003">
        <ele>1425.8000488281</ele>
        <time>2014-07-26T08:28:44.000Z</time>
      </trkpt>
      <trkpt lat="46.79242" lon="6.47006">
        <ele>1427.4000244141</ele>
        <time>2014-07-26T08:28:50.000Z</time>
      </trkpt>
      <trkpt lat="46.79244" lon="6.47011">
        <ele>1428.5999755859</ele>
        <time>2014-07-26T08:28:58.000Z</time>
      </trkpt>
      <trkpt lat="46.79244" lon="6.47014">
        <ele>1430.1999511719</ele>
        <time>2014-07-26T08:29:03.000Z</time>
      </trkpt>
      <trkpt lat="46.79244" lon="6.4702">
        <ele>1432.5999755859</ele>
        <time>2014-07-26T08:29:11.000Z</time>
      </trkpt>
      <trkpt lat="46.79246" lon="6.47024">
        <ele>1433</ele>
        <time>2014-07-26T08:29:21.000Z</time>
      </trkpt>
      <trkpt lat="46.79248" lon="6.47027">
        <ele>1433.5999755859</ele>
        <time>2014-07-26T08:29:27.000Z</time>
      </trkpt>
      <trkpt lat="46.79249" lon="6.4703">
        <ele>1434.4000244141</ele>
        <time>2014-07-26T08:29:33.000Z</time>
      </trkpt>
      <trkpt lat="46.79249" lon="6.47035">
        <ele>1436</ele>
        <time>2014-07-26T08:29:42.000Z</time>
      </trkpt>
      <trkpt lat="46.79249" lon="6.47037">
        <ele>1437</ele>
        <time>2014-07-26T08:29:47.000Z</time>
      </trkpt>
      <trkpt lat="46.79252" lon="6.47034">
        <ele>1433.5999755859</ele>
        <time>2014-07-26T08:29:57.000Z</time>
      </trkpt>
      <trkpt lat="46.79253" lon="6.47035">
        <ele>1434</ele>
        <time>2014-07-26T08:30:02.000Z</time>
      </trkpt>
      <trkpt lat="46.79254" lon="6.47038">
        <ele>1434.4000244141</ele>
        <time>2014-07-26T08:30:07.000Z</time>
      </trkpt>
      <trkpt lat="46.79255" lon="6.47039">
        <ele>1434.4000244141</ele>
        <time>2014-07-26T08:30:12.000Z</time>
      </trkpt>
      <trkpt lat="46.79256" lon="6.47043">
        <ele>1434.8000488281</ele>
        <time>2014-07-26T08:30:23.000Z</time>
      </trkpt>
      <trkpt lat="46.79257" lon="6.47049">
        <ele>1437.4000244141</ele>
        <time>2014-07-26T08:30:29.000Z</time>
      </trkpt>
      <trkpt lat="46.79257" lon="6.47049">
        <ele>1437.1999511719</ele>
        <time>2014-07-26T08:30:35.000Z</time>
      </trkpt>
      <trkpt lat="46.79258" lon="6.47055">
        <ele>1439.1999511719</ele>
        <time>2014-07-26T08:31:04.000Z</time>
      </trkpt>
      <trkpt lat="46.7926" lon="6.47061">
        <ele>1440.8000488281</ele>
        <time>2014-07-26T08:31:10.000Z</time>
      </trkpt>
      <trkpt lat="46.79261" lon="6.47066">
        <ele>1442</ele>
        <time>2014-07-26T08:31:15.000Z</time>
      </trkpt>
      <trkpt lat="46.79262" lon="6.47067">
        <ele>1442</ele>
        <time>2014-07-26T08:31:20.000Z</time>
      </trkpt>
      <trkpt lat="46.79262" lon="6.4707">
        <ele>1442.8000488281</ele>
        <time>2014-07-26T08:31:25.000Z</time>
      </trkpt>
      <trkpt lat="46.79264" lon="6.47074">
        <ele>1443.1999511719</ele>
        <time>2014-07-26T08:31:33.000Z</time>
      </trkpt>
      <trkpt lat="46.79265" lon="6.47079">
        <ele>1444.1999511719</ele>
        <time>2014-07-26T08:31:39.000Z</time>
      </trkpt>
      <trkpt lat="46.79266" lon="6.47083">
        <ele>1445.1999511719</ele>
        <time>2014-07-26T08:31:46.000Z</time>
      </trkpt>
      <trkpt lat="46.79265" lon="6.47089">
        <ele>1447.4000244141</ele>
        <time>2014-07-26T08:31:55.000Z</time>
      </trkpt>
      <trkpt lat="46.79265" lon="6.47092">
        <ele>1448.5999755859</ele>
        <time>2014-07-26T08:32:01.000Z</time>
      </trkpt>
      <trkpt lat="46.79265" lon="6.47099">
        <ele>1450.8000488281</ele>
        <time>2014-07-26T08:32:09.000Z</time>
      </trkpt>
      <trkpt lat="46.79265" lon="6.47099">
        <ele>1451.1999511719</ele>
        <time>2014-07-26T08:32:14.000Z</time>
      </trkpt>
      <trkpt lat="46.79263" lon="6.471">
        <ele>1452.1999511719</ele>
        <time>2014-07-26T08:32:20.000Z</time>
      </trkpt>
      <trkpt lat="46.79262" lon="6.47099">
        <ele>1452.1999511719</ele>
        <time>2014-07-26T08:32:30.000Z</time>
      </trkpt>
      <trkpt lat="46.7926" lon="6.47098">
        <ele>1453.1999511719</ele>
        <time>2014-07-26T08:32:40.000Z</time>
      </trkpt>
      <trkpt lat="46.79263" lon="6.47106">
        <ele>1454</ele>
        <time>2014-07-26T08:32:56.000Z</time>
      </trkpt>
      <trkpt lat="46.79263" lon="6.47107">
        <ele>1454.1999511719</ele>
        <time>2014-07-26T08:32:57.000Z</time>
      </trkpt>
      <trkpt lat="46.79263" lon="6.47108">
        <ele>1454.8000488281</ele>
        <time>2014-07-26T08:33:04.000Z</time>
      </trkpt>
      <trkpt lat="46.79262" lon="6.47111">
        <ele>1455.5999755859</ele>
        <time>2014-07-26T08:33:11.000Z</time>
      </trkpt>
      <trkpt lat="46.79262" lon="6.4711">
        <ele>1455.5999755859</ele>
        <time>2014-07-26T08:33:26.000Z</time>
      </trkpt>
      <trkpt lat="46.79262" lon="6.47114">
        <ele>1456.8000488281</ele>
        <time>2014-07-26T08:34:25.000Z</time>
      </trkpt>
      <trkpt lat="46.79261" lon="6.47113">
        <ele>1457.5999755859</ele>
        <time>2014-07-26T08:34:31.000Z</time>
      </trkpt>
      <trkpt lat="46.79261" lon="6.47118">
        <ele>1458.4000244141</ele>
        <time>2014-07-26T08:34:38.000Z</time>
      </trkpt>
      <trkpt lat="46.79262" lon="6.47121">
        <ele>1458.5999755859</ele>
        <time>2014-07-26T08:34:43.000Z</time>
      </trkpt>
      <trkpt lat="46.79265" lon="6.47124">
        <ele>1458.1999511719</ele>
        <time>2014-07-26T08:34:48.000Z</time>
      </trkpt>
      <trkpt lat="46.79266" lon="6.47129">
        <ele>1459.1999511719</ele>
        <time>2014-07-26T08:34:54.000Z</time>
      </trkpt>
      <trkpt lat="46.79266" lon="6.47134">
        <ele>1460.5999755859</ele>
        <time>2014-07-26T08:35:00.000Z</time>
      </trkpt>
      <trkpt lat="46.79267" lon="6.47137">
        <ele>1460.8000488281</ele>
        <time>2014-07-26T08:35:04.000Z</time>
      </trkpt>
      <trkpt lat="46.79268" lon="6.4714">
        <ele>1461.1999511719</ele>
        <time>2014-07-26T08:35:09.000Z</time>
      </trkpt>
      <trkpt lat="46.7927" lon="6.47144">
        <ele>1461.1999511719</ele>
        <time>2014-07-26T08:35:14.000Z</time>
      </trkpt>
      <trkpt lat="46.79272" lon="6.47147">
        <ele>1461.4000244141</ele>
        <time>2014-07-26T08:35:19.000Z</time>
      </trkpt>
      <trkpt lat="46.79273" lon="6.47151">
        <ele>1461.8000488281</ele>
        <time>2014-07-26T08:35:27.000Z</time>
      </trkpt>
      <trkpt lat="46.79273" lon="6.47154">
        <ele>1463</ele>
        <time>2014-07-26T08:35:31.000Z</time>
      </trkpt>
      <trkpt lat="46.79273" lon="6.47158">
        <ele>1464.1999511719</ele>
        <time>2014-07-26T08:35:36.000Z</time>
      </trkpt>
      <trkpt lat="46.79273" lon="6.4716">
        <ele>1465.1999511719</ele>
        <time>2014-07-26T08:35:41.000Z</time>
      </trkpt>
      <trkpt lat="46.79273" lon="6.47162">
        <ele>1465.8000488281</ele>
        <time>2014-07-26T08:35:46.000Z</time>
      </trkpt>
      <trkpt lat="46.79273" lon="6.47163">
        <ele>1466.1999511719</ele>
        <time>2014-07-26T08:35:54.000Z</time>
      </trkpt>
      <trkpt lat="46.79273" lon="6.47165">
        <ele>1466.8000488281</ele>
        <time>2014-07-26T08:35:57.000Z</time>
      </trkpt>
      <trkpt lat="46.79273" lon="6.47168">
        <ele>1467.8000488281</ele>
        <time>2014-07-26T08:36:03.000Z</time>
      </trkpt>
      <trkpt lat="46.79274" lon="6.4717">
        <ele>1468</ele>
        <time>2014-07-26T08:36:10.000Z</time>
      </trkpt>
      <trkpt lat="46.79275" lon="6.47172">
        <ele>1468.5999755859</ele>
        <time>2014-07-26T08:36:15.000Z</time>
      </trkpt>
      <trkpt lat="46.79276" lon="6.47177">
        <ele>1469.1999511719</ele>
        <time>2014-07-26T08:36:21.000Z</time>
      </trkpt>
      <trkpt lat="46.79276" lon="6.47179">
        <ele>1470.1999511719</ele>
        <time>2014-07-26T08:36:25.000Z</time>
      </trkpt>
      <trkpt lat="46.79277" lon="6.47181">
        <ele>1470.4000244141</ele>
        <time>2014-07-26T08:36:29.000Z</time>
      </trkpt>
      <trkpt lat="46.79277" lon="6.47186">
        <ele>1472</ele>
        <time>2014-07-26T08:36:36.000Z</time>
      </trkpt>
      <trkpt lat="46.79279" lon="6.47191">
        <ele>1472.8000488281</ele>
        <time>2014-07-26T08:36:43.000Z</time>
      </trkpt>
      <trkpt lat="46.79279" lon="6.47193">
        <ele>1473.1999511719</ele>
        <time>2014-07-26T08:36:49.000Z</time>
      </trkpt>
      <trkpt lat="46.79278" lon="6.47197">
        <ele>1474.4000244141</ele>
        <time>2014-07-26T08:36:57.000Z</time>
      </trkpt>
      <trkpt lat="46.79277" lon="6.472">
        <ele>1475.4000244141</ele>
        <time>2014-07-26T08:37:04.000Z</time>
      </trkpt>
      <trkpt lat="46.79279" lon="6.47203">
        <ele>1475.1999511719</ele>
        <time>2014-07-26T08:37:14.000Z</time>
      </trkpt>
      <trkpt lat="46.7928" lon="6.47207">
        <ele>1475.8000488281</ele>
        <time>2014-07-26T08:37:18.000Z</time>
      </trkpt>
      <trkpt lat="46.79282" lon="6.4721">
        <ele>1475.5999755859</ele>
        <time>2014-07-26T08:37:22.000Z</time>
      </trkpt>
      <trkpt lat="46.79282" lon="6.47215">
        <ele>1476.4000244141</ele>
        <time>2014-07-26T08:37:27.000Z</time>
      </trkpt>
      <trkpt lat="46.79281" lon="6.47219">
        <ele>1477.4000244141</ele>
        <time>2014-07-26T08:37:33.000Z</time>
      </trkpt>
      <trkpt lat="46.79282" lon="6.4722">
        <ele>1477.5999755859</ele>
        <time>2014-07-26T08:37:39.000Z</time>
      </trkpt>
      <trkpt lat="46.79283" lon="6.47226">
        <ele>1478.4000244141</ele>
        <time>2014-07-26T08:37:47.000Z</time>
      </trkpt>
      <trkpt lat="46.79281" lon="6.47229">
        <ele>1479.8000488281</ele>
        <time>2014-07-26T08:37:55.000Z</time>
      </trkpt>
      <trkpt lat="46.79282" lon="6.47233">
        <ele>1480.1999511719</ele>
        <time>2014-07-26T08:38:01.000Z</time>
      </trkpt>
      <trkpt lat="46.79281" lon="6.47236">
        <ele>1481.1999511719</ele>
        <time>2014-07-26T08:38:07.000Z</time>
      </trkpt>
      <trkpt lat="46.79281" lon="6.47239">
        <ele>1482.1999511719</ele>
        <time>2014-07-26T08:38:14.000Z</time>
      </trkpt>
      <trkpt lat="46.79282" lon="6.47243">
        <ele>1483</ele>
        <time>2014-07-26T08:38:20.000Z</time>
      </trkpt>
      <trkpt lat="46.79283" lon="6.47247">
        <ele>1483.5999755859</ele>
        <time>2014-07-26T08:38:35.000Z</time>
      </trkpt>
      <trkpt lat="46.79281" lon="6.47252">
        <ele>1485.8000488281</ele>
        <time>2014-07-26T08:38:42.000Z</time>
      </trkpt>
      <trkpt lat="46.7928" lon="6.47255">
        <ele>1486.5999755859</ele>
        <time>2014-07-26T08:38:51.000Z</time>
      </trkpt>
      <trkpt lat="46.79277" lon="6.47257">
        <ele>1488.5999755859</ele>
        <time>2014-07-26T08:39:13.000Z</time>
      </trkpt>
      <trkpt lat="46.79275" lon="6.47258">
        <ele>1489.5999755859</ele>
        <time>2014-07-26T08:39:19.000Z</time>
      </trkpt>
      <trkpt lat="46.79274" lon="6.47255">
        <ele>1489.4000244141</ele>
        <time>2014-07-26T08:39:26.000Z</time>
      </trkpt>
      <trkpt lat="46.79271" lon="6.47253">
        <ele>1489.8000488281</ele>
        <time>2014-07-26T08:39:40.000Z</time>
      </trkpt>
      <trkpt lat="46.79269" lon="6.47249">
        <ele>1489.8000488281</ele>
        <time>2014-07-26T08:39:56.000Z</time>
      </trkpt>
      <trkpt lat="46.79266" lon="6.47247">
        <ele>1490.4000244141</ele>
        <time>2014-07-26T08:40:00.000Z</time>
      </trkpt>
      <trkpt lat="46.79264" lon="6.47244">
        <ele>1490.4000244141</ele>
        <time>2014-07-26T08:40:07.000Z</time>
      </trkpt>
      <trkpt lat="46.79262" lon="6.47242">
        <ele>1490.5999755859</ele>
        <time>2014-07-26T08:40:15.000Z</time>
      </trkpt>
      <trkpt lat="46.79264" lon="6.47249">
        <ele>1491.8000488281</ele>
        <time>2014-07-26T08:41:19.000Z</time>
      </trkpt>
      <trkpt lat="46.79263" lon="6.47252">
        <ele>1492.8000488281</ele>
        <time>2014-07-26T08:41:23.000Z</time>
      </trkpt>
      <trkpt lat="46.79261" lon="6.47255">
        <ele>1494.4000244141</ele>
        <time>2014-07-26T08:41:28.000Z</time>
      </trkpt>
      <trkpt lat="46.79261" lon="6.47258">
        <ele>1495.4000244141</ele>
        <time>2014-07-26T08:41:32.000Z</time>
      </trkpt>
      <trkpt lat="46.79261" lon="6.47262">
        <ele>1496</ele>
        <time>2014-07-26T08:41:38.000Z</time>
      </trkpt>
      <trkpt lat="46.79261" lon="6.47264">
        <ele>1496.4000244141</ele>
        <time>2014-07-26T08:41:43.000Z</time>
      </trkpt>
      <trkpt lat="46.79262" lon="6.47265">
        <ele>1496.1999511719</ele>
        <time>2014-07-26T08:41:48.000Z</time>
      </trkpt>
      <trkpt lat="46.7926" lon="6.47266">
        <ele>1497.1999511719</ele>
        <time>2014-07-26T08:41:57.000Z</time>
      </trkpt>
      <trkpt lat="46.7926" lon="6.47268">
        <ele>1497.5999755859</ele>
        <time>2014-07-26T08:42:04.000Z</time>
      </trkpt>
      <trkpt lat="46.79259" lon="6.4727">
        <ele>1498.4000244141</ele>
        <time>2014-07-26T08:42:11.000Z</time>
      </trkpt>
      <trkpt lat="46.79259" lon="6.47274">
        <ele>1499</ele>
        <time>2014-07-26T08:42:20.000Z</time>
      </trkpt>
      <trkpt lat="46.7926" lon="6.47277">
        <ele>1499.5999755859</ele>
        <time>2014-07-26T08:42:25.000Z</time>
      </trkpt>
      <trkpt lat="46.79259" lon="6.47283">
        <ele>1501</ele>
        <time>2014-07-26T08:42:31.000Z</time>
      </trkpt>
      <trkpt lat="46.79257" lon="6.47287">
        <ele>1502.5999755859</ele>
        <time>2014-07-26T08:42:37.000Z</time>
      </trkpt>
      <trkpt lat="46.79256" lon="6.47293">
        <ele>1504</ele>
        <time>2014-07-26T08:42:42.000Z</time>
      </trkpt>
      <trkpt lat="46.79256" lon="6.47298">
        <ele>1505</ele>
        <time>2014-07-26T08:42:48.000Z</time>
      </trkpt>
      <trkpt lat="46.79256" lon="6.47303">
        <ele>1506.1999511719</ele>
        <time>2014-07-26T08:42:53.000Z</time>
      </trkpt>
      <trkpt lat="46.79258" lon="6.47312">
        <ele>1507.1999511719</ele>
        <time>2014-07-26T08:43:00.000Z</time>
      </trkpt>
      <trkpt lat="46.79259" lon="6.47319">
        <ele>1508.1999511719</ele>
        <time>2014-07-26T08:43:06.000Z</time>
      </trkpt>
      <trkpt lat="46.79256" lon="6.47324">
        <ele>1510.1999511719</ele>
        <time>2014-07-26T08:43:13.000Z</time>
      </trkpt>
      <trkpt lat="46.79255" lon="6.47327">
        <ele>1511.1999511719</ele>
        <time>2014-07-26T08:43:20.000Z</time>
      </trkpt>
      <trkpt lat="46.79251" lon="6.47327">
        <ele>1512.5999755859</ele>
        <time>2014-07-26T08:43:25.000Z</time>
      </trkpt>
      <trkpt lat="46.79247" lon="6.47328">
        <ele>1514</ele>
        <time>2014-07-26T08:43:31.000Z</time>
      </trkpt>
      <trkpt lat="46.79242" lon="6.47327">
        <ele>1515.4000244141</ele>
        <time>2014-07-26T08:43:40.000Z</time>
      </trkpt>
      <trkpt lat="46.79239" lon="6.47329">
        <ele>1516.5999755859</ele>
        <time>2014-07-26T08:43:48.000Z</time>
      </trkpt>
      <trkpt lat="46.79237" lon="6.47334">
        <ele>1517.5999755859</ele>
        <time>2014-07-26T08:43:55.000Z</time>
      </trkpt>
      <trkpt lat="46.79236" lon="6.47336">
        <ele>1518</ele>
        <time>2014-07-26T08:44:00.000Z</time>
      </trkpt>
      <trkpt lat="46.79233" lon="6.47334">
        <ele>1517.8000488281</ele>
        <time>2014-07-26T08:44:11.000Z</time>
      </trkpt>
      <trkpt lat="46.7923" lon="6.47332">
        <ele>1517.5999755859</ele>
        <time>2014-07-26T08:44:20.000Z</time>
      </trkpt>
      <trkpt lat="46.79228" lon="6.4733">
        <ele>1517.4000244141</ele>
        <time>2014-07-26T08:44:27.000Z</time>
      </trkpt>
      <trkpt lat="46.79225" lon="6.47335">
        <ele>1518.1999511719</ele>
        <time>2014-07-26T08:44:36.000Z</time>
      </trkpt>
      <trkpt lat="46.79224" lon="6.47337">
        <ele>1518.5999755859</ele>
        <time>2014-07-26T08:44:41.000Z</time>
      </trkpt>
      <trkpt lat="46.79221" lon="6.47341">
        <ele>1519.1999511719</ele>
        <time>2014-07-26T08:44:46.000Z</time>
      </trkpt>
      <trkpt lat="46.79219" lon="6.4734">
        <ele>1519</ele>
        <time>2014-07-26T08:44:54.000Z</time>
      </trkpt>
      <trkpt lat="46.79216" lon="6.47338">
        <ele>1518.8000488281</ele>
        <time>2014-07-26T08:45:00.000Z</time>
      </trkpt>
      <trkpt lat="46.79211" lon="6.47329">
        <ele>1517.8000488281</ele>
        <time>2014-07-26T08:45:18.000Z</time>
      </trkpt>
      <trkpt lat="46.79209" lon="6.47327">
        <ele>1517.5999755859</ele>
        <time>2014-07-26T08:45:23.000Z</time>
      </trkpt>
      <trkpt lat="46.79207" lon="6.47323">
        <ele>1517.1999511719</ele>
        <time>2014-07-26T08:45:27.000Z</time>
      </trkpt>
      <trkpt lat="46.79203" lon="6.47317">
        <ele>1516.4000244141</ele>
        <time>2014-07-26T08:45:36.000Z</time>
      </trkpt>
      <trkpt lat="46.79201" lon="6.47313">
        <ele>1516.5999755859</ele>
        <time>2014-07-26T08:45:38.000Z</time>
      </trkpt>
      <trkpt lat="46.792" lon="6.47308">
        <ele>1517</ele>
        <time>2014-07-26T08:45:45.000Z</time>
      </trkpt>
      <trkpt lat="46.79198" lon="6.47304">
        <ele>1517.4000244141</ele>
        <time>2014-07-26T08:45:50.000Z</time>
      </trkpt>
      <trkpt lat="46.79196" lon="6.47301">
        <ele>1517.8000488281</ele>
        <time>2014-07-26T08:45:55.000Z</time>
      </trkpt>
      <trkpt lat="46.79195" lon="6.47298">
        <ele>1518</ele>
        <time>2014-07-26T08:46:01.000Z</time>
      </trkpt>
      <trkpt lat="46.79192" lon="6.47291">
        <ele>1518.8000488281</ele>
        <time>2014-07-26T08:46:09.000Z</time>
      </trkpt>
      <trkpt lat="46.7919" lon="6.47288">
        <ele>1519.1999511719</ele>
        <time>2014-07-26T08:46:14.000Z</time>
      </trkpt>
      <trkpt lat="46.79189" lon="6.47285">
        <ele>1519.4000244141</ele>
        <time>2014-07-26T08:46:20.000Z</time>
      </trkpt>
      <trkpt lat="46.79186" lon="6.47281">
        <ele>1519.8000488281</ele>
        <time>2014-07-26T08:46:28.000Z</time>
      </trkpt>
      <trkpt lat="46.7918" lon="6.4728">
        <ele>1520.1999511719</ele>
        <time>2014-07-26T08:46:40.000Z</time>
      </trkpt>
      <trkpt lat="46.79178" lon="6.47278">
        <ele>1520.4000244141</ele>
        <time>2014-07-26T08:46:44.000Z</time>
      </trkpt>
      <trkpt lat="46.79175" lon="6.47276">
        <ele>1520.5999755859</ele>
        <time>2014-07-26T08:46:50.000Z</time>
      </trkpt>
      <trkpt lat="46.79172" lon="6.47273">
        <ele>1521</ele>
        <time>2014-07-26T08:46:56.000Z</time>
      </trkpt>
      <trkpt lat="46.79168" lon="6.47269">
        <ele>1521.4000244141</ele>
        <time>2014-07-26T08:47:03.000Z</time>
      </trkpt>
      <trkpt lat="46.79164" lon="6.47266">
        <ele>1521.8000488281</ele>
        <time>2014-07-26T08:47:10.000Z</time>
      </trkpt>
      <trkpt lat="46.79161" lon="6.47265">
        <ele>1522.1999511719</ele>
        <time>2014-07-26T08:47:17.000Z</time>
      </trkpt>
      <trkpt lat="46.79161" lon="6.47266">
        <ele>1522</ele>
        <time>2014-07-26T08:47:26.000Z</time>
      </trkpt>
      <trkpt lat="46.79157" lon="6.47264">
        <ele>1522.4000244141</ele>
        <time>2014-07-26T08:47:33.000Z</time>
      </trkpt>
      <trkpt lat="46.79156" lon="6.47263">
        <ele>1522.4000244141</ele>
        <time>2014-07-26T08:47:38.000Z</time>
      </trkpt>
      <trkpt lat="46.79153" lon="6.47261">
        <ele>1521.5999755859</ele>
        <time>2014-07-26T08:47:43.000Z</time>
      </trkpt>
      <trkpt lat="46.79151" lon="6.47259">
        <ele>1520.5999755859</ele>
        <time>2014-07-26T08:47:48.000Z</time>
      </trkpt>
      <trkpt lat="46.79148" lon="6.47258">
        <ele>1519</ele>
        <time>2014-07-26T08:47:55.000Z</time>
      </trkpt>
      <trkpt lat="46.79145" lon="6.4726">
        <ele>1517.4000244141</ele>
        <time>2014-07-26T08:48:03.000Z</time>
      </trkpt>
      <trkpt lat="46.79142" lon="6.47261">
        <ele>1515.4000244141</ele>
        <time>2014-07-26T08:48:09.000Z</time>
      </trkpt>
      <trkpt lat="46.79136" lon="6.47258">
        <ele>1512.4000244141</ele>
        <time>2014-07-26T08:48:16.000Z</time>
      </trkpt>
      <trkpt lat="46.79133" lon="6.47254">
        <ele>1511.4000244141</ele>
        <time>2014-07-26T08:48:22.000Z</time>
      </trkpt>
      <trkpt lat="46.7913" lon="6.47249">
        <ele>1509.8000488281</ele>
        <time>2014-07-26T08:48:30.000Z</time>
      </trkpt>
      <trkpt lat="46.79128" lon="6.47246">
        <ele>1508.8000488281</ele>
        <time>2014-07-26T08:48:38.000Z</time>
      </trkpt>
      <trkpt lat="46.79124" lon="6.4724">
        <ele>1507.1999511719</ele>
        <time>2014-07-26T08:48:55.000Z</time>
      </trkpt>
      <trkpt lat="46.79121" lon="6.47239">
        <ele>1505.8000488281</ele>
        <time>2014-07-26T08:49:02.000Z</time>
      </trkpt>
      <trkpt lat="46.79118" lon="6.47239">
        <ele>1504</ele>
        <time>2014-07-26T08:49:26.000Z</time>
      </trkpt>
      <trkpt lat="46.79117" lon="6.4724">
        <ele>1503.8000488281</ele>
        <time>2014-07-26T08:49:35.000Z</time>
      </trkpt>
      <trkpt lat="46.7912" lon="6.47237">
        <ele>1505.1999511719</ele>
        <time>2014-07-26T08:53:27.000Z</time>
      </trkpt>
      <trkpt lat="46.79119" lon="6.47238">
        <ele>1505</ele>
        <time>2014-07-26T08:53:45.000Z</time>
      </trkpt>
      <trkpt lat="46.79119" lon="6.47239">
        <ele>1505</ele>
        <time>2014-07-26T08:54:13.000Z</time>
      </trkpt>
      <trkpt lat="46.79119" lon="6.47239">
        <ele>1504.8000488281</ele>
        <time>2014-07-26T08:54:27.000Z</time>
      </trkpt>
      <trkpt lat="46.7912" lon="6.47237">
        <ele>1505.1999511719</ele>
        <time>2014-07-26T08:55:41.000Z</time>
      </trkpt>
      <trkpt lat="46.79122" lon="6.47239">
        <ele>1506.1999511719</ele>
        <time>2014-07-26T08:55:53.000Z</time>
      </trkpt>
      <trkpt lat="46.79124" lon="6.47248">
        <ele>1506.5999755859</ele>
        <time>2014-07-26T08:56:04.000Z</time>
      </trkpt>
      <trkpt lat="46.79126" lon="6.47251">
        <ele>1507.4000244141</ele>
        <time>2014-07-26T08:56:08.000Z</time>
      </trkpt>
      <trkpt lat="46.79128" lon="6.47258">
        <ele>1508</ele>
        <time>2014-07-26T08:56:13.000Z</time>
      </trkpt>
      <trkpt lat="46.79129" lon="6.47262">
        <ele>1508.1999511719</ele>
        <time>2014-07-26T08:56:19.000Z</time>
      </trkpt>
      <trkpt lat="46.79129" lon="6.47266">
        <ele>1508.1999511719</ele>
        <time>2014-07-26T08:57:03.000Z</time>
      </trkpt>
      <trkpt lat="46.79136" lon="6.47279">
        <ele>1511</ele>
        <time>2014-07-26T08:57:12.000Z</time>
      </trkpt>
      <trkpt lat="46.7914" lon="6.47286">
        <ele>1512.1999511719</ele>
        <time>2014-07-26T08:57:17.000Z</time>
      </trkpt>
      <trkpt lat="46.79144" lon="6.4729">
        <ele>1514.4000244141</ele>
        <time>2014-07-26T08:57:21.000Z</time>
      </trkpt>
      <trkpt lat="46.79151" lon="6.47297">
        <ele>1517.4000244141</ele>
        <time>2014-07-26T08:57:27.000Z</time>
      </trkpt>
      <trkpt lat="46.79154" lon="6.47303">
        <ele>1518.8000488281</ele>
        <time>2014-07-26T08:57:33.000Z</time>
      </trkpt>
      <trkpt lat="46.79154" lon="6.47305">
        <ele>1518.8000488281</ele>
        <time>2014-07-26T08:57:34.000Z</time>
      </trkpt>
      <trkpt lat="46.79158" lon="6.47313">
        <ele>1518.1999511719</ele>
        <time>2014-07-26T08:57:40.000Z</time>
      </trkpt>
      <trkpt lat="46.79161" lon="6.47317">
        <ele>1517.8000488281</ele>
        <time>2014-07-26T08:57:43.000Z</time>
      </trkpt>
      <trkpt lat="46.79162" lon="6.47319">
        <ele>1518</ele>
        <time>2014-07-26T08:57:45.000Z</time>
      </trkpt>
      <trkpt lat="46.79163" lon="6.47325">
        <ele>1518.8000488281</ele>
        <time>2014-07-26T08:57:49.000Z</time>
      </trkpt>
      <trkpt lat="46.79167" lon="6.47333">
        <ele>1518.8000488281</ele>
        <time>2014-07-26T08:57:56.000Z</time>
      </trkpt>
      <trkpt lat="46.79172" lon="6.47344">
        <ele>1518.8000488281</ele>
        <time>2014-07-26T08:58:03.000Z</time>
      </trkpt>
      <trkpt lat="46.79176" lon="6.47351">
        <ele>1518.8000488281</ele>
        <time>2014-07-26T08:58:07.000Z</time>
      </trkpt>
      <trkpt lat="46.79177" lon="6.47354">
        <ele>1518.5999755859</ele>
        <time>2014-07-26T08:58:09.000Z</time>
      </trkpt>
      <trkpt lat="46.79181" lon="6.4736">
        <ele>1519</ele>
        <time>2014-07-26T08:58:13.000Z</time>
      </trkpt>
      <trkpt lat="46.79188" lon="6.47368">
        <ele>1519.5999755859</ele>
        <time>2014-07-26T08:58:21.000Z</time>
      </trkpt>
      <trkpt lat="46.7919" lon="6.47373">
        <ele>1519.4000244141</ele>
        <time>2014-07-26T08:58:27.000Z</time>
      </trkpt>
      <trkpt lat="46.79191" lon="6.47376">
        <ele>1519.4000244141</ele>
        <time>2014-07-26T08:58:29.000Z</time>
      </trkpt>
      <trkpt lat="46.79194" lon="6.47382">
        <ele>1519.4000244141</ele>
        <time>2014-07-26T08:58:37.000Z</time>
      </trkpt>
      <trkpt lat="46.79196" lon="6.47386">
        <ele>1519.4000244141</ele>
        <time>2014-07-26T08:58:43.000Z</time>
      </trkpt>
      <trkpt lat="46.79199" lon="6.4739">
        <ele>1519.5999755859</ele>
        <time>2014-07-26T08:58:51.000Z</time>
      </trkpt>
      <trkpt lat="46.792" lon="6.47391">
        <ele>1519.5999755859</ele>
        <time>2014-07-26T08:58:57.000Z</time>
      </trkpt>
      <trkpt lat="46.79201" lon="6.47395">
        <ele>1519.5999755859</ele>
        <time>2014-07-26T08:59:02.000Z</time>
      </trkpt>
      <trkpt lat="46.79202" lon="6.47401">
        <ele>1519.1999511719</ele>
        <time>2014-07-26T08:59:07.000Z</time>
      </trkpt>
      <trkpt lat="46.79203" lon="6.47406">
        <ele>1519.4000244141</ele>
        <time>2014-07-26T08:59:12.000Z</time>
      </trkpt>
      <trkpt lat="46.79202" lon="6.47409">
        <ele>1519.4000244141</ele>
        <time>2014-07-26T08:59:17.000Z</time>
      </trkpt>
      <trkpt lat="46.79202" lon="6.47416">
        <ele>1519.4000244141</ele>
        <time>2014-07-26T08:59:24.000Z</time>
      </trkpt>
      <trkpt lat="46.79202" lon="6.4742">
        <ele>1519.4000244141</ele>
        <time>2014-07-26T08:59:29.000Z</time>
      </trkpt>
      <trkpt lat="46.79203" lon="6.47424">
        <ele>1519.5999755859</ele>
        <time>2014-07-26T08:59:35.000Z</time>
      </trkpt>
      <trkpt lat="46.79204" lon="6.47429">
        <ele>1519.8000488281</ele>
        <time>2014-07-26T08:59:40.000Z</time>
      </trkpt>
      <trkpt lat="46.79205" lon="6.47437">
        <ele>1520.1999511719</ele>
        <time>2014-07-26T08:59:47.000Z</time>
      </trkpt>
      <trkpt lat="46.79207" lon="6.47446">
        <ele>1520.5999755859</ele>
        <time>2014-07-26T08:59:53.000Z</time>
      </trkpt>
      <trkpt lat="46.79205" lon="6.47451">
        <ele>1520.4000244141</ele>
        <time>2014-07-26T08:59:58.000Z</time>
      </trkpt>
      <trkpt lat="46.79204" lon="6.47453">
        <ele>1519.5999755859</ele>
        <time>2014-07-26T09:00:05.000Z</time>
      </trkpt>
      <trkpt lat="46.79203" lon="6.47456">
        <ele>1518.8000488281</ele>
        <time>2014-07-26T09:00:13.000Z</time>
      </trkpt>
      <trkpt lat="46.79204" lon="6.47459">
        <ele>1518.4000244141</ele>
        <time>2014-07-26T09:00:18.000Z</time>
      </trkpt>
      <trkpt lat="46.79205" lon="6.47464">
        <ele>1518.1999511719</ele>
        <time>2014-07-26T09:00:22.000Z</time>
      </trkpt>
      <trkpt lat="46.79206" lon="6.47468">
        <ele>1517.8000488281</ele>
        <time>2014-07-26T09:00:26.000Z</time>
      </trkpt>
      <trkpt lat="46.79208" lon="6.47471">
        <ele>1517.8000488281</ele>
        <time>2014-07-26T09:00:28.000Z</time>
      </trkpt>
      <trkpt lat="46.79209" lon="6.47474">
        <ele>1517.8000488281</ele>
        <time>2014-07-26T09:00:33.000Z</time>
      </trkpt>
      <trkpt lat="46.79211" lon="6.47481">
        <ele>1517.8000488281</ele>
        <time>2014-07-26T09:00:40.000Z</time>
      </trkpt>
      <trkpt lat="46.79212" lon="6.47484">
        <ele>1517.4000244141</ele>
        <time>2014-07-26T09:00:42.000Z</time>
      </trkpt>
      <trkpt lat="46.79211" lon="6.47488">
        <ele>1516.5999755859</ele>
        <time>2014-07-26T09:00:45.000Z</time>
      </trkpt>
      <trkpt lat="46.79213" lon="6.47494">
        <ele>1516.5999755859</ele>
        <time>2014-07-26T09:00:51.000Z</time>
      </trkpt>
      <trkpt lat="46.79213" lon="6.47495">
        <ele>1516.4000244141</ele>
        <time>2014-07-26T09:00:55.000Z</time>
      </trkpt>
      <trkpt lat="46.79214" lon="6.475">
        <ele>1516.1999511719</ele>
        <time>2014-07-26T09:01:00.000Z</time>
      </trkpt>
      <trkpt lat="46.79216" lon="6.47502">
        <ele>1516.5999755859</ele>
        <time>2014-07-26T09:01:03.000Z</time>
      </trkpt>
      <trkpt lat="46.7922" lon="6.47509">
        <ele>1517.4000244141</ele>
        <time>2014-07-26T09:01:08.000Z</time>
      </trkpt>
      <trkpt lat="46.79223" lon="6.47513">
        <ele>1518</ele>
        <time>2014-07-26T09:01:11.000Z</time>
      </trkpt>
      <trkpt lat="46.79225" lon="6.47516">
        <ele>1518.4000244141</ele>
        <time>2014-07-26T09:01:15.000Z</time>
      </trkpt>
      <trkpt lat="46.79226" lon="6.47517">
        <ele>1518.8000488281</ele>
        <time>2014-07-26T09:01:17.000Z</time>
      </trkpt>
      <trkpt lat="46.79229" lon="6.47522">
        <ele>1519.1999511719</ele>
        <time>2014-07-26T09:01:24.000Z</time>
      </trkpt>
      <trkpt lat="46.79231" lon="6.47526">
        <ele>1519.5999755859</ele>
        <time>2014-07-26T09:01:30.000Z</time>
      </trkpt>
      <trkpt lat="46.79234" lon="6.47529">
        <ele>1520.1999511719</ele>
        <time>2014-07-26T09:01:37.000Z</time>
      </trkpt>
      <trkpt lat="46.79237" lon="6.47529">
        <ele>1521.5999755859</ele>
        <time>2014-07-26T09:01:46.000Z</time>
      </trkpt>
      <trkpt lat="46.79241" lon="6.47531">
        <ele>1521.4000244141</ele>
        <time>2014-07-26T09:01:54.000Z</time>
      </trkpt>
      <trkpt lat="46.79245" lon="6.47535">
        <ele>1520.1999511719</ele>
        <time>2014-07-26T09:02:07.000Z</time>
      </trkpt>
      <trkpt lat="46.79245" lon="6.47539">
        <ele>1519.8000488281</ele>
        <time>2014-07-26T09:02:09.000Z</time>
      </trkpt>
      <trkpt lat="46.79245" lon="6.47545">
        <ele>1519</ele>
        <time>2014-07-26T09:02:15.000Z</time>
      </trkpt>
      <trkpt lat="46.79245" lon="6.47546">
        <ele>1518.8000488281</ele>
        <time>2014-07-26T09:02:16.000Z</time>
      </trkpt>
      <trkpt lat="46.79245" lon="6.47554">
        <ele>1518</ele>
        <time>2014-07-26T09:02:23.000Z</time>
      </trkpt>
      <trkpt lat="46.79246" lon="6.47556">
        <ele>1517.4000244141</ele>
        <time>2014-07-26T09:02:29.000Z</time>
      </trkpt>
      <trkpt lat="46.79247" lon="6.47559">
        <ele>1517</ele>
        <time>2014-07-26T09:02:34.000Z</time>
      </trkpt>
      <trkpt lat="46.79248" lon="6.47562">
        <ele>1516.4000244141</ele>
        <time>2014-07-26T09:02:38.000Z</time>
      </trkpt>
      <trkpt lat="46.79252" lon="6.47564">
        <ele>1515.5999755859</ele>
        <time>2014-07-26T09:02:44.000Z</time>
      </trkpt>
      <trkpt lat="46.79253" lon="6.47566">
        <ele>1515.1999511719</ele>
        <time>2014-07-26T09:02:50.000Z</time>
      </trkpt>
      <trkpt lat="46.79255" lon="6.47569">
        <ele>1515</ele>
        <time>2014-07-26T09:02:57.000Z</time>
      </trkpt>
      <trkpt lat="46.79257" lon="6.47571">
        <ele>1515</ele>
        <time>2014-07-26T09:03:02.000Z</time>
      </trkpt>
      <trkpt lat="46.79258" lon="6.47572">
        <ele>1514.8000488281</ele>
        <time>2014-07-26T09:03:04.000Z</time>
      </trkpt>
      <trkpt lat="46.79261" lon="6.47576">
        <ele>1514.5999755859</ele>
        <time>2014-07-26T09:03:08.000Z</time>
      </trkpt>
      <trkpt lat="46.79263" lon="6.4758">
        <ele>1514.5999755859</ele>
        <time>2014-07-26T09:03:12.000Z</time>
      </trkpt>
      <trkpt lat="46.79268" lon="6.47587">
        <ele>1514.1999511719</ele>
        <time>2014-07-26T09:03:19.000Z</time>
      </trkpt>
      <trkpt lat="46.79269" lon="6.47589">
        <ele>1514.1999511719</ele>
        <time>2014-07-26T09:03:20.000Z</time>
      </trkpt>
      <trkpt lat="46.79269" lon="6.47594">
        <ele>1514.1999511719</ele>
        <time>2014-07-26T09:03:25.000Z</time>
      </trkpt>
      <trkpt lat="46.79268" lon="6.47599">
        <ele>1514.1999511719</ele>
        <time>2014-07-26T09:03:33.000Z</time>
      </trkpt>
      <trkpt lat="46.79264" lon="6.47602">
        <ele>1514</ele>
        <time>2014-07-26T09:03:47.000Z</time>
      </trkpt>
      <trkpt lat="46.79263" lon="6.47604">
        <ele>1513.8000488281</ele>
        <time>2014-07-26T09:03:56.000Z</time>
      </trkpt>
      <trkpt lat="46.79265" lon="6.47606">
        <ele>1513.5999755859</ele>
        <time>2014-07-26T09:04:07.000Z</time>
      </trkpt>
      <trkpt lat="46.79262" lon="6.47609">
        <ele>1513.4000244141</ele>
        <time>2014-07-26T09:04:58.000Z</time>
      </trkpt>
      <trkpt lat="46.79263" lon="6.47611">
        <ele>1513.1999511719</ele>
        <time>2014-07-26T09:05:37.000Z</time>
      </trkpt>
      <trkpt lat="46.79263" lon="6.4761">
        <ele>1513.4000244141</ele>
        <time>2014-07-26T09:05:46.000Z</time>
      </trkpt>
      <trkpt lat="46.79264" lon="6.47609">
        <ele>1513.4000244141</ele>
        <time>2014-07-26T09:05:54.000Z</time>
      </trkpt>
      <trkpt lat="46.79263" lon="6.4761">
        <ele>1513.4000244141</ele>
        <time>2014-07-26T09:06:04.000Z</time>
      </trkpt>
      <trkpt lat="46.7926" lon="6.47609">
        <ele>1513.4000244141</ele>
        <time>2014-07-26T09:07:05.000Z</time>
      </trkpt>
      <trkpt lat="46.79257" lon="6.47615">
        <ele>1513</ele>
        <time>2014-07-26T09:07:18.000Z</time>
      </trkpt>
      <trkpt lat="46.79255" lon="6.47621">
        <ele>1512.4000244141</ele>
        <time>2014-07-26T09:07:25.000Z</time>
      </trkpt>
      <trkpt lat="46.79256" lon="6.4763">
        <ele>1511.5999755859</ele>
        <time>2014-07-26T09:07:32.000Z</time>
      </trkpt>
      <trkpt lat="46.79256" lon="6.47635">
        <ele>1511.1999511719</ele>
        <time>2014-07-26T09:07:36.000Z</time>
      </trkpt>
      <trkpt lat="46.79257" lon="6.47645">
        <ele>1510.4000244141</ele>
        <time>2014-07-26T09:07:47.000Z</time>
      </trkpt>
      <trkpt lat="46.79261" lon="6.47649">
        <ele>1510</ele>
        <time>2014-07-26T09:07:53.000Z</time>
      </trkpt>
      <trkpt lat="46.79265" lon="6.47653">
        <ele>1510</ele>
        <time>2014-07-26T09:07:57.000Z</time>
      </trkpt>
      <trkpt lat="46.79265" lon="6.47654">
        <ele>1510</ele>
        <time>2014-07-26T09:07:58.000Z</time>
      </trkpt>
      <trkpt lat="46.79268" lon="6.47663">
        <ele>1510</ele>
        <time>2014-07-26T09:08:04.000Z</time>
      </trkpt>
      <trkpt lat="46.7927" lon="6.4767">
        <ele>1510</ele>
        <time>2014-07-26T09:08:11.000Z</time>
      </trkpt>
      <trkpt lat="46.79271" lon="6.47674">
        <ele>1510</ele>
        <time>2014-07-26T09:08:15.000Z</time>
      </trkpt>
      <trkpt lat="46.79271" lon="6.47681">
        <ele>1510</ele>
        <time>2014-07-26T09:08:22.000Z</time>
      </trkpt>
      <trkpt lat="46.79272" lon="6.47686">
        <ele>1509.5999755859</ele>
        <time>2014-07-26T09:08:30.000Z</time>
      </trkpt>
      <trkpt lat="46.79274" lon="6.47688">
        <ele>1509.5999755859</ele>
        <time>2014-07-26T09:08:43.000Z</time>
      </trkpt>
      <trkpt lat="46.79278" lon="6.47692">
        <ele>1509.4000244141</ele>
        <time>2014-07-26T09:08:50.000Z</time>
      </trkpt>
      <trkpt lat="46.79279" lon="6.477">
        <ele>1508</ele>
        <time>2014-07-26T09:08:57.000Z</time>
      </trkpt>
      <trkpt lat="46.79279" lon="6.47705">
        <ele>1507.1999511719</ele>
        <time>2014-07-26T09:09:03.000Z</time>
      </trkpt>
      <trkpt lat="46.79278" lon="6.47711">
        <ele>1505.8000488281</ele>
        <time>2014-07-26T09:09:09.000Z</time>
      </trkpt>
      <trkpt lat="46.7928" lon="6.47717">
        <ele>1505.1999511719</ele>
        <time>2014-07-26T09:09:17.000Z</time>
      </trkpt>
      <trkpt lat="46.79282" lon="6.4772">
        <ele>1504.8000488281</ele>
        <time>2014-07-26T09:09:23.000Z</time>
      </trkpt>
      <trkpt lat="46.79284" lon="6.47723">
        <ele>1504.8000488281</ele>
        <time>2014-07-26T09:09:29.000Z</time>
      </trkpt>
      <trkpt lat="46.79286" lon="6.47729">
        <ele>1503.8000488281</ele>
        <time>2014-07-26T09:09:35.000Z</time>
      </trkpt>
      <trkpt lat="46.79287" lon="6.47733">
        <ele>1503.4000244141</ele>
        <time>2014-07-26T09:09:42.000Z</time>
      </trkpt>
      <trkpt lat="46.79291" lon="6.4774">
        <ele>1503.5999755859</ele>
        <time>2014-07-26T09:09:52.000Z</time>
      </trkpt>
      <trkpt lat="46.79297" lon="6.47746">
        <ele>1504</ele>
        <time>2014-07-26T09:09:57.000Z</time>
      </trkpt>
      <trkpt lat="46.79301" lon="6.47754">
        <ele>1504</ele>
        <time>2014-07-26T09:10:03.000Z</time>
      </trkpt>
      <trkpt lat="46.79303" lon="6.47757">
        <ele>1504</ele>
        <time>2014-07-26T09:10:05.000Z</time>
      </trkpt>
      <trkpt lat="46.79305" lon="6.47761">
        <ele>1504.1999511719</ele>
        <time>2014-07-26T09:10:08.000Z</time>
      </trkpt>
      <trkpt lat="46.79307" lon="6.4777">
        <ele>1503.5999755859</ele>
        <time>2014-07-26T09:10:13.000Z</time>
      </trkpt>
      <trkpt lat="46.79306" lon="6.47777">
        <ele>1502.8000488281</ele>
        <time>2014-07-26T09:10:19.000Z</time>
      </trkpt>
      <trkpt lat="46.79306" lon="6.47778">
        <ele>1502.8000488281</ele>
        <time>2014-07-26T09:10:20.000Z</time>
      </trkpt>
      <trkpt lat="46.79306" lon="6.47784">
        <ele>1502.1999511719</ele>
        <time>2014-07-26T09:10:27.000Z</time>
      </trkpt>
      <trkpt lat="46.79308" lon="6.47788">
        <ele>1502</ele>
        <time>2014-07-26T09:10:33.000Z</time>
      </trkpt>
      <trkpt lat="46.79309" lon="6.47793">
        <ele>1501.8000488281</ele>
        <time>2014-07-26T09:10:39.000Z</time>
      </trkpt>
      <trkpt lat="46.79309" lon="6.47799">
        <ele>1501.4000244141</ele>
        <time>2014-07-26T09:10:45.000Z</time>
      </trkpt>
      <trkpt lat="46.7931" lon="6.47803">
        <ele>1501.1999511719</ele>
        <time>2014-07-26T09:10:49.000Z</time>
      </trkpt>
      <trkpt lat="46.79311" lon="6.47806">
        <ele>1501.1999511719</ele>
        <time>2014-07-26T09:10:51.000Z</time>
      </trkpt>
      <trkpt lat="46.79314" lon="6.4781">
        <ele>1501</ele>
        <time>2014-07-26T09:10:56.000Z</time>
      </trkpt>
      <trkpt lat="46.79318" lon="6.47821">
        <ele>1500.1999511719</ele>
        <time>2014-07-26T09:11:04.000Z</time>
      </trkpt>
      <trkpt lat="46.7932" lon="6.47823">
        <ele>1500.1999511719</ele>
        <time>2014-07-26T09:11:06.000Z</time>
      </trkpt>
      <trkpt lat="46.7932" lon="6.47825">
        <ele>1500.1999511719</ele>
        <time>2014-07-26T09:11:08.000Z</time>
      </trkpt>
      <trkpt lat="46.7932" lon="6.47827">
        <ele>1499.8000488281</ele>
        <time>2014-07-26T09:11:10.000Z</time>
      </trkpt>
      <trkpt lat="46.79321" lon="6.4783">
        <ele>1499.5999755859</ele>
        <time>2014-07-26T09:11:14.000Z</time>
      </trkpt>
      <trkpt lat="46.79325" lon="6.47835">
        <ele>1499.4000244141</ele>
        <time>2014-07-26T09:11:20.000Z</time>
      </trkpt>
      <trkpt lat="46.79326" lon="6.47836">
        <ele>1499.4000244141</ele>
        <time>2014-07-26T09:11:21.000Z</time>
      </trkpt>
      <trkpt lat="46.79328" lon="6.47839">
        <ele>1499</ele>
        <time>2014-07-26T09:11:25.000Z</time>
      </trkpt>
      <trkpt lat="46.7933" lon="6.47846">
        <ele>1498.1999511719</ele>
        <time>2014-07-26T09:11:31.000Z</time>
      </trkpt>
      <trkpt lat="46.79336" lon="6.47855">
        <ele>1497.4000244141</ele>
        <time>2014-07-26T09:11:39.000Z</time>
      </trkpt>
      <trkpt lat="46.79337" lon="6.47859">
        <ele>1496.8000488281</ele>
        <time>2014-07-26T09:11:43.000Z</time>
      </trkpt>
      <trkpt lat="46.79342" lon="6.4787">
        <ele>1495.5999755859</ele>
        <time>2014-07-26T09:11:50.000Z</time>
      </trkpt>
      <trkpt lat="46.79343" lon="6.47871">
        <ele>1495.4000244141</ele>
        <time>2014-07-26T09:11:51.000Z</time>
      </trkpt>
      <trkpt lat="46.79347" lon="6.4788">
        <ele>1494.4000244141</ele>
        <time>2014-07-26T09:11:57.000Z</time>
      </trkpt>
      <trkpt lat="46.79347" lon="6.47881">
        <ele>1494.4000244141</ele>
        <time>2014-07-26T09:11:58.000Z</time>
      </trkpt>
      <trkpt lat="46.79353" lon="6.47891">
        <ele>1493.4000244141</ele>
        <time>2014-07-26T09:12:06.000Z</time>
      </trkpt>
      <trkpt lat="46.79357" lon="6.47899">
        <ele>1492.4000244141</ele>
        <time>2014-07-26T09:12:13.000Z</time>
      </trkpt>
      <trkpt lat="46.79362" lon="6.47905">
        <ele>1493.1999511719</ele>
        <time>2014-07-26T09:12:20.000Z</time>
      </trkpt>
      <trkpt lat="46.79363" lon="6.47906">
        <ele>1493.4000244141</ele>
        <time>2014-07-26T09:12:21.000Z</time>
      </trkpt>
      <trkpt lat="46.79367" lon="6.47914">
        <ele>1494.1999511719</ele>
        <time>2014-07-26T09:12:27.000Z</time>
      </trkpt>
      <trkpt lat="46.79368" lon="6.47915">
        <ele>1494.4000244141</ele>
        <time>2014-07-26T09:12:28.000Z</time>
      </trkpt>
      <trkpt lat="46.7937" lon="6.47922">
        <ele>1495</ele>
        <time>2014-07-26T09:12:34.000Z</time>
      </trkpt>
      <trkpt lat="46.79371" lon="6.47924">
        <ele>1495.1999511719</ele>
        <time>2014-07-26T09:12:36.000Z</time>
      </trkpt>
      <trkpt lat="46.79374" lon="6.47935">
        <ele>1496.1999511719</ele>
        <time>2014-07-26T09:12:44.000Z</time>
      </trkpt>
      <trkpt lat="46.79374" lon="6.47937">
        <ele>1496.1999511719</ele>
        <time>2014-07-26T09:12:45.000Z</time>
      </trkpt>
      <trkpt lat="46.79378" lon="6.47949">
        <ele>1497.4000244141</ele>
        <time>2014-07-26T09:12:54.000Z</time>
      </trkpt>
      <trkpt lat="46.7938" lon="6.47957">
        <ele>1498</ele>
        <time>2014-07-26T09:13:00.000Z</time>
      </trkpt>
      <trkpt lat="46.79382" lon="6.47961">
        <ele>1498.4000244141</ele>
        <time>2014-07-26T09:13:04.000Z</time>
      </trkpt>
      <trkpt lat="46.79385" lon="6.47968">
        <ele>1498</ele>
        <time>2014-07-26T09:13:11.000Z</time>
      </trkpt>
      <trkpt lat="46.79386" lon="6.47975">
        <ele>1497.5999755859</ele>
        <time>2014-07-26T09:13:18.000Z</time>
      </trkpt>
      <trkpt lat="46.79386" lon="6.4798">
        <ele>1496.8000488281</ele>
        <time>2014-07-26T09:13:24.000Z</time>
      </trkpt>
      <trkpt lat="46.79386" lon="6.47984">
        <ele>1496.4000244141</ele>
        <time>2014-07-26T09:13:29.000Z</time>
      </trkpt>
      <trkpt lat="46.79388" lon="6.47987">
        <ele>1497</ele>
        <time>2014-07-26T09:13:34.000Z</time>
      </trkpt>
      <trkpt lat="46.79391" lon="6.47991">
        <ele>1497.8000488281</ele>
        <time>2014-07-26T09:13:39.000Z</time>
      </trkpt>
      <trkpt lat="46.79393" lon="6.47999">
        <ele>1498.4000244141</ele>
        <time>2014-07-26T09:13:49.000Z</time>
      </trkpt>
      <trkpt lat="46.79396" lon="6.48007">
        <ele>1499</ele>
        <time>2014-07-26T09:13:57.000Z</time>
      </trkpt>
      <trkpt lat="46.79399" lon="6.48013">
        <ele>1499.8000488281</ele>
        <time>2014-07-26T09:14:02.000Z</time>
      </trkpt>
      <trkpt lat="46.794" lon="6.48015">
        <ele>1500.1999511719</ele>
        <time>2014-07-26T09:14:04.000Z</time>
      </trkpt>
      <trkpt lat="46.79402" lon="6.48022">
        <ele>1500.8000488281</ele>
        <time>2014-07-26T09:14:10.000Z</time>
      </trkpt>
      <trkpt lat="46.79403" lon="6.48024">
        <ele>1501</ele>
        <time>2014-07-26T09:14:12.000Z</time>
      </trkpt>
      <trkpt lat="46.79406" lon="6.4803">
        <ele>1501.4000244141</ele>
        <time>2014-07-26T09:14:18.000Z</time>
      </trkpt>
      <trkpt lat="46.79409" lon="6.48036">
        <ele>1501.1999511719</ele>
        <time>2014-07-26T09:14:24.000Z</time>
      </trkpt>
      <trkpt lat="46.79412" lon="6.48044">
        <ele>1501</ele>
        <time>2014-07-26T09:14:30.000Z</time>
      </trkpt>
      <trkpt lat="46.79415" lon="6.48049">
        <ele>1501</ele>
        <time>2014-07-26T09:14:34.000Z</time>
      </trkpt>
      <trkpt lat="46.79415" lon="6.4805">
        <ele>1501</ele>
        <time>2014-07-26T09:14:35.000Z</time>
      </trkpt>
      <trkpt lat="46.79418" lon="6.48054">
        <ele>1500.8000488281</ele>
        <time>2014-07-26T09:14:40.000Z</time>
      </trkpt>
      <trkpt lat="46.79422" lon="6.48064">
        <ele>1500.5999755859</ele>
        <time>2014-07-26T09:14:48.000Z</time>
      </trkpt>
      <trkpt lat="46.79423" lon="6.48067">
        <ele>1500.5999755859</ele>
        <time>2014-07-26T09:14:51.000Z</time>
      </trkpt>
      <trkpt lat="46.79424" lon="6.48078">
        <ele>1501.8000488281</ele>
        <time>2014-07-26T09:14:59.000Z</time>
      </trkpt>
      <trkpt lat="46.79424" lon="6.48079">
        <ele>1502</ele>
        <time>2014-07-26T09:15:00.000Z</time>
      </trkpt>
      <trkpt lat="46.79426" lon="6.48085">
        <ele>1502.8000488281</ele>
        <time>2014-07-26T09:15:05.000Z</time>
      </trkpt>
      <trkpt lat="46.79426" lon="6.48086">
        <ele>1502.8000488281</ele>
        <time>2014-07-26T09:15:06.000Z</time>
      </trkpt>
      <trkpt lat="46.79428" lon="6.48092">
        <ele>1502.8000488281</ele>
        <time>2014-07-26T09:15:12.000Z</time>
      </trkpt>
      <trkpt lat="46.79429" lon="6.48095">
        <ele>1502.5999755859</ele>
        <time>2014-07-26T09:15:14.000Z</time>
      </trkpt>
      <trkpt lat="46.79431" lon="6.48098">
        <ele>1502.4000244141</ele>
        <time>2014-07-26T09:15:18.000Z</time>
      </trkpt>
      <trkpt lat="46.79433" lon="6.48102">
        <ele>1502.1999511719</ele>
        <time>2014-07-26T09:15:22.000Z</time>
      </trkpt>
      <trkpt lat="46.79433" lon="6.48104">
        <ele>1502.1999511719</ele>
        <time>2014-07-26T09:15:24.000Z</time>
      </trkpt>
      <trkpt lat="46.79435" lon="6.48107">
        <ele>1502.1999511719</ele>
        <time>2014-07-26T09:15:26.000Z</time>
      </trkpt>
      <trkpt lat="46.79437" lon="6.48114">
        <ele>1501.4000244141</ele>
        <time>2014-07-26T09:15:31.000Z</time>
      </trkpt>
      <trkpt lat="46.79438" lon="6.48119">
        <ele>1500.8000488281</ele>
        <time>2014-07-26T09:15:35.000Z</time>
      </trkpt>
      <trkpt lat="46.79441" lon="6.48123">
        <ele>1501</ele>
        <time>2014-07-26T09:15:51.000Z</time>
      </trkpt>
      <trkpt lat="46.79443" lon="6.48127">
        <ele>1500.8000488281</ele>
        <time>2014-07-26T09:15:56.000Z</time>
      </trkpt>
      <trkpt lat="46.79444" lon="6.48133">
        <ele>1500.1999511719</ele>
        <time>2014-07-26T09:16:03.000Z</time>
      </trkpt>
      <trkpt lat="46.79447" lon="6.48139">
        <ele>1500</ele>
        <time>2014-07-26T09:16:12.000Z</time>
      </trkpt>
      <trkpt lat="46.79451" lon="6.48144">
        <ele>1500.1999511719</ele>
        <time>2014-07-26T09:16:19.000Z</time>
      </trkpt>
      <trkpt lat="46.79456" lon="6.48152">
        <ele>1500.4000244141</ele>
        <time>2014-07-26T09:16:26.000Z</time>
      </trkpt>
      <trkpt lat="46.79461" lon="6.48166">
        <ele>1501.8000488281</ele>
        <time>2014-07-26T09:16:35.000Z</time>
      </trkpt>
      <trkpt lat="46.79464" lon="6.48175">
        <ele>1502.5999755859</ele>
        <time>2014-07-26T09:16:43.000Z</time>
      </trkpt>
      <trkpt lat="46.79468" lon="6.48184">
        <ele>1503.8000488281</ele>
        <time>2014-07-26T09:16:51.000Z</time>
      </trkpt>
      <trkpt lat="46.79473" lon="6.48193">
        <ele>1505</ele>
        <time>2014-07-26T09:17:00.000Z</time>
      </trkpt>
      <trkpt lat="46.79478" lon="6.482">
        <ele>1506.4000244141</ele>
        <time>2014-07-26T09:17:09.000Z</time>
      </trkpt>
      <trkpt lat="46.79479" lon="6.48201">
        <ele>1506.4000244141</ele>
        <time>2014-07-26T09:17:10.000Z</time>
      </trkpt>
      <trkpt lat="46.7948" lon="6.48206">
        <ele>1507</ele>
        <time>2014-07-26T09:17:14.000Z</time>
      </trkpt>
      <trkpt lat="46.79484" lon="6.48216">
        <ele>1507.8000488281</ele>
        <time>2014-07-26T09:17:22.000Z</time>
      </trkpt>
      <trkpt lat="46.79485" lon="6.48218">
        <ele>1508</ele>
        <time>2014-07-26T09:17:23.000Z</time>
      </trkpt>
      <trkpt lat="46.79488" lon="6.48227">
        <ele>1508.8000488281</ele>
        <time>2014-07-26T09:17:29.000Z</time>
      </trkpt>
      <trkpt lat="46.79489" lon="6.4824">
        <ele>1508</ele>
        <time>2014-07-26T09:17:38.000Z</time>
      </trkpt>
      <trkpt lat="46.79492" lon="6.48249">
        <ele>1506.8000488281</ele>
        <time>2014-07-26T09:17:46.000Z</time>
      </trkpt>
      <trkpt lat="46.79497" lon="6.48262">
        <ele>1505.1999511719</ele>
        <time>2014-07-26T09:17:56.000Z</time>
      </trkpt>
      <trkpt lat="46.79499" lon="6.48271">
        <ele>1503.8000488281</ele>
        <time>2014-07-26T09:18:04.000Z</time>
      </trkpt>
      <trkpt lat="46.795" lon="6.48272">
        <ele>1503.8000488281</ele>
        <time>2014-07-26T09:18:05.000Z</time>
      </trkpt>
      <trkpt lat="46.79503" lon="6.48281">
        <ele>1502.5999755859</ele>
        <time>2014-07-26T09:18:12.000Z</time>
      </trkpt>
      <trkpt lat="46.79503" lon="6.48282">
        <ele>1502.4000244141</ele>
        <time>2014-07-26T09:18:13.000Z</time>
      </trkpt>
      <trkpt lat="46.79503" lon="6.48289">
        <ele>1501.4000244141</ele>
        <time>2014-07-26T09:18:18.000Z</time>
      </trkpt>
      <trkpt lat="46.795" lon="6.48299">
        <ele>1500</ele>
        <time>2014-07-26T09:18:27.000Z</time>
      </trkpt>
      <trkpt lat="46.795" lon="6.483">
        <ele>1499.8000488281</ele>
        <time>2014-07-26T09:18:28.000Z</time>
      </trkpt>
      <trkpt lat="46.79502" lon="6.48306">
        <ele>1499</ele>
        <time>2014-07-26T09:18:34.000Z</time>
      </trkpt>
      <trkpt lat="46.79504" lon="6.4831">
        <ele>1498.4000244141</ele>
        <time>2014-07-26T09:18:40.000Z</time>
      </trkpt>
      <trkpt lat="46.79505" lon="6.48314">
        <ele>1498</ele>
        <time>2014-07-26T09:18:45.000Z</time>
      </trkpt>
      <trkpt lat="46.79506" lon="6.48318">
        <ele>1497.5999755859</ele>
        <time>2014-07-26T09:18:49.000Z</time>
      </trkpt>
      <trkpt lat="46.79507" lon="6.4832">
        <ele>1497.5999755859</ele>
        <time>2014-07-26T09:18:53.000Z</time>
      </trkpt>
      <trkpt lat="46.79508" lon="6.48325">
        <ele>1497.8000488281</ele>
        <time>2014-07-26T09:19:00.000Z</time>
      </trkpt>
      <trkpt lat="46.79509" lon="6.48332">
        <ele>1497.8000488281</ele>
        <time>2014-07-26T09:19:07.000Z</time>
      </trkpt>
      <trkpt lat="46.7951" lon="6.48337">
        <ele>1497.8000488281</ele>
        <time>2014-07-26T09:19:14.000Z</time>
      </trkpt>
      <trkpt lat="46.79511" lon="6.4834">
        <ele>1497.5999755859</ele>
        <time>2014-07-26T09:19:18.000Z</time>
      </trkpt>
      <trkpt lat="46.79513" lon="6.48342">
        <ele>1497.8000488281</ele>
        <time>2014-07-26T09:19:26.000Z</time>
      </trkpt>
      <trkpt lat="46.79515" lon="6.48345">
        <ele>1497.5999755859</ele>
        <time>2014-07-26T09:19:31.000Z</time>
      </trkpt>
      <trkpt lat="46.79517" lon="6.48349">
        <ele>1497.1999511719</ele>
        <time>2014-07-26T09:19:37.000Z</time>
      </trkpt>
      <trkpt lat="46.79518" lon="6.48354">
        <ele>1496.5999755859</ele>
        <time>2014-07-26T09:19:47.000Z</time>
      </trkpt>
      <trkpt lat="46.79519" lon="6.48355">
        <ele>1496.5999755859</ele>
        <time>2014-07-26T09:19:49.000Z</time>
      </trkpt>
      <trkpt lat="46.79523" lon="6.48358">
        <ele>1496.8000488281</ele>
        <time>2014-07-26T09:19:52.000Z</time>
      </trkpt>
      <trkpt lat="46.79523" lon="6.48361">
        <ele>1496.5999755859</ele>
        <time>2014-07-26T09:19:54.000Z</time>
      </trkpt>
      <trkpt lat="46.79524" lon="6.48363">
        <ele>1496.1999511719</ele>
        <time>2014-07-26T09:19:56.000Z</time>
      </trkpt>
      <trkpt lat="46.79524" lon="6.48367">
        <ele>1495.5999755859</ele>
        <time>2014-07-26T09:20:00.000Z</time>
      </trkpt>
      <trkpt lat="46.79525" lon="6.48374">
        <ele>1494.4000244141</ele>
        <time>2014-07-26T09:20:09.000Z</time>
      </trkpt>
      <trkpt lat="46.79525" lon="6.48378">
        <ele>1493.8000488281</ele>
        <time>2014-07-26T09:20:14.000Z</time>
      </trkpt>
      <trkpt lat="46.79525" lon="6.48382">
        <ele>1493.1999511719</ele>
        <time>2014-07-26T09:20:20.000Z</time>
      </trkpt>
      <trkpt lat="46.79526" lon="6.48386">
        <ele>1492.4000244141</ele>
        <time>2014-07-26T09:20:25.000Z</time>
      </trkpt>
      <trkpt lat="46.79527" lon="6.4839">
        <ele>1492.1999511719</ele>
        <time>2014-07-26T09:20:29.000Z</time>
      </trkpt>
      <trkpt lat="46.7953" lon="6.48395">
        <ele>1491.8000488281</ele>
        <time>2014-07-26T09:20:35.000Z</time>
      </trkpt>
      <trkpt lat="46.79532" lon="6.48399">
        <ele>1491.5999755859</ele>
        <time>2014-07-26T09:20:40.000Z</time>
      </trkpt>
      <trkpt lat="46.79533" lon="6.48402">
        <ele>1491.5999755859</ele>
        <time>2014-07-26T09:20:43.000Z</time>
      </trkpt>
      <trkpt lat="46.79533" lon="6.48406">
        <ele>1491.4000244141</ele>
        <time>2014-07-26T09:20:47.000Z</time>
      </trkpt>
      <trkpt lat="46.79531" lon="6.48418">
        <ele>1490.5999755859</ele>
        <time>2014-07-26T09:21:00.000Z</time>
      </trkpt>
      <trkpt lat="46.79532" lon="6.48422">
        <ele>1490.5999755859</ele>
        <time>2014-07-26T09:21:05.000Z</time>
      </trkpt>
      <trkpt lat="46.79534" lon="6.48427">
        <ele>1490.8000488281</ele>
        <time>2014-07-26T09:21:09.000Z</time>
      </trkpt>
      <trkpt lat="46.79537" lon="6.48432">
        <ele>1491.4000244141</ele>
        <time>2014-07-26T09:21:16.000Z</time>
      </trkpt>
      <trkpt lat="46.7954" lon="6.48437">
        <ele>1491.8000488281</ele>
        <time>2014-07-26T09:21:23.000Z</time>
      </trkpt>
      <trkpt lat="46.7954" lon="6.48442">
        <ele>1491.8000488281</ele>
        <time>2014-07-26T09:21:27.000Z</time>
      </trkpt>
      <trkpt lat="46.7954" lon="6.48448">
        <ele>1491.4000244141</ele>
        <time>2014-07-26T09:21:34.000Z</time>
      </trkpt>
      <trkpt lat="46.7954" lon="6.48453">
        <ele>1490.8000488281</ele>
        <time>2014-07-26T09:21:40.000Z</time>
      </trkpt>
      <trkpt lat="46.79538" lon="6.48459">
        <ele>1489</ele>
        <time>2014-07-26T09:21:47.000Z</time>
      </trkpt>
      <trkpt lat="46.79538" lon="6.4846">
        <ele>1488.5999755859</ele>
        <time>2014-07-26T09:21:56.000Z</time>
      </trkpt>
      <trkpt lat="46.79537" lon="6.48461">
        <ele>1488</ele>
        <time>2014-07-26T09:22:24.000Z</time>
      </trkpt>
      <trkpt lat="46.79538" lon="6.48459">
        <ele>1488.5999755859</ele>
        <time>2014-07-26T09:22:43.000Z</time>
      </trkpt>
      <trkpt lat="46.79538" lon="6.4846">
        <ele>1488.4000244141</ele>
        <time>2014-07-26T09:22:47.000Z</time>
      </trkpt>
      <trkpt lat="46.79542" lon="6.48463">
        <ele>1489.1999511719</ele>
        <time>2014-07-26T09:24:01.000Z</time>
      </trkpt>
      <trkpt lat="46.79543" lon="6.48465">
        <ele>1489.4000244141</ele>
        <time>2014-07-26T09:24:07.000Z</time>
      </trkpt>
      <trkpt lat="46.79545" lon="6.48468">
        <ele>1489.4000244141</ele>
        <time>2014-07-26T09:24:12.000Z</time>
      </trkpt>
      <trkpt lat="46.79548" lon="6.48472">
        <ele>1489.5999755859</ele>
        <time>2014-07-26T09:24:18.000Z</time>
      </trkpt>
      <trkpt lat="46.79549" lon="6.48472">
        <ele>1490</ele>
        <time>2014-07-26T09:24:19.000Z</time>
      </trkpt>
      <trkpt lat="46.79551" lon="6.48473">
        <ele>1490.8000488281</ele>
        <time>2014-07-26T09:24:23.000Z</time>
      </trkpt>
      <trkpt lat="46.79553" lon="6.48476">
        <ele>1490.8000488281</ele>
        <time>2014-07-26T09:24:28.000Z</time>
      </trkpt>
      <trkpt lat="46.79554" lon="6.48478">
        <ele>1490.5999755859</ele>
        <time>2014-07-26T09:24:33.000Z</time>
      </trkpt>
      <trkpt lat="46.79555" lon="6.48481">
        <ele>1490.1999511719</ele>
        <time>2014-07-26T09:24:38.000Z</time>
      </trkpt>
      <trkpt lat="46.79555" lon="6.48484">
        <ele>1490</ele>
        <time>2014-07-26T09:24:44.000Z</time>
      </trkpt>
      <trkpt lat="46.79557" lon="6.48486">
        <ele>1490.4000244141</ele>
        <time>2014-07-26T09:24:49.000Z</time>
      </trkpt>
      <trkpt lat="46.79562" lon="6.48489">
        <ele>1492.1999511719</ele>
        <time>2014-07-26T09:24:55.000Z</time>
      </trkpt>
      <trkpt lat="46.79566" lon="6.48492">
        <ele>1493.1999511719</ele>
        <time>2014-07-26T09:25:00.000Z</time>
      </trkpt>
      <trkpt lat="46.79568" lon="6.48495">
        <ele>1493.8000488281</ele>
        <time>2014-07-26T09:25:04.000Z</time>
      </trkpt>
      <trkpt lat="46.79569" lon="6.48496">
        <ele>1494</ele>
        <time>2014-07-26T09:25:05.000Z</time>
      </trkpt>
      <trkpt lat="46.79571" lon="6.48502">
        <ele>1494.4000244141</ele>
        <time>2014-07-26T09:25:10.000Z</time>
      </trkpt>
      <trkpt lat="46.79573" lon="6.48505">
        <ele>1494.1999511719</ele>
        <time>2014-07-26T09:25:12.000Z</time>
      </trkpt>
      <trkpt lat="46.79575" lon="6.48512">
        <ele>1493.5999755859</ele>
        <time>2014-07-26T09:25:16.000Z</time>
      </trkpt>
      <trkpt lat="46.79576" lon="6.48515">
        <ele>1493.1999511719</ele>
        <time>2014-07-26T09:25:18.000Z</time>
      </trkpt>
      <trkpt lat="46.79577" lon="6.48518">
        <ele>1492.8000488281</ele>
        <time>2014-07-26T09:25:20.000Z</time>
      </trkpt>
      <trkpt lat="46.79576" lon="6.48526">
        <ele>1491.5999755859</ele>
        <time>2014-07-26T09:25:27.000Z</time>
      </trkpt>
      <trkpt lat="46.79576" lon="6.48527">
        <ele>1491.4000244141</ele>
        <time>2014-07-26T09:25:28.000Z</time>
      </trkpt>
      <trkpt lat="46.79577" lon="6.48533">
        <ele>1490.8000488281</ele>
        <time>2014-07-26T09:25:33.000Z</time>
      </trkpt>
      <trkpt lat="46.79582" lon="6.48542">
        <ele>1490</ele>
        <time>2014-07-26T09:25:42.000Z</time>
      </trkpt>
      <trkpt lat="46.79583" lon="6.48546">
        <ele>1489.4000244141</ele>
        <time>2014-07-26T09:25:46.000Z</time>
      </trkpt>
      <trkpt lat="46.79583" lon="6.48556">
        <ele>1488.1999511719</ele>
        <time>2014-07-26T09:25:54.000Z</time>
      </trkpt>
      <trkpt lat="46.79583" lon="6.48561">
        <ele>1487.5999755859</ele>
        <time>2014-07-26T09:25:58.000Z</time>
      </trkpt>
      <trkpt lat="46.79585" lon="6.48567">
        <ele>1487</ele>
        <time>2014-07-26T09:26:03.000Z</time>
      </trkpt>
      <trkpt lat="46.79586" lon="6.48571">
        <ele>1487.1999511719</ele>
        <time>2014-07-26T09:26:07.000Z</time>
      </trkpt>
      <trkpt lat="46.79587" lon="6.48573">
        <ele>1487.4000244141</ele>
        <time>2014-07-26T09:26:09.000Z</time>
      </trkpt>
      <trkpt lat="46.7959" lon="6.48575">
        <ele>1487.5999755859</ele>
        <time>2014-07-26T09:26:17.000Z</time>
      </trkpt>
      <trkpt lat="46.79594" lon="6.48577">
        <ele>1488</ele>
        <time>2014-07-26T09:26:22.000Z</time>
      </trkpt>
      <trkpt lat="46.79598" lon="6.48581">
        <ele>1488.4000244141</ele>
        <time>2014-07-26T09:26:27.000Z</time>
      </trkpt>
      <trkpt lat="46.79599" lon="6.48581">
        <ele>1488.5999755859</ele>
        <time>2014-07-26T09:26:29.000Z</time>
      </trkpt>
      <trkpt lat="46.79605" lon="6.48583">
        <ele>1489</ele>
        <time>2014-07-26T09:26:34.000Z</time>
      </trkpt>
      <trkpt lat="46.79611" lon="6.48589">
        <ele>1489.5999755859</ele>
        <time>2014-07-26T09:26:40.000Z</time>
      </trkpt>
      <trkpt lat="46.79617" lon="6.48596">
        <ele>1490.1999511719</ele>
        <time>2014-07-26T09:26:47.000Z</time>
      </trkpt>
      <trkpt lat="46.79621" lon="6.486">
        <ele>1490.8000488281</ele>
        <time>2014-07-26T09:26:54.000Z</time>
      </trkpt>
      <trkpt lat="46.79627" lon="6.48606">
        <ele>1491.4000244141</ele>
        <time>2014-07-26T09:27:02.000Z</time>
      </trkpt>
      <trkpt lat="46.79627" lon="6.48607">
        <ele>1491.4000244141</ele>
        <time>2014-07-26T09:27:03.000Z</time>
      </trkpt>
      <trkpt lat="46.79633" lon="6.48617">
        <ele>1492.1999511719</ele>
        <time>2014-07-26T09:27:12.000Z</time>
      </trkpt>
      <trkpt lat="46.79636" lon="6.48625">
        <ele>1492.8000488281</ele>
        <time>2014-07-26T09:27:19.000Z</time>
      </trkpt>
      <trkpt lat="46.79637" lon="6.48626">
        <ele>1492.8000488281</ele>
        <time>2014-07-26T09:27:20.000Z</time>
      </trkpt>
      <trkpt lat="46.7964" lon="6.48633">
        <ele>1493.4000244141</ele>
        <time>2014-07-26T09:27:26.000Z</time>
      </trkpt>
      <trkpt lat="46.79641" lon="6.48635">
        <ele>1493.4000244141</ele>
        <time>2014-07-26T09:27:27.000Z</time>
      </trkpt>
      <trkpt lat="46.79642" lon="6.48637">
        <ele>1493.4000244141</ele>
        <time>2014-07-26T09:27:29.000Z</time>
      </trkpt>
      <trkpt lat="46.79643" lon="6.48643">
        <ele>1492.5999755859</ele>
        <time>2014-07-26T09:27:34.000Z</time>
      </trkpt>
      <trkpt lat="46.79648" lon="6.48655">
        <ele>1492.4000244141</ele>
        <time>2014-07-26T09:27:42.000Z</time>
      </trkpt>
      <trkpt lat="46.79648" lon="6.48658">
        <ele>1492</ele>
        <time>2014-07-26T09:27:45.000Z</time>
      </trkpt>
      <trkpt lat="46.79649" lon="6.48659">
        <ele>1492</ele>
        <time>2014-07-26T09:27:47.000Z</time>
      </trkpt>
      <trkpt lat="46.79651" lon="6.48667">
        <ele>1492</ele>
        <time>2014-07-26T09:27:53.000Z</time>
      </trkpt>
      <trkpt lat="46.79656" lon="6.48677">
        <ele>1492.8000488281</ele>
        <time>2014-07-26T09:28:01.000Z</time>
      </trkpt>
      <trkpt lat="46.79659" lon="6.48688">
        <ele>1492.1999511719</ele>
        <time>2014-07-26T09:28:08.000Z</time>
      </trkpt>
      <trkpt lat="46.79663" lon="6.48698">
        <ele>1491.8000488281</ele>
        <time>2014-07-26T09:28:17.000Z</time>
      </trkpt>
      <trkpt lat="46.79667" lon="6.48708">
        <ele>1491.1999511719</ele>
        <time>2014-07-26T09:28:25.000Z</time>
      </trkpt>
      <trkpt lat="46.7967" lon="6.48714">
        <ele>1491</ele>
        <time>2014-07-26T09:28:31.000Z</time>
      </trkpt>
      <trkpt lat="46.79674" lon="6.48722">
        <ele>1490.8000488281</ele>
        <time>2014-07-26T09:28:38.000Z</time>
      </trkpt>
      <trkpt lat="46.79674" lon="6.48723">
        <ele>1490.5999755859</ele>
        <time>2014-07-26T09:28:39.000Z</time>
      </trkpt>
      <trkpt lat="46.79677" lon="6.48729">
        <ele>1490.4000244141</ele>
        <time>2014-07-26T09:28:45.000Z</time>
      </trkpt>
      <trkpt lat="46.79677" lon="6.48731">
        <ele>1490.1999511719</ele>
        <time>2014-07-26T09:28:51.000Z</time>
      </trkpt>
      <trkpt lat="46.79677" lon="6.48734">
        <ele>1490.1999511719</ele>
        <time>2014-07-26T09:29:06.000Z</time>
      </trkpt>
      <trkpt lat="46.79677" lon="6.48735">
        <ele>1490</ele>
        <time>2014-07-26T09:29:16.000Z</time>
      </trkpt>
      <trkpt lat="46.79678" lon="6.48739">
        <ele>1490</ele>
        <time>2014-07-26T09:29:21.000Z</time>
      </trkpt>
      <trkpt lat="46.79677" lon="6.48741">
        <ele>1490</ele>
        <time>2014-07-26T09:29:27.000Z</time>
      </trkpt>
      <trkpt lat="46.79679" lon="6.48743">
        <ele>1490.1999511719</ele>
        <time>2014-07-26T09:30:16.000Z</time>
      </trkpt>
      <trkpt lat="46.7968" lon="6.48749">
        <ele>1490</ele>
        <time>2014-07-26T09:30:22.000Z</time>
      </trkpt>
      <trkpt lat="46.79681" lon="6.48757">
        <ele>1490</ele>
        <time>2014-07-26T09:30:29.000Z</time>
      </trkpt>
      <trkpt lat="46.79683" lon="6.48765">
        <ele>1488.5999755859</ele>
        <time>2014-07-26T09:30:36.000Z</time>
      </trkpt>
      <trkpt lat="46.79684" lon="6.48774">
        <ele>1486.4000244141</ele>
        <time>2014-07-26T09:30:44.000Z</time>
      </trkpt>
      <trkpt lat="46.79684" lon="6.48776">
        <ele>1485.8000488281</ele>
        <time>2014-07-26T09:30:51.000Z</time>
      </trkpt>
      <trkpt lat="46.79685" lon="6.48782">
        <ele>1484.4000244141</ele>
        <time>2014-07-26T09:31:23.000Z</time>
      </trkpt>
      <trkpt lat="46.79688" lon="6.48794">
        <ele>1482</ele>
        <time>2014-07-26T09:31:32.000Z</time>
      </trkpt>
      <trkpt lat="46.7969" lon="6.48802">
        <ele>1480.4000244141</ele>
        <time>2014-07-26T09:31:38.000Z</time>
      </trkpt>
      <trkpt lat="46.79691" lon="6.48812">
        <ele>1477.8000488281</ele>
        <time>2014-07-26T09:31:46.000Z</time>
      </trkpt>
      <trkpt lat="46.79698" lon="6.48822">
        <ele>1477.8000488281</ele>
        <time>2014-07-26T09:31:57.000Z</time>
      </trkpt>
      <trkpt lat="46.79704" lon="6.48828">
        <ele>1478.8000488281</ele>
        <time>2014-07-26T09:32:06.000Z</time>
      </trkpt>
      <trkpt lat="46.79706" lon="6.4883">
        <ele>1479.1999511719</ele>
        <time>2014-07-26T09:32:12.000Z</time>
      </trkpt>
      <trkpt lat="46.79708" lon="6.48832">
        <ele>1479.4000244141</ele>
        <time>2014-07-26T09:32:17.000Z</time>
      </trkpt>
      <trkpt lat="46.79709" lon="6.4883">
        <ele>1480.4000244141</ele>
        <time>2014-07-26T09:32:23.000Z</time>
      </trkpt>
      <trkpt lat="46.79714" lon="6.4883">
        <ele>1482.1999511719</ele>
        <time>2014-07-26T09:32:29.000Z</time>
      </trkpt>
      <trkpt lat="46.79718" lon="6.4883">
        <ele>1483.8000488281</ele>
        <time>2014-07-26T09:32:35.000Z</time>
      </trkpt>
      <trkpt lat="46.79724" lon="6.48831">
        <ele>1485.4000244141</ele>
        <time>2014-07-26T09:32:42.000Z</time>
      </trkpt>
      <trkpt lat="46.7973" lon="6.48832">
        <ele>1487.5999755859</ele>
        <time>2014-07-26T09:32:47.000Z</time>
      </trkpt>
      <trkpt lat="46.79737" lon="6.48836">
        <ele>1489.4000244141</ele>
        <time>2014-07-26T09:32:54.000Z</time>
      </trkpt>
      <trkpt lat="46.79741" lon="6.48841">
        <ele>1489.1999511719</ele>
        <time>2014-07-26T09:32:59.000Z</time>
      </trkpt>
      <trkpt lat="46.79747" lon="6.48846">
        <ele>1488.8000488281</ele>
        <time>2014-07-26T09:33:06.000Z</time>
      </trkpt>
      <trkpt lat="46.79752" lon="6.48851">
        <ele>1488.1999511719</ele>
        <time>2014-07-26T09:33:11.000Z</time>
      </trkpt>
      <trkpt lat="46.79754" lon="6.48854">
        <ele>1488</ele>
        <time>2014-07-26T09:33:13.000Z</time>
      </trkpt>
      <trkpt lat="46.7976" lon="6.48863">
        <ele>1486.5999755859</ele>
        <time>2014-07-26T09:33:20.000Z</time>
      </trkpt>
      <trkpt lat="46.79766" lon="6.48869">
        <ele>1486</ele>
        <time>2014-07-26T09:33:27.000Z</time>
      </trkpt>
      <trkpt lat="46.79774" lon="6.48878">
        <ele>1484.8000488281</ele>
        <time>2014-07-26T09:33:35.000Z</time>
      </trkpt>
      <trkpt lat="46.79778" lon="6.48883">
        <ele>1484.1999511719</ele>
        <time>2014-07-26T09:33:41.000Z</time>
      </trkpt>
      <trkpt lat="46.79784" lon="6.48892">
        <ele>1483</ele>
        <time>2014-07-26T09:33:48.000Z</time>
      </trkpt>
      <trkpt lat="46.79788" lon="6.48897">
        <ele>1482.4000244141</ele>
        <time>2014-07-26T09:33:54.000Z</time>
      </trkpt>
      <trkpt lat="46.79792" lon="6.489">
        <ele>1482.1999511719</ele>
        <time>2014-07-26T09:34:01.000Z</time>
      </trkpt>
      <trkpt lat="46.79796" lon="6.48905">
        <ele>1482.1999511719</ele>
        <time>2014-07-26T09:34:06.000Z</time>
      </trkpt>
      <trkpt lat="46.79801" lon="6.48911">
        <ele>1482.1999511719</ele>
        <time>2014-07-26T09:34:12.000Z</time>
      </trkpt>
      <trkpt lat="46.79805" lon="6.48919">
        <ele>1482</ele>
        <time>2014-07-26T09:34:18.000Z</time>
      </trkpt>
      <trkpt lat="46.7981" lon="6.48925">
        <ele>1482</ele>
        <time>2014-07-26T09:34:24.000Z</time>
      </trkpt>
      <trkpt lat="46.7981" lon="6.48927">
        <ele>1482</ele>
        <time>2014-07-26T09:34:25.000Z</time>
      </trkpt>
      <trkpt lat="46.7981" lon="6.48928">
        <ele>1481.8000488281</ele>
        <time>2014-07-26T09:34:26.000Z</time>
      </trkpt>
      <trkpt lat="46.79814" lon="6.48935">
        <ele>1481.5999755859</ele>
        <time>2014-07-26T09:34:32.000Z</time>
      </trkpt>
      <trkpt lat="46.79816" lon="6.48939">
        <ele>1481.8000488281</ele>
        <time>2014-07-26T09:34:35.000Z</time>
      </trkpt>
      <trkpt lat="46.79818" lon="6.48944">
        <ele>1481.4000244141</ele>
        <time>2014-07-26T09:34:41.000Z</time>
      </trkpt>
      <trkpt lat="46.79821" lon="6.48951">
        <ele>1481.1999511719</ele>
        <time>2014-07-26T09:34:48.000Z</time>
      </trkpt>
      <trkpt lat="46.79825" lon="6.48961">
        <ele>1480</ele>
        <time>2014-07-26T09:34:57.000Z</time>
      </trkpt>
      <trkpt lat="46.79827" lon="6.4897">
        <ele>1478.8000488281</ele>
        <time>2014-07-26T09:35:08.000Z</time>
      </trkpt>
      <trkpt lat="46.79829" lon="6.48975">
        <ele>1478</ele>
        <time>2014-07-26T09:35:12.000Z</time>
      </trkpt>
      <trkpt lat="46.79831" lon="6.48978">
        <ele>1477.4000244141</ele>
        <time>2014-07-26T09:35:16.000Z</time>
      </trkpt>
      <trkpt lat="46.79833" lon="6.48982">
        <ele>1476.5999755859</ele>
        <time>2014-07-26T09:35:22.000Z</time>
      </trkpt>
      <trkpt lat="46.79835" lon="6.48987">
        <ele>1476.1999511719</ele>
        <time>2014-07-26T09:35:27.000Z</time>
      </trkpt>
      <trkpt lat="46.79836" lon="6.48991">
        <ele>1476</ele>
        <time>2014-07-26T09:35:34.000Z</time>
      </trkpt>
      <trkpt lat="46.79838" lon="6.48997">
        <ele>1475.5999755859</ele>
        <time>2014-07-26T09:35:51.000Z</time>
      </trkpt>
      <trkpt lat="46.7984" lon="6.49001">
        <ele>1475.1999511719</ele>
        <time>2014-07-26T09:35:55.000Z</time>
      </trkpt>
      <trkpt lat="46.79841" lon="6.49002">
        <ele>1475</ele>
        <time>2014-07-26T09:35:56.000Z</time>
      </trkpt>
      <trkpt lat="46.79841" lon="6.49003">
        <ele>1474.5999755859</ele>
        <time>2014-07-26T09:35:58.000Z</time>
      </trkpt>
      <trkpt lat="46.79845" lon="6.49006">
        <ele>1474</ele>
        <time>2014-07-26T09:36:01.000Z</time>
      </trkpt>
      <trkpt lat="46.79849" lon="6.49012">
        <ele>1472.8000488281</ele>
        <time>2014-07-26T09:36:05.000Z</time>
      </trkpt>
      <trkpt lat="46.79852" lon="6.49016">
        <ele>1471.8000488281</ele>
        <time>2014-07-26T09:36:09.000Z</time>
      </trkpt>
      <trkpt lat="46.79852" lon="6.49018">
        <ele>1471.1999511719</ele>
        <time>2014-07-26T09:36:12.000Z</time>
      </trkpt>
      <trkpt lat="46.79854" lon="6.49023">
        <ele>1470.1999511719</ele>
        <time>2014-07-26T09:36:17.000Z</time>
      </trkpt>
      <trkpt lat="46.79859" lon="6.4903">
        <ele>1468.4000244141</ele>
        <time>2014-07-26T09:36:23.000Z</time>
      </trkpt>
      <trkpt lat="46.79861" lon="6.49033">
        <ele>1467.8000488281</ele>
        <time>2014-07-26T09:36:25.000Z</time>
      </trkpt>
      <trkpt lat="46.79861" lon="6.49039">
        <ele>1466.4000244141</ele>
        <time>2014-07-26T09:36:30.000Z</time>
      </trkpt>
      <trkpt lat="46.79863" lon="6.49042">
        <ele>1465.5999755859</ele>
        <time>2014-07-26T09:36:34.000Z</time>
      </trkpt>
      <trkpt lat="46.79864" lon="6.49049">
        <ele>1463.8000488281</ele>
        <time>2014-07-26T09:36:41.000Z</time>
      </trkpt>
      <trkpt lat="46.79865" lon="6.49053">
        <ele>1463</ele>
        <time>2014-07-26T09:36:50.000Z</time>
      </trkpt>
      <trkpt lat="46.79866" lon="6.49058">
        <ele>1461.8000488281</ele>
        <time>2014-07-26T09:36:56.000Z</time>
      </trkpt>
      <trkpt lat="46.79868" lon="6.49061">
        <ele>1461.1999511719</ele>
        <time>2014-07-26T09:37:02.000Z</time>
      </trkpt>
      <trkpt lat="46.79871" lon="6.49073">
        <ele>1459</ele>
        <time>2014-07-26T09:37:13.000Z</time>
      </trkpt>
      <trkpt lat="46.79871" lon="6.49074">
        <ele>1458.8000488281</ele>
        <time>2014-07-26T09:37:14.000Z</time>
      </trkpt>
      <trkpt lat="46.79873" lon="6.49078">
        <ele>1458.4000244141</ele>
        <time>2014-07-26T09:37:20.000Z</time>
      </trkpt>
      <trkpt lat="46.79875" lon="6.49083">
        <ele>1458</ele>
        <time>2014-07-26T09:37:24.000Z</time>
      </trkpt>
      <trkpt lat="46.79875" lon="6.49084">
        <ele>1457.8000488281</ele>
        <time>2014-07-26T09:37:25.000Z</time>
      </trkpt>
      <trkpt lat="46.79877" lon="6.49089">
        <ele>1457.1999511719</ele>
        <time>2014-07-26T09:37:29.000Z</time>
      </trkpt>
      <trkpt lat="46.79878" lon="6.4909">
        <ele>1457.1999511719</ele>
        <time>2014-07-26T09:37:30.000Z</time>
      </trkpt>
      <trkpt lat="46.7988" lon="6.49095">
        <ele>1456.5999755859</ele>
        <time>2014-07-26T09:37:34.000Z</time>
      </trkpt>
      <trkpt lat="46.79882" lon="6.491">
        <ele>1456.1999511719</ele>
        <time>2014-07-26T09:37:38.000Z</time>
      </trkpt>
      <trkpt lat="46.79885" lon="6.49107">
        <ele>1455.4000244141</ele>
        <time>2014-07-26T09:37:43.000Z</time>
      </trkpt>
      <trkpt lat="46.79885" lon="6.49109">
        <ele>1455.1999511719</ele>
        <time>2014-07-26T09:37:45.000Z</time>
      </trkpt>
      <trkpt lat="46.79887" lon="6.49111">
        <ele>1455</ele>
        <time>2014-07-26T09:37:47.000Z</time>
      </trkpt>
      <trkpt lat="46.7989" lon="6.49116">
        <ele>1454.5999755859</ele>
        <time>2014-07-26T09:37:51.000Z</time>
      </trkpt>
      <trkpt lat="46.79891" lon="6.49121">
        <ele>1454</ele>
        <time>2014-07-26T09:37:56.000Z</time>
      </trkpt>
      <trkpt lat="46.79891" lon="6.49126">
        <ele>1453.4000244141</ele>
        <time>2014-07-26T09:38:03.000Z</time>
      </trkpt>
      <trkpt lat="46.79895" lon="6.49131">
        <ele>1453</ele>
        <time>2014-07-26T09:38:08.000Z</time>
      </trkpt>
      <trkpt lat="46.79896" lon="6.49132">
        <ele>1452.8000488281</ele>
        <time>2014-07-26T09:38:09.000Z</time>
      </trkpt>
      <trkpt lat="46.79897" lon="6.49135">
        <ele>1452.4000244141</ele>
        <time>2014-07-26T09:38:11.000Z</time>
      </trkpt>
      <trkpt lat="46.79901" lon="6.49144">
        <ele>1451.5999755859</ele>
        <time>2014-07-26T09:38:17.000Z</time>
      </trkpt>
      <trkpt lat="46.79901" lon="6.49145">
        <ele>1451.4000244141</ele>
        <time>2014-07-26T09:38:18.000Z</time>
      </trkpt>
      <trkpt lat="46.79904" lon="6.49146">
        <ele>1451.4000244141</ele>
        <time>2014-07-26T09:38:20.000Z</time>
      </trkpt>
      <trkpt lat="46.79908" lon="6.49154">
        <ele>1450.1999511719</ele>
        <time>2014-07-26T09:38:27.000Z</time>
      </trkpt>
      <trkpt lat="46.79908" lon="6.49154">
        <ele>1450.1999511719</ele>
        <time>2014-07-26T09:38:28.000Z</time>
      </trkpt>
      <trkpt lat="46.79909" lon="6.49158">
        <ele>1449.4000244141</ele>
        <time>2014-07-26T09:38:35.000Z</time>
      </trkpt>
      <trkpt lat="46.79911" lon="6.49161">
        <ele>1449</ele>
        <time>2014-07-26T09:38:42.000Z</time>
      </trkpt>
      <trkpt lat="46.79911" lon="6.49161">
        <ele>1449</ele>
        <time>2014-07-26T09:38:43.000Z</time>
      </trkpt>
      <trkpt lat="46.79914" lon="6.49166">
        <ele>1448</ele>
        <time>2014-07-26T09:38:47.000Z</time>
      </trkpt>
      <trkpt lat="46.79915" lon="6.49171">
        <ele>1447.1999511719</ele>
        <time>2014-07-26T09:38:53.000Z</time>
      </trkpt>
      <trkpt lat="46.79917" lon="6.49178">
        <ele>1446</ele>
        <time>2014-07-26T09:38:58.000Z</time>
      </trkpt>
      <trkpt lat="46.7992" lon="6.49184">
        <ele>1444.8000488281</ele>
        <time>2014-07-26T09:39:04.000Z</time>
      </trkpt>
      <trkpt lat="46.79922" lon="6.4919">
        <ele>1443.8000488281</ele>
        <time>2014-07-26T09:39:11.000Z</time>
      </trkpt>
      <trkpt lat="46.79923" lon="6.49195">
        <ele>1443</ele>
        <time>2014-07-26T09:39:17.000Z</time>
      </trkpt>
      <trkpt lat="46.79924" lon="6.492">
        <ele>1442</ele>
        <time>2014-07-26T09:39:22.000Z</time>
      </trkpt>
      <trkpt lat="46.79925" lon="6.49204">
        <ele>1441.4000244141</ele>
        <time>2014-07-26T09:39:30.000Z</time>
      </trkpt>
      <trkpt lat="46.79927" lon="6.49209">
        <ele>1440.5999755859</ele>
        <time>2014-07-26T09:39:36.000Z</time>
      </trkpt>
      <trkpt lat="46.79928" lon="6.49211">
        <ele>1440.1999511719</ele>
        <time>2014-07-26T09:39:43.000Z</time>
      </trkpt>
      <trkpt lat="46.79929" lon="6.49213">
        <ele>1439.8000488281</ele>
        <time>2014-07-26T09:39:47.000Z</time>
      </trkpt>
      <trkpt lat="46.79933" lon="6.49225">
        <ele>1437.8000488281</ele>
        <time>2014-07-26T09:40:09.000Z</time>
      </trkpt>
      <trkpt lat="46.79934" lon="6.49227">
        <ele>1437.4000244141</ele>
        <time>2014-07-26T09:40:13.000Z</time>
      </trkpt>
      <trkpt lat="46.79934" lon="6.49229">
        <ele>1437</ele>
        <time>2014-07-26T09:40:20.000Z</time>
      </trkpt>
      <trkpt lat="46.79936" lon="6.49235">
        <ele>1436.1999511719</ele>
        <time>2014-07-26T09:40:28.000Z</time>
      </trkpt>
      <trkpt lat="46.79938" lon="6.49241">
        <ele>1436.4000244141</ele>
        <time>2014-07-26T09:40:34.000Z</time>
      </trkpt>
      <trkpt lat="46.79938" lon="6.49245">
        <ele>1436.4000244141</ele>
        <time>2014-07-26T09:40:39.000Z</time>
      </trkpt>
      <trkpt lat="46.79941" lon="6.49248">
        <ele>1436.4000244141</ele>
        <time>2014-07-26T09:40:43.000Z</time>
      </trkpt>
      <trkpt lat="46.79941" lon="6.49251">
        <ele>1436.5999755859</ele>
        <time>2014-07-26T09:40:47.000Z</time>
      </trkpt>
      <trkpt lat="46.79941" lon="6.49256">
        <ele>1436.5999755859</ele>
        <time>2014-07-26T09:40:52.000Z</time>
      </trkpt>
      <trkpt lat="46.79941" lon="6.49258">
        <ele>1436.8000488281</ele>
        <time>2014-07-26T09:40:53.000Z</time>
      </trkpt>
      <trkpt lat="46.79945" lon="6.49263">
        <ele>1436.8000488281</ele>
        <time>2014-07-26T09:40:58.000Z</time>
      </trkpt>
      <trkpt lat="46.79946" lon="6.49266">
        <ele>1436.8000488281</ele>
        <time>2014-07-26T09:41:02.000Z</time>
      </trkpt>
      <trkpt lat="46.79951" lon="6.49273">
        <ele>1436.8000488281</ele>
        <time>2014-07-26T09:41:07.000Z</time>
      </trkpt>
      <trkpt lat="46.79952" lon="6.49274">
        <ele>1436.8000488281</ele>
        <time>2014-07-26T09:41:08.000Z</time>
      </trkpt>
      <trkpt lat="46.79954" lon="6.49282">
        <ele>1437</ele>
        <time>2014-07-26T09:41:14.000Z</time>
      </trkpt>
      <trkpt lat="46.79953" lon="6.49282">
        <ele>1436.8000488281</ele>
        <time>2014-07-26T09:41:15.000Z</time>
      </trkpt>
      <trkpt lat="46.79955" lon="6.49286">
        <ele>1435.8000488281</ele>
        <time>2014-07-26T09:41:20.000Z</time>
      </trkpt>
      <trkpt lat="46.7996" lon="6.49295">
        <ele>1434.8000488281</ele>
        <time>2014-07-26T09:41:28.000Z</time>
      </trkpt>
      <trkpt lat="46.79961" lon="6.49296">
        <ele>1434.8000488281</ele>
        <time>2014-07-26T09:41:29.000Z</time>
      </trkpt>
      <trkpt lat="46.79963" lon="6.49298">
        <ele>1434.5999755859</ele>
        <time>2014-07-26T09:41:32.000Z</time>
      </trkpt>
      <trkpt lat="46.79964" lon="6.49301">
        <ele>1434</ele>
        <time>2014-07-26T09:41:34.000Z</time>
      </trkpt>
      <trkpt lat="46.79969" lon="6.49311">
        <ele>1432</ele>
        <time>2014-07-26T09:41:42.000Z</time>
      </trkpt>
      <trkpt lat="46.7997" lon="6.49313">
        <ele>1431.4000244141</ele>
        <time>2014-07-26T09:41:44.000Z</time>
      </trkpt>
      <trkpt lat="46.79976" lon="6.49326">
        <ele>1430.4000244141</ele>
        <time>2014-07-26T09:42:03.000Z</time>
      </trkpt>
      <trkpt lat="46.79978" lon="6.49328">
        <ele>1430.5999755859</ele>
        <time>2014-07-26T09:42:08.000Z</time>
      </trkpt>
      <trkpt lat="46.79978" lon="6.49333">
        <ele>1429.1999511719</ele>
        <time>2014-07-26T09:42:17.000Z</time>
      </trkpt>
      <trkpt lat="46.79982" lon="6.49342">
        <ele>1428.8000488281</ele>
        <time>2014-07-26T09:42:32.000Z</time>
      </trkpt>
      <trkpt lat="46.79983" lon="6.49343">
        <ele>1428.5999755859</ele>
        <time>2014-07-26T09:42:34.000Z</time>
      </trkpt>
      <trkpt lat="46.79985" lon="6.49347">
        <ele>1428.5999755859</ele>
        <time>2014-07-26T09:42:38.000Z</time>
      </trkpt>
      <trkpt lat="46.79987" lon="6.49351">
        <ele>1428.1999511719</ele>
        <time>2014-07-26T09:42:44.000Z</time>
      </trkpt>
      <trkpt lat="46.7999" lon="6.49355">
        <ele>1427.5999755859</ele>
        <time>2014-07-26T09:42:51.000Z</time>
      </trkpt>
      <trkpt lat="46.79991" lon="6.49356">
        <ele>1427.1999511719</ele>
        <time>2014-07-26T09:42:52.000Z</time>
      </trkpt>
      <trkpt lat="46.79992" lon="6.4936">
        <ele>1426.1999511719</ele>
        <time>2014-07-26T09:42:55.000Z</time>
      </trkpt>
      <trkpt lat="46.79999" lon="6.49368">
        <ele>1423.4000244141</ele>
        <time>2014-07-26T09:43:01.000Z</time>
      </trkpt>
      <trkpt lat="46.79999" lon="6.49369">
        <ele>1423</ele>
        <time>2014-07-26T09:43:02.000Z</time>
      </trkpt>
      <trkpt lat="46.8" lon="6.49371">
        <ele>1422.4000244141</ele>
        <time>2014-07-26T09:43:04.000Z</time>
      </trkpt>
      <trkpt lat="46.80005" lon="6.4938">
        <ele>1419.8000488281</ele>
        <time>2014-07-26T09:43:10.000Z</time>
      </trkpt>
      <trkpt lat="46.80005" lon="6.49381">
        <ele>1419.4000244141</ele>
        <time>2014-07-26T09:43:11.000Z</time>
      </trkpt>
      <trkpt lat="46.80005" lon="6.49382">
        <ele>1419.1999511719</ele>
        <time>2014-07-26T09:43:12.000Z</time>
      </trkpt>
      <trkpt lat="46.80009" lon="6.49391">
        <ele>1416.5999755859</ele>
        <time>2014-07-26T09:43:19.000Z</time>
      </trkpt>
      <trkpt lat="46.8001" lon="6.49392">
        <ele>1416.1999511719</ele>
        <time>2014-07-26T09:43:20.000Z</time>
      </trkpt>
      <trkpt lat="46.80012" lon="6.49397">
        <ele>1415</ele>
        <time>2014-07-26T09:43:27.000Z</time>
      </trkpt>
      <trkpt lat="46.80014" lon="6.49405">
        <ele>1414</ele>
        <time>2014-07-26T09:43:39.000Z</time>
      </trkpt>
      <trkpt lat="46.80015" lon="6.49409">
        <ele>1414.1999511719</ele>
        <time>2014-07-26T09:43:44.000Z</time>
      </trkpt>
      <trkpt lat="46.80018" lon="6.49416">
        <ele>1414</ele>
        <time>2014-07-26T09:43:51.000Z</time>
      </trkpt>
      <trkpt lat="46.80018" lon="6.4942">
        <ele>1414.1999511719</ele>
        <time>2014-07-26T09:43:55.000Z</time>
      </trkpt>
      <trkpt lat="46.80018" lon="6.49421">
        <ele>1414.1999511719</ele>
        <time>2014-07-26T09:43:57.000Z</time>
      </trkpt>
      <trkpt lat="46.80019" lon="6.4943">
        <ele>1414.4000244141</ele>
        <time>2014-07-26T09:44:03.000Z</time>
      </trkpt>
      <trkpt lat="46.8002" lon="6.49432">
        <ele>1414.1999511719</ele>
        <time>2014-07-26T09:44:05.000Z</time>
      </trkpt>
      <trkpt lat="46.80022" lon="6.49435">
        <ele>1413.8000488281</ele>
        <time>2014-07-26T09:44:08.000Z</time>
      </trkpt>
      <trkpt lat="46.80028" lon="6.49442">
        <ele>1413.1999511719</ele>
        <time>2014-07-26T09:44:14.000Z</time>
      </trkpt>
      <trkpt lat="46.80031" lon="6.49446">
        <ele>1412.5999755859</ele>
        <time>2014-07-26T09:44:17.000Z</time>
      </trkpt>
      <trkpt lat="46.80031" lon="6.49448">
        <ele>1412.1999511719</ele>
        <time>2014-07-26T09:44:19.000Z</time>
      </trkpt>
      <trkpt lat="46.80031" lon="6.49458">
        <ele>1410</ele>
        <time>2014-07-26T09:44:26.000Z</time>
      </trkpt>
      <trkpt lat="46.80031" lon="6.4946">
        <ele>1409.5999755859</ele>
        <time>2014-07-26T09:44:27.000Z</time>
      </trkpt>
      <trkpt lat="46.80031" lon="6.49462">
        <ele>1409</ele>
        <time>2014-07-26T09:44:29.000Z</time>
      </trkpt>
      <trkpt lat="46.80033" lon="6.4947">
        <ele>1407.8000488281</ele>
        <time>2014-07-26T09:44:38.000Z</time>
      </trkpt>
      <trkpt lat="46.80033" lon="6.4948">
        <ele>1405.5999755859</ele>
        <time>2014-07-26T09:44:46.000Z</time>
      </trkpt>
      <trkpt lat="46.80034" lon="6.49483">
        <ele>1405.1999511719</ele>
        <time>2014-07-26T09:44:48.000Z</time>
      </trkpt>
      <trkpt lat="46.80035" lon="6.49485">
        <ele>1405</ele>
        <time>2014-07-26T09:44:51.000Z</time>
      </trkpt>
      <trkpt lat="46.80034" lon="6.49494">
        <ele>1404.8000488281</ele>
        <time>2014-07-26T09:44:57.000Z</time>
      </trkpt>
      <trkpt lat="46.80035" lon="6.495">
        <ele>1404.8000488281</ele>
        <time>2014-07-26T09:45:05.000Z</time>
      </trkpt>
      <trkpt lat="46.80036" lon="6.49505">
        <ele>1404.8000488281</ele>
        <time>2014-07-26T09:45:11.000Z</time>
      </trkpt>
      <trkpt lat="46.80039" lon="6.49513">
        <ele>1405</ele>
        <time>2014-07-26T09:45:18.000Z</time>
      </trkpt>
      <trkpt lat="46.80041" lon="6.49517">
        <ele>1405.1999511719</ele>
        <time>2014-07-26T09:45:25.000Z</time>
      </trkpt>
      <trkpt lat="46.80044" lon="6.49521">
        <ele>1405.4000244141</ele>
        <time>2014-07-26T09:45:33.000Z</time>
      </trkpt>
      <trkpt lat="46.80048" lon="6.49526">
        <ele>1405.8000488281</ele>
        <time>2014-07-26T09:45:38.000Z</time>
      </trkpt>
      <trkpt lat="46.80048" lon="6.49526">
        <ele>1405.8000488281</ele>
        <time>2014-07-26T09:45:39.000Z</time>
      </trkpt>
      <trkpt lat="46.80049" lon="6.49527">
        <ele>1406</ele>
        <time>2014-07-26T09:45:40.000Z</time>
      </trkpt>
      <trkpt lat="46.8005" lon="6.49533">
        <ele>1406</ele>
        <time>2014-07-26T09:45:44.000Z</time>
      </trkpt>
      <trkpt lat="46.80052" lon="6.49536">
        <ele>1406</ele>
        <time>2014-07-26T09:45:47.000Z</time>
      </trkpt>
      <trkpt lat="46.80055" lon="6.49548">
        <ele>1406.1999511719</ele>
        <time>2014-07-26T09:45:57.000Z</time>
      </trkpt>
      <trkpt lat="46.80059" lon="6.49556">
        <ele>1406.1999511719</ele>
        <time>2014-07-26T09:46:02.000Z</time>
      </trkpt>
      <trkpt lat="46.8006" lon="6.49557">
        <ele>1406.1999511719</ele>
        <time>2014-07-26T09:46:03.000Z</time>
      </trkpt>
      <trkpt lat="46.80061" lon="6.49559">
        <ele>1406</ele>
        <time>2014-07-26T09:46:05.000Z</time>
      </trkpt>
      <trkpt lat="46.80065" lon="6.49566">
        <ele>1405.4000244141</ele>
        <time>2014-07-26T09:46:11.000Z</time>
      </trkpt>
      <trkpt lat="46.80068" lon="6.49574">
        <ele>1405.8000488281</ele>
        <time>2014-07-26T09:46:16.000Z</time>
      </trkpt>
      <trkpt lat="46.8007" lon="6.49584">
        <ele>1405.1999511719</ele>
        <time>2014-07-26T09:46:21.000Z</time>
      </trkpt>
      <trkpt lat="46.80071" lon="6.49587">
        <ele>1405</ele>
        <time>2014-07-26T09:46:23.000Z</time>
      </trkpt>
      <trkpt lat="46.80072" lon="6.4959">
        <ele>1404.8000488281</ele>
        <time>2014-07-26T09:46:25.000Z</time>
      </trkpt>
      <trkpt lat="46.80071" lon="6.49594">
        <ele>1404</ele>
        <time>2014-07-26T09:46:29.000Z</time>
      </trkpt>
      <trkpt lat="46.80072" lon="6.49602">
        <ele>1403.1999511719</ele>
        <time>2014-07-26T09:46:36.000Z</time>
      </trkpt>
      <trkpt lat="46.80076" lon="6.49611">
        <ele>1401.5999755859</ele>
        <time>2014-07-26T09:46:42.000Z</time>
      </trkpt>
      <trkpt lat="46.80077" lon="6.49614">
        <ele>1401</ele>
        <time>2014-07-26T09:46:44.000Z</time>
      </trkpt>
      <trkpt lat="46.80079" lon="6.49622">
        <ele>1399.5999755859</ele>
        <time>2014-07-26T09:46:50.000Z</time>
      </trkpt>
      <trkpt lat="46.8008" lon="6.49623">
        <ele>1399.5999755859</ele>
        <time>2014-07-26T09:46:51.000Z</time>
      </trkpt>
      <trkpt lat="46.8008" lon="6.49624">
        <ele>1399.1999511719</ele>
        <time>2014-07-26T09:46:52.000Z</time>
      </trkpt>
      <trkpt lat="46.80082" lon="6.4963">
        <ele>1398.1999511719</ele>
        <time>2014-07-26T09:46:58.000Z</time>
      </trkpt>
      <trkpt lat="46.80084" lon="6.4964">
        <ele>1396.5999755859</ele>
        <time>2014-07-26T09:47:05.000Z</time>
      </trkpt>
      <trkpt lat="46.80084" lon="6.49641">
        <ele>1396.5999755859</ele>
        <time>2014-07-26T09:47:06.000Z</time>
      </trkpt>
      <trkpt lat="46.80084" lon="6.49644">
        <ele>1396.1999511719</ele>
        <time>2014-07-26T09:47:08.000Z</time>
      </trkpt>
      <trkpt lat="46.80086" lon="6.49651">
        <ele>1395.1999511719</ele>
        <time>2014-07-26T09:47:14.000Z</time>
      </trkpt>
      <trkpt lat="46.80089" lon="6.49658">
        <ele>1394.8000488281</ele>
        <time>2014-07-26T09:47:20.000Z</time>
      </trkpt>
      <trkpt lat="46.8009" lon="6.49659">
        <ele>1394.8000488281</ele>
        <time>2014-07-26T09:47:21.000Z</time>
      </trkpt>
      <trkpt lat="46.80091" lon="6.49662">
        <ele>1394.8000488281</ele>
        <time>2014-07-26T09:47:24.000Z</time>
      </trkpt>
      <trkpt lat="46.80094" lon="6.49669">
        <ele>1394.4000244141</ele>
        <time>2014-07-26T09:47:29.000Z</time>
      </trkpt>
      <trkpt lat="46.80095" lon="6.49671">
        <ele>1394.4000244141</ele>
        <time>2014-07-26T09:47:30.000Z</time>
      </trkpt>
      <trkpt lat="46.80096" lon="6.49672">
        <ele>1394.4000244141</ele>
        <time>2014-07-26T09:47:31.000Z</time>
      </trkpt>
      <trkpt lat="46.80096" lon="6.49679">
        <ele>1393</ele>
        <time>2014-07-26T09:47:35.000Z</time>
      </trkpt>
      <trkpt lat="46.80097" lon="6.49682">
        <ele>1392.1999511719</ele>
        <time>2014-07-26T09:47:38.000Z</time>
      </trkpt>
      <trkpt lat="46.80098" lon="6.49684">
        <ele>1391.5999755859</ele>
        <time>2014-07-26T09:47:41.000Z</time>
      </trkpt>
      <trkpt lat="46.801" lon="6.49689">
        <ele>1390.4000244141</ele>
        <time>2014-07-26T09:47:45.000Z</time>
      </trkpt>
      <trkpt lat="46.801" lon="6.49691">
        <ele>1390</ele>
        <time>2014-07-26T09:47:47.000Z</time>
      </trkpt>
      <trkpt lat="46.80102" lon="6.49698">
        <ele>1388.1999511719</ele>
        <time>2014-07-26T09:47:51.000Z</time>
      </trkpt>
      <trkpt lat="46.80102" lon="6.49701">
        <ele>1387.1999511719</ele>
        <time>2014-07-26T09:47:53.000Z</time>
      </trkpt>
      <trkpt lat="46.80102" lon="6.49704">
        <ele>1386.1999511719</ele>
        <time>2014-07-26T09:47:55.000Z</time>
      </trkpt>
      <trkpt lat="46.80102" lon="6.49712">
        <ele>1383.8000488281</ele>
        <time>2014-07-26T09:48:00.000Z</time>
      </trkpt>
      <trkpt lat="46.80102" lon="6.49718">
        <ele>1382</ele>
        <time>2014-07-26T09:48:04.000Z</time>
      </trkpt>
      <trkpt lat="46.80103" lon="6.4972">
        <ele>1381.5999755859</ele>
        <time>2014-07-26T09:48:06.000Z</time>
      </trkpt>
      <trkpt lat="46.80104" lon="6.49724">
        <ele>1380.4000244141</ele>
        <time>2014-07-26T09:48:13.000Z</time>
      </trkpt>
      <trkpt lat="46.80107" lon="6.4973">
        <ele>1379.1999511719</ele>
        <time>2014-07-26T09:48:16.000Z</time>
      </trkpt>
      <trkpt lat="46.80107" lon="6.49738">
        <ele>1378.4000244141</ele>
        <time>2014-07-26T09:48:21.000Z</time>
      </trkpt>
      <trkpt lat="46.80111" lon="6.49747">
        <ele>1379.4000244141</ele>
        <time>2014-07-26T09:48:28.000Z</time>
      </trkpt>
      <trkpt lat="46.80112" lon="6.49748">
        <ele>1379.4000244141</ele>
        <time>2014-07-26T09:48:29.000Z</time>
      </trkpt>
      <trkpt lat="46.80113" lon="6.4975">
        <ele>1379.8000488281</ele>
        <time>2014-07-26T09:48:31.000Z</time>
      </trkpt>
      <trkpt lat="46.80115" lon="6.49755">
        <ele>1380.4000244141</ele>
        <time>2014-07-26T09:48:36.000Z</time>
      </trkpt>
      <trkpt lat="46.80119" lon="6.49759">
        <ele>1381.1999511719</ele>
        <time>2014-07-26T09:48:40.000Z</time>
      </trkpt>
      <trkpt lat="46.80121" lon="6.49762">
        <ele>1381.8000488281</ele>
        <time>2014-07-26T09:48:44.000Z</time>
      </trkpt>
      <trkpt lat="46.80123" lon="6.49766">
        <ele>1382.4000244141</ele>
        <time>2014-07-26T09:48:50.000Z</time>
      </trkpt>
      <trkpt lat="46.80127" lon="6.49773">
        <ele>1383.1999511719</ele>
        <time>2014-07-26T09:48:56.000Z</time>
      </trkpt>
      <trkpt lat="46.80129" lon="6.49778">
        <ele>1383.8000488281</ele>
        <time>2014-07-26T09:49:01.000Z</time>
      </trkpt>
      <trkpt lat="46.8013" lon="6.49785">
        <ele>1384.1999511719</ele>
        <time>2014-07-26T09:49:06.000Z</time>
      </trkpt>
      <trkpt lat="46.8013" lon="6.49785">
        <ele>1384.1999511719</ele>
        <time>2014-07-26T09:49:07.000Z</time>
      </trkpt>
      <trkpt lat="46.8013" lon="6.49786">
        <ele>1384.1999511719</ele>
        <time>2014-07-26T09:49:08.000Z</time>
      </trkpt>
      <trkpt lat="46.8013" lon="6.4979">
        <ele>1384.1999511719</ele>
        <time>2014-07-26T09:49:12.000Z</time>
      </trkpt>
      <trkpt lat="46.8013" lon="6.49796">
        <ele>1382.5999755859</ele>
        <time>2014-07-26T09:49:18.000Z</time>
      </trkpt>
      <trkpt lat="46.80131" lon="6.49802">
        <ele>1381.5999755859</ele>
        <time>2014-07-26T09:49:23.000Z</time>
      </trkpt>
      <trkpt lat="46.80132" lon="6.49805">
        <ele>1381</ele>
        <time>2014-07-26T09:49:25.000Z</time>
      </trkpt>
      <trkpt lat="46.80132" lon="6.49807">
        <ele>1380.4000244141</ele>
        <time>2014-07-26T09:49:27.000Z</time>
      </trkpt>
      <trkpt lat="46.80134" lon="6.49812">
        <ele>1379.8000488281</ele>
        <time>2014-07-26T09:49:33.000Z</time>
      </trkpt>
      <trkpt lat="46.80135" lon="6.49813">
        <ele>1379.8000488281</ele>
        <time>2014-07-26T09:49:34.000Z</time>
      </trkpt>
      <trkpt lat="46.80137" lon="6.49817">
        <ele>1379.5999755859</ele>
        <time>2014-07-26T09:49:37.000Z</time>
      </trkpt>
      <trkpt lat="46.8014" lon="6.49823">
        <ele>1380.5999755859</ele>
        <time>2014-07-26T09:49:44.000Z</time>
      </trkpt>
      <trkpt lat="46.80143" lon="6.49824">
        <ele>1381.8000488281</ele>
        <time>2014-07-26T09:49:52.000Z</time>
      </trkpt>
      <trkpt lat="46.80149" lon="6.49832">
        <ele>1383.8000488281</ele>
        <time>2014-07-26T09:50:09.000Z</time>
      </trkpt>
      <trkpt lat="46.80149" lon="6.49836">
        <ele>1383.1999511719</ele>
        <time>2014-07-26T09:50:12.000Z</time>
      </trkpt>
      <trkpt lat="46.80148" lon="6.49845">
        <ele>1381</ele>
        <time>2014-07-26T09:50:18.000Z</time>
      </trkpt>
      <trkpt lat="46.80148" lon="6.49846">
        <ele>1380.5999755859</ele>
        <time>2014-07-26T09:50:19.000Z</time>
      </trkpt>
      <trkpt lat="46.80147" lon="6.49848">
        <ele>1380</ele>
        <time>2014-07-26T09:50:21.000Z</time>
      </trkpt>
      <trkpt lat="46.80148" lon="6.49851">
        <ele>1379.8000488281</ele>
        <time>2014-07-26T09:50:25.000Z</time>
      </trkpt>
      <trkpt lat="46.8015" lon="6.49857">
        <ele>1380</ele>
        <time>2014-07-26T09:50:31.000Z</time>
      </trkpt>
      <trkpt lat="46.80151" lon="6.49862">
        <ele>1379.8000488281</ele>
        <time>2014-07-26T09:50:35.000Z</time>
      </trkpt>
      <trkpt lat="46.80152" lon="6.49869">
        <ele>1378.8000488281</ele>
        <time>2014-07-26T09:50:41.000Z</time>
      </trkpt>
      <trkpt lat="46.80153" lon="6.49876">
        <ele>1378.1999511719</ele>
        <time>2014-07-26T09:50:46.000Z</time>
      </trkpt>
      <trkpt lat="46.80153" lon="6.49883">
        <ele>1377.1999511719</ele>
        <time>2014-07-26T09:50:50.000Z</time>
      </trkpt>
      <trkpt lat="46.80153" lon="6.49886">
        <ele>1376.5999755859</ele>
        <time>2014-07-26T09:50:52.000Z</time>
      </trkpt>
      <trkpt lat="46.80155" lon="6.4989">
        <ele>1376.4000244141</ele>
        <time>2014-07-26T09:50:56.000Z</time>
      </trkpt>
      <trkpt lat="46.80156" lon="6.49893">
        <ele>1376.1999511719</ele>
        <time>2014-07-26T09:50:58.000Z</time>
      </trkpt>
      <trkpt lat="46.80156" lon="6.49894">
        <ele>1376</ele>
        <time>2014-07-26T09:50:59.000Z</time>
      </trkpt>
      <trkpt lat="46.80159" lon="6.49904">
        <ele>1374.4000244141</ele>
        <time>2014-07-26T09:51:06.000Z</time>
      </trkpt>
      <trkpt lat="46.80159" lon="6.49906">
        <ele>1373.8000488281</ele>
        <time>2014-07-26T09:51:07.000Z</time>
      </trkpt>
      <trkpt lat="46.80159" lon="6.49908">
        <ele>1373</ele>
        <time>2014-07-26T09:51:09.000Z</time>
      </trkpt>
      <trkpt lat="46.8016" lon="6.49912">
        <ele>1371.1999511719</ele>
        <time>2014-07-26T09:51:13.000Z</time>
      </trkpt>
      <trkpt lat="46.80162" lon="6.49917">
        <ele>1370</ele>
        <time>2014-07-26T09:51:17.000Z</time>
      </trkpt>
      <trkpt lat="46.80163" lon="6.49919">
        <ele>1369.5999755859</ele>
        <time>2014-07-26T09:51:19.000Z</time>
      </trkpt>
      <trkpt lat="46.80167" lon="6.49929">
        <ele>1366.5999755859</ele>
        <time>2014-07-26T09:51:27.000Z</time>
      </trkpt>
      <trkpt lat="46.8017" lon="6.49937">
        <ele>1364.4000244141</ele>
        <time>2014-07-26T09:51:35.000Z</time>
      </trkpt>
      <trkpt lat="46.80173" lon="6.49945">
        <ele>1362</ele>
        <time>2014-07-26T09:51:42.000Z</time>
      </trkpt>
      <trkpt lat="46.80175" lon="6.49948">
        <ele>1361.4000244141</ele>
        <time>2014-07-26T09:51:45.000Z</time>
      </trkpt>
      <trkpt lat="46.80176" lon="6.49953">
        <ele>1359.5999755859</ele>
        <time>2014-07-26T09:51:53.000Z</time>
      </trkpt>
      <trkpt lat="46.80178" lon="6.49959">
        <ele>1357.8000488281</ele>
        <time>2014-07-26T09:51:58.000Z</time>
      </trkpt>
      <trkpt lat="46.80181" lon="6.49963">
        <ele>1357.4000244141</ele>
        <time>2014-07-26T09:52:04.000Z</time>
      </trkpt>
      <trkpt lat="46.80183" lon="6.49965">
        <ele>1357.1999511719</ele>
        <time>2014-07-26T09:52:06.000Z</time>
      </trkpt>
      <trkpt lat="46.80187" lon="6.49969">
        <ele>1356.5999755859</ele>
        <time>2014-07-26T09:52:11.000Z</time>
      </trkpt>
      <trkpt lat="46.8019" lon="6.49975">
        <ele>1355</ele>
        <time>2014-07-26T09:52:16.000Z</time>
      </trkpt>
      <trkpt lat="46.80191" lon="6.49976">
        <ele>1355</ele>
        <time>2014-07-26T09:52:18.000Z</time>
      </trkpt>
      <trkpt lat="46.80192" lon="6.49977">
        <ele>1354.8000488281</ele>
        <time>2014-07-26T09:52:20.000Z</time>
      </trkpt>
      <trkpt lat="46.80193" lon="6.4998">
        <ele>1354</ele>
        <time>2014-07-26T09:52:28.000Z</time>
      </trkpt>
      <trkpt lat="46.80194" lon="6.49982">
        <ele>1353.5999755859</ele>
        <time>2014-07-26T09:52:37.000Z</time>
      </trkpt>
      <trkpt lat="46.80198" lon="6.49985">
        <ele>1354</ele>
        <time>2014-07-26T09:53:03.000Z</time>
      </trkpt>
      <trkpt lat="46.80199" lon="6.49986">
        <ele>1354.4000244141</ele>
        <time>2014-07-26T09:53:06.000Z</time>
      </trkpt>
      <trkpt lat="46.80203" lon="6.4999">
        <ele>1355</ele>
        <time>2014-07-26T09:53:12.000Z</time>
      </trkpt>
      <trkpt lat="46.80203" lon="6.49991">
        <ele>1355.1999511719</ele>
        <time>2014-07-26T09:53:13.000Z</time>
      </trkpt>
      <trkpt lat="46.80205" lon="6.49995">
        <ele>1355.1999511719</ele>
        <time>2014-07-26T09:53:20.000Z</time>
      </trkpt>
      <trkpt lat="46.80208" lon="6.49998">
        <ele>1356</ele>
        <time>2014-07-26T09:53:30.000Z</time>
      </trkpt>
      <trkpt lat="46.80211" lon="6.50001">
        <ele>1356.1999511719</ele>
        <time>2014-07-26T09:53:35.000Z</time>
      </trkpt>
      <trkpt lat="46.80213" lon="6.50003">
        <ele>1356.5999755859</ele>
        <time>2014-07-26T09:53:39.000Z</time>
      </trkpt>
      <trkpt lat="46.80215" lon="6.50008">
        <ele>1356.8000488281</ele>
        <time>2014-07-26T09:53:44.000Z</time>
      </trkpt>
      <trkpt lat="46.80219" lon="6.50015">
        <ele>1357.1999511719</ele>
        <time>2014-07-26T09:53:49.000Z</time>
      </trkpt>
      <trkpt lat="46.80219" lon="6.50015">
        <ele>1357.1999511719</ele>
        <time>2014-07-26T09:53:50.000Z</time>
      </trkpt>
      <trkpt lat="46.8022" lon="6.50016">
        <ele>1357</ele>
        <time>2014-07-26T09:53:51.000Z</time>
      </trkpt>
      <trkpt lat="46.8022" lon="6.5002">
        <ele>1356.8000488281</ele>
        <time>2014-07-26T09:53:57.000Z</time>
      </trkpt>
      <trkpt lat="46.80225" lon="6.50025">
        <ele>1357.4000244141</ele>
        <time>2014-07-26T09:54:03.000Z</time>
      </trkpt>
      <trkpt lat="46.80227" lon="6.50027">
        <ele>1357.8000488281</ele>
        <time>2014-07-26T09:54:05.000Z</time>
      </trkpt>
      <trkpt lat="46.80228" lon="6.50033">
        <ele>1357.5999755859</ele>
        <time>2014-07-26T09:54:11.000Z</time>
      </trkpt>
      <trkpt lat="46.80229" lon="6.50035">
        <ele>1357.4000244141</ele>
        <time>2014-07-26T09:54:13.000Z</time>
      </trkpt>
      <trkpt lat="46.80234" lon="6.50046">
        <ele>1357.5999755859</ele>
        <time>2014-07-26T09:54:21.000Z</time>
      </trkpt>
      <trkpt lat="46.80235" lon="6.5005">
        <ele>1357.4000244141</ele>
        <time>2014-07-26T09:54:23.000Z</time>
      </trkpt>
      <trkpt lat="46.80236" lon="6.50059">
        <ele>1356.1999511719</ele>
        <time>2014-07-26T09:54:31.000Z</time>
      </trkpt>
      <trkpt lat="46.80236" lon="6.50061">
        <ele>1356.1999511719</ele>
        <time>2014-07-26T09:54:33.000Z</time>
      </trkpt>
      <trkpt lat="46.80237" lon="6.50063">
        <ele>1356</ele>
        <time>2014-07-26T09:54:35.000Z</time>
      </trkpt>
      <trkpt lat="46.80238" lon="6.5007">
        <ele>1354.4000244141</ele>
        <time>2014-07-26T09:54:42.000Z</time>
      </trkpt>
      <trkpt lat="46.80238" lon="6.50075">
        <ele>1352.4000244141</ele>
        <time>2014-07-26T09:54:49.000Z</time>
      </trkpt>
      <trkpt lat="46.80239" lon="6.5008">
        <ele>1350.8000488281</ele>
        <time>2014-07-26T09:54:54.000Z</time>
      </trkpt>
      <trkpt lat="46.80241" lon="6.50086">
        <ele>1349</ele>
        <time>2014-07-26T09:54:59.000Z</time>
      </trkpt>
      <trkpt lat="46.80242" lon="6.50094">
        <ele>1345.8000488281</ele>
        <time>2014-07-26T09:55:06.000Z</time>
      </trkpt>
      <trkpt lat="46.80241" lon="6.50101">
        <ele>1343</ele>
        <time>2014-07-26T09:55:12.000Z</time>
      </trkpt>
      <trkpt lat="46.80241" lon="6.50102">
        <ele>1342.5999755859</ele>
        <time>2014-07-26T09:55:13.000Z</time>
      </trkpt>
      <trkpt lat="46.80243" lon="6.50109">
        <ele>1340.4000244141</ele>
        <time>2014-07-26T09:55:18.000Z</time>
      </trkpt>
      <trkpt lat="46.80246" lon="6.50116">
        <ele>1338.5999755859</ele>
        <time>2014-07-26T09:55:23.000Z</time>
      </trkpt>
      <trkpt lat="46.80247" lon="6.50118">
        <ele>1338.1999511719</ele>
        <time>2014-07-26T09:55:24.000Z</time>
      </trkpt>
      <trkpt lat="46.80247" lon="6.50119">
        <ele>1337.5999755859</ele>
        <time>2014-07-26T09:55:25.000Z</time>
      </trkpt>
      <trkpt lat="46.80247" lon="6.50127">
        <ele>1334.1999511719</ele>
        <time>2014-07-26T09:55:30.000Z</time>
      </trkpt>
      <trkpt lat="46.80245" lon="6.50133">
        <ele>1331.1999511719</ele>
        <time>2014-07-26T09:55:34.000Z</time>
      </trkpt>
      <trkpt lat="46.80245" lon="6.50135">
        <ele>1330.4000244141</ele>
        <time>2014-07-26T09:55:35.000Z</time>
      </trkpt>
      <trkpt lat="46.80244" lon="6.50138">
        <ele>1328.8000488281</ele>
        <time>2014-07-26T09:55:37.000Z</time>
      </trkpt>
      <trkpt lat="46.80245" lon="6.50143">
        <ele>1327.1999511719</ele>
        <time>2014-07-26T09:55:40.000Z</time>
      </trkpt>
      <trkpt lat="46.80247" lon="6.5015">
        <ele>1325.1999511719</ele>
        <time>2014-07-26T09:55:45.000Z</time>
      </trkpt>
      <trkpt lat="46.80249" lon="6.50154">
        <ele>1325.4000244141</ele>
        <time>2014-07-26T09:55:50.000Z</time>
      </trkpt>
      <trkpt lat="46.8025" lon="6.50155">
        <ele>1325.5999755859</ele>
        <time>2014-07-26T09:55:51.000Z</time>
      </trkpt>
      <trkpt lat="46.80251" lon="6.50157">
        <ele>1326</ele>
        <time>2014-07-26T09:55:57.000Z</time>
      </trkpt>
      <trkpt lat="46.80253" lon="6.50161">
        <ele>1326.1999511719</ele>
        <time>2014-07-26T09:56:01.000Z</time>
      </trkpt>
      <trkpt lat="46.80256" lon="6.50168">
        <ele>1326.8000488281</ele>
        <time>2014-07-26T09:56:06.000Z</time>
      </trkpt>
      <trkpt lat="46.80256" lon="6.5017">
        <ele>1326.8000488281</ele>
        <time>2014-07-26T09:56:07.000Z</time>
      </trkpt>
      <trkpt lat="46.80259" lon="6.50181">
        <ele>1326.5999755859</ele>
        <time>2014-07-26T09:56:13.000Z</time>
      </trkpt>
      <trkpt lat="46.80261" lon="6.50187">
        <ele>1327</ele>
        <time>2014-07-26T09:56:18.000Z</time>
      </trkpt>
      <trkpt lat="46.80263" lon="6.50191">
        <ele>1327.1999511719</ele>
        <time>2014-07-26T09:56:21.000Z</time>
      </trkpt>
      <trkpt lat="46.80264" lon="6.50193">
        <ele>1327.1999511719</ele>
        <time>2014-07-26T09:56:23.000Z</time>
      </trkpt>
      <trkpt lat="46.80266" lon="6.50201">
        <ele>1327.1999511719</ele>
        <time>2014-07-26T09:56:29.000Z</time>
      </trkpt>
      <trkpt lat="46.80266" lon="6.50202">
        <ele>1327.1999511719</ele>
        <time>2014-07-26T09:56:30.000Z</time>
      </trkpt>
      <trkpt lat="46.80269" lon="6.50212">
        <ele>1327.5999755859</ele>
        <time>2014-07-26T09:56:38.000Z</time>
      </trkpt>
      <trkpt lat="46.8027" lon="6.50214">
        <ele>1327.5999755859</ele>
        <time>2014-07-26T09:56:39.000Z</time>
      </trkpt>
      <trkpt lat="46.80273" lon="6.50221">
        <ele>1328</ele>
        <time>2014-07-26T09:56:44.000Z</time>
      </trkpt>
      <trkpt lat="46.80275" lon="6.50232">
        <ele>1327.8000488281</ele>
        <time>2014-07-26T09:56:51.000Z</time>
      </trkpt>
      <trkpt lat="46.80276" lon="6.50238">
        <ele>1327.4000244141</ele>
        <time>2014-07-26T09:56:57.000Z</time>
      </trkpt>
      <trkpt lat="46.80277" lon="6.50246">
        <ele>1327.1999511719</ele>
        <time>2014-07-26T09:57:05.000Z</time>
      </trkpt>
      <trkpt lat="46.80278" lon="6.50255">
        <ele>1326.5999755859</ele>
        <time>2014-07-26T09:57:13.000Z</time>
      </trkpt>
      <trkpt lat="46.80278" lon="6.50264">
        <ele>1326</ele>
        <time>2014-07-26T09:57:22.000Z</time>
      </trkpt>
      <trkpt lat="46.8028" lon="6.50272">
        <ele>1325.5999755859</ele>
        <time>2014-07-26T09:57:29.000Z</time>
      </trkpt>
      <trkpt lat="46.8028" lon="6.50278">
        <ele>1325.1999511719</ele>
        <time>2014-07-26T09:57:35.000Z</time>
      </trkpt>
      <trkpt lat="46.8028" lon="6.50287">
        <ele>1324.1999511719</ele>
        <time>2014-07-26T09:57:42.000Z</time>
      </trkpt>
      <trkpt lat="46.80279" lon="6.50298">
        <ele>1322.4000244141</ele>
        <time>2014-07-26T09:57:50.000Z</time>
      </trkpt>
      <trkpt lat="46.80278" lon="6.5031">
        <ele>1320.4000244141</ele>
        <time>2014-07-26T09:57:58.000Z</time>
      </trkpt>
      <trkpt lat="46.80276" lon="6.50316">
        <ele>1319</ele>
        <time>2014-07-26T09:58:03.000Z</time>
      </trkpt>
      <trkpt lat="46.80275" lon="6.5032">
        <ele>1318.4000244141</ele>
        <time>2014-07-26T09:58:10.000Z</time>
      </trkpt>
      <trkpt lat="46.80274" lon="6.50328">
        <ele>1318.1999511719</ele>
        <time>2014-07-26T09:58:16.000Z</time>
      </trkpt>
      <trkpt lat="46.80273" lon="6.50334">
        <ele>1317.5999755859</ele>
        <time>2014-07-26T09:58:22.000Z</time>
      </trkpt>
      <trkpt lat="46.80273" lon="6.50338">
        <ele>1317.5999755859</ele>
        <time>2014-07-26T09:58:25.000Z</time>
      </trkpt>
      <trkpt lat="46.80271" lon="6.50345">
        <ele>1317</ele>
        <time>2014-07-26T09:58:31.000Z</time>
      </trkpt>
      <trkpt lat="46.80271" lon="6.50354">
        <ele>1316.8000488281</ele>
        <time>2014-07-26T09:58:39.000Z</time>
      </trkpt>
      <trkpt lat="46.80271" lon="6.50358">
        <ele>1316.1999511719</ele>
        <time>2014-07-26T09:58:42.000Z</time>
      </trkpt>
      <trkpt lat="46.80271" lon="6.50363">
        <ele>1316</ele>
        <time>2014-07-26T09:58:46.000Z</time>
      </trkpt>
      <trkpt lat="46.80271" lon="6.50369">
        <ele>1315.8000488281</ele>
        <time>2014-07-26T09:58:53.000Z</time>
      </trkpt>
      <trkpt lat="46.8027" lon="6.50376">
        <ele>1315</ele>
        <time>2014-07-26T09:58:58.000Z</time>
      </trkpt>
      <trkpt lat="46.8027" lon="6.50377">
        <ele>1315</ele>
        <time>2014-07-26T09:58:59.000Z</time>
      </trkpt>
      <trkpt lat="46.80271" lon="6.50385">
        <ele>1314.8000488281</ele>
        <time>2014-07-26T09:59:04.000Z</time>
      </trkpt>
      <trkpt lat="46.80272" lon="6.50392">
        <ele>1314.8000488281</ele>
        <time>2014-07-26T09:59:10.000Z</time>
      </trkpt>
      <trkpt lat="46.80273" lon="6.50398">
        <ele>1314.8000488281</ele>
        <time>2014-07-26T09:59:16.000Z</time>
      </trkpt>
      <trkpt lat="46.80274" lon="6.50403">
        <ele>1315.1999511719</ele>
        <time>2014-07-26T09:59:22.000Z</time>
      </trkpt>
      <trkpt lat="46.80277" lon="6.50407">
        <ele>1316.1999511719</ele>
        <time>2014-07-26T09:59:27.000Z</time>
      </trkpt>
      <trkpt lat="46.8028" lon="6.5041">
        <ele>1317</ele>
        <time>2014-07-26T09:59:31.000Z</time>
      </trkpt>
      <trkpt lat="46.80282" lon="6.50414">
        <ele>1317.5999755859</ele>
        <time>2014-07-26T09:59:38.000Z</time>
      </trkpt>
      <trkpt lat="46.80285" lon="6.50421">
        <ele>1318.4000244141</ele>
        <time>2014-07-26T09:59:43.000Z</time>
      </trkpt>
      <trkpt lat="46.80287" lon="6.50426">
        <ele>1319</ele>
        <time>2014-07-26T09:59:47.000Z</time>
      </trkpt>
      <trkpt lat="46.80288" lon="6.50433">
        <ele>1319</ele>
        <time>2014-07-26T09:59:56.000Z</time>
      </trkpt>
      <trkpt lat="46.80286" lon="6.5044">
        <ele>1317.4000244141</ele>
        <time>2014-07-26T10:00:00.000Z</time>
      </trkpt>
      <trkpt lat="46.80283" lon="6.50449">
        <ele>1315.4000244141</ele>
        <time>2014-07-26T10:00:07.000Z</time>
      </trkpt>
      <trkpt lat="46.80283" lon="6.50451">
        <ele>1315.1999511719</ele>
        <time>2014-07-26T10:00:08.000Z</time>
      </trkpt>
      <trkpt lat="46.8028" lon="6.50459">
        <ele>1313.1999511719</ele>
        <time>2014-07-26T10:00:15.000Z</time>
      </trkpt>
      <trkpt lat="46.80279" lon="6.50463">
        <ele>1312.4000244141</ele>
        <time>2014-07-26T10:00:19.000Z</time>
      </trkpt>
      <trkpt lat="46.80279" lon="6.50467">
        <ele>1312</ele>
        <time>2014-07-26T10:00:29.000Z</time>
      </trkpt>
      <trkpt lat="46.80279" lon="6.50472">
        <ele>1311.5999755859</ele>
        <time>2014-07-26T10:00:37.000Z</time>
      </trkpt>
      <trkpt lat="46.80279" lon="6.50482">
        <ele>1311.1999511719</ele>
        <time>2014-07-26T10:02:17.000Z</time>
      </trkpt>
      <trkpt lat="46.8028" lon="6.50485">
        <ele>1311.1999511719</ele>
        <time>2014-07-26T10:02:25.000Z</time>
      </trkpt>
      <trkpt lat="46.80283" lon="6.50488">
        <ele>1311.8000488281</ele>
        <time>2014-07-26T10:02:32.000Z</time>
      </trkpt>
      <trkpt lat="46.80285" lon="6.50488">
        <ele>1313</ele>
        <time>2014-07-26T10:02:36.000Z</time>
      </trkpt>
      <trkpt lat="46.80286" lon="6.50489">
        <ele>1313</ele>
        <time>2014-07-26T10:02:41.000Z</time>
      </trkpt>
      <trkpt lat="46.80287" lon="6.50494">
        <ele>1312.8000488281</ele>
        <time>2014-07-26T10:03:13.000Z</time>
      </trkpt>
      <trkpt lat="46.80285" lon="6.50494">
        <ele>1311.5999755859</ele>
        <time>2014-07-26T10:03:26.000Z</time>
      </trkpt>
      <trkpt lat="46.80283" lon="6.50488">
        <ele>1311.8000488281</ele>
        <time>2014-07-26T10:03:32.000Z</time>
      </trkpt>
      <trkpt lat="46.80282" lon="6.50483">
        <ele>1312.4000244141</ele>
        <time>2014-07-26T10:03:41.000Z</time>
      </trkpt>
      <trkpt lat="46.80281" lon="6.50481">
        <ele>1312.1999511719</ele>
        <time>2014-07-26T10:04:02.000Z</time>
      </trkpt>
      <trkpt lat="46.80282" lon="6.50471">
        <ele>1313</ele>
        <time>2014-07-26T10:05:39.000Z</time>
      </trkpt>
      <trkpt lat="46.80283" lon="6.50469">
        <ele>1314</ele>
        <time>2014-07-26T10:05:42.000Z</time>
      </trkpt>
      <trkpt lat="46.80285" lon="6.50468">
        <ele>1314.5999755859</ele>
        <time>2014-07-26T10:05:47.000Z</time>
      </trkpt>
      <trkpt lat="46.80286" lon="6.5047">
        <ele>1314.8000488281</ele>
        <time>2014-07-26T10:05:51.000Z</time>
      </trkpt>
      <trkpt lat="46.80287" lon="6.50471">
        <ele>1315.4000244141</ele>
        <time>2014-07-26T10:05:56.000Z</time>
      </trkpt>
      <trkpt lat="46.80291" lon="6.50473">
        <ele>1317</ele>
        <time>2014-07-26T10:06:02.000Z</time>
      </trkpt>
      <trkpt lat="46.80294" lon="6.50475">
        <ele>1318.1999511719</ele>
        <time>2014-07-26T10:06:08.000Z</time>
      </trkpt>
      <trkpt lat="46.80297" lon="6.50479">
        <ele>1319.4000244141</ele>
        <time>2014-07-26T10:06:15.000Z</time>
      </trkpt>
      <trkpt lat="46.80299" lon="6.50483">
        <ele>1320</ele>
        <time>2014-07-26T10:06:17.000Z</time>
      </trkpt>
      <trkpt lat="46.803" lon="6.50487">
        <ele>1320</ele>
        <time>2014-07-26T10:06:21.000Z</time>
      </trkpt>
      <trkpt lat="46.80302" lon="6.5049">
        <ele>1320.1999511719</ele>
        <time>2014-07-26T10:06:25.000Z</time>
      </trkpt>
      <trkpt lat="46.80305" lon="6.50499">
        <ele>1320</ele>
        <time>2014-07-26T10:06:32.000Z</time>
      </trkpt>
      <trkpt lat="46.80308" lon="6.50503">
        <ele>1320.4000244141</ele>
        <time>2014-07-26T10:06:36.000Z</time>
      </trkpt>
      <trkpt lat="46.80312" lon="6.50513">
        <ele>1320.5999755859</ele>
        <time>2014-07-26T10:06:42.000Z</time>
      </trkpt>
      <trkpt lat="46.80313" lon="6.50513">
        <ele>1320.5999755859</ele>
        <time>2014-07-26T10:06:43.000Z</time>
      </trkpt>
      <trkpt lat="46.80314" lon="6.50514">
        <ele>1321</ele>
        <time>2014-07-26T10:06:44.000Z</time>
      </trkpt>
      <trkpt lat="46.80317" lon="6.50522">
        <ele>1321</ele>
        <time>2014-07-26T10:06:49.000Z</time>
      </trkpt>
      <trkpt lat="46.80316" lon="6.50527">
        <ele>1319.4000244141</ele>
        <time>2014-07-26T10:06:51.000Z</time>
      </trkpt>
      <trkpt lat="46.80316" lon="6.50536">
        <ele>1318</ele>
        <time>2014-07-26T10:06:57.000Z</time>
      </trkpt>
      <trkpt lat="46.80318" lon="6.50545">
        <ele>1317.4000244141</ele>
        <time>2014-07-26T10:07:04.000Z</time>
      </trkpt>
      <trkpt lat="46.80322" lon="6.50549">
        <ele>1318.1999511719</ele>
        <time>2014-07-26T10:07:08.000Z</time>
      </trkpt>
      <trkpt lat="46.80323" lon="6.50551">
        <ele>1317.8000488281</ele>
        <time>2014-07-26T10:07:10.000Z</time>
      </trkpt>
      <trkpt lat="46.80328" lon="6.50558">
        <ele>1316.4000244141</ele>
        <time>2014-07-26T10:07:15.000Z</time>
      </trkpt>
      <trkpt lat="46.80329" lon="6.50567">
        <ele>1314.8000488281</ele>
        <time>2014-07-26T10:07:20.000Z</time>
      </trkpt>
      <trkpt lat="46.80329" lon="6.50574">
        <ele>1314</ele>
        <time>2014-07-26T10:07:25.000Z</time>
      </trkpt>
      <trkpt lat="46.80331" lon="6.50577">
        <ele>1313.5999755859</ele>
        <time>2014-07-26T10:07:27.000Z</time>
      </trkpt>
      <trkpt lat="46.80333" lon="6.50582">
        <ele>1313</ele>
        <time>2014-07-26T10:07:32.000Z</time>
      </trkpt>
      <trkpt lat="46.80336" lon="6.5059">
        <ele>1312.4000244141</ele>
        <time>2014-07-26T10:07:39.000Z</time>
      </trkpt>
      <trkpt lat="46.80339" lon="6.50594">
        <ele>1311.8000488281</ele>
        <time>2014-07-26T10:07:46.000Z</time>
      </trkpt>
      <trkpt lat="46.80341" lon="6.50604">
        <ele>1311</ele>
        <time>2014-07-26T10:08:01.000Z</time>
      </trkpt>
      <trkpt lat="46.80343" lon="6.50607">
        <ele>1310.5999755859</ele>
        <time>2014-07-26T10:08:04.000Z</time>
      </trkpt>
      <trkpt lat="46.80346" lon="6.50616">
        <ele>1309.8000488281</ele>
        <time>2014-07-26T10:08:11.000Z</time>
      </trkpt>
      <trkpt lat="46.80351" lon="6.50622">
        <ele>1309</ele>
        <time>2014-07-26T10:08:16.000Z</time>
      </trkpt>
      <trkpt lat="46.80353" lon="6.50627">
        <ele>1308.4000244141</ele>
        <time>2014-07-26T10:08:20.000Z</time>
      </trkpt>
      <trkpt lat="46.80356" lon="6.50635">
        <ele>1307.5999755859</ele>
        <time>2014-07-26T10:08:25.000Z</time>
      </trkpt>
      <trkpt lat="46.80357" lon="6.50643">
        <ele>1307</ele>
        <time>2014-07-26T10:08:31.000Z</time>
      </trkpt>
      <trkpt lat="46.80357" lon="6.50649">
        <ele>1306.5999755859</ele>
        <time>2014-07-26T10:08:35.000Z</time>
      </trkpt>
      <trkpt lat="46.80357" lon="6.50648">
        <ele>1306.5999755859</ele>
        <time>2014-07-26T10:08:36.000Z</time>
      </trkpt>
      <trkpt lat="46.80359" lon="6.50649">
        <ele>1306.4000244141</ele>
        <time>2014-07-26T10:08:38.000Z</time>
      </trkpt>
      <trkpt lat="46.80363" lon="6.50656">
        <ele>1305.5999755859</ele>
        <time>2014-07-26T10:08:44.000Z</time>
      </trkpt>
      <trkpt lat="46.80365" lon="6.50662">
        <ele>1305</ele>
        <time>2014-07-26T10:08:49.000Z</time>
      </trkpt>
      <trkpt lat="46.8037" lon="6.5067">
        <ele>1304.1999511719</ele>
        <time>2014-07-26T10:08:55.000Z</time>
      </trkpt>
      <trkpt lat="46.8037" lon="6.50672">
        <ele>1304</ele>
        <time>2014-07-26T10:08:56.000Z</time>
      </trkpt>
      <trkpt lat="46.80376" lon="6.50683">
        <ele>1302.8000488281</ele>
        <time>2014-07-26T10:09:03.000Z</time>
      </trkpt>
      <trkpt lat="46.80379" lon="6.50692">
        <ele>1301.8000488281</ele>
        <time>2014-07-26T10:09:09.000Z</time>
      </trkpt>
      <trkpt lat="46.8038" lon="6.50699">
        <ele>1301.1999511719</ele>
        <time>2014-07-26T10:09:14.000Z</time>
      </trkpt>
      <trkpt lat="46.80382" lon="6.507">
        <ele>1301</ele>
        <time>2014-07-26T10:09:16.000Z</time>
      </trkpt>
      <trkpt lat="46.8039" lon="6.50711">
        <ele>1299.8000488281</ele>
        <time>2014-07-26T10:09:25.000Z</time>
      </trkpt>
      <trkpt lat="46.80393" lon="6.50713">
        <ele>1299.1999511719</ele>
        <time>2014-07-26T10:09:28.000Z</time>
      </trkpt>
      <trkpt lat="46.80394" lon="6.50725">
        <ele>1298.1999511719</ele>
        <time>2014-07-26T10:09:37.000Z</time>
      </trkpt>
      <trkpt lat="46.80393" lon="6.50735">
        <ele>1297</ele>
        <time>2014-07-26T10:09:44.000Z</time>
      </trkpt>
      <trkpt lat="46.80393" lon="6.50736">
        <ele>1296.8000488281</ele>
        <time>2014-07-26T10:09:45.000Z</time>
      </trkpt>
      <trkpt lat="46.80394" lon="6.50737">
        <ele>1296.5999755859</ele>
        <time>2014-07-26T10:09:46.000Z</time>
      </trkpt>
      <trkpt lat="46.80395" lon="6.50739">
        <ele>1296.5999755859</ele>
        <time>2014-07-26T10:09:48.000Z</time>
      </trkpt>
      <trkpt lat="46.80395" lon="6.50741">
        <ele>1296.1999511719</ele>
        <time>2014-07-26T10:09:50.000Z</time>
      </trkpt>
      <trkpt lat="46.80394" lon="6.50751">
        <ele>1295</ele>
        <time>2014-07-26T10:09:55.000Z</time>
      </trkpt>
      <trkpt lat="46.80394" lon="6.50752">
        <ele>1294.8000488281</ele>
        <time>2014-07-26T10:09:56.000Z</time>
      </trkpt>
      <trkpt lat="46.80392" lon="6.50755">
        <ele>1294.5999755859</ele>
        <time>2014-07-26T10:09:59.000Z</time>
      </trkpt>
      <trkpt lat="46.8039" lon="6.50757">
        <ele>1294.4000244141</ele>
        <time>2014-07-26T10:10:01.000Z</time>
      </trkpt>
      <trkpt lat="46.80382" lon="6.50763">
        <ele>1293.8000488281</ele>
        <time>2014-07-26T10:10:08.000Z</time>
      </trkpt>
      <trkpt lat="46.80379" lon="6.50764">
        <ele>1293.5999755859</ele>
        <time>2014-07-26T10:10:11.000Z</time>
      </trkpt>
      <trkpt lat="46.80378" lon="6.50765">
        <ele>1293.5999755859</ele>
        <time>2014-07-26T10:10:13.000Z</time>
      </trkpt>
      <trkpt lat="46.80374" lon="6.50769">
        <ele>1293</ele>
        <time>2014-07-26T10:10:18.000Z</time>
      </trkpt>
      <trkpt lat="46.8037" lon="6.50773">
        <ele>1292.5999755859</ele>
        <time>2014-07-26T10:10:22.000Z</time>
      </trkpt>
      <trkpt lat="46.80365" lon="6.50778">
        <ele>1292.1999511719</ele>
        <time>2014-07-26T10:10:27.000Z</time>
      </trkpt>
      <trkpt lat="46.80363" lon="6.50779">
        <ele>1292</ele>
        <time>2014-07-26T10:10:28.000Z</time>
      </trkpt>
      <trkpt lat="46.80353" lon="6.50788">
        <ele>1290.4000244141</ele>
        <time>2014-07-26T10:10:37.000Z</time>
      </trkpt>
      <trkpt lat="46.80348" lon="6.50795">
        <ele>1289.5999755859</ele>
        <time>2014-07-26T10:10:43.000Z</time>
      </trkpt>
      <trkpt lat="46.80347" lon="6.50796">
        <ele>1289.4000244141</ele>
        <time>2014-07-26T10:10:44.000Z</time>
      </trkpt>
      <trkpt lat="46.80342" lon="6.50799">
        <ele>1288.8000488281</ele>
        <time>2014-07-26T10:10:48.000Z</time>
      </trkpt>
      <trkpt lat="46.8034" lon="6.50801">
        <ele>1288.5999755859</ele>
        <time>2014-07-26T10:10:50.000Z</time>
      </trkpt>
      <trkpt lat="46.80335" lon="6.50806">
        <ele>1287.5999755859</ele>
        <time>2014-07-26T10:10:56.000Z</time>
      </trkpt>
      <trkpt lat="46.80329" lon="6.50809">
        <ele>1287.1999511719</ele>
        <time>2014-07-26T10:11:01.000Z</time>
      </trkpt>
      <trkpt lat="46.80326" lon="6.50813">
        <ele>1286.5999755859</ele>
        <time>2014-07-26T10:11:06.000Z</time>
      </trkpt>
      <trkpt lat="46.80324" lon="6.50814">
        <ele>1286.4000244141</ele>
        <time>2014-07-26T10:11:07.000Z</time>
      </trkpt>
      <trkpt lat="46.80323" lon="6.50815">
        <ele>1286.1999511719</ele>
        <time>2014-07-26T10:11:08.000Z</time>
      </trkpt>
      <trkpt lat="46.80322" lon="6.50816">
        <ele>1286.1999511719</ele>
        <time>2014-07-26T10:11:09.000Z</time>
      </trkpt>
      <trkpt lat="46.80317" lon="6.50818">
        <ele>1283.5999755859</ele>
        <time>2014-07-26T10:11:14.000Z</time>
      </trkpt>
      <trkpt lat="46.80314" lon="6.50823">
        <ele>1281.4000244141</ele>
        <time>2014-07-26T10:11:18.000Z</time>
      </trkpt>
      <trkpt lat="46.80312" lon="6.50828">
        <ele>1280.1999511719</ele>
        <time>2014-07-26T10:11:22.000Z</time>
      </trkpt>
      <trkpt lat="46.80307" lon="6.50831">
        <ele>1277.5999755859</ele>
        <time>2014-07-26T10:11:25.000Z</time>
      </trkpt>
      <trkpt lat="46.80307" lon="6.50835">
        <ele>1277.1999511719</ele>
        <time>2014-07-26T10:11:29.000Z</time>
      </trkpt>
      <trkpt lat="46.80308" lon="6.50839">
        <ele>1277.1999511719</ele>
        <time>2014-07-26T10:11:31.000Z</time>
      </trkpt>
      <trkpt lat="46.80308" lon="6.50843">
        <ele>1276.8000488281</ele>
        <time>2014-07-26T10:11:34.000Z</time>
      </trkpt>
      <trkpt lat="46.80313" lon="6.50849">
        <ele>1278.5999755859</ele>
        <time>2014-07-26T10:11:39.000Z</time>
      </trkpt>
      <trkpt lat="46.80314" lon="6.50856">
        <ele>1278.5999755859</ele>
        <time>2014-07-26T10:11:43.000Z</time>
      </trkpt>
      <trkpt lat="46.80314" lon="6.50862">
        <ele>1278</ele>
        <time>2014-07-26T10:11:47.000Z</time>
      </trkpt>
      <trkpt lat="46.80314" lon="6.50863">
        <ele>1278</ele>
        <time>2014-07-26T10:11:48.000Z</time>
      </trkpt>
      <trkpt lat="46.80315" lon="6.50866">
        <ele>1277.8000488281</ele>
        <time>2014-07-26T10:11:51.000Z</time>
      </trkpt>
      <trkpt lat="46.80313" lon="6.50869">
        <ele>1276.5999755859</ele>
        <time>2014-07-26T10:11:55.000Z</time>
      </trkpt>
      <trkpt lat="46.80311" lon="6.5087">
        <ele>1276</ele>
        <time>2014-07-26T10:12:04.000Z</time>
      </trkpt>
      <trkpt lat="46.80309" lon="6.50878">
        <ele>1274.1999511719</ele>
        <time>2014-07-26T10:12:26.000Z</time>
      </trkpt>
      <trkpt lat="46.8031" lon="6.5089">
        <ele>1273.4000244141</ele>
        <time>2014-07-26T10:12:33.000Z</time>
      </trkpt>
      <trkpt lat="46.80311" lon="6.50902">
        <ele>1273.4000244141</ele>
        <time>2014-07-26T10:12:41.000Z</time>
      </trkpt>
      <trkpt lat="46.8031" lon="6.50907">
        <ele>1273</ele>
        <time>2014-07-26T10:12:44.000Z</time>
      </trkpt>
      <trkpt lat="46.80311" lon="6.50922">
        <ele>1272.4000244141</ele>
        <time>2014-07-26T10:12:53.000Z</time>
      </trkpt>
      <trkpt lat="46.80313" lon="6.50934">
        <ele>1272.4000244141</ele>
        <time>2014-07-26T10:13:00.000Z</time>
      </trkpt>
      <trkpt lat="46.80313" lon="6.50935">
        <ele>1272.4000244141</ele>
        <time>2014-07-26T10:13:01.000Z</time>
      </trkpt>
      <trkpt lat="46.80315" lon="6.50946">
        <ele>1272.4000244141</ele>
        <time>2014-07-26T10:13:10.000Z</time>
      </trkpt>
      <trkpt lat="46.80317" lon="6.50957">
        <ele>1272.8000488281</ele>
        <time>2014-07-26T10:13:18.000Z</time>
      </trkpt>
      <trkpt lat="46.80318" lon="6.50961">
        <ele>1273</ele>
        <time>2014-07-26T10:13:21.000Z</time>
      </trkpt>
      <trkpt lat="46.8032" lon="6.50969">
        <ele>1273</ele>
        <time>2014-07-26T10:13:29.000Z</time>
      </trkpt>
      <trkpt lat="46.80322" lon="6.50975">
        <ele>1273.4000244141</ele>
        <time>2014-07-26T10:13:34.000Z</time>
      </trkpt>
      <trkpt lat="46.80323" lon="6.5098">
        <ele>1273.1999511719</ele>
        <time>2014-07-26T10:13:39.000Z</time>
      </trkpt>
      <trkpt lat="46.80328" lon="6.50992">
        <ele>1273.1999511719</ele>
        <time>2014-07-26T10:13:48.000Z</time>
      </trkpt>
      <trkpt lat="46.80329" lon="6.50996">
        <ele>1273.1999511719</ele>
        <time>2014-07-26T10:13:50.000Z</time>
      </trkpt>
      <trkpt lat="46.80331" lon="6.51003">
        <ele>1273.1999511719</ele>
        <time>2014-07-26T10:13:55.000Z</time>
      </trkpt>
      <trkpt lat="46.80334" lon="6.51008">
        <ele>1273.1999511719</ele>
        <time>2014-07-26T10:13:58.000Z</time>
      </trkpt>
      <trkpt lat="46.80336" lon="6.51013">
        <ele>1273.1999511719</ele>
        <time>2014-07-26T10:14:01.000Z</time>
      </trkpt>
      <trkpt lat="46.80339" lon="6.51026">
        <ele>1273.1999511719</ele>
        <time>2014-07-26T10:14:08.000Z</time>
      </trkpt>
      <trkpt lat="46.8034" lon="6.51033">
        <ele>1273</ele>
        <time>2014-07-26T10:14:11.000Z</time>
      </trkpt>
      <trkpt lat="46.8034" lon="6.51036">
        <ele>1273</ele>
        <time>2014-07-26T10:14:13.000Z</time>
      </trkpt>
      <trkpt lat="46.80341" lon="6.5104">
        <ele>1273</ele>
        <time>2014-07-26T10:14:17.000Z</time>
      </trkpt>
      <trkpt lat="46.80341" lon="6.51042">
        <ele>1273</ele>
        <time>2014-07-26T10:14:19.000Z</time>
      </trkpt>
      <trkpt lat="46.80343" lon="6.51049">
        <ele>1273</ele>
        <time>2014-07-26T10:14:27.000Z</time>
      </trkpt>
      <trkpt lat="46.80344" lon="6.51055">
        <ele>1273</ele>
        <time>2014-07-26T10:14:34.000Z</time>
      </trkpt>
      <trkpt lat="46.80345" lon="6.51062">
        <ele>1273</ele>
        <time>2014-07-26T10:14:40.000Z</time>
      </trkpt>
      <trkpt lat="46.80345" lon="6.51063">
        <ele>1272.8000488281</ele>
        <time>2014-07-26T10:14:41.000Z</time>
      </trkpt>
      <trkpt lat="46.80347" lon="6.51067">
        <ele>1273</ele>
        <time>2014-07-26T10:14:44.000Z</time>
      </trkpt>
      <trkpt lat="46.80349" lon="6.51078">
        <ele>1273.1999511719</ele>
        <time>2014-07-26T10:14:51.000Z</time>
      </trkpt>
      <trkpt lat="46.8035" lon="6.51083">
        <ele>1273.4000244141</ele>
        <time>2014-07-26T10:14:54.000Z</time>
      </trkpt>
      <trkpt lat="46.80351" lon="6.51086">
        <ele>1273.4000244141</ele>
        <time>2014-07-26T10:14:56.000Z</time>
      </trkpt>
      <trkpt lat="46.80352" lon="6.5109">
        <ele>1273.5999755859</ele>
        <time>2014-07-26T10:15:00.000Z</time>
      </trkpt>
      <trkpt lat="46.80354" lon="6.51097">
        <ele>1273.8000488281</ele>
        <time>2014-07-26T10:15:05.000Z</time>
      </trkpt>
      <trkpt lat="46.80355" lon="6.51103">
        <ele>1273.8000488281</ele>
        <time>2014-07-26T10:15:09.000Z</time>
      </trkpt>
      <trkpt lat="46.80357" lon="6.51111">
        <ele>1273.8000488281</ele>
        <time>2014-07-26T10:15:15.000Z</time>
      </trkpt>
      <trkpt lat="46.8036" lon="6.51118">
        <ele>1273.8000488281</ele>
        <time>2014-07-26T10:15:19.000Z</time>
      </trkpt>
      <trkpt lat="46.80363" lon="6.51127">
        <ele>1273.5999755859</ele>
        <time>2014-07-26T10:15:25.000Z</time>
      </trkpt>
      <trkpt lat="46.80366" lon="6.51135">
        <ele>1273.5999755859</ele>
        <time>2014-07-26T10:15:31.000Z</time>
      </trkpt>
      <trkpt lat="46.80369" lon="6.51145">
        <ele>1273.4000244141</ele>
        <time>2014-07-26T10:15:38.000Z</time>
      </trkpt>
      <trkpt lat="46.8037" lon="6.51151">
        <ele>1273.1999511719</ele>
        <time>2014-07-26T10:15:42.000Z</time>
      </trkpt>
      <trkpt lat="46.80369" lon="6.51157">
        <ele>1273</ele>
        <time>2014-07-26T10:15:47.000Z</time>
      </trkpt>
      <trkpt lat="46.80369" lon="6.51158">
        <ele>1273</ele>
        <time>2014-07-26T10:15:48.000Z</time>
      </trkpt>
      <trkpt lat="46.80369" lon="6.5116">
        <ele>1273</ele>
        <time>2014-07-26T10:15:49.000Z</time>
      </trkpt>
      <trkpt lat="46.80369" lon="6.51163">
        <ele>1272.8000488281</ele>
        <time>2014-07-26T10:15:52.000Z</time>
      </trkpt>
      <trkpt lat="46.80369" lon="6.5117">
        <ele>1272.5999755859</ele>
        <time>2014-07-26T10:15:59.000Z</time>
      </trkpt>
      <trkpt lat="46.80368" lon="6.51172">
        <ele>1272.5999755859</ele>
        <time>2014-07-26T10:16:00.000Z</time>
      </trkpt>
      <trkpt lat="46.80367" lon="6.51178">
        <ele>1272.1999511719</ele>
        <time>2014-07-26T10:16:05.000Z</time>
      </trkpt>
      <trkpt lat="46.80366" lon="6.51184">
        <ele>1272</ele>
        <time>2014-07-26T10:16:10.000Z</time>
      </trkpt>
      <trkpt lat="46.80366" lon="6.51192">
        <ele>1271.8000488281</ele>
        <time>2014-07-26T10:16:16.000Z</time>
      </trkpt>
      <trkpt lat="46.80366" lon="6.51193">
        <ele>1271.8000488281</ele>
        <time>2014-07-26T10:16:17.000Z</time>
      </trkpt>
      <trkpt lat="46.80368" lon="6.51196">
        <ele>1271.8000488281</ele>
        <time>2014-07-26T10:16:22.000Z</time>
      </trkpt>
      <trkpt lat="46.80369" lon="6.51204">
        <ele>1271.4000244141</ele>
        <time>2014-07-26T10:16:28.000Z</time>
      </trkpt>
      <trkpt lat="46.80371" lon="6.51209">
        <ele>1271</ele>
        <time>2014-07-26T10:16:35.000Z</time>
      </trkpt>
      <trkpt lat="46.80373" lon="6.51214">
        <ele>1270.8000488281</ele>
        <time>2014-07-26T10:16:41.000Z</time>
      </trkpt>
      <trkpt lat="46.80373" lon="6.5122">
        <ele>1270.1999511719</ele>
        <time>2014-07-26T10:16:46.000Z</time>
      </trkpt>
      <trkpt lat="46.80372" lon="6.51222">
        <ele>1270</ele>
        <time>2014-07-26T10:16:47.000Z</time>
      </trkpt>
      <trkpt lat="46.80374" lon="6.51229">
        <ele>1269.5999755859</ele>
        <time>2014-07-26T10:16:52.000Z</time>
      </trkpt>
      <trkpt lat="46.80373" lon="6.51238">
        <ele>1268.8000488281</ele>
        <time>2014-07-26T10:16:58.000Z</time>
      </trkpt>
      <trkpt lat="46.80369" lon="6.51241">
        <ele>1268.1999511719</ele>
        <time>2014-07-26T10:17:02.000Z</time>
      </trkpt>
      <trkpt lat="46.80369" lon="6.51242">
        <ele>1268.1999511719</ele>
        <time>2014-07-26T10:17:03.000Z</time>
      </trkpt>
      <trkpt lat="46.8037" lon="6.51246">
        <ele>1268.4000244141</ele>
        <time>2014-07-26T10:17:08.000Z</time>
      </trkpt>
      <trkpt lat="46.80371" lon="6.51251">
        <ele>1269</ele>
        <time>2014-07-26T10:17:15.000Z</time>
      </trkpt>
      <trkpt lat="46.80372" lon="6.51256">
        <ele>1269.1999511719</ele>
        <time>2014-07-26T10:17:19.000Z</time>
      </trkpt>
      <trkpt lat="46.80371" lon="6.51261">
        <ele>1269.1999511719</ele>
        <time>2014-07-26T10:17:22.000Z</time>
      </trkpt>
      <trkpt lat="46.80371" lon="6.51267">
        <ele>1269.1999511719</ele>
        <time>2014-07-26T10:17:26.000Z</time>
      </trkpt>
      <trkpt lat="46.80371" lon="6.51268">
        <ele>1269.4000244141</ele>
        <time>2014-07-26T10:17:33.000Z</time>
      </trkpt>
      <trkpt lat="46.80371" lon="6.51269">
        <ele>1269.4000244141</ele>
        <time>2014-07-26T10:17:38.000Z</time>
      </trkpt>
      <trkpt lat="46.8037" lon="6.5127">
        <ele>1269</ele>
        <time>2014-07-26T10:17:44.000Z</time>
      </trkpt>
      <trkpt lat="46.80368" lon="6.51274">
        <ele>1268.8000488281</ele>
        <time>2014-07-26T10:17:53.000Z</time>
      </trkpt>
      <trkpt lat="46.80369" lon="6.51279">
        <ele>1269</ele>
        <time>2014-07-26T10:17:55.000Z</time>
      </trkpt>
      <trkpt lat="46.80368" lon="6.51284">
        <ele>1268.1999511719</ele>
        <time>2014-07-26T10:17:58.000Z</time>
      </trkpt>
      <trkpt lat="46.80365" lon="6.51293">
        <ele>1265.4000244141</ele>
        <time>2014-07-26T10:18:05.000Z</time>
      </trkpt>
      <trkpt lat="46.80361" lon="6.51303">
        <ele>1262.1999511719</ele>
        <time>2014-07-26T10:18:13.000Z</time>
      </trkpt>
      <trkpt lat="46.80358" lon="6.51308">
        <ele>1260.4000244141</ele>
        <time>2014-07-26T10:18:19.000Z</time>
      </trkpt>
      <trkpt lat="46.80355" lon="6.51312">
        <ele>1258.5999755859</ele>
        <time>2014-07-26T10:18:25.000Z</time>
      </trkpt>
      <trkpt lat="46.80353" lon="6.51315">
        <ele>1257.4000244141</ele>
        <time>2014-07-26T10:18:35.000Z</time>
      </trkpt>
      <trkpt lat="46.80348" lon="6.51316">
        <ele>1255</ele>
        <time>2014-07-26T10:18:43.000Z</time>
      </trkpt>
      <trkpt lat="46.80343" lon="6.51317">
        <ele>1253.4000244141</ele>
        <time>2014-07-26T10:18:48.000Z</time>
      </trkpt>
      <trkpt lat="46.80342" lon="6.51317">
        <ele>1252.8000488281</ele>
        <time>2014-07-26T10:18:49.000Z</time>
      </trkpt>
      <trkpt lat="46.80333" lon="6.51321">
        <ele>1249</ele>
        <time>2014-07-26T10:19:00.000Z</time>
      </trkpt>
      <trkpt lat="46.80331" lon="6.51321">
        <ele>1248.1999511719</ele>
        <time>2014-07-26T10:19:02.000Z</time>
      </trkpt>
      <trkpt lat="46.80325" lon="6.51316">
        <ele>1246.1999511719</ele>
        <time>2014-07-26T10:19:23.000Z</time>
      </trkpt>
      <trkpt lat="46.80322" lon="6.51316">
        <ele>1245.1999511719</ele>
        <time>2014-07-26T10:19:29.000Z</time>
      </trkpt>
      <trkpt lat="46.80319" lon="6.51321">
        <ele>1242.8000488281</ele>
        <time>2014-07-26T10:19:35.000Z</time>
      </trkpt>
      <trkpt lat="46.80318" lon="6.51325">
        <ele>1242</ele>
        <time>2014-07-26T10:21:23.000Z</time>
      </trkpt>
      <trkpt lat="46.80319" lon="6.51323">
        <ele>1242.5999755859</ele>
        <time>2014-07-26T10:21:53.000Z</time>
      </trkpt>
      <trkpt lat="46.80319" lon="6.51321">
        <ele>1242.4000244141</ele>
        <time>2014-07-26T10:22:30.000Z</time>
      </trkpt>
      <trkpt lat="46.8032" lon="6.51322">
        <ele>1243.1999511719</ele>
        <time>2014-07-26T10:22:37.000Z</time>
      </trkpt>
      <trkpt lat="46.80322" lon="6.51325">
        <ele>1244.5999755859</ele>
        <time>2014-07-26T10:23:03.000Z</time>
      </trkpt>
      <trkpt lat="46.80325" lon="6.51326">
        <ele>1245.8000488281</ele>
        <time>2014-07-26T10:23:16.000Z</time>
      </trkpt>
      <trkpt lat="46.80326" lon="6.51324">
        <ele>1246.4000244141</ele>
        <time>2014-07-26T10:23:23.000Z</time>
      </trkpt>
      <trkpt lat="46.80329" lon="6.51321">
        <ele>1247.4000244141</ele>
        <time>2014-07-26T10:23:47.000Z</time>
      </trkpt>
      <trkpt lat="46.80331" lon="6.51321">
        <ele>1248.4000244141</ele>
        <time>2014-07-26T10:23:54.000Z</time>
      </trkpt>
      <trkpt lat="46.80334" lon="6.51321">
        <ele>1249.4000244141</ele>
        <time>2014-07-26T10:24:00.000Z</time>
      </trkpt>
      <trkpt lat="46.80338" lon="6.51319">
        <ele>1251</ele>
        <time>2014-07-26T10:24:07.000Z</time>
      </trkpt>
      <trkpt lat="46.80342" lon="6.5132">
        <ele>1252.5999755859</ele>
        <time>2014-07-26T10:24:26.000Z</time>
      </trkpt>
      <trkpt lat="46.80346" lon="6.51319">
        <ele>1254.4000244141</ele>
        <time>2014-07-26T10:24:41.000Z</time>
      </trkpt>
      <trkpt lat="46.80351" lon="6.51314">
        <ele>1256.5999755859</ele>
        <time>2014-07-26T10:25:04.000Z</time>
      </trkpt>
      <trkpt lat="46.80356" lon="6.51315">
        <ele>1258.4000244141</ele>
        <time>2014-07-26T10:25:10.000Z</time>
      </trkpt>
      <trkpt lat="46.80364" lon="6.51318">
        <ele>1261.1999511719</ele>
        <time>2014-07-26T10:25:18.000Z</time>
      </trkpt>
      <trkpt lat="46.80365" lon="6.51318">
        <ele>1261.4000244141</ele>
        <time>2014-07-26T10:25:19.000Z</time>
      </trkpt>
      <trkpt lat="46.80373" lon="6.51314">
        <ele>1265.1999511719</ele>
        <time>2014-07-26T10:25:29.000Z</time>
      </trkpt>
      <trkpt lat="46.80375" lon="6.51313">
        <ele>1266</ele>
        <time>2014-07-26T10:25:31.000Z</time>
      </trkpt>
      <trkpt lat="46.8038" lon="6.51313">
        <ele>1268</ele>
        <time>2014-07-26T10:25:37.000Z</time>
      </trkpt>
      <trkpt lat="46.80386" lon="6.51312">
        <ele>1270.4000244141</ele>
        <time>2014-07-26T10:25:42.000Z</time>
      </trkpt>
      <trkpt lat="46.80388" lon="6.51311">
        <ele>1271.1999511719</ele>
        <time>2014-07-26T10:25:44.000Z</time>
      </trkpt>
      <trkpt lat="46.80395" lon="6.5131">
        <ele>1274.4000244141</ele>
        <time>2014-07-26T10:25:49.000Z</time>
      </trkpt>
      <trkpt lat="46.80404" lon="6.51308">
        <ele>1276.5999755859</ele>
        <time>2014-07-26T10:25:55.000Z</time>
      </trkpt>
      <trkpt lat="46.80405" lon="6.51309">
        <ele>1276.8000488281</ele>
        <time>2014-07-26T10:25:56.000Z</time>
      </trkpt>
      <trkpt lat="46.80411" lon="6.51308">
        <ele>1276.1999511719</ele>
        <time>2014-07-26T10:26:02.000Z</time>
      </trkpt>
      <trkpt lat="46.80414" lon="6.51307">
        <ele>1276</ele>
        <time>2014-07-26T10:26:04.000Z</time>
      </trkpt>
      <trkpt lat="46.80419" lon="6.51306">
        <ele>1275.4000244141</ele>
        <time>2014-07-26T10:26:08.000Z</time>
      </trkpt>
      <trkpt lat="46.80422" lon="6.51305">
        <ele>1275.1999511719</ele>
        <time>2014-07-26T10:26:11.000Z</time>
      </trkpt>
      <trkpt lat="46.80426" lon="6.51302">
        <ele>1274.5999755859</ele>
        <time>2014-07-26T10:26:15.000Z</time>
      </trkpt>
      <trkpt lat="46.80431" lon="6.51302">
        <ele>1274.1999511719</ele>
        <time>2014-07-26T10:26:19.000Z</time>
      </trkpt>
      <trkpt lat="46.80437" lon="6.513">
        <ele>1273.5999755859</ele>
        <time>2014-07-26T10:26:23.000Z</time>
      </trkpt>
      <trkpt lat="46.80443" lon="6.51299">
        <ele>1272.8000488281</ele>
        <time>2014-07-26T10:26:29.000Z</time>
      </trkpt>
      <trkpt lat="46.80444" lon="6.51299">
        <ele>1272.8000488281</ele>
        <time>2014-07-26T10:26:30.000Z</time>
      </trkpt>
      <trkpt lat="46.80451" lon="6.51297">
        <ele>1272.1999511719</ele>
        <time>2014-07-26T10:26:36.000Z</time>
      </trkpt>
      <trkpt lat="46.80459" lon="6.51298">
        <ele>1271.4000244141</ele>
        <time>2014-07-26T10:26:43.000Z</time>
      </trkpt>
      <trkpt lat="46.80463" lon="6.51298">
        <ele>1271</ele>
        <time>2014-07-26T10:26:47.000Z</time>
      </trkpt>
      <trkpt lat="46.80466" lon="6.51298">
        <ele>1270.5999755859</ele>
        <time>2014-07-26T10:26:51.000Z</time>
      </trkpt>
      <trkpt lat="46.80473" lon="6.51297">
        <ele>1270</ele>
        <time>2014-07-26T10:27:01.000Z</time>
      </trkpt>
      <trkpt lat="46.80473" lon="6.51296">
        <ele>1270</ele>
        <time>2014-07-26T10:27:02.000Z</time>
      </trkpt>
      <trkpt lat="46.80475" lon="6.51297">
        <ele>1269.8000488281</ele>
        <time>2014-07-26T10:27:04.000Z</time>
      </trkpt>
      <trkpt lat="46.80482" lon="6.51298">
        <ele>1269</ele>
        <time>2014-07-26T10:27:11.000Z</time>
      </trkpt>
      <trkpt lat="46.80485" lon="6.51299">
        <ele>1268.8000488281</ele>
        <time>2014-07-26T10:27:14.000Z</time>
      </trkpt>
      <trkpt lat="46.80486" lon="6.513">
        <ele>1268.5999755859</ele>
        <time>2014-07-26T10:27:16.000Z</time>
      </trkpt>
      <trkpt lat="46.80491" lon="6.51305">
        <ele>1268.4000244141</ele>
        <time>2014-07-26T10:27:21.000Z</time>
      </trkpt>
      <trkpt lat="46.80492" lon="6.51306">
        <ele>1268.4000244141</ele>
        <time>2014-07-26T10:27:22.000Z</time>
      </trkpt>
      <trkpt lat="46.80494" lon="6.51312">
        <ele>1268.5999755859</ele>
        <time>2014-07-26T10:27:27.000Z</time>
      </trkpt>
      <trkpt lat="46.80496" lon="6.51316">
        <ele>1268.5999755859</ele>
        <time>2014-07-26T10:27:35.000Z</time>
      </trkpt>
      <trkpt lat="46.80497" lon="6.51322">
        <ele>1268.1999511719</ele>
        <time>2014-07-26T10:27:42.000Z</time>
      </trkpt>
      <trkpt lat="46.80497" lon="6.51324">
        <ele>1268.1999511719</ele>
        <time>2014-07-26T10:27:43.000Z</time>
      </trkpt>
      <trkpt lat="46.80499" lon="6.51328">
        <ele>1267.8000488281</ele>
        <time>2014-07-26T10:27:49.000Z</time>
      </trkpt>
      <trkpt lat="46.805" lon="6.51342">
        <ele>1267</ele>
        <time>2014-07-26T10:28:37.000Z</time>
      </trkpt>
      <trkpt lat="46.805" lon="6.51344">
        <ele>1266.8000488281</ele>
        <time>2014-07-26T10:28:38.000Z</time>
      </trkpt>
      <trkpt lat="46.80501" lon="6.51353">
        <ele>1266.1999511719</ele>
        <time>2014-07-26T10:28:44.000Z</time>
      </trkpt>
      <trkpt lat="46.80502" lon="6.51356">
        <ele>1266</ele>
        <time>2014-07-26T10:28:46.000Z</time>
      </trkpt>
      <trkpt lat="46.80502" lon="6.51359">
        <ele>1265.8000488281</ele>
        <time>2014-07-26T10:28:48.000Z</time>
      </trkpt>
      <trkpt lat="46.80501" lon="6.51365">
        <ele>1265.5999755859</ele>
        <time>2014-07-26T10:28:53.000Z</time>
      </trkpt>
      <trkpt lat="46.805" lon="6.51365">
        <ele>1265.5999755859</ele>
        <time>2014-07-26T10:28:54.000Z</time>
      </trkpt>
      <trkpt lat="46.80496" lon="6.51363">
        <ele>1265.8000488281</ele>
        <time>2014-07-26T10:28:59.000Z</time>
      </trkpt>
      <trkpt lat="46.80495" lon="6.51365">
        <ele>1265.8000488281</ele>
        <time>2014-07-26T10:29:05.000Z</time>
      </trkpt>
      <trkpt lat="46.80497" lon="6.51367">
        <ele>1265.5999755859</ele>
        <time>2014-07-26T10:29:12.000Z</time>
      </trkpt>
      <trkpt lat="46.80499" lon="6.51364">
        <ele>1265.5999755859</ele>
        <time>2014-07-26T10:29:19.000Z</time>
      </trkpt>
      <trkpt lat="46.80498" lon="6.51355">
        <ele>1266.1999511719</ele>
        <time>2014-07-26T10:29:33.000Z</time>
      </trkpt>
      <trkpt lat="46.80498" lon="6.51353">
        <ele>1266.4000244141</ele>
        <time>2014-07-26T10:29:37.000Z</time>
      </trkpt>
      <trkpt lat="46.80499" lon="6.5135">
        <ele>1266.4000244141</ele>
        <time>2014-07-26T10:29:40.000Z</time>
      </trkpt>
      <trkpt lat="46.80497" lon="6.51341">
        <ele>1267.1999511719</ele>
        <time>2014-07-26T10:29:48.000Z</time>
      </trkpt>
      <trkpt lat="46.80497" lon="6.5134">
        <ele>1267.1999511719</ele>
        <time>2014-07-26T10:29:54.000Z</time>
      </trkpt>
      <trkpt lat="46.80497" lon="6.51343">
        <ele>1267</ele>
        <time>2014-07-26T10:29:59.000Z</time>
      </trkpt>
      <trkpt lat="46.80497" lon="6.51342">
        <ele>1267</ele>
        <time>2014-07-26T10:30:04.000Z</time>
      </trkpt>
      <trkpt lat="46.80498" lon="6.51342">
        <ele>1267</ele>
        <time>2014-07-26T10:30:11.000Z</time>
      </trkpt>
      <trkpt lat="46.80494" lon="6.51343">
        <ele>1267.1999511719</ele>
        <time>2014-07-26T10:30:17.000Z</time>
      </trkpt>
      <trkpt lat="46.80494" lon="6.51341">
        <ele>1267.1999511719</ele>
        <time>2014-07-26T10:30:23.000Z</time>
      </trkpt>
      <trkpt lat="46.80496" lon="6.51337">
        <ele>1267.4000244141</ele>
        <time>2014-07-26T10:30:31.000Z</time>
      </trkpt>
      <trkpt lat="46.80497" lon="6.51336">
        <ele>1267.4000244141</ele>
        <time>2014-07-26T10:30:35.000Z</time>
      </trkpt>
      <trkpt lat="46.80496" lon="6.51337">
        <ele>1267.4000244141</ele>
        <time>2014-07-26T10:30:41.000Z</time>
      </trkpt>
      <trkpt lat="46.80492" lon="6.51339">
        <ele>1267.5999755859</ele>
        <time>2014-07-26T10:30:47.000Z</time>
      </trkpt>
      <trkpt lat="46.80493" lon="6.51337">
        <ele>1267.5999755859</ele>
        <time>2014-07-26T10:30:56.000Z</time>
      </trkpt>
      <trkpt lat="46.80491" lon="6.51338">
        <ele>1267.5999755859</ele>
        <time>2014-07-26T10:31:02.000Z</time>
      </trkpt>
      <trkpt lat="46.80489" lon="6.51341">
        <ele>1267.5999755859</ele>
        <time>2014-07-26T10:31:11.000Z</time>
      </trkpt>
      <trkpt lat="46.80487" lon="6.51339">
        <ele>1267.8000488281</ele>
        <time>2014-07-26T10:31:21.000Z</time>
      </trkpt>
      <trkpt lat="46.80486" lon="6.51339">
        <ele>1268</ele>
        <time>2014-07-26T10:31:37.000Z</time>
      </trkpt>
      <trkpt lat="46.80486" lon="6.51337">
        <ele>1268</ele>
        <time>2014-07-26T10:31:43.000Z</time>
      </trkpt>
      <trkpt lat="46.80488" lon="6.51339">
        <ele>1267.5999755859</ele>
        <time>2014-07-26T10:31:48.000Z</time>
      </trkpt>
      <trkpt lat="46.80487" lon="6.51341">
        <ele>1267.8000488281</ele>
        <time>2014-07-26T10:31:56.000Z</time>
      </trkpt>
      <trkpt lat="46.80487" lon="6.5134">
        <ele>1267.5999755859</ele>
        <time>2014-07-26T10:32:03.000Z</time>
      </trkpt>
      <trkpt lat="46.8049" lon="6.5134">
        <ele>1267.5999755859</ele>
        <time>2014-07-26T10:32:20.000Z</time>
      </trkpt>
      <trkpt lat="46.80491" lon="6.51341">
        <ele>1267.4000244141</ele>
        <time>2014-07-26T10:32:33.000Z</time>
      </trkpt>
      <trkpt lat="46.80492" lon="6.51345">
        <ele>1267.1999511719</ele>
        <time>2014-07-26T10:32:39.000Z</time>
      </trkpt>
      <trkpt lat="46.80493" lon="6.51347">
        <ele>1267</ele>
        <time>2014-07-26T10:32:44.000Z</time>
      </trkpt>
      <trkpt lat="46.80492" lon="6.51344">
        <ele>1267.1999511719</ele>
        <time>2014-07-26T10:32:53.000Z</time>
      </trkpt>
      <trkpt lat="46.80491" lon="6.51343">
        <ele>1267.4000244141</ele>
        <time>2014-07-26T10:32:58.000Z</time>
      </trkpt>
      <trkpt lat="46.80494" lon="6.5134">
        <ele>1267.4000244141</ele>
        <time>2014-07-26T10:33:06.000Z</time>
      </trkpt>
      <trkpt lat="46.80496" lon="6.51343">
        <ele>1267</ele>
        <time>2014-07-26T10:33:12.000Z</time>
      </trkpt>
      <trkpt lat="46.80496" lon="6.51342">
        <ele>1267.1999511719</ele>
        <time>2014-07-26T10:33:18.000Z</time>
      </trkpt>
      <trkpt lat="46.80493" lon="6.5134">
        <ele>1267.4000244141</ele>
        <time>2014-07-26T10:33:24.000Z</time>
      </trkpt>
      <trkpt lat="46.80493" lon="6.51338">
        <ele>1267.4000244141</ele>
        <time>2014-07-26T10:33:32.000Z</time>
      </trkpt>
      <trkpt lat="46.80494" lon="6.51336">
        <ele>1267.5999755859</ele>
        <time>2014-07-26T10:33:49.000Z</time>
      </trkpt>
      <trkpt lat="46.8049" lon="6.51338">
        <ele>1267.5999755859</ele>
        <time>2014-07-26T10:34:00.000Z</time>
      </trkpt>
      <trkpt lat="46.80489" lon="6.51338">
        <ele>1267.8000488281</ele>
        <time>2014-07-26T10:34:27.000Z</time>
      </trkpt>
      <trkpt lat="46.80489" lon="6.51338">
        <ele>1267.8000488281</ele>
        <time>2014-07-26T10:34:32.000Z</time>
      </trkpt>
      <trkpt lat="46.80491" lon="6.51335">
        <ele>1267.8000488281</ele>
        <time>2014-07-26T10:34:37.000Z</time>
      </trkpt>
      <trkpt lat="46.80493" lon="6.51333">
        <ele>1267.8000488281</ele>
        <time>2014-07-26T10:34:41.000Z</time>
      </trkpt>
      <trkpt lat="46.80492" lon="6.51333">
        <ele>1267.8000488281</ele>
        <time>2014-07-26T10:34:47.000Z</time>
      </trkpt>
      <trkpt lat="46.80495" lon="6.51332">
        <ele>1267.8000488281</ele>
        <time>2014-07-26T10:34:53.000Z</time>
      </trkpt>
      <trkpt lat="46.80493" lon="6.51336">
        <ele>1267.5999755859</ele>
        <time>2014-07-26T10:35:04.000Z</time>
      </trkpt>
      <trkpt lat="46.80492" lon="6.51337">
        <ele>1267.5999755859</ele>
        <time>2014-07-26T10:35:10.000Z</time>
      </trkpt>
      <trkpt lat="46.80491" lon="6.51341">
        <ele>1267.4000244141</ele>
        <time>2014-07-26T10:35:20.000Z</time>
      </trkpt>
      <trkpt lat="46.8049" lon="6.51342">
        <ele>1267.4000244141</ele>
        <time>2014-07-26T10:35:25.000Z</time>
      </trkpt>
      <trkpt lat="46.80488" lon="6.51341">
        <ele>1267.5999755859</ele>
        <time>2014-07-26T10:35:30.000Z</time>
      </trkpt>
      <trkpt lat="46.8049" lon="6.51345">
        <ele>1267.1999511719</ele>
        <time>2014-07-26T10:35:39.000Z</time>
      </trkpt>
      <trkpt lat="46.80487" lon="6.51351">
        <ele>1267</ele>
        <time>2014-07-26T10:35:44.000Z</time>
      </trkpt>
      <trkpt lat="46.80486" lon="6.51354">
        <ele>1267</ele>
        <time>2014-07-26T10:35:48.000Z</time>
      </trkpt>
      <trkpt lat="46.80488" lon="6.51352">
        <ele>1267</ele>
        <time>2014-07-26T10:35:51.000Z</time>
      </trkpt>
      <trkpt lat="46.8049" lon="6.51349">
        <ele>1267</ele>
        <time>2014-07-26T10:35:57.000Z</time>
      </trkpt>
      <trkpt lat="46.80489" lon="6.51345">
        <ele>1267.1999511719</ele>
        <time>2014-07-26T10:36:02.000Z</time>
      </trkpt>
      <trkpt lat="46.80491" lon="6.51332">
        <ele>1268</ele>
        <time>2014-07-26T10:36:10.000Z</time>
      </trkpt>
      <trkpt lat="46.80492" lon="6.51331">
        <ele>1268</ele>
        <time>2014-07-26T10:36:11.000Z</time>
      </trkpt>
      <trkpt lat="46.80494" lon="6.51328">
        <ele>1268</ele>
        <time>2014-07-26T10:36:14.000Z</time>
      </trkpt>
      <trkpt lat="46.80494" lon="6.51335">
        <ele>1267.5999755859</ele>
        <time>2014-07-26T10:36:18.000Z</time>
      </trkpt>
      <trkpt lat="46.80494" lon="6.51338">
        <ele>1267.4000244141</ele>
        <time>2014-07-26T10:36:25.000Z</time>
      </trkpt>
      <trkpt lat="46.80495" lon="6.5134">
        <ele>1267.1999511719</ele>
        <time>2014-07-26T10:36:32.000Z</time>
      </trkpt>
      <trkpt lat="46.80498" lon="6.51337">
        <ele>1267.4000244141</ele>
        <time>2014-07-26T10:36:37.000Z</time>
      </trkpt>
      <trkpt lat="46.80499" lon="6.51333">
        <ele>1267.5999755859</ele>
        <time>2014-07-26T10:36:43.000Z</time>
      </trkpt>
      <trkpt lat="46.80498" lon="6.51334">
        <ele>1267.5999755859</ele>
        <time>2014-07-26T10:36:59.000Z</time>
      </trkpt>
      <trkpt lat="46.80499" lon="6.51336">
        <ele>1267.4000244141</ele>
        <time>2014-07-26T10:37:11.000Z</time>
      </trkpt>
      <trkpt lat="46.80498" lon="6.51338">
        <ele>1267.1999511719</ele>
        <time>2014-07-26T10:37:20.000Z</time>
      </trkpt>
      <trkpt lat="46.80502" lon="6.51332">
        <ele>1267.4000244141</ele>
        <time>2014-07-26T10:37:25.000Z</time>
      </trkpt>
      <trkpt lat="46.80511" lon="6.5132">
        <ele>1267.4000244141</ele>
        <time>2014-07-26T10:37:38.000Z</time>
      </trkpt>
      <trkpt lat="46.80511" lon="6.51318">
        <ele>1267.5999755859</ele>
        <time>2014-07-26T10:37:39.000Z</time>
      </trkpt>
      <trkpt lat="46.8051" lon="6.51322">
        <ele>1267.4000244141</ele>
        <time>2014-07-26T10:37:43.000Z</time>
      </trkpt>
      <trkpt lat="46.80504" lon="6.51335">
        <ele>1267.1999511719</ele>
        <time>2014-07-26T10:37:53.000Z</time>
      </trkpt>
      <trkpt lat="46.80498" lon="6.51341">
        <ele>1267</ele>
        <time>2014-07-26T10:38:19.000Z</time>
      </trkpt>
      <trkpt lat="46.80497" lon="6.51346">
        <ele>1266.8000488281</ele>
        <time>2014-07-26T10:38:27.000Z</time>
      </trkpt>
      <trkpt lat="46.80499" lon="6.51352">
        <ele>1266.4000244141</ele>
        <time>2014-07-26T10:38:38.000Z</time>
      </trkpt>
      <trkpt lat="46.80501" lon="6.5136">
        <ele>1265.8000488281</ele>
        <time>2014-07-26T10:39:01.000Z</time>
      </trkpt>
      <trkpt lat="46.805" lon="6.51361">
        <ele>1265.8000488281</ele>
        <time>2014-07-26T10:39:08.000Z</time>
      </trkpt>
      <trkpt lat="46.80499" lon="6.5135">
        <ele>1266.5999755859</ele>
        <time>2014-07-26T10:39:15.000Z</time>
      </trkpt>
      <trkpt lat="46.80499" lon="6.51346">
        <ele>1266.8000488281</ele>
        <time>2014-07-26T10:39:21.000Z</time>
      </trkpt>
      <trkpt lat="46.80499" lon="6.51346">
        <ele>1266.8000488281</ele>
        <time>2014-07-26T10:39:31.000Z</time>
      </trkpt>
      <trkpt lat="46.80498" lon="6.51348">
        <ele>1266.5999755859</ele>
        <time>2014-07-26T10:39:39.000Z</time>
      </trkpt>
      <trkpt lat="46.80497" lon="6.51348">
        <ele>1266.8000488281</ele>
        <time>2014-07-26T10:39:47.000Z</time>
      </trkpt>
      <trkpt lat="46.80499" lon="6.5135">
        <ele>1266.5999755859</ele>
        <time>2014-07-26T10:39:58.000Z</time>
      </trkpt>
      <trkpt lat="46.80498" lon="6.51348">
        <ele>1266.5999755859</ele>
        <time>2014-07-26T10:40:04.000Z</time>
      </trkpt>
      <trkpt lat="46.80497" lon="6.51343">
        <ele>1267</ele>
        <time>2014-07-26T10:40:28.000Z</time>
      </trkpt>
      <trkpt lat="46.80494" lon="6.51338">
        <ele>1267.4000244141</ele>
        <time>2014-07-26T10:40:40.000Z</time>
      </trkpt>
      <trkpt lat="46.80493" lon="6.51336">
        <ele>1267.5999755859</ele>
        <time>2014-07-26T10:40:50.000Z</time>
      </trkpt>
      <trkpt lat="46.80492" lon="6.51338">
        <ele>1267.5999755859</ele>
        <time>2014-07-26T10:41:00.000Z</time>
      </trkpt>
      <trkpt lat="46.80494" lon="6.51336">
        <ele>1267.5999755859</ele>
        <time>2014-07-26T10:41:09.000Z</time>
      </trkpt>
      <trkpt lat="46.80496" lon="6.51331">
        <ele>1267.8000488281</ele>
        <time>2014-07-26T10:41:14.000Z</time>
      </trkpt>
      <trkpt lat="46.80494" lon="6.51329">
        <ele>1268</ele>
        <time>2014-07-26T10:41:18.000Z</time>
      </trkpt>
      <trkpt lat="46.80493" lon="6.51332">
        <ele>1267.8000488281</ele>
        <time>2014-07-26T10:41:24.000Z</time>
      </trkpt>
      <trkpt lat="46.80493" lon="6.51331">
        <ele>1268</ele>
        <time>2014-07-26T10:41:28.000Z</time>
      </trkpt>
      <trkpt lat="46.80494" lon="6.51333">
        <ele>1267.8000488281</ele>
        <time>2014-07-26T10:41:35.000Z</time>
      </trkpt>
      <trkpt lat="46.80494" lon="6.51338">
        <ele>1267.4000244141</ele>
        <time>2014-07-26T10:41:39.000Z</time>
      </trkpt>
      <trkpt lat="46.80493" lon="6.51337">
        <ele>1267.5999755859</ele>
        <time>2014-07-26T10:41:44.000Z</time>
      </trkpt>
      <trkpt lat="46.80485" lon="6.51353">
        <ele>1267.1999511719</ele>
        <time>2014-07-26T10:42:01.000Z</time>
      </trkpt>
      <trkpt lat="46.80485" lon="6.51354">
        <ele>1267</ele>
        <time>2014-07-26T10:42:03.000Z</time>
      </trkpt>
      <trkpt lat="46.80496" lon="6.51347">
        <ele>1266.8000488281</ele>
        <time>2014-07-26T10:42:09.000Z</time>
      </trkpt>
      <trkpt lat="46.80504" lon="6.5134">
        <ele>1266.8000488281</ele>
        <time>2014-07-26T10:42:14.000Z</time>
      </trkpt>
      <trkpt lat="46.80506" lon="6.51339">
        <ele>1266.8000488281</ele>
        <time>2014-07-26T10:42:15.000Z</time>
      </trkpt>
      <trkpt lat="46.80511" lon="6.5134">
        <ele>1266.5999755859</ele>
        <time>2014-07-26T10:42:21.000Z</time>
      </trkpt>
      <trkpt lat="46.8051" lon="6.5134">
        <ele>1266.5999755859</ele>
        <time>2014-07-26T10:42:22.000Z</time>
      </trkpt>
      <trkpt lat="46.80507" lon="6.51337">
        <ele>1266.8000488281</ele>
        <time>2014-07-26T10:42:26.000Z</time>
      </trkpt>
      <trkpt lat="46.80498" lon="6.5134">
        <ele>1267.1999511719</ele>
        <time>2014-07-26T10:42:32.000Z</time>
      </trkpt>
      <trkpt lat="46.80496" lon="6.5134">
        <ele>1267.1999511719</ele>
        <time>2014-07-26T10:42:33.000Z</time>
      </trkpt>
      <trkpt lat="46.8049" lon="6.51343">
        <ele>1267.4000244141</ele>
        <time>2014-07-26T10:42:41.000Z</time>
      </trkpt>
      <trkpt lat="46.80492" lon="6.51342">
        <ele>1267.1999511719</ele>
        <time>2014-07-26T10:42:50.000Z</time>
      </trkpt>
      <trkpt lat="46.8049" lon="6.51353">
        <ele>1266.8000488281</ele>
        <time>2014-07-26T10:42:54.000Z</time>
      </trkpt>
      <trkpt lat="46.80486" lon="6.51356">
        <ele>1266.8000488281</ele>
        <time>2014-07-26T10:43:03.000Z</time>
      </trkpt>
      <trkpt lat="46.80494" lon="6.5134">
        <ele>1267.4000244141</ele>
        <time>2014-07-26T10:43:08.000Z</time>
      </trkpt>
      <trkpt lat="46.80493" lon="6.5134">
        <ele>1267.4000244141</ele>
        <time>2014-07-26T10:43:13.000Z</time>
      </trkpt>
      <trkpt lat="46.80491" lon="6.5134">
        <ele>1267.4000244141</ele>
        <time>2014-07-26T10:43:20.000Z</time>
      </trkpt>
      <trkpt lat="46.8049" lon="6.51341">
        <ele>1267.4000244141</ele>
        <time>2014-07-26T10:43:22.000Z</time>
      </trkpt>
      <trkpt lat="46.80494" lon="6.51339">
        <ele>1267.4000244141</ele>
        <time>2014-07-26T10:43:30.000Z</time>
      </trkpt>
      <trkpt lat="46.80492" lon="6.5134">
        <ele>1267.4000244141</ele>
        <time>2014-07-26T10:43:38.000Z</time>
      </trkpt>
      <trkpt lat="46.80484" lon="6.51328">
        <ele>1268.8000488281</ele>
        <time>2014-07-26T10:44:23.000Z</time>
      </trkpt>
      <trkpt lat="46.80486" lon="6.51326">
        <ele>1268.8000488281</ele>
        <time>2014-07-26T10:44:26.000Z</time>
      </trkpt>
      <trkpt lat="46.80489" lon="6.51325">
        <ele>1268.4000244141</ele>
        <time>2014-07-26T10:44:30.000Z</time>
      </trkpt>
      <trkpt lat="46.80491" lon="6.51322">
        <ele>1268.5999755859</ele>
        <time>2014-07-26T10:44:39.000Z</time>
      </trkpt>
      <trkpt lat="46.80487" lon="6.51323">
        <ele>1268.8000488281</ele>
        <time>2014-07-26T10:44:58.000Z</time>
      </trkpt>
      <trkpt lat="46.8049" lon="6.51327">
        <ele>1268.4000244141</ele>
        <time>2014-07-26T10:45:20.000Z</time>
      </trkpt>
      <trkpt lat="46.80494" lon="6.51325">
        <ele>1268.1999511719</ele>
        <time>2014-07-26T10:45:27.000Z</time>
      </trkpt>
      <trkpt lat="46.80494" lon="6.51325">
        <ele>1268.1999511719</ele>
        <time>2014-07-26T10:45:36.000Z</time>
      </trkpt>
      <trkpt lat="46.80492" lon="6.51325">
        <ele>1268.4000244141</ele>
        <time>2014-07-26T10:45:44.000Z</time>
      </trkpt>
      <trkpt lat="46.80493" lon="6.51324">
        <ele>1268.4000244141</ele>
        <time>2014-07-26T10:45:50.000Z</time>
      </trkpt>
      <trkpt lat="46.80493" lon="6.51325">
        <ele>1268.4000244141</ele>
        <time>2014-07-26T10:45:51.000Z</time>
      </trkpt>
      <trkpt lat="46.80493" lon="6.51328">
        <ele>1268.1999511719</ele>
        <time>2014-07-26T10:45:58.000Z</time>
      </trkpt>
      <trkpt lat="46.80492" lon="6.51329">
        <ele>1268</ele>
        <time>2014-07-26T10:46:08.000Z</time>
      </trkpt>
      <trkpt lat="46.80491" lon="6.51332">
        <ele>1268</ele>
        <time>2014-07-26T10:46:12.000Z</time>
      </trkpt>
      <trkpt lat="46.80489" lon="6.51335">
        <ele>1268</ele>
        <time>2014-07-26T10:46:15.000Z</time>
      </trkpt>
      <trkpt lat="46.80489" lon="6.51335">
        <ele>1267.8000488281</ele>
        <time>2014-07-26T10:46:22.000Z</time>
      </trkpt>
      <trkpt lat="46.8049" lon="6.51334">
        <ele>1267.8000488281</ele>
        <time>2014-07-26T10:46:27.000Z</time>
      </trkpt>
      <trkpt lat="46.80494" lon="6.51331">
        <ele>1267.8000488281</ele>
        <time>2014-07-26T10:46:33.000Z</time>
      </trkpt>
      <trkpt lat="46.80499" lon="6.51324">
        <ele>1268</ele>
        <time>2014-07-26T10:46:38.000Z</time>
      </trkpt>
      <trkpt lat="46.80504" lon="6.51313">
        <ele>1268</ele>
        <time>2014-07-26T10:46:43.000Z</time>
      </trkpt>
      <trkpt lat="46.80503" lon="6.51313">
        <ele>1268</ele>
        <time>2014-07-26T10:46:45.000Z</time>
      </trkpt>
      <trkpt lat="46.80502" lon="6.51317">
        <ele>1268.1999511719</ele>
        <time>2014-07-26T10:46:49.000Z</time>
      </trkpt>
      <trkpt lat="46.80498" lon="6.5132">
        <ele>1268.1999511719</ele>
        <time>2014-07-26T10:46:52.000Z</time>
      </trkpt>
      <trkpt lat="46.80491" lon="6.51328">
        <ele>1268.1999511719</ele>
        <time>2014-07-26T10:47:00.000Z</time>
      </trkpt>
      <trkpt lat="46.80491" lon="6.51328">
        <ele>1268.1999511719</ele>
        <time>2014-07-26T10:47:10.000Z</time>
      </trkpt>
      <trkpt lat="46.80489" lon="6.51333">
        <ele>1268</ele>
        <time>2014-07-26T10:47:16.000Z</time>
      </trkpt>
      <trkpt lat="46.80486" lon="6.51335">
        <ele>1268.1999511719</ele>
        <time>2014-07-26T10:47:21.000Z</time>
      </trkpt>
      <trkpt lat="46.80486" lon="6.51337">
        <ele>1268</ele>
        <time>2014-07-26T10:47:26.000Z</time>
      </trkpt>
      <trkpt lat="46.80485" lon="6.51336">
        <ele>1268.1999511719</ele>
        <time>2014-07-26T10:47:37.000Z</time>
      </trkpt>
      <trkpt lat="46.80485" lon="6.51337">
        <ele>1268.1999511719</ele>
        <time>2014-07-26T10:47:43.000Z</time>
      </trkpt>
      <trkpt lat="46.80484" lon="6.51338">
        <ele>1268.1999511719</ele>
        <time>2014-07-26T10:47:49.000Z</time>
      </trkpt>
      <trkpt lat="46.80487" lon="6.51338">
        <ele>1267.8000488281</ele>
        <time>2014-07-26T10:47:56.000Z</time>
      </trkpt>
      <trkpt lat="46.80486" lon="6.51338">
        <ele>1268</ele>
        <time>2014-07-26T10:48:08.000Z</time>
      </trkpt>
      <trkpt lat="46.80487" lon="6.51339">
        <ele>1267.8000488281</ele>
        <time>2014-07-26T10:48:12.000Z</time>
      </trkpt>
      <trkpt lat="46.80484" lon="6.51341">
        <ele>1268</ele>
        <time>2014-07-26T10:48:19.000Z</time>
      </trkpt>
      <trkpt lat="46.80483" lon="6.51343">
        <ele>1268</ele>
        <time>2014-07-26T10:48:24.000Z</time>
      </trkpt>
      <trkpt lat="46.80485" lon="6.51342">
        <ele>1267.8000488281</ele>
        <time>2014-07-26T10:48:26.000Z</time>
      </trkpt>
      <trkpt lat="46.80489" lon="6.51337">
        <ele>1267.8000488281</ele>
        <time>2014-07-26T10:48:33.000Z</time>
      </trkpt>
      <trkpt lat="46.80488" lon="6.51335">
        <ele>1267.8000488281</ele>
        <time>2014-07-26T10:48:38.000Z</time>
      </trkpt>
      <trkpt lat="46.8049" lon="6.51336">
        <ele>1267.8000488281</ele>
        <time>2014-07-26T10:48:46.000Z</time>
      </trkpt>
      <trkpt lat="46.80491" lon="6.51337">
        <ele>1267.5999755859</ele>
        <time>2014-07-26T10:48:56.000Z</time>
      </trkpt>
      <trkpt lat="46.80492" lon="6.51337">
        <ele>1267.5999755859</ele>
        <time>2014-07-26T10:49:01.000Z</time>
      </trkpt>
      <trkpt lat="46.80492" lon="6.51339">
        <ele>1267.5999755859</ele>
        <time>2014-07-26T10:49:10.000Z</time>
      </trkpt>
      <trkpt lat="46.80494" lon="6.5134">
        <ele>1267.4000244141</ele>
        <time>2014-07-26T10:49:16.000Z</time>
      </trkpt>
      <trkpt lat="46.80495" lon="6.5134">
        <ele>1267.4000244141</ele>
        <time>2014-07-26T10:49:20.000Z</time>
      </trkpt>
      <trkpt lat="46.80492" lon="6.51339">
        <ele>1267.5999755859</ele>
        <time>2014-07-26T10:49:25.000Z</time>
      </trkpt>
      <trkpt lat="46.80493" lon="6.5133">
        <ele>1268</ele>
        <time>2014-07-26T10:49:34.000Z</time>
      </trkpt>
      <trkpt lat="46.8049" lon="6.51332">
        <ele>1268</ele>
        <time>2014-07-26T10:49:37.000Z</time>
      </trkpt>
      <trkpt lat="46.80489" lon="6.51334">
        <ele>1268</ele>
        <time>2014-07-26T10:49:44.000Z</time>
      </trkpt>
      <trkpt lat="46.80491" lon="6.51337">
        <ele>1267.5999755859</ele>
        <time>2014-07-26T10:49:48.000Z</time>
      </trkpt>
      <trkpt lat="46.80492" lon="6.51336">
        <ele>1267.5999755859</ele>
        <time>2014-07-26T10:49:52.000Z</time>
      </trkpt>
      <trkpt lat="46.80493" lon="6.51334">
        <ele>1267.8000488281</ele>
        <time>2014-07-26T10:49:57.000Z</time>
      </trkpt>
      <trkpt lat="46.80489" lon="6.51333">
        <ele>1268</ele>
        <time>2014-07-26T10:50:03.000Z</time>
      </trkpt>
      <trkpt lat="46.8049" lon="6.51328">
        <ele>1268.1999511719</ele>
        <time>2014-07-26T10:50:09.000Z</time>
      </trkpt>
      <trkpt lat="46.8049" lon="6.51332">
        <ele>1268</ele>
        <time>2014-07-26T10:50:13.000Z</time>
      </trkpt>
      <trkpt lat="46.80491" lon="6.51336">
        <ele>1267.8000488281</ele>
        <time>2014-07-26T10:50:19.000Z</time>
      </trkpt>
      <trkpt lat="46.80491" lon="6.51339">
        <ele>1267.5999755859</ele>
        <time>2014-07-26T10:50:24.000Z</time>
      </trkpt>
      <trkpt lat="46.8049" lon="6.51337">
        <ele>1267.8000488281</ele>
        <time>2014-07-26T10:50:34.000Z</time>
      </trkpt>
      <trkpt lat="46.80489" lon="6.51339">
        <ele>1267.5999755859</ele>
        <time>2014-07-26T10:50:42.000Z</time>
      </trkpt>
      <trkpt lat="46.80488" lon="6.51338">
        <ele>1267.8000488281</ele>
        <time>2014-07-26T10:50:45.000Z</time>
      </trkpt>
      <trkpt lat="46.80477" lon="6.51357">
        <ele>1267.5999755859</ele>
        <time>2014-07-26T10:50:50.000Z</time>
      </trkpt>
      <trkpt lat="46.80473" lon="6.51367">
        <ele>1267.4000244141</ele>
        <time>2014-07-26T10:50:53.000Z</time>
      </trkpt>
      <trkpt lat="46.80479" lon="6.5136">
        <ele>1267.4000244141</ele>
        <time>2014-07-26T10:51:06.000Z</time>
      </trkpt>
      <trkpt lat="46.80478" lon="6.51352">
        <ele>1268</ele>
        <time>2014-07-26T10:51:11.000Z</time>
      </trkpt>
      <trkpt lat="46.8048" lon="6.51346">
        <ele>1268</ele>
        <time>2014-07-26T10:51:17.000Z</time>
      </trkpt>
      <trkpt lat="46.80481" lon="6.5134">
        <ele>1268.4000244141</ele>
        <time>2014-07-26T10:51:22.000Z</time>
      </trkpt>
      <trkpt lat="46.80483" lon="6.51333">
        <ele>1268.5999755859</ele>
        <time>2014-07-26T10:51:32.000Z</time>
      </trkpt>
      <trkpt lat="46.80483" lon="6.51341">
        <ele>1268</ele>
        <time>2014-07-26T10:51:38.000Z</time>
      </trkpt>
      <trkpt lat="46.80485" lon="6.51341">
        <ele>1267.8000488281</ele>
        <time>2014-07-26T10:51:42.000Z</time>
      </trkpt>
      <trkpt lat="46.80481" lon="6.51343">
        <ele>1268.1999511719</ele>
        <time>2014-07-26T10:51:48.000Z</time>
      </trkpt>
      <trkpt lat="46.80481" lon="6.51341">
        <ele>1268.1999511719</ele>
        <time>2014-07-26T10:51:52.000Z</time>
      </trkpt>
      <trkpt lat="46.80482" lon="6.51339">
        <ele>1268.1999511719</ele>
        <time>2014-07-26T10:51:58.000Z</time>
      </trkpt>
      <trkpt lat="46.80484" lon="6.51332">
        <ele>1268.5999755859</ele>
        <time>2014-07-26T10:52:14.000Z</time>
      </trkpt>
      <trkpt lat="46.80486" lon="6.51331">
        <ele>1268.4000244141</ele>
        <time>2014-07-26T10:52:20.000Z</time>
      </trkpt>
      <trkpt lat="46.8049" lon="6.51306">
        <ele>1268.4000244141</ele>
        <time>2014-07-26T10:52:31.000Z</time>
      </trkpt>
      <trkpt lat="46.80492" lon="6.51318">
        <ele>1268.8000488281</ele>
        <time>2014-07-26T10:52:35.000Z</time>
      </trkpt>
      <trkpt lat="46.80492" lon="6.51325">
        <ele>1268.4000244141</ele>
        <time>2014-07-26T10:52:41.000Z</time>
      </trkpt>
      <trkpt lat="46.80489" lon="6.51329">
        <ele>1268.1999511719</ele>
        <time>2014-07-26T10:52:45.000Z</time>
      </trkpt>
      <trkpt lat="46.80487" lon="6.51332">
        <ele>1268.1999511719</ele>
        <time>2014-07-26T10:52:49.000Z</time>
      </trkpt>
      <trkpt lat="46.80487" lon="6.51331">
        <ele>1268.4000244141</ele>
        <time>2014-07-26T10:52:57.000Z</time>
      </trkpt>
      <trkpt lat="46.80489" lon="6.51332">
        <ele>1268</ele>
        <time>2014-07-26T10:53:02.000Z</time>
      </trkpt>
      <trkpt lat="46.80491" lon="6.51334">
        <ele>1267.8000488281</ele>
        <time>2014-07-26T10:53:08.000Z</time>
      </trkpt>
      <trkpt lat="46.80487" lon="6.51336">
        <ele>1268</ele>
        <time>2014-07-26T10:53:17.000Z</time>
      </trkpt>
      <trkpt lat="46.80484" lon="6.51332">
        <ele>1268.5999755859</ele>
        <time>2014-07-26T10:53:25.000Z</time>
      </trkpt>
      <trkpt lat="46.80487" lon="6.51331">
        <ele>1268.1999511719</ele>
        <time>2014-07-26T10:53:32.000Z</time>
      </trkpt>
      <trkpt lat="46.80491" lon="6.51333">
        <ele>1267.8000488281</ele>
        <time>2014-07-26T10:53:38.000Z</time>
      </trkpt>
      <trkpt lat="46.80488" lon="6.51333">
        <ele>1268.1999511719</ele>
        <time>2014-07-26T10:53:45.000Z</time>
      </trkpt>
      <trkpt lat="46.80487" lon="6.51335">
        <ele>1268</ele>
        <time>2014-07-26T10:53:51.000Z</time>
      </trkpt>
      <trkpt lat="46.8049" lon="6.51336">
        <ele>1267.8000488281</ele>
        <time>2014-07-26T10:53:56.000Z</time>
      </trkpt>
      <trkpt lat="46.80488" lon="6.51338">
        <ele>1267.8000488281</ele>
        <time>2014-07-26T10:54:03.000Z</time>
      </trkpt>
      <trkpt lat="46.80487" lon="6.51341">
        <ele>1267.8000488281</ele>
        <time>2014-07-26T10:54:08.000Z</time>
      </trkpt>
      <trkpt lat="46.80491" lon="6.51338">
        <ele>1267.5999755859</ele>
        <time>2014-07-26T10:54:13.000Z</time>
      </trkpt>
      <trkpt lat="46.80493" lon="6.5134">
        <ele>1267.4000244141</ele>
        <time>2014-07-26T10:54:19.000Z</time>
      </trkpt>
      <trkpt lat="46.8049" lon="6.51338">
        <ele>1267.5999755859</ele>
        <time>2014-07-26T10:54:32.000Z</time>
      </trkpt>
      <trkpt lat="46.80489" lon="6.51341">
        <ele>1267.4000244141</ele>
        <time>2014-07-26T10:54:41.000Z</time>
      </trkpt>
      <trkpt lat="46.8049" lon="6.51339">
        <ele>1267.5999755859</ele>
        <time>2014-07-26T10:54:49.000Z</time>
      </trkpt>
      <trkpt lat="46.80492" lon="6.51338">
        <ele>1267.5999755859</ele>
        <time>2014-07-26T10:54:53.000Z</time>
      </trkpt>
      <trkpt lat="46.80498" lon="6.51345">
        <ele>1266.8000488281</ele>
        <time>2014-07-26T10:54:59.000Z</time>
      </trkpt>
      <trkpt lat="46.80498" lon="6.51346">
        <ele>1266.8000488281</ele>
        <time>2014-07-26T10:55:00.000Z</time>
      </trkpt>
      <trkpt lat="46.80498" lon="6.51345">
        <ele>1266.8000488281</ele>
        <time>2014-07-26T10:55:01.000Z</time>
      </trkpt>
      <trkpt lat="46.80496" lon="6.5134">
        <ele>1267.1999511719</ele>
        <time>2014-07-26T10:55:08.000Z</time>
      </trkpt>
      <trkpt lat="46.80492" lon="6.51336">
        <ele>1267.5999755859</ele>
        <time>2014-07-26T10:55:11.000Z</time>
      </trkpt>
      <trkpt lat="46.80492" lon="6.51333">
        <ele>1267.8000488281</ele>
        <time>2014-07-26T10:55:17.000Z</time>
      </trkpt>
      <trkpt lat="46.80491" lon="6.51331">
        <ele>1268</ele>
        <time>2014-07-26T10:55:23.000Z</time>
      </trkpt>
      <trkpt lat="46.8049" lon="6.51333">
        <ele>1268</ele>
        <time>2014-07-26T10:55:30.000Z</time>
      </trkpt>
      <trkpt lat="46.80488" lon="6.51338">
        <ele>1267.8000488281</ele>
        <time>2014-07-26T10:55:37.000Z</time>
      </trkpt>
      <trkpt lat="46.80489" lon="6.51339">
        <ele>1267.5999755859</ele>
        <time>2014-07-26T10:55:41.000Z</time>
      </trkpt>
      <trkpt lat="46.80492" lon="6.51339">
        <ele>1267.5999755859</ele>
        <time>2014-07-26T10:55:43.000Z</time>
      </trkpt>
      <trkpt lat="46.80495" lon="6.5134">
        <ele>1267.1999511719</ele>
        <time>2014-07-26T10:55:49.000Z</time>
      </trkpt>
      <trkpt lat="46.80494" lon="6.51339">
        <ele>1267.4000244141</ele>
        <time>2014-07-26T10:55:54.000Z</time>
      </trkpt>
      <trkpt lat="46.80492" lon="6.51342">
        <ele>1267.4000244141</ele>
        <time>2014-07-26T10:56:02.000Z</time>
      </trkpt>
      <trkpt lat="46.80493" lon="6.5134">
        <ele>1267.4000244141</ele>
        <time>2014-07-26T10:56:09.000Z</time>
      </trkpt>
      <trkpt lat="46.80494" lon="6.5134">
        <ele>1267.4000244141</ele>
        <time>2014-07-26T10:56:14.000Z</time>
      </trkpt>
      <trkpt lat="46.80495" lon="6.51335">
        <ele>1267.5999755859</ele>
        <time>2014-07-26T10:56:19.000Z</time>
      </trkpt>
      <trkpt lat="46.80494" lon="6.51336">
        <ele>1267.5999755859</ele>
        <time>2014-07-26T10:56:20.000Z</time>
      </trkpt>
      <trkpt lat="46.80495" lon="6.51336">
        <ele>1267.5999755859</ele>
        <time>2014-07-26T10:56:26.000Z</time>
      </trkpt>
      <trkpt lat="46.80495" lon="6.51336">
        <ele>1267.5999755859</ele>
        <time>2014-07-26T10:56:30.000Z</time>
      </trkpt>
      <trkpt lat="46.80495" lon="6.51342">
        <ele>1267.1999511719</ele>
        <time>2014-07-26T10:56:38.000Z</time>
      </trkpt>
      <trkpt lat="46.80494" lon="6.51342">
        <ele>1267.1999511719</ele>
        <time>2014-07-26T10:56:46.000Z</time>
      </trkpt>
      <trkpt lat="46.80492" lon="6.51335">
        <ele>1267.8000488281</ele>
        <time>2014-07-26T10:57:00.000Z</time>
      </trkpt>
      <trkpt lat="46.80489" lon="6.51336">
        <ele>1267.8000488281</ele>
        <time>2014-07-26T10:57:05.000Z</time>
      </trkpt>
      <trkpt lat="46.80488" lon="6.51338">
        <ele>1267.8000488281</ele>
        <time>2014-07-26T10:57:10.000Z</time>
      </trkpt>
      <trkpt lat="46.80491" lon="6.51337">
        <ele>1267.5999755859</ele>
        <time>2014-07-26T10:57:18.000Z</time>
      </trkpt>
      <trkpt lat="46.80489" lon="6.5134">
        <ele>1267.5999755859</ele>
        <time>2014-07-26T10:57:22.000Z</time>
      </trkpt>
      <trkpt lat="46.8049" lon="6.51334">
        <ele>1267.8000488281</ele>
        <time>2014-07-26T10:57:30.000Z</time>
      </trkpt>
      <trkpt lat="46.80491" lon="6.51334">
        <ele>1267.8000488281</ele>
        <time>2014-07-26T10:57:35.000Z</time>
      </trkpt>
      <trkpt lat="46.8049" lon="6.51335">
        <ele>1267.8000488281</ele>
        <time>2014-07-26T10:57:42.000Z</time>
      </trkpt>
      <trkpt lat="46.80482" lon="6.51362">
        <ele>1267</ele>
        <time>2014-07-26T10:58:10.000Z</time>
      </trkpt>
      <trkpt lat="46.80482" lon="6.5136">
        <ele>1267</ele>
        <time>2014-07-26T10:58:12.000Z</time>
      </trkpt>
      <trkpt lat="46.80488" lon="6.51349">
        <ele>1267</ele>
        <time>2014-07-26T10:58:22.000Z</time>
      </trkpt>
      <trkpt lat="46.80491" lon="6.51343">
        <ele>1267.1999511719</ele>
        <time>2014-07-26T10:58:32.000Z</time>
      </trkpt>
      <trkpt lat="46.80492" lon="6.51342">
        <ele>1267.4000244141</ele>
        <time>2014-07-26T10:58:33.000Z</time>
      </trkpt>
      <trkpt lat="46.80494" lon="6.51336">
        <ele>1267.5999755859</ele>
        <time>2014-07-26T10:58:39.000Z</time>
      </trkpt>
      <trkpt lat="46.80492" lon="6.51339">
        <ele>1267.4000244141</ele>
        <time>2014-07-26T10:58:46.000Z</time>
      </trkpt>
      <trkpt lat="46.8049" lon="6.51341">
        <ele>1267.5999755859</ele>
        <time>2014-07-26T10:59:01.000Z</time>
      </trkpt>
      <trkpt lat="46.80489" lon="6.51341">
        <ele>1267.5999755859</ele>
        <time>2014-07-26T10:59:10.000Z</time>
      </trkpt>
      <trkpt lat="46.80489" lon="6.51344">
        <ele>1267.4000244141</ele>
        <time>2014-07-26T10:59:16.000Z</time>
      </trkpt>
      <trkpt lat="46.80489" lon="6.51343">
        <ele>1267.4000244141</ele>
        <time>2014-07-26T10:59:22.000Z</time>
      </trkpt>
      <trkpt lat="46.80492" lon="6.51338">
        <ele>1267.5999755859</ele>
        <time>2014-07-26T11:00:07.000Z</time>
      </trkpt>
      <trkpt lat="46.80492" lon="6.51338">
        <ele>1267.5999755859</ele>
        <time>2014-07-26T11:00:15.000Z</time>
      </trkpt>
      <trkpt lat="46.8049" lon="6.51343">
        <ele>1267.4000244141</ele>
        <time>2014-07-26T11:00:32.000Z</time>
      </trkpt>
      <trkpt lat="46.80489" lon="6.51342">
        <ele>1267.4000244141</ele>
        <time>2014-07-26T11:00:46.000Z</time>
      </trkpt>
      <trkpt lat="46.80489" lon="6.51343">
        <ele>1267.4000244141</ele>
        <time>2014-07-26T11:01:00.000Z</time>
      </trkpt>
      <trkpt lat="46.80489" lon="6.51348">
        <ele>1267.1999511719</ele>
        <time>2014-07-26T11:01:53.000Z</time>
      </trkpt>
      <trkpt lat="46.80489" lon="6.51349">
        <ele>1267</ele>
        <time>2014-07-26T11:01:59.000Z</time>
      </trkpt>
      <trkpt lat="46.80492" lon="6.51345">
        <ele>1267.1999511719</ele>
        <time>2014-07-26T11:02:22.000Z</time>
      </trkpt>
      <trkpt lat="46.80491" lon="6.51344">
        <ele>1267.1999511719</ele>
        <time>2014-07-26T11:02:29.000Z</time>
      </trkpt>
      <trkpt lat="46.80492" lon="6.51344">
        <ele>1267.1999511719</ele>
        <time>2014-07-26T11:02:36.000Z</time>
      </trkpt>
      <trkpt lat="46.80494" lon="6.51347">
        <ele>1267</ele>
        <time>2014-07-26T11:02:47.000Z</time>
      </trkpt>
      <trkpt lat="46.80493" lon="6.51347">
        <ele>1267</ele>
        <time>2014-07-26T11:02:52.000Z</time>
      </trkpt>
      <trkpt lat="46.80492" lon="6.51341">
        <ele>1267.4000244141</ele>
        <time>2014-07-26T11:03:07.000Z</time>
      </trkpt>
      <trkpt lat="46.80493" lon="6.5134">
        <ele>1267.4000244141</ele>
        <time>2014-07-26T11:03:08.000Z</time>
      </trkpt>
      <trkpt lat="46.80493" lon="6.51338">
        <ele>1267.5999755859</ele>
        <time>2014-07-26T11:03:13.000Z</time>
      </trkpt>
      <trkpt lat="46.80489" lon="6.51341">
        <ele>1267.5999755859</ele>
        <time>2014-07-26T11:03:18.000Z</time>
      </trkpt>
      <trkpt lat="46.80486" lon="6.51342">
        <ele>1267.5999755859</ele>
        <time>2014-07-26T11:03:23.000Z</time>
      </trkpt>
      <trkpt lat="46.80487" lon="6.51337">
        <ele>1268</ele>
        <time>2014-07-26T11:03:33.000Z</time>
      </trkpt>
      <trkpt lat="46.80484" lon="6.51339">
        <ele>1268</ele>
        <time>2014-07-26T11:03:43.000Z</time>
      </trkpt>
      <trkpt lat="46.80486" lon="6.51339">
        <ele>1268</ele>
        <time>2014-07-26T11:03:49.000Z</time>
      </trkpt>
      <trkpt lat="46.80481" lon="6.5134">
        <ele>1268.1999511719</ele>
        <time>2014-07-26T11:03:55.000Z</time>
      </trkpt>
      <trkpt lat="46.80481" lon="6.51341">
        <ele>1268.1999511719</ele>
        <time>2014-07-26T11:04:05.000Z</time>
      </trkpt>
      <trkpt lat="46.80483" lon="6.5134">
        <ele>1268</ele>
        <time>2014-07-26T11:04:10.000Z</time>
      </trkpt>
      <trkpt lat="46.80487" lon="6.51333">
        <ele>1268.1999511719</ele>
        <time>2014-07-26T11:04:15.000Z</time>
      </trkpt>
      <trkpt lat="46.80487" lon="6.51331">
        <ele>1268.1999511719</ele>
        <time>2014-07-26T11:04:22.000Z</time>
      </trkpt>
      <trkpt lat="46.80486" lon="6.51338">
        <ele>1268</ele>
        <time>2014-07-26T11:04:30.000Z</time>
      </trkpt>
      <trkpt lat="46.8049" lon="6.51335">
        <ele>1267.8000488281</ele>
        <time>2014-07-26T11:04:37.000Z</time>
      </trkpt>
      <trkpt lat="46.80492" lon="6.51335">
        <ele>1267.8000488281</ele>
        <time>2014-07-26T11:04:45.000Z</time>
      </trkpt>
      <trkpt lat="46.80492" lon="6.51338">
        <ele>1267.5999755859</ele>
        <time>2014-07-26T11:04:52.000Z</time>
      </trkpt>
      <trkpt lat="46.80492" lon="6.51338">
        <ele>1267.5999755859</ele>
        <time>2014-07-26T11:04:58.000Z</time>
      </trkpt>
      <trkpt lat="46.80493" lon="6.51338">
        <ele>1267.4000244141</ele>
        <time>2014-07-26T11:05:04.000Z</time>
      </trkpt>
      <trkpt lat="46.80494" lon="6.51336">
        <ele>1267.5999755859</ele>
        <time>2014-07-26T11:05:11.000Z</time>
      </trkpt>
      <trkpt lat="46.80494" lon="6.51336">
        <ele>1267.5999755859</ele>
        <time>2014-07-26T11:05:19.000Z</time>
      </trkpt>
      <trkpt lat="46.80493" lon="6.51336">
        <ele>1267.5999755859</ele>
        <time>2014-07-26T11:05:26.000Z</time>
      </trkpt>
      <trkpt lat="46.80491" lon="6.51338">
        <ele>1267.5999755859</ele>
        <time>2014-07-26T11:05:32.000Z</time>
      </trkpt>
      <trkpt lat="46.80491" lon="6.51338">
        <ele>1267.5999755859</ele>
        <time>2014-07-26T11:05:42.000Z</time>
      </trkpt>
      <trkpt lat="46.8049" lon="6.51338">
        <ele>1267.5999755859</ele>
        <time>2014-07-26T11:05:50.000Z</time>
      </trkpt>
      <trkpt lat="46.8049" lon="6.51338">
        <ele>1267.5999755859</ele>
        <time>2014-07-26T11:05:52.000Z</time>
      </trkpt>
      <trkpt lat="46.80492" lon="6.51336">
        <ele>1267.8000488281</ele>
        <time>2014-07-26T11:05:58.000Z</time>
      </trkpt>
      <trkpt lat="46.80491" lon="6.51337">
        <ele>1267.5999755859</ele>
        <time>2014-07-26T11:06:05.000Z</time>
      </trkpt>
      <trkpt lat="46.80493" lon="6.51337">
        <ele>1267.5999755859</ele>
        <time>2014-07-26T11:06:12.000Z</time>
      </trkpt>
      <trkpt lat="46.8049" lon="6.51339">
        <ele>1267.5999755859</ele>
        <time>2014-07-26T11:06:18.000Z</time>
      </trkpt>
      <trkpt lat="46.80487" lon="6.51339">
        <ele>1267.8000488281</ele>
        <time>2014-07-26T11:06:26.000Z</time>
      </trkpt>
      <trkpt lat="46.80487" lon="6.5134">
        <ele>1267.8000488281</ele>
        <time>2014-07-26T11:06:32.000Z</time>
      </trkpt>
      <trkpt lat="46.80488" lon="6.51339">
        <ele>1267.8000488281</ele>
        <time>2014-07-26T11:06:39.000Z</time>
      </trkpt>
      <trkpt lat="46.8049" lon="6.51337">
        <ele>1267.8000488281</ele>
        <time>2014-07-26T11:06:44.000Z</time>
      </trkpt>
      <trkpt lat="46.80492" lon="6.51334">
        <ele>1267.8000488281</ele>
        <time>2014-07-26T11:06:49.000Z</time>
      </trkpt>
      <trkpt lat="46.80491" lon="6.51331">
        <ele>1268</ele>
        <time>2014-07-26T11:06:54.000Z</time>
      </trkpt>
      <trkpt lat="46.8049" lon="6.51333">
        <ele>1268</ele>
        <time>2014-07-26T11:07:01.000Z</time>
      </trkpt>
      <trkpt lat="46.80491" lon="6.51334">
        <ele>1267.8000488281</ele>
        <time>2014-07-26T11:07:12.000Z</time>
      </trkpt>
      <trkpt lat="46.80491" lon="6.51336">
        <ele>1267.8000488281</ele>
        <time>2014-07-26T11:07:17.000Z</time>
      </trkpt>
      <trkpt lat="46.80489" lon="6.51336">
        <ele>1267.8000488281</ele>
        <time>2014-07-26T11:07:25.000Z</time>
      </trkpt>
      <trkpt lat="46.80489" lon="6.51338">
        <ele>1267.8000488281</ele>
        <time>2014-07-26T11:07:30.000Z</time>
      </trkpt>
      <trkpt lat="46.8049" lon="6.51337">
        <ele>1267.8000488281</ele>
        <time>2014-07-26T11:07:32.000Z</time>
      </trkpt>
      <trkpt lat="46.80494" lon="6.51314">
        <ele>1268.5999755859</ele>
        <time>2014-07-26T11:07:46.000Z</time>
      </trkpt>
      <trkpt lat="46.80496" lon="6.51331">
        <ele>1267.8000488281</ele>
        <time>2014-07-26T11:08:01.000Z</time>
      </trkpt>
      <trkpt lat="46.80495" lon="6.51333">
        <ele>1267.8000488281</ele>
        <time>2014-07-26T11:08:05.000Z</time>
      </trkpt>
      <trkpt lat="46.80494" lon="6.51333">
        <ele>1267.8000488281</ele>
        <time>2014-07-26T11:08:10.000Z</time>
      </trkpt>
      <trkpt lat="46.80493" lon="6.51327">
        <ele>1268.1999511719</ele>
        <time>2014-07-26T11:08:16.000Z</time>
      </trkpt>
      <trkpt lat="46.80491" lon="6.51329">
        <ele>1268.1999511719</ele>
        <time>2014-07-26T11:08:18.000Z</time>
      </trkpt>
      <trkpt lat="46.80493" lon="6.51329">
        <ele>1268</ele>
        <time>2014-07-26T11:08:23.000Z</time>
      </trkpt>
      <trkpt lat="46.80495" lon="6.51329">
        <ele>1268</ele>
        <time>2014-07-26T11:08:28.000Z</time>
      </trkpt>
      <trkpt lat="46.80495" lon="6.51329">
        <ele>1268</ele>
        <time>2014-07-26T11:08:34.000Z</time>
      </trkpt>
      <trkpt lat="46.80496" lon="6.51327">
        <ele>1268</ele>
        <time>2014-07-26T11:08:41.000Z</time>
      </trkpt>
      <trkpt lat="46.80497" lon="6.51327">
        <ele>1268</ele>
        <time>2014-07-26T11:08:46.000Z</time>
      </trkpt>
      <trkpt lat="46.80497" lon="6.5133">
        <ele>1267.8000488281</ele>
        <time>2014-07-26T11:08:53.000Z</time>
      </trkpt>
      <trkpt lat="46.80496" lon="6.51334">
        <ele>1267.5999755859</ele>
        <time>2014-07-26T11:08:59.000Z</time>
      </trkpt>
      <trkpt lat="46.80497" lon="6.5133">
        <ele>1267.8000488281</ele>
        <time>2014-07-26T11:09:06.000Z</time>
      </trkpt>
      <trkpt lat="46.80496" lon="6.51329">
        <ele>1267.8000488281</ele>
        <time>2014-07-26T11:09:13.000Z</time>
      </trkpt>
      <trkpt lat="46.80498" lon="6.51325">
        <ele>1268</ele>
        <time>2014-07-26T11:09:22.000Z</time>
      </trkpt>
      <trkpt lat="46.80497" lon="6.51326">
        <ele>1268</ele>
        <time>2014-07-26T11:09:30.000Z</time>
      </trkpt>
      <trkpt lat="46.80491" lon="6.51332">
        <ele>1268</ele>
        <time>2014-07-26T11:09:45.000Z</time>
      </trkpt>
      <trkpt lat="46.80491" lon="6.51331">
        <ele>1268</ele>
        <time>2014-07-26T11:09:52.000Z</time>
      </trkpt>
      <trkpt lat="46.80486" lon="6.51335">
        <ele>1268</ele>
        <time>2014-07-26T11:09:56.000Z</time>
      </trkpt>
      <trkpt lat="46.80482" lon="6.51345">
        <ele>1268</ele>
        <time>2014-07-26T11:10:02.000Z</time>
      </trkpt>
      <trkpt lat="46.80482" lon="6.51345">
        <ele>1268</ele>
        <time>2014-07-26T11:10:09.000Z</time>
      </trkpt>
      <trkpt lat="46.80487" lon="6.51344">
        <ele>1267.5999755859</ele>
        <time>2014-07-26T11:10:14.000Z</time>
      </trkpt>
      <trkpt lat="46.80491" lon="6.51344">
        <ele>1267.1999511719</ele>
        <time>2014-07-26T11:10:17.000Z</time>
      </trkpt>
      <trkpt lat="46.80489" lon="6.51344">
        <ele>1267.4000244141</ele>
        <time>2014-07-26T11:10:26.000Z</time>
      </trkpt>
      <trkpt lat="46.8049" lon="6.51338">
        <ele>1267.5999755859</ele>
        <time>2014-07-26T11:10:32.000Z</time>
      </trkpt>
      <trkpt lat="46.8049" lon="6.51337">
        <ele>1267.8000488281</ele>
        <time>2014-07-26T11:10:33.000Z</time>
      </trkpt>
      <trkpt lat="46.80493" lon="6.51338">
        <ele>1267.5999755859</ele>
        <time>2014-07-26T11:10:38.000Z</time>
      </trkpt>
      <trkpt lat="46.80489" lon="6.51343">
        <ele>1267.4000244141</ele>
        <time>2014-07-26T11:10:52.000Z</time>
      </trkpt>
      <trkpt lat="46.80486" lon="6.51343">
        <ele>1267.5999755859</ele>
        <time>2014-07-26T11:10:56.000Z</time>
      </trkpt>
      <trkpt lat="46.80486" lon="6.51344">
        <ele>1267.5999755859</ele>
        <time>2014-07-26T11:10:57.000Z</time>
      </trkpt>
      <trkpt lat="46.80485" lon="6.51347">
        <ele>1267.5999755859</ele>
        <time>2014-07-26T11:11:01.000Z</time>
      </trkpt>
      <trkpt lat="46.80486" lon="6.51341">
        <ele>1267.8000488281</ele>
        <time>2014-07-26T11:11:06.000Z</time>
      </trkpt>
      <trkpt lat="46.80491" lon="6.51346">
        <ele>1267.1999511719</ele>
        <time>2014-07-26T11:11:12.000Z</time>
      </trkpt>
      <trkpt lat="46.80499" lon="6.51347">
        <ele>1266.5999755859</ele>
        <time>2014-07-26T11:11:16.000Z</time>
      </trkpt>
      <trkpt lat="46.80501" lon="6.51343">
        <ele>1266.8000488281</ele>
        <time>2014-07-26T11:11:20.000Z</time>
      </trkpt>
      <trkpt lat="46.80497" lon="6.5134">
        <ele>1267.1999511719</ele>
        <time>2014-07-26T11:11:23.000Z</time>
      </trkpt>
      <trkpt lat="46.80493" lon="6.51342">
        <ele>1267.1999511719</ele>
        <time>2014-07-26T11:11:27.000Z</time>
      </trkpt>
      <trkpt lat="46.80493" lon="6.51337">
        <ele>1267.5999755859</ele>
        <time>2014-07-26T11:11:34.000Z</time>
      </trkpt>
      <trkpt lat="46.8049" lon="6.51342">
        <ele>1267.4000244141</ele>
        <time>2014-07-26T11:11:45.000Z</time>
      </trkpt>
      <trkpt lat="46.80488" lon="6.51348">
        <ele>1267.1999511719</ele>
        <time>2014-07-26T11:11:52.000Z</time>
      </trkpt>
      <trkpt lat="46.80486" lon="6.51352">
        <ele>1267.1999511719</ele>
        <time>2014-07-26T11:11:57.000Z</time>
      </trkpt>
      <trkpt lat="46.80482" lon="6.51356">
        <ele>1267.1999511719</ele>
        <time>2014-07-26T11:12:03.000Z</time>
      </trkpt>
      <trkpt lat="46.80481" lon="6.51357">
        <ele>1267.1999511719</ele>
        <time>2014-07-26T11:12:08.000Z</time>
      </trkpt>
      <trkpt lat="46.80479" lon="6.51357">
        <ele>1267.5999755859</ele>
        <time>2014-07-26T11:12:14.000Z</time>
      </trkpt>
      <trkpt lat="46.80471" lon="6.51363">
        <ele>1267.8000488281</ele>
        <time>2014-07-26T11:12:20.000Z</time>
      </trkpt>
      <trkpt lat="46.80472" lon="6.5136">
        <ele>1268</ele>
        <time>2014-07-26T11:12:23.000Z</time>
      </trkpt>
      <trkpt lat="46.80477" lon="6.51352">
        <ele>1268</ele>
        <time>2014-07-26T11:12:25.000Z</time>
      </trkpt>
      <trkpt lat="46.80485" lon="6.51352">
        <ele>1267.1999511719</ele>
        <time>2014-07-26T11:12:32.000Z</time>
      </trkpt>
      <trkpt lat="46.8049" lon="6.51347">
        <ele>1267.1999511719</ele>
        <time>2014-07-26T11:12:39.000Z</time>
      </trkpt>
      <trkpt lat="46.80491" lon="6.51353">
        <ele>1266.8000488281</ele>
        <time>2014-07-26T11:12:47.000Z</time>
      </trkpt>
      <trkpt lat="46.80486" lon="6.51345">
        <ele>1267.5999755859</ele>
        <time>2014-07-26T11:12:53.000Z</time>
      </trkpt>
      <trkpt lat="46.80487" lon="6.5134">
        <ele>1267.8000488281</ele>
        <time>2014-07-26T11:12:59.000Z</time>
      </trkpt>
      <trkpt lat="46.80488" lon="6.5134">
        <ele>1267.5999755859</ele>
        <time>2014-07-26T11:13:01.000Z</time>
      </trkpt>
      <trkpt lat="46.80487" lon="6.51355">
        <ele>1267</ele>
        <time>2014-07-26T11:13:07.000Z</time>
      </trkpt>
      <trkpt lat="46.80485" lon="6.51355">
        <ele>1267.1999511719</ele>
        <time>2014-07-26T11:13:10.000Z</time>
      </trkpt>
      <trkpt lat="46.80485" lon="6.5135">
        <ele>1267.1999511719</ele>
        <time>2014-07-26T11:13:12.000Z</time>
      </trkpt>
      <trkpt lat="46.80486" lon="6.51349">
        <ele>1267.4000244141</ele>
        <time>2014-07-26T11:13:13.000Z</time>
      </trkpt>
      <trkpt lat="46.80489" lon="6.51346">
        <ele>1267.1999511719</ele>
        <time>2014-07-26T11:13:16.000Z</time>
      </trkpt>
      <trkpt lat="46.80492" lon="6.51339">
        <ele>1267.5999755859</ele>
        <time>2014-07-26T11:13:22.000Z</time>
      </trkpt>
      <trkpt lat="46.80493" lon="6.51342">
        <ele>1267.1999511719</ele>
        <time>2014-07-26T11:13:34.000Z</time>
      </trkpt>
      <trkpt lat="46.80494" lon="6.5134">
        <ele>1267.4000244141</ele>
        <time>2014-07-26T11:13:39.000Z</time>
      </trkpt>
      <trkpt lat="46.80494" lon="6.51342">
        <ele>1267.1999511719</ele>
        <time>2014-07-26T11:13:48.000Z</time>
      </trkpt>
      <trkpt lat="46.80493" lon="6.51345">
        <ele>1267</ele>
        <time>2014-07-26T11:14:00.000Z</time>
      </trkpt>
      <trkpt lat="46.80493" lon="6.51344">
        <ele>1267.1999511719</ele>
        <time>2014-07-26T11:14:14.000Z</time>
      </trkpt>
      <trkpt lat="46.80494" lon="6.51343">
        <ele>1267.1999511719</ele>
        <time>2014-07-26T11:14:21.000Z</time>
      </trkpt>
      <trkpt lat="46.80496" lon="6.51344">
        <ele>1267</ele>
        <time>2014-07-26T11:14:25.000Z</time>
      </trkpt>
      <trkpt lat="46.80496" lon="6.5134">
        <ele>1267.1999511719</ele>
        <time>2014-07-26T11:14:37.000Z</time>
      </trkpt>
      <trkpt lat="46.80493" lon="6.51341">
        <ele>1267.4000244141</ele>
        <time>2014-07-26T11:15:12.000Z</time>
      </trkpt>
      <trkpt lat="46.80492" lon="6.51341">
        <ele>1267.4000244141</ele>
        <time>2014-07-26T11:15:17.000Z</time>
      </trkpt>
      <trkpt lat="46.80494" lon="6.51343">
        <ele>1267.1999511719</ele>
        <time>2014-07-26T11:15:54.000Z</time>
      </trkpt>
      <trkpt lat="46.80494" lon="6.51341">
        <ele>1267.1999511719</ele>
        <time>2014-07-26T11:16:03.000Z</time>
      </trkpt>
      <trkpt lat="46.80497" lon="6.51337">
        <ele>1267.4000244141</ele>
        <time>2014-07-26T11:16:17.000Z</time>
      </trkpt>
      <trkpt lat="46.80496" lon="6.51335">
        <ele>1267.5999755859</ele>
        <time>2014-07-26T11:16:24.000Z</time>
      </trkpt>
      <trkpt lat="46.80497" lon="6.51337">
        <ele>1267.4000244141</ele>
        <time>2014-07-26T11:16:36.000Z</time>
      </trkpt>
      <trkpt lat="46.80495" lon="6.51337">
        <ele>1267.4000244141</ele>
        <time>2014-07-26T11:16:41.000Z</time>
      </trkpt>
      <trkpt lat="46.80495" lon="6.51345">
        <ele>1267</ele>
        <time>2014-07-26T11:16:58.000Z</time>
      </trkpt>
      <trkpt lat="46.80497" lon="6.51345">
        <ele>1267</ele>
        <time>2014-07-26T11:17:09.000Z</time>
      </trkpt>
      <trkpt lat="46.80497" lon="6.51343">
        <ele>1267</ele>
        <time>2014-07-26T11:17:21.000Z</time>
      </trkpt>
      <trkpt lat="46.80497" lon="6.5134">
        <ele>1267.1999511719</ele>
        <time>2014-07-26T11:17:32.000Z</time>
      </trkpt>
      <trkpt lat="46.80497" lon="6.5135">
        <ele>1266.5999755859</ele>
        <time>2014-07-26T11:18:08.000Z</time>
      </trkpt>
      <trkpt lat="46.80495" lon="6.51348">
        <ele>1266.8000488281</ele>
        <time>2014-07-26T11:18:23.000Z</time>
      </trkpt>
      <trkpt lat="46.80494" lon="6.51348">
        <ele>1266.8000488281</ele>
        <time>2014-07-26T11:18:45.000Z</time>
      </trkpt>
      <trkpt lat="46.80494" lon="6.51348">
        <ele>1266.8000488281</ele>
        <time>2014-07-26T11:19:04.000Z</time>
      </trkpt>
      <trkpt lat="46.80495" lon="6.51346">
        <ele>1267</ele>
        <time>2014-07-26T11:19:14.000Z</time>
      </trkpt>
      <trkpt lat="46.80494" lon="6.51344">
        <ele>1267.1999511719</ele>
        <time>2014-07-26T11:19:37.000Z</time>
      </trkpt>
      <trkpt lat="46.80492" lon="6.51345">
        <ele>1267.1999511719</ele>
        <time>2014-07-26T11:19:43.000Z</time>
      </trkpt>
      <trkpt lat="46.80496" lon="6.51344">
        <ele>1267</ele>
        <time>2014-07-26T11:20:03.000Z</time>
      </trkpt>
      <trkpt lat="46.80495" lon="6.51345">
        <ele>1267</ele>
        <time>2014-07-26T11:20:09.000Z</time>
      </trkpt>
      <trkpt lat="46.80496" lon="6.51346">
        <ele>1266.8000488281</ele>
        <time>2014-07-26T11:20:15.000Z</time>
      </trkpt>
      <trkpt lat="46.80495" lon="6.51343">
        <ele>1267.1999511719</ele>
        <time>2014-07-26T11:20:32.000Z</time>
      </trkpt>
      <trkpt lat="46.80494" lon="6.51343">
        <ele>1267.1999511719</ele>
        <time>2014-07-26T11:20:37.000Z</time>
      </trkpt>
      <trkpt lat="46.80492" lon="6.51344">
        <ele>1267.1999511719</ele>
        <time>2014-07-26T11:20:42.000Z</time>
      </trkpt>
      <trkpt lat="46.80494" lon="6.5134">
        <ele>1267.4000244141</ele>
        <time>2014-07-26T11:21:07.000Z</time>
      </trkpt>
      <trkpt lat="46.80493" lon="6.5134">
        <ele>1267.4000244141</ele>
        <time>2014-07-26T11:21:15.000Z</time>
      </trkpt>
      <trkpt lat="46.80493" lon="6.51339">
        <ele>1267.4000244141</ele>
        <time>2014-07-26T11:21:22.000Z</time>
      </trkpt>
      <trkpt lat="46.80487" lon="6.51347">
        <ele>1267.4000244141</ele>
        <time>2014-07-26T11:21:27.000Z</time>
      </trkpt>
      <trkpt lat="46.80483" lon="6.51352">
        <ele>1267.4000244141</ele>
        <time>2014-07-26T11:21:33.000Z</time>
      </trkpt>
      <trkpt lat="46.8049" lon="6.5134">
        <ele>1267.5999755859</ele>
        <time>2014-07-26T11:22:09.000Z</time>
      </trkpt>
      <trkpt lat="46.80489" lon="6.51341">
        <ele>1267.5999755859</ele>
        <time>2014-07-26T11:22:23.000Z</time>
      </trkpt>
      <trkpt lat="46.80488" lon="6.51343">
        <ele>1267.4000244141</ele>
        <time>2014-07-26T11:22:48.000Z</time>
      </trkpt>
      <trkpt lat="46.80492" lon="6.51339">
        <ele>1267.5999755859</ele>
        <time>2014-07-26T11:23:02.000Z</time>
      </trkpt>
      <trkpt lat="46.80494" lon="6.5134">
        <ele>1267.4000244141</ele>
        <time>2014-07-26T11:23:07.000Z</time>
      </trkpt>
      <trkpt lat="46.8049" lon="6.51347">
        <ele>1267.1999511719</ele>
        <time>2014-07-26T11:23:24.000Z</time>
      </trkpt>
      <trkpt lat="46.80491" lon="6.5135">
        <ele>1267</ele>
        <time>2014-07-26T11:23:35.000Z</time>
      </trkpt>
      <trkpt lat="46.8049" lon="6.51346">
        <ele>1267.1999511719</ele>
        <time>2014-07-26T11:23:42.000Z</time>
      </trkpt>
      <trkpt lat="46.80493" lon="6.51343">
        <ele>1267.1999511719</ele>
        <time>2014-07-26T11:23:49.000Z</time>
      </trkpt>
      <trkpt lat="46.80494" lon="6.51343">
        <ele>1267.1999511719</ele>
        <time>2014-07-26T11:23:53.000Z</time>
      </trkpt>
      <trkpt lat="46.80497" lon="6.51339">
        <ele>1267.1999511719</ele>
        <time>2014-07-26T11:24:15.000Z</time>
      </trkpt>
      <trkpt lat="46.80496" lon="6.51338">
        <ele>1267.4000244141</ele>
        <time>2014-07-26T11:24:21.000Z</time>
      </trkpt>
      <trkpt lat="46.80499" lon="6.51341">
        <ele>1267</ele>
        <time>2014-07-26T11:24:27.000Z</time>
      </trkpt>
      <trkpt lat="46.80499" lon="6.51343">
        <ele>1267</ele>
        <time>2014-07-26T11:24:29.000Z</time>
      </trkpt>
      <trkpt lat="46.80498" lon="6.51346">
        <ele>1266.8000488281</ele>
        <time>2014-07-26T11:24:36.000Z</time>
      </trkpt>
      <trkpt lat="46.80497" lon="6.51348">
        <ele>1266.5999755859</ele>
        <time>2014-07-26T11:24:47.000Z</time>
      </trkpt>
      <trkpt lat="46.80497" lon="6.51345">
        <ele>1266.8000488281</ele>
        <time>2014-07-26T11:25:07.000Z</time>
      </trkpt>
      <trkpt lat="46.80497" lon="6.51342">
        <ele>1267.1999511719</ele>
        <time>2014-07-26T11:25:14.000Z</time>
      </trkpt>
      <trkpt lat="46.80499" lon="6.5134">
        <ele>1267</ele>
        <time>2014-07-26T11:25:45.000Z</time>
      </trkpt>
      <trkpt lat="46.80496" lon="6.51341">
        <ele>1267.1999511719</ele>
        <time>2014-07-26T11:25:52.000Z</time>
      </trkpt>
      <trkpt lat="46.80497" lon="6.5134">
        <ele>1267.1999511719</ele>
        <time>2014-07-26T11:26:00.000Z</time>
      </trkpt>
      <trkpt lat="46.80493" lon="6.51344">
        <ele>1267.1999511719</ele>
        <time>2014-07-26T11:26:12.000Z</time>
      </trkpt>
      <trkpt lat="46.80491" lon="6.51344">
        <ele>1267.1999511719</ele>
        <time>2014-07-26T11:26:13.000Z</time>
      </trkpt>
      <trkpt lat="46.80486" lon="6.51351">
        <ele>1267.1999511719</ele>
        <time>2014-07-26T11:26:19.000Z</time>
      </trkpt>
      <trkpt lat="46.80488" lon="6.51347">
        <ele>1267.1999511719</ele>
        <time>2014-07-26T11:26:25.000Z</time>
      </trkpt>
      <trkpt lat="46.80487" lon="6.51342">
        <ele>1267.5999755859</ele>
        <time>2014-07-26T11:26:39.000Z</time>
      </trkpt>
      <trkpt lat="46.80484" lon="6.51344">
        <ele>1267.8000488281</ele>
        <time>2014-07-26T11:26:44.000Z</time>
      </trkpt>
      <trkpt lat="46.80484" lon="6.51343">
        <ele>1267.8000488281</ele>
        <time>2014-07-26T11:26:46.000Z</time>
      </trkpt>
      <trkpt lat="46.80489" lon="6.51338">
        <ele>1267.8000488281</ele>
        <time>2014-07-26T11:26:53.000Z</time>
      </trkpt>
      <trkpt lat="46.80493" lon="6.51335">
        <ele>1267.5999755859</ele>
        <time>2014-07-26T11:26:57.000Z</time>
      </trkpt>
      <trkpt lat="46.80492" lon="6.51336">
        <ele>1267.5999755859</ele>
        <time>2014-07-26T11:27:03.000Z</time>
      </trkpt>
      <trkpt lat="46.8049" lon="6.51339">
        <ele>1267.5999755859</ele>
        <time>2014-07-26T11:27:07.000Z</time>
      </trkpt>
      <trkpt lat="46.80488" lon="6.51343">
        <ele>1267.5999755859</ele>
        <time>2014-07-26T11:27:12.000Z</time>
      </trkpt>
      <trkpt lat="46.80483" lon="6.51347">
        <ele>1267.5999755859</ele>
        <time>2014-07-26T11:27:15.000Z</time>
      </trkpt>
      <trkpt lat="46.80484" lon="6.51344">
        <ele>1267.8000488281</ele>
        <time>2014-07-26T11:27:20.000Z</time>
      </trkpt>
      <trkpt lat="46.8049" lon="6.51341">
        <ele>1267.4000244141</ele>
        <time>2014-07-26T11:27:30.000Z</time>
      </trkpt>
      <trkpt lat="46.80489" lon="6.51345">
        <ele>1267.1999511719</ele>
        <time>2014-07-26T11:27:37.000Z</time>
      </trkpt>
      <trkpt lat="46.80489" lon="6.51343">
        <ele>1267.4000244141</ele>
        <time>2014-07-26T11:27:42.000Z</time>
      </trkpt>
      <trkpt lat="46.80489" lon="6.5134">
        <ele>1267.5999755859</ele>
        <time>2014-07-26T11:27:48.000Z</time>
      </trkpt>
      <trkpt lat="46.80489" lon="6.5134">
        <ele>1267.5999755859</ele>
        <time>2014-07-26T11:27:56.000Z</time>
      </trkpt>
      <trkpt lat="46.80486" lon="6.51341">
        <ele>1267.8000488281</ele>
        <time>2014-07-26T11:28:00.000Z</time>
      </trkpt>
      <trkpt lat="46.80484" lon="6.51342">
        <ele>1268</ele>
        <time>2014-07-26T11:28:06.000Z</time>
      </trkpt>
      <trkpt lat="46.80485" lon="6.5134">
        <ele>1268</ele>
        <time>2014-07-26T11:28:13.000Z</time>
      </trkpt>
      <trkpt lat="46.80485" lon="6.51338">
        <ele>1268</ele>
        <time>2014-07-26T11:28:16.000Z</time>
      </trkpt>
      <trkpt lat="46.80486" lon="6.51338">
        <ele>1268</ele>
        <time>2014-07-26T11:28:21.000Z</time>
      </trkpt>
      <trkpt lat="46.80486" lon="6.51337">
        <ele>1268</ele>
        <time>2014-07-26T11:28:25.000Z</time>
      </trkpt>
      <trkpt lat="46.80492" lon="6.51334">
        <ele>1267.8000488281</ele>
        <time>2014-07-26T11:28:39.000Z</time>
      </trkpt>
      <trkpt lat="46.80492" lon="6.51334">
        <ele>1267.8000488281</ele>
        <time>2014-07-26T11:28:43.000Z</time>
      </trkpt>
      <trkpt lat="46.80493" lon="6.51336">
        <ele>1267.5999755859</ele>
        <time>2014-07-26T11:28:47.000Z</time>
      </trkpt>
      <trkpt lat="46.80492" lon="6.51336">
        <ele>1267.5999755859</ele>
        <time>2014-07-26T11:28:51.000Z</time>
      </trkpt>
      <trkpt lat="46.80493" lon="6.51335">
        <ele>1267.5999755859</ele>
        <time>2014-07-26T11:28:53.000Z</time>
      </trkpt>
      <trkpt lat="46.80494" lon="6.51334">
        <ele>1267.8000488281</ele>
        <time>2014-07-26T11:28:57.000Z</time>
      </trkpt>
      <trkpt lat="46.80495" lon="6.51333">
        <ele>1267.8000488281</ele>
        <time>2014-07-26T11:29:04.000Z</time>
      </trkpt>
      <trkpt lat="46.80498" lon="6.51326">
        <ele>1268</ele>
        <time>2014-07-26T11:29:11.000Z</time>
      </trkpt>
      <trkpt lat="46.80498" lon="6.51328">
        <ele>1267.8000488281</ele>
        <time>2014-07-26T11:29:15.000Z</time>
      </trkpt>
      <trkpt lat="46.805" lon="6.51329">
        <ele>1267.8000488281</ele>
        <time>2014-07-26T11:29:27.000Z</time>
      </trkpt>
      <trkpt lat="46.80501" lon="6.5133">
        <ele>1267.5999755859</ele>
        <time>2014-07-26T11:30:03.000Z</time>
      </trkpt>
      <trkpt lat="46.805" lon="6.51331">
        <ele>1267.5999755859</ele>
        <time>2014-07-26T11:30:04.000Z</time>
      </trkpt>
      <trkpt lat="46.80501" lon="6.51331">
        <ele>1267.5999755859</ele>
        <time>2014-07-26T11:30:10.000Z</time>
      </trkpt>
      <trkpt lat="46.805" lon="6.51332">
        <ele>1267.5999755859</ele>
        <time>2014-07-26T11:30:16.000Z</time>
      </trkpt>
      <trkpt lat="46.80501" lon="6.51334">
        <ele>1267.4000244141</ele>
        <time>2014-07-26T11:30:17.000Z</time>
      </trkpt>
      <trkpt lat="46.80505" lon="6.51347">
        <ele>1266.4000244141</ele>
        <time>2014-07-26T11:30:22.000Z</time>
      </trkpt>
      <trkpt lat="46.80506" lon="6.51352">
        <ele>1266</ele>
        <time>2014-07-26T11:30:24.000Z</time>
      </trkpt>
      <trkpt lat="46.80506" lon="6.5135">
        <ele>1266.1999511719</ele>
        <time>2014-07-26T11:30:29.000Z</time>
      </trkpt>
      <trkpt lat="46.80505" lon="6.51342">
        <ele>1266.5999755859</ele>
        <time>2014-07-26T11:30:37.000Z</time>
      </trkpt>
      <trkpt lat="46.80505" lon="6.51339">
        <ele>1266.8000488281</ele>
        <time>2014-07-26T11:30:39.000Z</time>
      </trkpt>
      <trkpt lat="46.805" lon="6.51337">
        <ele>1267.1999511719</ele>
        <time>2014-07-26T11:30:48.000Z</time>
      </trkpt>
      <trkpt lat="46.80494" lon="6.51329">
        <ele>1268</ele>
        <time>2014-07-26T11:31:01.000Z</time>
      </trkpt>
      <trkpt lat="46.80496" lon="6.51335">
        <ele>1267.5999755859</ele>
        <time>2014-07-26T11:31:26.000Z</time>
      </trkpt>
      <trkpt lat="46.80496" lon="6.51339">
        <ele>1267.4000244141</ele>
        <time>2014-07-26T11:31:33.000Z</time>
      </trkpt>
      <trkpt lat="46.80498" lon="6.51338">
        <ele>1267.1999511719</ele>
        <time>2014-07-26T11:31:40.000Z</time>
      </trkpt>
      <trkpt lat="46.80498" lon="6.51341">
        <ele>1267</ele>
        <time>2014-07-26T11:31:45.000Z</time>
      </trkpt>
      <trkpt lat="46.80496" lon="6.5134">
        <ele>1267.1999511719</ele>
        <time>2014-07-26T11:32:03.000Z</time>
      </trkpt>
      <trkpt lat="46.80494" lon="6.51341">
        <ele>1267.1999511719</ele>
        <time>2014-07-26T11:32:11.000Z</time>
      </trkpt>
      <trkpt lat="46.80495" lon="6.51341">
        <ele>1267.1999511719</ele>
        <time>2014-07-26T11:32:16.000Z</time>
      </trkpt>
      <trkpt lat="46.80499" lon="6.51348">
        <ele>1266.5999755859</ele>
        <time>2014-07-26T11:32:32.000Z</time>
      </trkpt>
      <trkpt lat="46.80499" lon="6.5135">
        <ele>1266.5999755859</ele>
        <time>2014-07-26T11:32:33.000Z</time>
      </trkpt>
      <trkpt lat="46.805" lon="6.51353">
        <ele>1266.1999511719</ele>
        <time>2014-07-26T11:32:36.000Z</time>
      </trkpt>
      <trkpt lat="46.80498" lon="6.51343">
        <ele>1267</ele>
        <time>2014-07-26T11:33:07.000Z</time>
      </trkpt>
      <trkpt lat="46.80496" lon="6.51339">
        <ele>1267.1999511719</ele>
        <time>2014-07-26T11:33:15.000Z</time>
      </trkpt>
      <trkpt lat="46.80494" lon="6.51341">
        <ele>1267.1999511719</ele>
        <time>2014-07-26T11:33:24.000Z</time>
      </trkpt>
      <trkpt lat="46.80495" lon="6.51342">
        <ele>1267.1999511719</ele>
        <time>2014-07-26T11:33:25.000Z</time>
      </trkpt>
      <trkpt lat="46.80495" lon="6.51345">
        <ele>1267</ele>
        <time>2014-07-26T11:33:31.000Z</time>
      </trkpt>
      <trkpt lat="46.80494" lon="6.51344">
        <ele>1267.1999511719</ele>
        <time>2014-07-26T11:33:37.000Z</time>
      </trkpt>
      <trkpt lat="46.80494" lon="6.51341">
        <ele>1267.4000244141</ele>
        <time>2014-07-26T11:33:42.000Z</time>
      </trkpt>
      <trkpt lat="46.80494" lon="6.51342">
        <ele>1267.1999511719</ele>
        <time>2014-07-26T11:33:46.000Z</time>
      </trkpt>
      <trkpt lat="46.80491" lon="6.51342">
        <ele>1267.4000244141</ele>
        <time>2014-07-26T11:33:53.000Z</time>
      </trkpt>
      <trkpt lat="46.80495" lon="6.51338">
        <ele>1267.4000244141</ele>
        <time>2014-07-26T11:34:06.000Z</time>
      </trkpt>
      <trkpt lat="46.80496" lon="6.51339">
        <ele>1267.4000244141</ele>
        <time>2014-07-26T11:34:10.000Z</time>
      </trkpt>
      <trkpt lat="46.80494" lon="6.51342">
        <ele>1267.1999511719</ele>
        <time>2014-07-26T11:34:17.000Z</time>
      </trkpt>
      <trkpt lat="46.80493" lon="6.51342">
        <ele>1267.1999511719</ele>
        <time>2014-07-26T11:34:22.000Z</time>
      </trkpt>
      <trkpt lat="46.80496" lon="6.51345">
        <ele>1267</ele>
        <time>2014-07-26T11:34:52.000Z</time>
      </trkpt>
      <trkpt lat="46.80497" lon="6.51349">
        <ele>1266.5999755859</ele>
        <time>2014-07-26T11:34:57.000Z</time>
      </trkpt>
      <trkpt lat="46.80496" lon="6.51351">
        <ele>1266.5999755859</ele>
        <time>2014-07-26T11:35:04.000Z</time>
      </trkpt>
      <trkpt lat="46.80498" lon="6.51352">
        <ele>1266.4000244141</ele>
        <time>2014-07-26T11:35:25.000Z</time>
      </trkpt>
      <trkpt lat="46.80499" lon="6.51354">
        <ele>1266.1999511719</ele>
        <time>2014-07-26T11:35:40.000Z</time>
      </trkpt>
      <trkpt lat="46.805" lon="6.51354">
        <ele>1266.1999511719</ele>
        <time>2014-07-26T11:35:52.000Z</time>
      </trkpt>
      <trkpt lat="46.80503" lon="6.51355">
        <ele>1266</ele>
        <time>2014-07-26T11:36:07.000Z</time>
      </trkpt>
      <trkpt lat="46.80504" lon="6.51359">
        <ele>1265.8000488281</ele>
        <time>2014-07-26T11:36:15.000Z</time>
      </trkpt>
      <trkpt lat="46.80503" lon="6.51361">
        <ele>1265.5999755859</ele>
        <time>2014-07-26T11:36:23.000Z</time>
      </trkpt>
      <trkpt lat="46.80505" lon="6.51355">
        <ele>1266</ele>
        <time>2014-07-26T11:37:14.000Z</time>
      </trkpt>
      <trkpt lat="46.80504" lon="6.51354">
        <ele>1266</ele>
        <time>2014-07-26T11:37:22.000Z</time>
      </trkpt>
      <trkpt lat="46.80503" lon="6.51352">
        <ele>1266.1999511719</ele>
        <time>2014-07-26T11:37:32.000Z</time>
      </trkpt>
      <trkpt lat="46.80504" lon="6.5135">
        <ele>1266.4000244141</ele>
        <time>2014-07-26T11:37:37.000Z</time>
      </trkpt>
      <trkpt lat="46.80506" lon="6.51345">
        <ele>1266.4000244141</ele>
        <time>2014-07-26T11:37:42.000Z</time>
      </trkpt>
      <trkpt lat="46.80505" lon="6.51341">
        <ele>1266.8000488281</ele>
        <time>2014-07-26T11:37:47.000Z</time>
      </trkpt>
      <trkpt lat="46.80504" lon="6.51338">
        <ele>1267</ele>
        <time>2014-07-26T11:37:52.000Z</time>
      </trkpt>
      <trkpt lat="46.80503" lon="6.51335">
        <ele>1267.1999511719</ele>
        <time>2014-07-26T11:37:57.000Z</time>
      </trkpt>
      <trkpt lat="46.805" lon="6.51329">
        <ele>1267.8000488281</ele>
        <time>2014-07-26T11:38:07.000Z</time>
      </trkpt>
      <trkpt lat="46.80499" lon="6.51323">
        <ele>1268</ele>
        <time>2014-07-26T11:38:13.000Z</time>
      </trkpt>
      <trkpt lat="46.80496" lon="6.51319">
        <ele>1268.4000244141</ele>
        <time>2014-07-26T11:38:17.000Z</time>
      </trkpt>
      <trkpt lat="46.80492" lon="6.51314">
        <ele>1268.8000488281</ele>
        <time>2014-07-26T11:38:23.000Z</time>
      </trkpt>
      <trkpt lat="46.8049" lon="6.51313">
        <ele>1268.8000488281</ele>
        <time>2014-07-26T11:38:25.000Z</time>
      </trkpt>
      <trkpt lat="46.80488" lon="6.51312">
        <ele>1268.8000488281</ele>
        <time>2014-07-26T11:38:27.000Z</time>
      </trkpt>
      <trkpt lat="46.80483" lon="6.51309">
        <ele>1269.4000244141</ele>
        <time>2014-07-26T11:38:34.000Z</time>
      </trkpt>
      <trkpt lat="46.80474" lon="6.51309">
        <ele>1270.1999511719</ele>
        <time>2014-07-26T11:38:40.000Z</time>
      </trkpt>
      <trkpt lat="46.80468" lon="6.51309">
        <ele>1270.8000488281</ele>
        <time>2014-07-26T11:38:45.000Z</time>
      </trkpt>
      <trkpt lat="46.80462" lon="6.51309">
        <ele>1271.4000244141</ele>
        <time>2014-07-26T11:38:49.000Z</time>
      </trkpt>
      <trkpt lat="46.8046" lon="6.51309">
        <ele>1271.5999755859</ele>
        <time>2014-07-26T11:38:51.000Z</time>
      </trkpt>
      <trkpt lat="46.80452" lon="6.51309">
        <ele>1272.1999511719</ele>
        <time>2014-07-26T11:38:57.000Z</time>
      </trkpt>
      <trkpt lat="46.80452" lon="6.51309">
        <ele>1272.4000244141</ele>
        <time>2014-07-26T11:38:59.000Z</time>
      </trkpt>
      <trkpt lat="46.80446" lon="6.51308">
        <ele>1272.8000488281</ele>
        <time>2014-07-26T11:39:06.000Z</time>
      </trkpt>
      <trkpt lat="46.80439" lon="6.51309">
        <ele>1273.5999755859</ele>
        <time>2014-07-26T11:39:12.000Z</time>
      </trkpt>
      <trkpt lat="46.80432" lon="6.51308">
        <ele>1274.1999511719</ele>
        <time>2014-07-26T11:39:19.000Z</time>
      </trkpt>
      <trkpt lat="46.80431" lon="6.51308">
        <ele>1274.1999511719</ele>
        <time>2014-07-26T11:39:20.000Z</time>
      </trkpt>
      <trkpt lat="46.80427" lon="6.51309">
        <ele>1274.8000488281</ele>
        <time>2014-07-26T11:39:25.000Z</time>
      </trkpt>
      <trkpt lat="46.80421" lon="6.5131">
        <ele>1275.1999511719</ele>
        <time>2014-07-26T11:39:31.000Z</time>
      </trkpt>
      <trkpt lat="46.80414" lon="6.5131">
        <ele>1276</ele>
        <time>2014-07-26T11:39:39.000Z</time>
      </trkpt>
      <trkpt lat="46.80409" lon="6.5131">
        <ele>1276.4000244141</ele>
        <time>2014-07-26T11:39:43.000Z</time>
      </trkpt>
      <trkpt lat="46.80403" lon="6.5131">
        <ele>1276.5999755859</ele>
        <time>2014-07-26T11:39:48.000Z</time>
      </trkpt>
      <trkpt lat="46.80404" lon="6.5131">
        <ele>1276.5999755859</ele>
        <time>2014-07-26T11:39:49.000Z</time>
      </trkpt>
      <trkpt lat="46.80398" lon="6.51312">
        <ele>1275.1999511719</ele>
        <time>2014-07-26T11:39:55.000Z</time>
      </trkpt>
      <trkpt lat="46.80397" lon="6.51311">
        <ele>1275</ele>
        <time>2014-07-26T11:39:56.000Z</time>
      </trkpt>
      <trkpt lat="46.80389" lon="6.51312">
        <ele>1271.5999755859</ele>
        <time>2014-07-26T11:40:04.000Z</time>
      </trkpt>
      <trkpt lat="46.80383" lon="6.51313">
        <ele>1269.1999511719</ele>
        <time>2014-07-26T11:40:10.000Z</time>
      </trkpt>
      <trkpt lat="46.80379" lon="6.51313">
        <ele>1267.8000488281</ele>
        <time>2014-07-26T11:40:13.000Z</time>
      </trkpt>
      <trkpt lat="46.80374" lon="6.51314">
        <ele>1265.5999755859</ele>
        <time>2014-07-26T11:40:17.000Z</time>
      </trkpt>
      <trkpt lat="46.80368" lon="6.51313">
        <ele>1263.5999755859</ele>
        <time>2014-07-26T11:40:23.000Z</time>
      </trkpt>
      <trkpt lat="46.80365" lon="6.51313">
        <ele>1262.4000244141</ele>
        <time>2014-07-26T11:40:26.000Z</time>
      </trkpt>
      <trkpt lat="46.80362" lon="6.51314">
        <ele>1261</ele>
        <time>2014-07-26T11:40:36.000Z</time>
      </trkpt>
      <trkpt lat="46.80356" lon="6.51315">
        <ele>1258.4000244141</ele>
        <time>2014-07-26T11:40:45.000Z</time>
      </trkpt>
      <trkpt lat="46.80352" lon="6.51315">
        <ele>1256.5999755859</ele>
        <time>2014-07-26T11:40:49.000Z</time>
      </trkpt>
      <trkpt lat="46.80348" lon="6.51317">
        <ele>1255</ele>
        <time>2014-07-26T11:40:52.000Z</time>
      </trkpt>
      <trkpt lat="46.80344" lon="6.51317">
        <ele>1253.8000488281</ele>
        <time>2014-07-26T11:40:56.000Z</time>
      </trkpt>
      <trkpt lat="46.80343" lon="6.51317">
        <ele>1253.1999511719</ele>
        <time>2014-07-26T11:40:58.000Z</time>
      </trkpt>
      <trkpt lat="46.80338" lon="6.51317">
        <ele>1251.1999511719</ele>
        <time>2014-07-26T11:41:03.000Z</time>
      </trkpt>
      <trkpt lat="46.80323" lon="6.51323">
        <ele>1245.1999511719</ele>
        <time>2014-07-26T11:41:32.000Z</time>
      </trkpt>
      <trkpt lat="46.80321" lon="6.51323">
        <ele>1244.1999511719</ele>
        <time>2014-07-26T11:41:40.000Z</time>
      </trkpt>
      <trkpt lat="46.80319" lon="6.51324">
        <ele>1242.4000244141</ele>
        <time>2014-07-26T11:42:09.000Z</time>
      </trkpt>
      <trkpt lat="46.80318" lon="6.51323">
        <ele>1241.8000488281</ele>
        <time>2014-07-26T11:42:48.000Z</time>
      </trkpt>
      <trkpt lat="46.80323" lon="6.51325">
        <ele>1245.1999511719</ele>
        <time>2014-07-26T11:45:37.000Z</time>
      </trkpt>
      <trkpt lat="46.80328" lon="6.51324">
        <ele>1246.8000488281</ele>
        <time>2014-07-26T11:45:44.000Z</time>
      </trkpt>
      <trkpt lat="46.80332" lon="6.51324">
        <ele>1248.4000244141</ele>
        <time>2014-07-26T11:45:50.000Z</time>
      </trkpt>
      <trkpt lat="46.80337" lon="6.51323">
        <ele>1250.5999755859</ele>
        <time>2014-07-26T11:45:56.000Z</time>
      </trkpt>
      <trkpt lat="46.80342" lon="6.51322">
        <ele>1252.4000244141</ele>
        <time>2014-07-26T11:46:01.000Z</time>
      </trkpt>
      <trkpt lat="46.80344" lon="6.51322">
        <ele>1253.4000244141</ele>
        <time>2014-07-26T11:46:07.000Z</time>
      </trkpt>
      <trkpt lat="46.80351" lon="6.51315">
        <ele>1256.4000244141</ele>
        <time>2014-07-26T11:46:20.000Z</time>
      </trkpt>
      <trkpt lat="46.80354" lon="6.51308">
        <ele>1258.8000488281</ele>
        <time>2014-07-26T11:46:25.000Z</time>
      </trkpt>
      <trkpt lat="46.80357" lon="6.51298">
        <ele>1261.5999755859</ele>
        <time>2014-07-26T11:46:31.000Z</time>
      </trkpt>
      <trkpt lat="46.80357" lon="6.51295">
        <ele>1262</ele>
        <time>2014-07-26T11:46:33.000Z</time>
      </trkpt>
      <trkpt lat="46.80357" lon="6.51293">
        <ele>1262.8000488281</ele>
        <time>2014-07-26T11:46:35.000Z</time>
      </trkpt>
      <trkpt lat="46.80358" lon="6.51292">
        <ele>1263</ele>
        <time>2014-07-26T11:46:36.000Z</time>
      </trkpt>
      <trkpt lat="46.80359" lon="6.51291">
        <ele>1263.5999755859</ele>
        <time>2014-07-26T11:46:38.000Z</time>
      </trkpt>
      <trkpt lat="46.8036" lon="6.51284">
        <ele>1265.1999511719</ele>
        <time>2014-07-26T11:46:46.000Z</time>
      </trkpt>
      <trkpt lat="46.80361" lon="6.51279">
        <ele>1266.4000244141</ele>
        <time>2014-07-26T11:46:51.000Z</time>
      </trkpt>
      <trkpt lat="46.80364" lon="6.51275">
        <ele>1268</ele>
        <time>2014-07-26T11:46:56.000Z</time>
      </trkpt>
      <trkpt lat="46.80366" lon="6.5127">
        <ele>1268.4000244141</ele>
        <time>2014-07-26T11:47:01.000Z</time>
      </trkpt>
      <trkpt lat="46.80369" lon="6.51264">
        <ele>1268.8000488281</ele>
        <time>2014-07-26T11:47:09.000Z</time>
      </trkpt>
      <trkpt lat="46.80368" lon="6.51258">
        <ele>1268.5999755859</ele>
        <time>2014-07-26T11:47:14.000Z</time>
      </trkpt>
      <trkpt lat="46.80368" lon="6.51253">
        <ele>1268.4000244141</ele>
        <time>2014-07-26T11:47:19.000Z</time>
      </trkpt>
      <trkpt lat="46.80368" lon="6.51245">
        <ele>1268</ele>
        <time>2014-07-26T11:47:27.000Z</time>
      </trkpt>
      <trkpt lat="46.80367" lon="6.51237">
        <ele>1267.8000488281</ele>
        <time>2014-07-26T11:47:34.000Z</time>
      </trkpt>
      <trkpt lat="46.80366" lon="6.51232">
        <ele>1267.5999755859</ele>
        <time>2014-07-26T11:47:38.000Z</time>
      </trkpt>
      <trkpt lat="46.80366" lon="6.51229">
        <ele>1268</ele>
        <time>2014-07-26T11:47:42.000Z</time>
      </trkpt>
      <trkpt lat="46.80366" lon="6.51226">
        <ele>1268.4000244141</ele>
        <time>2014-07-26T11:47:44.000Z</time>
      </trkpt>
      <trkpt lat="46.80365" lon="6.51218">
        <ele>1269</ele>
        <time>2014-07-26T11:47:50.000Z</time>
      </trkpt>
      <trkpt lat="46.80364" lon="6.51216">
        <ele>1269</ele>
        <time>2014-07-26T11:47:53.000Z</time>
      </trkpt>
      <trkpt lat="46.80361" lon="6.51212">
        <ele>1269</ele>
        <time>2014-07-26T11:47:57.000Z</time>
      </trkpt>
      <trkpt lat="46.80361" lon="6.51209">
        <ele>1269.1999511719</ele>
        <time>2014-07-26T11:48:00.000Z</time>
      </trkpt>
      <trkpt lat="46.8036" lon="6.51206">
        <ele>1269.4000244141</ele>
        <time>2014-07-26T11:48:02.000Z</time>
      </trkpt>
      <trkpt lat="46.8036" lon="6.51204">
        <ele>1269.4000244141</ele>
        <time>2014-07-26T11:48:04.000Z</time>
      </trkpt>
      <trkpt lat="46.8036" lon="6.51202">
        <ele>1269.8000488281</ele>
        <time>2014-07-26T11:48:06.000Z</time>
      </trkpt>
      <trkpt lat="46.80359" lon="6.512">
        <ele>1269.8000488281</ele>
        <time>2014-07-26T11:48:08.000Z</time>
      </trkpt>
      <trkpt lat="46.8036" lon="6.51192">
        <ele>1270.8000488281</ele>
        <time>2014-07-26T11:48:15.000Z</time>
      </trkpt>
      <trkpt lat="46.8036" lon="6.5119">
        <ele>1271</ele>
        <time>2014-07-26T11:48:16.000Z</time>
      </trkpt>
      <trkpt lat="46.8036" lon="6.51181">
        <ele>1271.4000244141</ele>
        <time>2014-07-26T11:48:22.000Z</time>
      </trkpt>
      <trkpt lat="46.80361" lon="6.51175">
        <ele>1271.5999755859</ele>
        <time>2014-07-26T11:48:26.000Z</time>
      </trkpt>
      <trkpt lat="46.80361" lon="6.51171">
        <ele>1271.8000488281</ele>
        <time>2014-07-26T11:48:29.000Z</time>
      </trkpt>
      <trkpt lat="46.80361" lon="6.51166">
        <ele>1271.8000488281</ele>
        <time>2014-07-26T11:48:32.000Z</time>
      </trkpt>
      <trkpt lat="46.80359" lon="6.5116">
        <ele>1271.8000488281</ele>
        <time>2014-07-26T11:48:36.000Z</time>
      </trkpt>
      <trkpt lat="46.80356" lon="6.51145">
        <ele>1272</ele>
        <time>2014-07-26T11:48:44.000Z</time>
      </trkpt>
      <trkpt lat="46.80356" lon="6.51142">
        <ele>1272</ele>
        <time>2014-07-26T11:48:46.000Z</time>
      </trkpt>
      <trkpt lat="46.80352" lon="6.51132">
        <ele>1272.1999511719</ele>
        <time>2014-07-26T11:48:51.000Z</time>
      </trkpt>
      <trkpt lat="46.8035" lon="6.51122">
        <ele>1272.4000244141</ele>
        <time>2014-07-26T11:48:57.000Z</time>
      </trkpt>
      <trkpt lat="46.8035" lon="6.51121">
        <ele>1272.4000244141</ele>
        <time>2014-07-26T11:48:58.000Z</time>
      </trkpt>
      <trkpt lat="46.80349" lon="6.51117">
        <ele>1272.4000244141</ele>
        <time>2014-07-26T11:49:03.000Z</time>
      </trkpt>
      <trkpt lat="46.80348" lon="6.51116">
        <ele>1272.4000244141</ele>
        <time>2014-07-26T11:49:05.000Z</time>
      </trkpt>
      <trkpt lat="46.80346" lon="6.51103">
        <ele>1272.8000488281</ele>
        <time>2014-07-26T11:49:13.000Z</time>
      </trkpt>
      <trkpt lat="46.80345" lon="6.51092">
        <ele>1273.1999511719</ele>
        <time>2014-07-26T11:49:19.000Z</time>
      </trkpt>
      <trkpt lat="46.80342" lon="6.51083">
        <ele>1273.1999511719</ele>
        <time>2014-07-26T11:49:24.000Z</time>
      </trkpt>
      <trkpt lat="46.80339" lon="6.51075">
        <ele>1272.8000488281</ele>
        <time>2014-07-26T11:49:29.000Z</time>
      </trkpt>
      <trkpt lat="46.80339" lon="6.51074">
        <ele>1272.8000488281</ele>
        <time>2014-07-26T11:49:30.000Z</time>
      </trkpt>
      <trkpt lat="46.80338" lon="6.5107">
        <ele>1272.5999755859</ele>
        <time>2014-07-26T11:49:32.000Z</time>
      </trkpt>
      <trkpt lat="46.80334" lon="6.51063">
        <ele>1272.4000244141</ele>
        <time>2014-07-26T11:49:38.000Z</time>
      </trkpt>
      <trkpt lat="46.80333" lon="6.51057">
        <ele>1272.5999755859</ele>
        <time>2014-07-26T11:49:46.000Z</time>
      </trkpt>
      <trkpt lat="46.80333" lon="6.5105">
        <ele>1272.5999755859</ele>
        <time>2014-07-26T11:49:51.000Z</time>
      </trkpt>
      <trkpt lat="46.80333" lon="6.51047">
        <ele>1272.5999755859</ele>
        <time>2014-07-26T11:49:53.000Z</time>
      </trkpt>
      <trkpt lat="46.80333" lon="6.51045">
        <ele>1272.5999755859</ele>
        <time>2014-07-26T11:49:55.000Z</time>
      </trkpt>
      <trkpt lat="46.80334" lon="6.5104">
        <ele>1272.8000488281</ele>
        <time>2014-07-26T11:50:02.000Z</time>
      </trkpt>
      <trkpt lat="46.80332" lon="6.51031">
        <ele>1272.8000488281</ele>
        <time>2014-07-26T11:50:09.000Z</time>
      </trkpt>
      <trkpt lat="46.8033" lon="6.51025">
        <ele>1272.8000488281</ele>
        <time>2014-07-26T11:50:15.000Z</time>
      </trkpt>
      <trkpt lat="46.8033" lon="6.51024">
        <ele>1272.8000488281</ele>
        <time>2014-07-26T11:50:16.000Z</time>
      </trkpt>
      <trkpt lat="46.80329" lon="6.51015">
        <ele>1272.8000488281</ele>
        <time>2014-07-26T11:50:22.000Z</time>
      </trkpt>
      <trkpt lat="46.80326" lon="6.51011">
        <ele>1272.8000488281</ele>
        <time>2014-07-26T11:50:26.000Z</time>
      </trkpt>
      <trkpt lat="46.80326" lon="6.51009">
        <ele>1272.8000488281</ele>
        <time>2014-07-26T11:50:27.000Z</time>
      </trkpt>
      <trkpt lat="46.80325" lon="6.51009">
        <ele>1272.8000488281</ele>
        <time>2014-07-26T11:50:28.000Z</time>
      </trkpt>
      <trkpt lat="46.80323" lon="6.51">
        <ele>1272.8000488281</ele>
        <time>2014-07-26T11:50:35.000Z</time>
      </trkpt>
      <trkpt lat="46.80321" lon="6.50994">
        <ele>1272.5999755859</ele>
        <time>2014-07-26T11:50:40.000Z</time>
      </trkpt>
      <trkpt lat="46.80318" lon="6.50988">
        <ele>1271.1999511719</ele>
        <time>2014-07-26T11:50:46.000Z</time>
      </trkpt>
      <trkpt lat="46.80318" lon="6.50987">
        <ele>1271</ele>
        <time>2014-07-26T11:50:47.000Z</time>
      </trkpt>
      <trkpt lat="46.80317" lon="6.50983">
        <ele>1271</ele>
        <time>2014-07-26T11:50:50.000Z</time>
      </trkpt>
      <trkpt lat="46.80315" lon="6.50978">
        <ele>1270.8000488281</ele>
        <time>2014-07-26T11:50:54.000Z</time>
      </trkpt>
      <trkpt lat="46.80316" lon="6.50973">
        <ele>1271.1999511719</ele>
        <time>2014-07-26T11:50:58.000Z</time>
      </trkpt>
      <trkpt lat="46.80316" lon="6.50968">
        <ele>1271.5999755859</ele>
        <time>2014-07-26T11:51:02.000Z</time>
      </trkpt>
      <trkpt lat="46.80314" lon="6.50957">
        <ele>1271.5999755859</ele>
        <time>2014-07-26T11:51:09.000Z</time>
      </trkpt>
      <trkpt lat="46.80315" lon="6.50949">
        <ele>1272.1999511719</ele>
        <time>2014-07-26T11:51:15.000Z</time>
      </trkpt>
      <trkpt lat="46.80315" lon="6.50948">
        <ele>1272.1999511719</ele>
        <time>2014-07-26T11:51:16.000Z</time>
      </trkpt>
      <trkpt lat="46.80315" lon="6.50947">
        <ele>1272.1999511719</ele>
        <time>2014-07-26T11:51:17.000Z</time>
      </trkpt>
      <trkpt lat="46.80312" lon="6.50935">
        <ele>1272</ele>
        <time>2014-07-26T11:51:23.000Z</time>
      </trkpt>
      <trkpt lat="46.80309" lon="6.50918">
        <ele>1271.5999755859</ele>
        <time>2014-07-26T11:51:31.000Z</time>
      </trkpt>
      <trkpt lat="46.80306" lon="6.50904">
        <ele>1271.1999511719</ele>
        <time>2014-07-26T11:51:39.000Z</time>
      </trkpt>
      <trkpt lat="46.80305" lon="6.50893">
        <ele>1271.4000244141</ele>
        <time>2014-07-26T11:51:47.000Z</time>
      </trkpt>
      <trkpt lat="46.80306" lon="6.50882">
        <ele>1272</ele>
        <time>2014-07-26T11:51:54.000Z</time>
      </trkpt>
      <trkpt lat="46.80306" lon="6.50879">
        <ele>1272.5999755859</ele>
        <time>2014-07-26T11:51:57.000Z</time>
      </trkpt>
      <trkpt lat="46.80307" lon="6.50874">
        <ele>1273.4000244141</ele>
        <time>2014-07-26T11:52:00.000Z</time>
      </trkpt>
      <trkpt lat="46.80308" lon="6.50871">
        <ele>1274</ele>
        <time>2014-07-26T11:52:04.000Z</time>
      </trkpt>
      <trkpt lat="46.80307" lon="6.50864">
        <ele>1274.1999511719</ele>
        <time>2014-07-26T11:52:11.000Z</time>
      </trkpt>
      <trkpt lat="46.80306" lon="6.50861">
        <ele>1274.4000244141</ele>
        <time>2014-07-26T11:52:15.000Z</time>
      </trkpt>
      <trkpt lat="46.80307" lon="6.50859">
        <ele>1274.8000488281</ele>
        <time>2014-07-26T11:52:20.000Z</time>
      </trkpt>
      <trkpt lat="46.80304" lon="6.50855">
        <ele>1274</ele>
        <time>2014-07-26T11:52:30.000Z</time>
      </trkpt>
      <trkpt lat="46.80303" lon="6.50853">
        <ele>1273.5999755859</ele>
        <time>2014-07-26T11:52:32.000Z</time>
      </trkpt>
      <trkpt lat="46.80302" lon="6.50849">
        <ele>1273.1999511719</ele>
        <time>2014-07-26T11:52:36.000Z</time>
      </trkpt>
      <trkpt lat="46.80303" lon="6.50842">
        <ele>1274.5999755859</ele>
        <time>2014-07-26T11:52:42.000Z</time>
      </trkpt>
      <trkpt lat="46.80303" lon="6.50842">
        <ele>1274.8000488281</ele>
        <time>2014-07-26T11:52:43.000Z</time>
      </trkpt>
      <trkpt lat="46.80303" lon="6.50837">
        <ele>1275.1999511719</ele>
        <time>2014-07-26T11:52:48.000Z</time>
      </trkpt>
      <trkpt lat="46.80306" lon="6.50831">
        <ele>1277.4000244141</ele>
        <time>2014-07-26T11:52:55.000Z</time>
      </trkpt>
      <trkpt lat="46.80309" lon="6.50826">
        <ele>1278.8000488281</ele>
        <time>2014-07-26T11:53:00.000Z</time>
      </trkpt>
      <trkpt lat="46.80314" lon="6.5082">
        <ele>1282</ele>
        <time>2014-07-26T11:53:08.000Z</time>
      </trkpt>
      <trkpt lat="46.80315" lon="6.50819">
        <ele>1282.5999755859</ele>
        <time>2014-07-26T11:53:10.000Z</time>
      </trkpt>
      <trkpt lat="46.80319" lon="6.50816">
        <ele>1284.8000488281</ele>
        <time>2014-07-26T11:53:16.000Z</time>
      </trkpt>
      <trkpt lat="46.80324" lon="6.5081">
        <ele>1287</ele>
        <time>2014-07-26T11:53:23.000Z</time>
      </trkpt>
      <trkpt lat="46.80333" lon="6.50803">
        <ele>1288.1999511719</ele>
        <time>2014-07-26T11:53:31.000Z</time>
      </trkpt>
      <trkpt lat="46.80338" lon="6.50796">
        <ele>1289.1999511719</ele>
        <time>2014-07-26T11:53:38.000Z</time>
      </trkpt>
      <trkpt lat="46.80342" lon="6.50791">
        <ele>1290</ele>
        <time>2014-07-26T11:53:44.000Z</time>
      </trkpt>
      <trkpt lat="46.80348" lon="6.50785">
        <ele>1291</ele>
        <time>2014-07-26T11:53:52.000Z</time>
      </trkpt>
      <trkpt lat="46.80348" lon="6.50784">
        <ele>1291</ele>
        <time>2014-07-26T11:53:53.000Z</time>
      </trkpt>
      <trkpt lat="46.80353" lon="6.50778">
        <ele>1292</ele>
        <time>2014-07-26T11:54:01.000Z</time>
      </trkpt>
      <trkpt lat="46.80355" lon="6.50777">
        <ele>1292</ele>
        <time>2014-07-26T11:54:02.000Z</time>
      </trkpt>
      <trkpt lat="46.80356" lon="6.50776">
        <ele>1292.1999511719</ele>
        <time>2014-07-26T11:54:03.000Z</time>
      </trkpt>
      <trkpt lat="46.80361" lon="6.50773">
        <ele>1292.8000488281</ele>
        <time>2014-07-26T11:54:10.000Z</time>
      </trkpt>
      <trkpt lat="46.80364" lon="6.50771">
        <ele>1293</ele>
        <time>2014-07-26T11:54:14.000Z</time>
      </trkpt>
      <trkpt lat="46.80367" lon="6.5077">
        <ele>1293.1999511719</ele>
        <time>2014-07-26T11:54:21.000Z</time>
      </trkpt>
      <trkpt lat="46.80372" lon="6.50768">
        <ele>1293.4000244141</ele>
        <time>2014-07-26T11:54:27.000Z</time>
      </trkpt>
      <trkpt lat="46.80379" lon="6.50764">
        <ele>1293.5999755859</ele>
        <time>2014-07-26T11:54:33.000Z</time>
      </trkpt>
      <trkpt lat="46.80383" lon="6.50757">
        <ele>1294.4000244141</ele>
        <time>2014-07-26T11:54:39.000Z</time>
      </trkpt>
      <trkpt lat="46.80383" lon="6.50754">
        <ele>1294.8000488281</ele>
        <time>2014-07-26T11:54:42.000Z</time>
      </trkpt>
      <trkpt lat="46.80384" lon="6.5075">
        <ele>1295.4000244141</ele>
        <time>2014-07-26T11:54:46.000Z</time>
      </trkpt>
      <trkpt lat="46.80382" lon="6.50748">
        <ele>1295.5999755859</ele>
        <time>2014-07-26T11:54:48.000Z</time>
      </trkpt>
      <trkpt lat="46.80381" lon="6.5074">
        <ele>1296.4000244141</ele>
        <time>2014-07-26T11:54:54.000Z</time>
      </trkpt>
      <trkpt lat="46.80381" lon="6.50739">
        <ele>1296.5999755859</ele>
        <time>2014-07-26T11:54:55.000Z</time>
      </trkpt>
      <trkpt lat="46.80379" lon="6.50732">
        <ele>1297.5999755859</ele>
        <time>2014-07-26T11:55:02.000Z</time>
      </trkpt>
      <trkpt lat="46.80374" lon="6.50723">
        <ele>1298.8000488281</ele>
        <time>2014-07-26T11:55:10.000Z</time>
      </trkpt>
      <trkpt lat="46.8037" lon="6.50716">
        <ele>1299.8000488281</ele>
        <time>2014-07-26T11:55:17.000Z</time>
      </trkpt>
      <trkpt lat="46.80369" lon="6.50713">
        <ele>1300.1999511719</ele>
        <time>2014-07-26T11:55:20.000Z</time>
      </trkpt>
      <trkpt lat="46.80368" lon="6.50705">
        <ele>1301.1999511719</ele>
        <time>2014-07-26T11:55:27.000Z</time>
      </trkpt>
      <trkpt lat="46.80366" lon="6.50701">
        <ele>1301.8000488281</ele>
        <time>2014-07-26T11:55:31.000Z</time>
      </trkpt>
      <trkpt lat="46.80366" lon="6.50698">
        <ele>1302.1999511719</ele>
        <time>2014-07-26T11:55:34.000Z</time>
      </trkpt>
      <trkpt lat="46.80366" lon="6.50689">
        <ele>1303</ele>
        <time>2014-07-26T11:55:41.000Z</time>
      </trkpt>
      <trkpt lat="46.80365" lon="6.50688">
        <ele>1303.1999511719</ele>
        <time>2014-07-26T11:55:42.000Z</time>
      </trkpt>
      <trkpt lat="46.80364" lon="6.50683">
        <ele>1303.5999755859</ele>
        <time>2014-07-26T11:55:47.000Z</time>
      </trkpt>
      <trkpt lat="46.80363" lon="6.50681">
        <ele>1303.8000488281</ele>
        <time>2014-07-26T11:55:48.000Z</time>
      </trkpt>
      <trkpt lat="46.80361" lon="6.50675">
        <ele>1304.4000244141</ele>
        <time>2014-07-26T11:55:53.000Z</time>
      </trkpt>
      <trkpt lat="46.80361" lon="6.50672">
        <ele>1304.5999755859</ele>
        <time>2014-07-26T11:55:57.000Z</time>
      </trkpt>
      <trkpt lat="46.8036" lon="6.50667">
        <ele>1305</ele>
        <time>2014-07-26T11:56:03.000Z</time>
      </trkpt>
      <trkpt lat="46.80359" lon="6.50662">
        <ele>1305.4000244141</ele>
        <time>2014-07-26T11:56:07.000Z</time>
      </trkpt>
      <trkpt lat="46.80357" lon="6.50656">
        <ele>1306</ele>
        <time>2014-07-26T11:56:15.000Z</time>
      </trkpt>
      <trkpt lat="46.80356" lon="6.5065">
        <ele>1306.5999755859</ele>
        <time>2014-07-26T11:56:21.000Z</time>
      </trkpt>
      <trkpt lat="46.80354" lon="6.50647">
        <ele>1307</ele>
        <time>2014-07-26T11:56:26.000Z</time>
      </trkpt>
      <trkpt lat="46.80349" lon="6.50642">
        <ele>1307.5999755859</ele>
        <time>2014-07-26T11:56:32.000Z</time>
      </trkpt>
      <trkpt lat="46.80349" lon="6.50642">
        <ele>1307.5999755859</ele>
        <time>2014-07-26T11:56:33.000Z</time>
      </trkpt>
      <trkpt lat="46.80345" lon="6.50635">
        <ele>1308.4000244141</ele>
        <time>2014-07-26T11:56:41.000Z</time>
      </trkpt>
      <trkpt lat="46.80345" lon="6.50631">
        <ele>1308.8000488281</ele>
        <time>2014-07-26T11:56:44.000Z</time>
      </trkpt>
      <trkpt lat="46.80344" lon="6.50626">
        <ele>1309.1999511719</ele>
        <time>2014-07-26T11:56:48.000Z</time>
      </trkpt>
      <trkpt lat="46.80341" lon="6.50621">
        <ele>1309.8000488281</ele>
        <time>2014-07-26T11:56:51.000Z</time>
      </trkpt>
      <trkpt lat="46.80339" lon="6.50616">
        <ele>1310.1999511719</ele>
        <time>2014-07-26T11:56:55.000Z</time>
      </trkpt>
      <trkpt lat="46.80337" lon="6.50612">
        <ele>1310.5999755859</ele>
        <time>2014-07-26T11:56:57.000Z</time>
      </trkpt>
      <trkpt lat="46.80335" lon="6.50608">
        <ele>1311</ele>
        <time>2014-07-26T11:57:00.000Z</time>
      </trkpt>
      <trkpt lat="46.80332" lon="6.50597">
        <ele>1312</ele>
        <time>2014-07-26T11:57:08.000Z</time>
      </trkpt>
      <trkpt lat="46.80333" lon="6.50596">
        <ele>1312</ele>
        <time>2014-07-26T11:57:10.000Z</time>
      </trkpt>
      <trkpt lat="46.80332" lon="6.50588">
        <ele>1312.8000488281</ele>
        <time>2014-07-26T11:57:17.000Z</time>
      </trkpt>
      <trkpt lat="46.80331" lon="6.50584">
        <ele>1313</ele>
        <time>2014-07-26T11:57:19.000Z</time>
      </trkpt>
      <trkpt lat="46.80332" lon="6.50579">
        <ele>1313.4000244141</ele>
        <time>2014-07-26T11:57:23.000Z</time>
      </trkpt>
      <trkpt lat="46.80331" lon="6.50575">
        <ele>1313.8000488281</ele>
        <time>2014-07-26T11:57:27.000Z</time>
      </trkpt>
      <trkpt lat="46.8033" lon="6.5057">
        <ele>1314.1999511719</ele>
        <time>2014-07-26T11:57:31.000Z</time>
      </trkpt>
      <trkpt lat="46.8033" lon="6.50566">
        <ele>1314.8000488281</ele>
        <time>2014-07-26T11:57:34.000Z</time>
      </trkpt>
      <trkpt lat="46.8033" lon="6.5056">
        <ele>1315.8000488281</ele>
        <time>2014-07-26T11:57:39.000Z</time>
      </trkpt>
      <trkpt lat="46.80329" lon="6.50559">
        <ele>1316.1999511719</ele>
        <time>2014-07-26T11:57:41.000Z</time>
      </trkpt>
      <trkpt lat="46.80328" lon="6.50554">
        <ele>1317</ele>
        <time>2014-07-26T11:57:46.000Z</time>
      </trkpt>
      <trkpt lat="46.80325" lon="6.50547">
        <ele>1318.4000244141</ele>
        <time>2014-07-26T11:57:53.000Z</time>
      </trkpt>
      <trkpt lat="46.80324" lon="6.50545">
        <ele>1319</ele>
        <time>2014-07-26T11:57:55.000Z</time>
      </trkpt>
      <trkpt lat="46.80321" lon="6.50536">
        <ele>1320.4000244141</ele>
        <time>2014-07-26T11:58:01.000Z</time>
      </trkpt>
      <trkpt lat="46.80319" lon="6.50529">
        <ele>1320.5999755859</ele>
        <time>2014-07-26T11:58:07.000Z</time>
      </trkpt>
      <trkpt lat="46.80317" lon="6.50526">
        <ele>1320.1999511719</ele>
        <time>2014-07-26T11:58:13.000Z</time>
      </trkpt>
      <trkpt lat="46.80312" lon="6.50518">
        <ele>1319.4000244141</ele>
        <time>2014-07-26T11:58:22.000Z</time>
      </trkpt>
      <trkpt lat="46.8031" lon="6.50514">
        <ele>1319.4000244141</ele>
        <time>2014-07-26T11:58:29.000Z</time>
      </trkpt>
      <trkpt lat="46.80308" lon="6.5051">
        <ele>1319</ele>
        <time>2014-07-26T11:58:35.000Z</time>
      </trkpt>
      <trkpt lat="46.80307" lon="6.50502">
        <ele>1319.8000488281</ele>
        <time>2014-07-26T11:58:43.000Z</time>
      </trkpt>
      <trkpt lat="46.80306" lon="6.50496">
        <ele>1320.5999755859</ele>
        <time>2014-07-26T11:58:50.000Z</time>
      </trkpt>
      <trkpt lat="46.80305" lon="6.50492">
        <ele>1321</ele>
        <time>2014-07-26T11:58:57.000Z</time>
      </trkpt>
      <trkpt lat="46.80303" lon="6.50487">
        <ele>1321</ele>
        <time>2014-07-26T11:59:06.000Z</time>
      </trkpt>
      <trkpt lat="46.80301" lon="6.50483">
        <ele>1320.5999755859</ele>
        <time>2014-07-26T11:59:11.000Z</time>
      </trkpt>
      <trkpt lat="46.803" lon="6.50479">
        <ele>1320.4000244141</ele>
        <time>2014-07-26T11:59:14.000Z</time>
      </trkpt>
      <trkpt lat="46.80299" lon="6.50471">
        <ele>1320.8000488281</ele>
        <time>2014-07-26T11:59:19.000Z</time>
      </trkpt>
      <trkpt lat="46.80298" lon="6.50469">
        <ele>1320.5999755859</ele>
        <time>2014-07-26T11:59:21.000Z</time>
      </trkpt>
      <trkpt lat="46.80297" lon="6.50462">
        <ele>1320.5999755859</ele>
        <time>2014-07-26T11:59:27.000Z</time>
      </trkpt>
      <trkpt lat="46.80296" lon="6.50456">
        <ele>1320.5999755859</ele>
        <time>2014-07-26T11:59:35.000Z</time>
      </trkpt>
      <trkpt lat="46.80294" lon="6.5045">
        <ele>1320.1999511719</ele>
        <time>2014-07-26T11:59:41.000Z</time>
      </trkpt>
      <trkpt lat="46.80288" lon="6.50439">
        <ele>1318.1999511719</ele>
        <time>2014-07-26T11:59:55.000Z</time>
      </trkpt>
      <trkpt lat="46.80287" lon="6.50437">
        <ele>1318.1999511719</ele>
        <time>2014-07-26T11:59:57.000Z</time>
      </trkpt>
      <trkpt lat="46.80285" lon="6.50434">
        <ele>1317.4000244141</ele>
        <time>2014-07-26T12:00:00.000Z</time>
      </trkpt>
      <trkpt lat="46.80283" lon="6.50428">
        <ele>1317</ele>
        <time>2014-07-26T12:00:05.000Z</time>
      </trkpt>
      <trkpt lat="46.80282" lon="6.50425">
        <ele>1317</ele>
        <time>2014-07-26T12:00:09.000Z</time>
      </trkpt>
      <trkpt lat="46.8028" lon="6.50418">
        <ele>1316.4000244141</ele>
        <time>2014-07-26T12:00:15.000Z</time>
      </trkpt>
      <trkpt lat="46.80278" lon="6.50412">
        <ele>1316.1999511719</ele>
        <time>2014-07-26T12:00:20.000Z</time>
      </trkpt>
      <trkpt lat="46.80277" lon="6.50401">
        <ele>1316.4000244141</ele>
        <time>2014-07-26T12:00:28.000Z</time>
      </trkpt>
      <trkpt lat="46.80276" lon="6.50398">
        <ele>1316.4000244141</ele>
        <time>2014-07-26T12:00:31.000Z</time>
      </trkpt>
      <trkpt lat="46.80276" lon="6.50396">
        <ele>1316.5999755859</ele>
        <time>2014-07-26T12:00:33.000Z</time>
      </trkpt>
      <trkpt lat="46.80276" lon="6.50385">
        <ele>1316.8000488281</ele>
        <time>2014-07-26T12:00:42.000Z</time>
      </trkpt>
      <trkpt lat="46.80275" lon="6.50384">
        <ele>1316.8000488281</ele>
        <time>2014-07-26T12:00:43.000Z</time>
      </trkpt>
      <trkpt lat="46.80276" lon="6.50378">
        <ele>1317.4000244141</ele>
        <time>2014-07-26T12:00:48.000Z</time>
      </trkpt>
      <trkpt lat="46.80276" lon="6.50375">
        <ele>1317.5999755859</ele>
        <time>2014-07-26T12:00:50.000Z</time>
      </trkpt>
      <trkpt lat="46.80278" lon="6.50369">
        <ele>1318.8000488281</ele>
        <time>2014-07-26T12:00:56.000Z</time>
      </trkpt>
      <trkpt lat="46.80278" lon="6.50367">
        <ele>1319</ele>
        <time>2014-07-26T12:00:57.000Z</time>
      </trkpt>
      <trkpt lat="46.80277" lon="6.50357">
        <ele>1319.4000244141</ele>
        <time>2014-07-26T12:01:04.000Z</time>
      </trkpt>
      <trkpt lat="46.80277" lon="6.50347">
        <ele>1319.4000244141</ele>
        <time>2014-07-26T12:01:10.000Z</time>
      </trkpt>
      <trkpt lat="46.80277" lon="6.50343">
        <ele>1319.4000244141</ele>
        <time>2014-07-26T12:01:12.000Z</time>
      </trkpt>
      <trkpt lat="46.80278" lon="6.50341">
        <ele>1319.8000488281</ele>
        <time>2014-07-26T12:01:14.000Z</time>
      </trkpt>
      <trkpt lat="46.80278" lon="6.50334">
        <ele>1319.8000488281</ele>
        <time>2014-07-26T12:01:19.000Z</time>
      </trkpt>
      <trkpt lat="46.80279" lon="6.50333">
        <ele>1319.8000488281</ele>
        <time>2014-07-26T12:01:20.000Z</time>
      </trkpt>
      <trkpt lat="46.80279" lon="6.50329">
        <ele>1320</ele>
        <time>2014-07-26T12:01:23.000Z</time>
      </trkpt>
      <trkpt lat="46.80278" lon="6.50314">
        <ele>1320</ele>
        <time>2014-07-26T12:01:31.000Z</time>
      </trkpt>
      <trkpt lat="46.80279" lon="6.50306">
        <ele>1321.4000244141</ele>
        <time>2014-07-26T12:01:36.000Z</time>
      </trkpt>
      <trkpt lat="46.8028" lon="6.50297">
        <ele>1323</ele>
        <time>2014-07-26T12:01:43.000Z</time>
      </trkpt>
      <trkpt lat="46.80281" lon="6.50289">
        <ele>1324.1999511719</ele>
        <time>2014-07-26T12:01:49.000Z</time>
      </trkpt>
      <trkpt lat="46.80281" lon="6.50287">
        <ele>1324.5999755859</ele>
        <time>2014-07-26T12:01:50.000Z</time>
      </trkpt>
      <trkpt lat="46.80282" lon="6.50284">
        <ele>1325</ele>
        <time>2014-07-26T12:01:52.000Z</time>
      </trkpt>
      <trkpt lat="46.8028" lon="6.50267">
        <ele>1326.1999511719</ele>
        <time>2014-07-26T12:02:05.000Z</time>
      </trkpt>
      <trkpt lat="46.80278" lon="6.50251">
        <ele>1327.1999511719</ele>
        <time>2014-07-26T12:02:15.000Z</time>
      </trkpt>
      <trkpt lat="46.80276" lon="6.50245">
        <ele>1327</ele>
        <time>2014-07-26T12:02:19.000Z</time>
      </trkpt>
      <trkpt lat="46.80275" lon="6.50238">
        <ele>1327.1999511719</ele>
        <time>2014-07-26T12:02:25.000Z</time>
      </trkpt>
      <trkpt lat="46.80275" lon="6.50236">
        <ele>1327.4000244141</ele>
        <time>2014-07-26T12:02:27.000Z</time>
      </trkpt>
      <trkpt lat="46.80275" lon="6.50234">
        <ele>1327.4000244141</ele>
        <time>2014-07-26T12:02:33.000Z</time>
      </trkpt>
      <trkpt lat="46.80274" lon="6.50233">
        <ele>1327.4000244141</ele>
        <time>2014-07-26T12:02:49.000Z</time>
      </trkpt>
      <trkpt lat="46.80271" lon="6.50226">
        <ele>1326.8000488281</ele>
        <time>2014-07-26T12:04:25.000Z</time>
      </trkpt>
      <trkpt lat="46.8027" lon="6.50221">
        <ele>1327</ele>
        <time>2014-07-26T12:04:32.000Z</time>
      </trkpt>
      <trkpt lat="46.8027" lon="6.50214">
        <ele>1327.4000244141</ele>
        <time>2014-07-26T12:04:40.000Z</time>
      </trkpt>
      <trkpt lat="46.80269" lon="6.5021">
        <ele>1327.5999755859</ele>
        <time>2014-07-26T12:04:45.000Z</time>
      </trkpt>
      <trkpt lat="46.80268" lon="6.50207">
        <ele>1327.4000244141</ele>
        <time>2014-07-26T12:04:51.000Z</time>
      </trkpt>
      <trkpt lat="46.80265" lon="6.50199">
        <ele>1327</ele>
        <time>2014-07-26T12:05:00.000Z</time>
      </trkpt>
      <trkpt lat="46.80264" lon="6.50194">
        <ele>1327.1999511719</ele>
        <time>2014-07-26T12:05:07.000Z</time>
      </trkpt>
      <trkpt lat="46.80262" lon="6.50189">
        <ele>1327</ele>
        <time>2014-07-26T12:05:12.000Z</time>
      </trkpt>
      <trkpt lat="46.80258" lon="6.50184">
        <ele>1326</ele>
        <time>2014-07-26T12:05:19.000Z</time>
      </trkpt>
      <trkpt lat="46.80255" lon="6.5018">
        <ele>1325.4000244141</ele>
        <time>2014-07-26T12:05:25.000Z</time>
      </trkpt>
      <trkpt lat="46.80251" lon="6.50173">
        <ele>1324.5999755859</ele>
        <time>2014-07-26T12:05:31.000Z</time>
      </trkpt>
      <trkpt lat="46.80249" lon="6.50172">
        <ele>1324</ele>
        <time>2014-07-26T12:05:33.000Z</time>
      </trkpt>
      <trkpt lat="46.80248" lon="6.50168">
        <ele>1324</ele>
        <time>2014-07-26T12:05:37.000Z</time>
      </trkpt>
      <trkpt lat="46.80249" lon="6.50164">
        <ele>1324.5999755859</ele>
        <time>2014-07-26T12:05:40.000Z</time>
      </trkpt>
      <trkpt lat="46.80248" lon="6.50156">
        <ele>1324.8000488281</ele>
        <time>2014-07-26T12:05:46.000Z</time>
      </trkpt>
      <trkpt lat="46.80247" lon="6.5015">
        <ele>1324.8000488281</ele>
        <time>2014-07-26T12:05:50.000Z</time>
      </trkpt>
      <trkpt lat="46.80246" lon="6.50143">
        <ele>1327.1999511719</ele>
        <time>2014-07-26T12:05:55.000Z</time>
      </trkpt>
      <trkpt lat="46.80246" lon="6.50135">
        <ele>1330.4000244141</ele>
        <time>2014-07-26T12:06:02.000Z</time>
      </trkpt>
      <trkpt lat="46.80244" lon="6.50128">
        <ele>1332.8000488281</ele>
        <time>2014-07-26T12:06:08.000Z</time>
      </trkpt>
      <trkpt lat="46.80242" lon="6.50126">
        <ele>1333.4000244141</ele>
        <time>2014-07-26T12:06:11.000Z</time>
      </trkpt>
      <trkpt lat="46.80243" lon="6.50116">
        <ele>1337.1999511719</ele>
        <time>2014-07-26T12:06:19.000Z</time>
      </trkpt>
      <trkpt lat="46.80242" lon="6.50111">
        <ele>1339.1999511719</ele>
        <time>2014-07-26T12:06:25.000Z</time>
      </trkpt>
      <trkpt lat="46.80241" lon="6.50106">
        <ele>1340.8000488281</ele>
        <time>2014-07-26T12:06:31.000Z</time>
      </trkpt>
      <trkpt lat="46.80241" lon="6.50097">
        <ele>1344.4000244141</ele>
        <time>2014-07-26T12:06:39.000Z</time>
      </trkpt>
      <trkpt lat="46.80242" lon="6.50093">
        <ele>1346.5999755859</ele>
        <time>2014-07-26T12:06:43.000Z</time>
      </trkpt>
      <trkpt lat="46.80242" lon="6.50091">
        <ele>1347</ele>
        <time>2014-07-26T12:06:44.000Z</time>
      </trkpt>
      <trkpt lat="46.8024" lon="6.50086">
        <ele>1348.5999755859</ele>
        <time>2014-07-26T12:06:49.000Z</time>
      </trkpt>
      <trkpt lat="46.80238" lon="6.50079">
        <ele>1350.5999755859</ele>
        <time>2014-07-26T12:06:54.000Z</time>
      </trkpt>
      <trkpt lat="46.80237" lon="6.50068">
        <ele>1354.1999511719</ele>
        <time>2014-07-26T12:07:03.000Z</time>
      </trkpt>
      <trkpt lat="46.80234" lon="6.50063">
        <ele>1354.8000488281</ele>
        <time>2014-07-26T12:07:07.000Z</time>
      </trkpt>
      <trkpt lat="46.8023" lon="6.50057">
        <ele>1354.5999755859</ele>
        <time>2014-07-26T12:07:12.000Z</time>
      </trkpt>
      <trkpt lat="46.8023" lon="6.50055">
        <ele>1354.5999755859</ele>
        <time>2014-07-26T12:07:14.000Z</time>
      </trkpt>
      <trkpt lat="46.80228" lon="6.50052">
        <ele>1354.5999755859</ele>
        <time>2014-07-26T12:07:19.000Z</time>
      </trkpt>
      <trkpt lat="46.80226" lon="6.50049">
        <ele>1354.4000244141</ele>
        <time>2014-07-26T12:07:21.000Z</time>
      </trkpt>
      <trkpt lat="46.80224" lon="6.50047">
        <ele>1354</ele>
        <time>2014-07-26T12:07:23.000Z</time>
      </trkpt>
      <trkpt lat="46.80221" lon="6.50042">
        <ele>1353.8000488281</ele>
        <time>2014-07-26T12:07:27.000Z</time>
      </trkpt>
      <trkpt lat="46.80221" lon="6.5004">
        <ele>1353.8000488281</ele>
        <time>2014-07-26T12:07:29.000Z</time>
      </trkpt>
      <trkpt lat="46.80218" lon="6.50034">
        <ele>1353.8000488281</ele>
        <time>2014-07-26T12:07:35.000Z</time>
      </trkpt>
      <trkpt lat="46.80218" lon="6.50032">
        <ele>1353.8000488281</ele>
        <time>2014-07-26T12:07:36.000Z</time>
      </trkpt>
      <trkpt lat="46.80214" lon="6.50023">
        <ele>1354</ele>
        <time>2014-07-26T12:07:43.000Z</time>
      </trkpt>
      <trkpt lat="46.80213" lon="6.50018">
        <ele>1354.4000244141</ele>
        <time>2014-07-26T12:07:47.000Z</time>
      </trkpt>
      <trkpt lat="46.80212" lon="6.50017">
        <ele>1354.4000244141</ele>
        <time>2014-07-26T12:07:48.000Z</time>
      </trkpt>
      <trkpt lat="46.80211" lon="6.50016">
        <ele>1354.1999511719</ele>
        <time>2014-07-26T12:07:50.000Z</time>
      </trkpt>
      <trkpt lat="46.80209" lon="6.50015">
        <ele>1353.5999755859</ele>
        <time>2014-07-26T12:07:54.000Z</time>
      </trkpt>
      <trkpt lat="46.80205" lon="6.50008">
        <ele>1353.1999511719</ele>
        <time>2014-07-26T12:08:01.000Z</time>
      </trkpt>
      <trkpt lat="46.80199" lon="6.50002">
        <ele>1352</ele>
        <time>2014-07-26T12:08:08.000Z</time>
      </trkpt>
      <trkpt lat="46.80197" lon="6.49999">
        <ele>1351.8000488281</ele>
        <time>2014-07-26T12:08:15.000Z</time>
      </trkpt>
      <trkpt lat="46.80195" lon="6.49995">
        <ele>1351.4000244141</ele>
        <time>2014-07-26T12:08:21.000Z</time>
      </trkpt>
      <trkpt lat="46.80192" lon="6.49991">
        <ele>1351</ele>
        <time>2014-07-26T12:08:26.000Z</time>
      </trkpt>
      <trkpt lat="46.80189" lon="6.49985">
        <ele>1351</ele>
        <time>2014-07-26T12:08:32.000Z</time>
      </trkpt>
      <trkpt lat="46.80184" lon="6.49978">
        <ele>1352</ele>
        <time>2014-07-26T12:08:39.000Z</time>
      </trkpt>
      <trkpt lat="46.80184" lon="6.49977">
        <ele>1352.4000244141</ele>
        <time>2014-07-26T12:08:40.000Z</time>
      </trkpt>
      <trkpt lat="46.80183" lon="6.49976">
        <ele>1352.4000244141</ele>
        <time>2014-07-26T12:08:42.000Z</time>
      </trkpt>
      <trkpt lat="46.80179" lon="6.49969">
        <ele>1353.8000488281</ele>
        <time>2014-07-26T12:08:49.000Z</time>
      </trkpt>
      <trkpt lat="46.80178" lon="6.49965">
        <ele>1355.1999511719</ele>
        <time>2014-07-26T12:08:52.000Z</time>
      </trkpt>
      <trkpt lat="46.80176" lon="6.49958">
        <ele>1357.4000244141</ele>
        <time>2014-07-26T12:08:58.000Z</time>
      </trkpt>
      <trkpt lat="46.80173" lon="6.49953">
        <ele>1358.8000488281</ele>
        <time>2014-07-26T12:09:05.000Z</time>
      </trkpt>
      <trkpt lat="46.80169" lon="6.49947">
        <ele>1360</ele>
        <time>2014-07-26T12:09:11.000Z</time>
      </trkpt>
      <trkpt lat="46.80168" lon="6.49943">
        <ele>1361.1999511719</ele>
        <time>2014-07-26T12:09:14.000Z</time>
      </trkpt>
      <trkpt lat="46.80165" lon="6.4994">
        <ele>1361</ele>
        <time>2014-07-26T12:09:17.000Z</time>
      </trkpt>
      <trkpt lat="46.80162" lon="6.49935">
        <ele>1362.5999755859</ele>
        <time>2014-07-26T12:09:22.000Z</time>
      </trkpt>
      <trkpt lat="46.80162" lon="6.49933">
        <ele>1363.4000244141</ele>
        <time>2014-07-26T12:09:25.000Z</time>
      </trkpt>
      <trkpt lat="46.80161" lon="6.49921">
        <ele>1367.8000488281</ele>
        <time>2014-07-26T12:09:33.000Z</time>
      </trkpt>
      <trkpt lat="46.8016" lon="6.49914">
        <ele>1370.5999755859</ele>
        <time>2014-07-26T12:09:39.000Z</time>
      </trkpt>
      <trkpt lat="46.80158" lon="6.49909">
        <ele>1372</ele>
        <time>2014-07-26T12:09:47.000Z</time>
      </trkpt>
      <trkpt lat="46.80156" lon="6.49902">
        <ele>1374.4000244141</ele>
        <time>2014-07-26T12:09:54.000Z</time>
      </trkpt>
      <trkpt lat="46.80155" lon="6.49889">
        <ele>1376.5999755859</ele>
        <time>2014-07-26T12:10:02.000Z</time>
      </trkpt>
      <trkpt lat="46.80154" lon="6.49887">
        <ele>1377</ele>
        <time>2014-07-26T12:10:04.000Z</time>
      </trkpt>
      <trkpt lat="46.80152" lon="6.4988">
        <ele>1376.8000488281</ele>
        <time>2014-07-26T12:10:10.000Z</time>
      </trkpt>
      <trkpt lat="46.80151" lon="6.49878">
        <ele>1376.4000244141</ele>
        <time>2014-07-26T12:10:11.000Z</time>
      </trkpt>
      <trkpt lat="46.8015" lon="6.49876">
        <ele>1376.1999511719</ele>
        <time>2014-07-26T12:10:12.000Z</time>
      </trkpt>
      <trkpt lat="46.80145" lon="6.49865">
        <ele>1375.8000488281</ele>
        <time>2014-07-26T12:10:20.000Z</time>
      </trkpt>
      <trkpt lat="46.80143" lon="6.49859">
        <ele>1375.5999755859</ele>
        <time>2014-07-26T12:10:24.000Z</time>
      </trkpt>
      <trkpt lat="46.80145" lon="6.49854">
        <ele>1377.5999755859</ele>
        <time>2014-07-26T12:10:28.000Z</time>
      </trkpt>
      <trkpt lat="46.80145" lon="6.49846">
        <ele>1379.1999511719</ele>
        <time>2014-07-26T12:10:32.000Z</time>
      </trkpt>
      <trkpt lat="46.80146" lon="6.49844">
        <ele>1379.5999755859</ele>
        <time>2014-07-26T12:10:34.000Z</time>
      </trkpt>
      <trkpt lat="46.80146" lon="6.4984">
        <ele>1380.5999755859</ele>
        <time>2014-07-26T12:10:37.000Z</time>
      </trkpt>
      <trkpt lat="46.80145" lon="6.49838">
        <ele>1380.5999755859</ele>
        <time>2014-07-26T12:10:39.000Z</time>
      </trkpt>
      <trkpt lat="46.80142" lon="6.49832">
        <ele>1379.5999755859</ele>
        <time>2014-07-26T12:10:44.000Z</time>
      </trkpt>
      <trkpt lat="46.80141" lon="6.4983">
        <ele>1379.5999755859</ele>
        <time>2014-07-26T12:10:46.000Z</time>
      </trkpt>
      <trkpt lat="46.8014" lon="6.49825">
        <ele>1380</ele>
        <time>2014-07-26T12:10:49.000Z</time>
      </trkpt>
      <trkpt lat="46.80138" lon="6.4982">
        <ele>1379.5999755859</ele>
        <time>2014-07-26T12:10:54.000Z</time>
      </trkpt>
      <trkpt lat="46.80136" lon="6.49814">
        <ele>1380.1999511719</ele>
        <time>2014-07-26T12:10:58.000Z</time>
      </trkpt>
      <trkpt lat="46.80133" lon="6.49802">
        <ele>1382.5999755859</ele>
        <time>2014-07-26T12:11:09.000Z</time>
      </trkpt>
      <trkpt lat="46.80133" lon="6.49799">
        <ele>1383.1999511719</ele>
        <time>2014-07-26T12:11:10.000Z</time>
      </trkpt>
      <trkpt lat="46.80133" lon="6.49796">
        <ele>1384.4000244141</ele>
        <time>2014-07-26T12:11:12.000Z</time>
      </trkpt>
      <trkpt lat="46.80133" lon="6.49795">
        <ele>1384.5999755859</ele>
        <time>2014-07-26T12:11:13.000Z</time>
      </trkpt>
      <trkpt lat="46.80129" lon="6.49786">
        <ele>1384</ele>
        <time>2014-07-26T12:11:20.000Z</time>
      </trkpt>
      <trkpt lat="46.80125" lon="6.49779">
        <ele>1383</ele>
        <time>2014-07-26T12:11:27.000Z</time>
      </trkpt>
      <trkpt lat="46.80125" lon="6.49774">
        <ele>1382.8000488281</ele>
        <time>2014-07-26T12:11:31.000Z</time>
      </trkpt>
      <trkpt lat="46.80119" lon="6.49767">
        <ele>1381.4000244141</ele>
        <time>2014-07-26T12:11:38.000Z</time>
      </trkpt>
      <trkpt lat="46.80114" lon="6.4976">
        <ele>1380.4000244141</ele>
        <time>2014-07-26T12:11:45.000Z</time>
      </trkpt>
      <trkpt lat="46.80113" lon="6.49753">
        <ele>1380</ele>
        <time>2014-07-26T12:11:50.000Z</time>
      </trkpt>
      <trkpt lat="46.80113" lon="6.49749">
        <ele>1379.8000488281</ele>
        <time>2014-07-26T12:11:53.000Z</time>
      </trkpt>
      <trkpt lat="46.80113" lon="6.49748">
        <ele>1379.5999755859</ele>
        <time>2014-07-26T12:11:54.000Z</time>
      </trkpt>
      <trkpt lat="46.8011" lon="6.49742">
        <ele>1379</ele>
        <time>2014-07-26T12:11:59.000Z</time>
      </trkpt>
      <trkpt lat="46.80107" lon="6.49735">
        <ele>1378.4000244141</ele>
        <time>2014-07-26T12:12:06.000Z</time>
      </trkpt>
      <trkpt lat="46.80107" lon="6.49732">
        <ele>1378.5999755859</ele>
        <time>2014-07-26T12:12:08.000Z</time>
      </trkpt>
      <trkpt lat="46.80106" lon="6.49719">
        <ele>1382.4000244141</ele>
        <time>2014-07-26T12:12:16.000Z</time>
      </trkpt>
      <trkpt lat="46.80106" lon="6.49716">
        <ele>1383.4000244141</ele>
        <time>2014-07-26T12:12:18.000Z</time>
      </trkpt>
      <trkpt lat="46.80105" lon="6.49711">
        <ele>1384.8000488281</ele>
        <time>2014-07-26T12:12:28.000Z</time>
      </trkpt>
      <trkpt lat="46.80102" lon="6.49708">
        <ele>1385.1999511719</ele>
        <time>2014-07-26T12:13:09.000Z</time>
      </trkpt>
      <trkpt lat="46.80097" lon="6.49706">
        <ele>1384.8000488281</ele>
        <time>2014-07-26T12:13:18.000Z</time>
      </trkpt>
      <trkpt lat="46.80103" lon="6.49707">
        <ele>1385.5999755859</ele>
        <time>2014-07-26T12:13:56.000Z</time>
      </trkpt>
      <trkpt lat="46.80104" lon="6.49706">
        <ele>1386</ele>
        <time>2014-07-26T12:14:35.000Z</time>
      </trkpt>
      <trkpt lat="46.80105" lon="6.49704">
        <ele>1386.8000488281</ele>
        <time>2014-07-26T12:14:50.000Z</time>
      </trkpt>
      <trkpt lat="46.80103" lon="6.49704">
        <ele>1386.5999755859</ele>
        <time>2014-07-26T12:15:00.000Z</time>
      </trkpt>
      <trkpt lat="46.80105" lon="6.49703">
        <ele>1387</ele>
        <time>2014-07-26T12:15:05.000Z</time>
      </trkpt>
      <trkpt lat="46.80098" lon="6.49701">
        <ele>1386.4000244141</ele>
        <time>2014-07-26T12:15:29.000Z</time>
      </trkpt>
      <trkpt lat="46.801" lon="6.497">
        <ele>1387</ele>
        <time>2014-07-26T12:15:45.000Z</time>
      </trkpt>
      <trkpt lat="46.80097" lon="6.49699">
        <ele>1386.8000488281</ele>
        <time>2014-07-26T12:15:52.000Z</time>
      </trkpt>
      <trkpt lat="46.801" lon="6.49699">
        <ele>1387.1999511719</ele>
        <time>2014-07-26T12:16:01.000Z</time>
      </trkpt>
      <trkpt lat="46.80098" lon="6.49694">
        <ele>1388.5999755859</ele>
        <time>2014-07-26T12:16:20.000Z</time>
      </trkpt>
      <trkpt lat="46.80097" lon="6.49692">
        <ele>1389</ele>
        <time>2014-07-26T12:16:25.000Z</time>
      </trkpt>
      <trkpt lat="46.80094" lon="6.49687">
        <ele>1390</ele>
        <time>2014-07-26T12:16:31.000Z</time>
      </trkpt>
      <trkpt lat="46.8009" lon="6.49678">
        <ele>1392.1999511719</ele>
        <time>2014-07-26T12:16:40.000Z</time>
      </trkpt>
      <trkpt lat="46.80089" lon="6.49672">
        <ele>1393.5999755859</ele>
        <time>2014-07-26T12:16:45.000Z</time>
      </trkpt>
      <trkpt lat="46.80087" lon="6.49667">
        <ele>1394.8000488281</ele>
        <time>2014-07-26T12:16:50.000Z</time>
      </trkpt>
      <trkpt lat="46.80086" lon="6.49661">
        <ele>1395.4000244141</ele>
        <time>2014-07-26T12:16:56.000Z</time>
      </trkpt>
      <trkpt lat="46.80084" lon="6.49653">
        <ele>1395.4000244141</ele>
        <time>2014-07-26T12:17:04.000Z</time>
      </trkpt>
      <trkpt lat="46.80082" lon="6.49648">
        <ele>1395.8000488281</ele>
        <time>2014-07-26T12:17:10.000Z</time>
      </trkpt>
      <trkpt lat="46.80079" lon="6.49641">
        <ele>1397.1999511719</ele>
        <time>2014-07-26T12:17:17.000Z</time>
      </trkpt>
      <trkpt lat="46.80078" lon="6.49636">
        <ele>1398</ele>
        <time>2014-07-26T12:17:21.000Z</time>
      </trkpt>
      <trkpt lat="46.80078" lon="6.49632">
        <ele>1398.5999755859</ele>
        <time>2014-07-26T12:17:25.000Z</time>
      </trkpt>
      <trkpt lat="46.80077" lon="6.4963">
        <ele>1399</ele>
        <time>2014-07-26T12:17:27.000Z</time>
      </trkpt>
      <trkpt lat="46.80073" lon="6.49624">
        <ele>1400.1999511719</ele>
        <time>2014-07-26T12:17:34.000Z</time>
      </trkpt>
      <trkpt lat="46.80071" lon="6.49618">
        <ele>1401</ele>
        <time>2014-07-26T12:17:40.000Z</time>
      </trkpt>
      <trkpt lat="46.80069" lon="6.49613">
        <ele>1401</ele>
        <time>2014-07-26T12:17:45.000Z</time>
      </trkpt>
      <trkpt lat="46.80068" lon="6.49609">
        <ele>1401</ele>
        <time>2014-07-26T12:17:48.000Z</time>
      </trkpt>
      <trkpt lat="46.80066" lon="6.49606">
        <ele>1400.8000488281</ele>
        <time>2014-07-26T12:17:51.000Z</time>
      </trkpt>
      <trkpt lat="46.80066" lon="6.49604">
        <ele>1400.8000488281</ele>
        <time>2014-07-26T12:17:53.000Z</time>
      </trkpt>
      <trkpt lat="46.80062" lon="6.49596">
        <ele>1400.5999755859</ele>
        <time>2014-07-26T12:18:00.000Z</time>
      </trkpt>
      <trkpt lat="46.80061" lon="6.49588">
        <ele>1400.8000488281</ele>
        <time>2014-07-26T12:18:06.000Z</time>
      </trkpt>
      <trkpt lat="46.8006" lon="6.49581">
        <ele>1401.4000244141</ele>
        <time>2014-07-26T12:18:12.000Z</time>
      </trkpt>
      <trkpt lat="46.80059" lon="6.49579">
        <ele>1401.5999755859</ele>
        <time>2014-07-26T12:18:15.000Z</time>
      </trkpt>
      <trkpt lat="46.80059" lon="6.49573">
        <ele>1402.1999511719</ele>
        <time>2014-07-26T12:18:20.000Z</time>
      </trkpt>
      <trkpt lat="46.80056" lon="6.49567">
        <ele>1402</ele>
        <time>2014-07-26T12:18:27.000Z</time>
      </trkpt>
      <trkpt lat="46.80055" lon="6.49561">
        <ele>1403.1999511719</ele>
        <time>2014-07-26T12:18:33.000Z</time>
      </trkpt>
      <trkpt lat="46.8005" lon="6.49552">
        <ele>1403.4000244141</ele>
        <time>2014-07-26T12:18:41.000Z</time>
      </trkpt>
      <trkpt lat="46.8005" lon="6.49552">
        <ele>1403.5999755859</ele>
        <time>2014-07-26T12:18:42.000Z</time>
      </trkpt>
      <trkpt lat="46.80047" lon="6.49545">
        <ele>1404.4000244141</ele>
        <time>2014-07-26T12:18:48.000Z</time>
      </trkpt>
      <trkpt lat="46.80046" lon="6.49544">
        <ele>1404.1999511719</ele>
        <time>2014-07-26T12:18:49.000Z</time>
      </trkpt>
      <trkpt lat="46.80043" lon="6.49539">
        <ele>1404.4000244141</ele>
        <time>2014-07-26T12:18:54.000Z</time>
      </trkpt>
      <trkpt lat="46.80041" lon="6.49534">
        <ele>1404.5999755859</ele>
        <time>2014-07-26T12:18:58.000Z</time>
      </trkpt>
      <trkpt lat="46.80039" lon="6.49528">
        <ele>1404.5999755859</ele>
        <time>2014-07-26T12:19:01.000Z</time>
      </trkpt>
      <trkpt lat="46.80037" lon="6.49522">
        <ele>1404.5999755859</ele>
        <time>2014-07-26T12:19:06.000Z</time>
      </trkpt>
      <trkpt lat="46.80037" lon="6.49519">
        <ele>1404.5999755859</ele>
        <time>2014-07-26T12:19:08.000Z</time>
      </trkpt>
      <trkpt lat="46.80038" lon="6.49509">
        <ele>1405</ele>
        <time>2014-07-26T12:19:14.000Z</time>
      </trkpt>
      <trkpt lat="46.80038" lon="6.49508">
        <ele>1405</ele>
        <time>2014-07-26T12:19:15.000Z</time>
      </trkpt>
      <trkpt lat="46.80037" lon="6.49503">
        <ele>1405</ele>
        <time>2014-07-26T12:19:20.000Z</time>
      </trkpt>
      <trkpt lat="46.80036" lon="6.49499">
        <ele>1405</ele>
        <time>2014-07-26T12:19:26.000Z</time>
      </trkpt>
      <trkpt lat="46.80033" lon="6.49493">
        <ele>1404.8000488281</ele>
        <time>2014-07-26T12:19:36.000Z</time>
      </trkpt>
      <trkpt lat="46.80033" lon="6.49485">
        <ele>1404.8000488281</ele>
        <time>2014-07-26T12:19:41.000Z</time>
      </trkpt>
      <trkpt lat="46.80032" lon="6.4948">
        <ele>1405.4000244141</ele>
        <time>2014-07-26T12:19:45.000Z</time>
      </trkpt>
      <trkpt lat="46.80032" lon="6.49472">
        <ele>1407</ele>
        <time>2014-07-26T12:19:51.000Z</time>
      </trkpt>
      <trkpt lat="46.8003" lon="6.49465">
        <ele>1408.4000244141</ele>
        <time>2014-07-26T12:19:58.000Z</time>
      </trkpt>
      <trkpt lat="46.80025" lon="6.49453">
        <ele>1410.4000244141</ele>
        <time>2014-07-26T12:20:07.000Z</time>
      </trkpt>
      <trkpt lat="46.80024" lon="6.4945">
        <ele>1411</ele>
        <time>2014-07-26T12:20:10.000Z</time>
      </trkpt>
      <trkpt lat="46.80024" lon="6.49446">
        <ele>1411.5999755859</ele>
        <time>2014-07-26T12:20:14.000Z</time>
      </trkpt>
      <trkpt lat="46.80021" lon="6.49439">
        <ele>1412.8000488281</ele>
        <time>2014-07-26T12:20:19.000Z</time>
      </trkpt>
      <trkpt lat="46.80021" lon="6.49438">
        <ele>1413</ele>
        <time>2014-07-26T12:20:20.000Z</time>
      </trkpt>
      <trkpt lat="46.80017" lon="6.49431">
        <ele>1414.1999511719</ele>
        <time>2014-07-26T12:20:26.000Z</time>
      </trkpt>
      <trkpt lat="46.80016" lon="6.49428">
        <ele>1414.5999755859</ele>
        <time>2014-07-26T12:20:29.000Z</time>
      </trkpt>
      <trkpt lat="46.80014" lon="6.49421">
        <ele>1414.8000488281</ele>
        <time>2014-07-26T12:20:34.000Z</time>
      </trkpt>
      <trkpt lat="46.80013" lon="6.49418">
        <ele>1414.5999755859</ele>
        <time>2014-07-26T12:20:36.000Z</time>
      </trkpt>
      <trkpt lat="46.80012" lon="6.49415">
        <ele>1414.8000488281</ele>
        <time>2014-07-26T12:20:40.000Z</time>
      </trkpt>
      <trkpt lat="46.80011" lon="6.49413">
        <ele>1414.8000488281</ele>
        <time>2014-07-26T12:20:41.000Z</time>
      </trkpt>
      <trkpt lat="46.80009" lon="6.49407">
        <ele>1414.8000488281</ele>
        <time>2014-07-26T12:20:46.000Z</time>
      </trkpt>
      <trkpt lat="46.80007" lon="6.49403">
        <ele>1414.8000488281</ele>
        <time>2014-07-26T12:20:53.000Z</time>
      </trkpt>
      <trkpt lat="46.80006" lon="6.49393">
        <ele>1416.4000244141</ele>
        <time>2014-07-26T12:21:00.000Z</time>
      </trkpt>
      <trkpt lat="46.80005" lon="6.49391">
        <ele>1417.1999511719</ele>
        <time>2014-07-26T12:21:02.000Z</time>
      </trkpt>
      <trkpt lat="46.80003" lon="6.49386">
        <ele>1418.5999755859</ele>
        <time>2014-07-26T12:21:07.000Z</time>
      </trkpt>
      <trkpt lat="46.8" lon="6.49381">
        <ele>1420.1999511719</ele>
        <time>2014-07-26T12:21:12.000Z</time>
      </trkpt>
      <trkpt lat="46.79996" lon="6.49374">
        <ele>1422.1999511719</ele>
        <time>2014-07-26T12:21:21.000Z</time>
      </trkpt>
      <trkpt lat="46.79995" lon="6.49373">
        <ele>1422.5999755859</ele>
        <time>2014-07-26T12:21:22.000Z</time>
      </trkpt>
      <trkpt lat="46.79993" lon="6.49367">
        <ele>1424.4000244141</ele>
        <time>2014-07-26T12:21:27.000Z</time>
      </trkpt>
      <trkpt lat="46.7999" lon="6.4936">
        <ele>1426.4000244141</ele>
        <time>2014-07-26T12:21:34.000Z</time>
      </trkpt>
      <trkpt lat="46.79988" lon="6.49354">
        <ele>1427.8000488281</ele>
        <time>2014-07-26T12:21:42.000Z</time>
      </trkpt>
      <trkpt lat="46.79981" lon="6.4934">
        <ele>1428.8000488281</ele>
        <time>2014-07-26T12:22:06.000Z</time>
      </trkpt>
      <trkpt lat="46.79979" lon="6.49334">
        <ele>1429.5999755859</ele>
        <time>2014-07-26T12:22:12.000Z</time>
      </trkpt>
      <trkpt lat="46.79978" lon="6.49331">
        <ele>1429.8000488281</ele>
        <time>2014-07-26T12:22:15.000Z</time>
      </trkpt>
      <trkpt lat="46.79975" lon="6.49322">
        <ele>1431</ele>
        <time>2014-07-26T12:22:22.000Z</time>
      </trkpt>
      <trkpt lat="46.79975" lon="6.4932">
        <ele>1431.1999511719</ele>
        <time>2014-07-26T12:22:24.000Z</time>
      </trkpt>
      <trkpt lat="46.79974" lon="6.49319">
        <ele>1431.1999511719</ele>
        <time>2014-07-26T12:22:26.000Z</time>
      </trkpt>
      <trkpt lat="46.79972" lon="6.49314">
        <ele>1432</ele>
        <time>2014-07-26T12:22:34.000Z</time>
      </trkpt>
      <trkpt lat="46.79968" lon="6.49308">
        <ele>1432.5999755859</ele>
        <time>2014-07-26T12:22:41.000Z</time>
      </trkpt>
      <trkpt lat="46.79966" lon="6.49305">
        <ele>1433.1999511719</ele>
        <time>2014-07-26T12:22:45.000Z</time>
      </trkpt>
      <trkpt lat="46.79965" lon="6.49303">
        <ele>1433.8000488281</ele>
        <time>2014-07-26T12:22:48.000Z</time>
      </trkpt>
      <trkpt lat="46.79964" lon="6.49301">
        <ele>1433.5999755859</ele>
        <time>2014-07-26T12:22:50.000Z</time>
      </trkpt>
      <trkpt lat="46.79961" lon="6.49295">
        <ele>1435</ele>
        <time>2014-07-26T12:22:58.000Z</time>
      </trkpt>
      <trkpt lat="46.7996" lon="6.4929">
        <ele>1436.1999511719</ele>
        <time>2014-07-26T12:23:03.000Z</time>
      </trkpt>
      <trkpt lat="46.79958" lon="6.49288">
        <ele>1436.1999511719</ele>
        <time>2014-07-26T12:23:06.000Z</time>
      </trkpt>
      <trkpt lat="46.79953" lon="6.49284">
        <ele>1436</ele>
        <time>2014-07-26T12:23:11.000Z</time>
      </trkpt>
      <trkpt lat="46.79953" lon="6.49283">
        <ele>1436.1999511719</ele>
        <time>2014-07-26T12:23:12.000Z</time>
      </trkpt>
      <trkpt lat="46.79951" lon="6.49278">
        <ele>1437</ele>
        <time>2014-07-26T12:23:17.000Z</time>
      </trkpt>
      <trkpt lat="46.7995" lon="6.49277">
        <ele>1437</ele>
        <time>2014-07-26T12:23:18.000Z</time>
      </trkpt>
      <trkpt lat="46.79947" lon="6.49269">
        <ele>1436.8000488281</ele>
        <time>2014-07-26T12:23:25.000Z</time>
      </trkpt>
      <trkpt lat="46.79946" lon="6.49265">
        <ele>1436.8000488281</ele>
        <time>2014-07-26T12:23:28.000Z</time>
      </trkpt>
      <trkpt lat="46.79943" lon="6.49256">
        <ele>1436.5999755859</ele>
        <time>2014-07-26T12:23:35.000Z</time>
      </trkpt>
      <trkpt lat="46.79942" lon="6.49251">
        <ele>1436.5999755859</ele>
        <time>2014-07-26T12:23:39.000Z</time>
      </trkpt>
      <trkpt lat="46.79941" lon="6.49248">
        <ele>1436.5999755859</ele>
        <time>2014-07-26T12:23:42.000Z</time>
      </trkpt>
      <trkpt lat="46.79938" lon="6.49243">
        <ele>1436.4000244141</ele>
        <time>2014-07-26T12:23:46.000Z</time>
      </trkpt>
      <trkpt lat="46.79937" lon="6.49241">
        <ele>1436.4000244141</ele>
        <time>2014-07-26T12:23:48.000Z</time>
      </trkpt>
      <trkpt lat="46.79935" lon="6.49234">
        <ele>1436.1999511719</ele>
        <time>2014-07-26T12:23:53.000Z</time>
      </trkpt>
      <trkpt lat="46.79934" lon="6.49226">
        <ele>1437.5999755859</ele>
        <time>2014-07-26T12:23:59.000Z</time>
      </trkpt>
      <trkpt lat="46.79934" lon="6.49225">
        <ele>1437.8000488281</ele>
        <time>2014-07-26T12:24:00.000Z</time>
      </trkpt>
      <trkpt lat="46.79933" lon="6.49221">
        <ele>1438.4000244141</ele>
        <time>2014-07-26T12:24:04.000Z</time>
      </trkpt>
      <trkpt lat="46.79932" lon="6.49214">
        <ele>1439.5999755859</ele>
        <time>2014-07-26T12:24:13.000Z</time>
      </trkpt>
      <trkpt lat="46.79929" lon="6.49208">
        <ele>1440.5999755859</ele>
        <time>2014-07-26T12:24:21.000Z</time>
      </trkpt>
      <trkpt lat="46.79927" lon="6.49204">
        <ele>1441.4000244141</ele>
        <time>2014-07-26T12:24:25.000Z</time>
      </trkpt>
      <trkpt lat="46.79925" lon="6.49198">
        <ele>1442.4000244141</ele>
        <time>2014-07-26T12:24:32.000Z</time>
      </trkpt>
      <trkpt lat="46.79922" lon="6.49191">
        <ele>1443.8000488281</ele>
        <time>2014-07-26T12:24:38.000Z</time>
      </trkpt>
      <trkpt lat="46.79922" lon="6.4919">
        <ele>1443.8000488281</ele>
        <time>2014-07-26T12:24:39.000Z</time>
      </trkpt>
      <trkpt lat="46.79921" lon="6.49185">
        <ele>1444.5999755859</ele>
        <time>2014-07-26T12:24:43.000Z</time>
      </trkpt>
      <trkpt lat="46.79917" lon="6.49178">
        <ele>1446</ele>
        <time>2014-07-26T12:24:49.000Z</time>
      </trkpt>
      <trkpt lat="46.79916" lon="6.49177">
        <ele>1446.1999511719</ele>
        <time>2014-07-26T12:24:50.000Z</time>
      </trkpt>
      <trkpt lat="46.79916" lon="6.49177">
        <ele>1446.1999511719</ele>
        <time>2014-07-26T12:24:51.000Z</time>
      </trkpt>
      <trkpt lat="46.79913" lon="6.49171">
        <ele>1447.1999511719</ele>
        <time>2014-07-26T12:24:59.000Z</time>
      </trkpt>
      <trkpt lat="46.7991" lon="6.49167">
        <ele>1448</ele>
        <time>2014-07-26T12:25:05.000Z</time>
      </trkpt>
      <trkpt lat="46.79907" lon="6.49161">
        <ele>1449.1999511719</ele>
        <time>2014-07-26T12:25:12.000Z</time>
      </trkpt>
      <trkpt lat="46.79903" lon="6.49154">
        <ele>1449.4000244141</ele>
        <time>2014-07-26T12:25:20.000Z</time>
      </trkpt>
      <trkpt lat="46.79903" lon="6.49148">
        <ele>1451.1999511719</ele>
        <time>2014-07-26T12:25:26.000Z</time>
      </trkpt>
      <trkpt lat="46.79903" lon="6.49147">
        <ele>1451.4000244141</ele>
        <time>2014-07-26T12:25:27.000Z</time>
      </trkpt>
      <trkpt lat="46.79899" lon="6.49143">
        <ele>1451.5999755859</ele>
        <time>2014-07-26T12:25:31.000Z</time>
      </trkpt>
      <trkpt lat="46.79896" lon="6.49139">
        <ele>1452</ele>
        <time>2014-07-26T12:25:36.000Z</time>
      </trkpt>
      <trkpt lat="46.79895" lon="6.49135">
        <ele>1452.4000244141</ele>
        <time>2014-07-26T12:25:40.000Z</time>
      </trkpt>
      <trkpt lat="46.79895" lon="6.49132">
        <ele>1452.8000488281</ele>
        <time>2014-07-26T12:25:43.000Z</time>
      </trkpt>
      <trkpt lat="46.79892" lon="6.49125">
        <ele>1453.4000244141</ele>
        <time>2014-07-26T12:25:48.000Z</time>
      </trkpt>
      <trkpt lat="46.79891" lon="6.49122">
        <ele>1453.8000488281</ele>
        <time>2014-07-26T12:25:52.000Z</time>
      </trkpt>
      <trkpt lat="46.79888" lon="6.49116">
        <ele>1454.5999755859</ele>
        <time>2014-07-26T12:25:57.000Z</time>
      </trkpt>
      <trkpt lat="46.79888" lon="6.49114">
        <ele>1454.8000488281</ele>
        <time>2014-07-26T12:26:00.000Z</time>
      </trkpt>
      <trkpt lat="46.79886" lon="6.49111">
        <ele>1455</ele>
        <time>2014-07-26T12:26:03.000Z</time>
      </trkpt>
      <trkpt lat="46.79884" lon="6.49105">
        <ele>1455.5999755859</ele>
        <time>2014-07-26T12:26:07.000Z</time>
      </trkpt>
      <trkpt lat="46.79883" lon="6.49102">
        <ele>1456</ele>
        <time>2014-07-26T12:26:09.000Z</time>
      </trkpt>
      <trkpt lat="46.79882" lon="6.49096">
        <ele>1456.5999755859</ele>
        <time>2014-07-26T12:26:14.000Z</time>
      </trkpt>
      <trkpt lat="46.79882" lon="6.49089">
        <ele>1457.4000244141</ele>
        <time>2014-07-26T12:26:20.000Z</time>
      </trkpt>
      <trkpt lat="46.79881" lon="6.49087">
        <ele>1457.5999755859</ele>
        <time>2014-07-26T12:26:21.000Z</time>
      </trkpt>
      <trkpt lat="46.7988" lon="6.49078">
        <ele>1458.8000488281</ele>
        <time>2014-07-26T12:26:27.000Z</time>
      </trkpt>
      <trkpt lat="46.79879" lon="6.49076">
        <ele>1459</ele>
        <time>2014-07-26T12:26:29.000Z</time>
      </trkpt>
      <trkpt lat="46.79876" lon="6.49072">
        <ele>1459.1999511719</ele>
        <time>2014-07-26T12:26:33.000Z</time>
      </trkpt>
      <trkpt lat="46.79874" lon="6.49068">
        <ele>1459.5999755859</ele>
        <time>2014-07-26T12:26:38.000Z</time>
      </trkpt>
      <trkpt lat="46.7987" lon="6.49062">
        <ele>1460.8000488281</ele>
        <time>2014-07-26T12:26:44.000Z</time>
      </trkpt>
      <trkpt lat="46.79869" lon="6.49061">
        <ele>1461</ele>
        <time>2014-07-26T12:26:46.000Z</time>
      </trkpt>
      <trkpt lat="46.79867" lon="6.49054">
        <ele>1462.8000488281</ele>
        <time>2014-07-26T12:26:51.000Z</time>
      </trkpt>
      <trkpt lat="46.79867" lon="6.49052">
        <ele>1463.1999511719</ele>
        <time>2014-07-26T12:26:52.000Z</time>
      </trkpt>
      <trkpt lat="46.79866" lon="6.4905">
        <ele>1463.8000488281</ele>
        <time>2014-07-26T12:26:54.000Z</time>
      </trkpt>
      <trkpt lat="46.79863" lon="6.49045">
        <ele>1464.8000488281</ele>
        <time>2014-07-26T12:26:59.000Z</time>
      </trkpt>
      <trkpt lat="46.79862" lon="6.49043">
        <ele>1465.4000244141</ele>
        <time>2014-07-26T12:27:02.000Z</time>
      </trkpt>
      <trkpt lat="46.79859" lon="6.49034">
        <ele>1467.4000244141</ele>
        <time>2014-07-26T12:27:10.000Z</time>
      </trkpt>
      <trkpt lat="46.79855" lon="6.49028">
        <ele>1468.8000488281</ele>
        <time>2014-07-26T12:27:17.000Z</time>
      </trkpt>
      <trkpt lat="46.79855" lon="6.49027">
        <ele>1469</ele>
        <time>2014-07-26T12:27:18.000Z</time>
      </trkpt>
      <trkpt lat="46.79851" lon="6.49023">
        <ele>1470</ele>
        <time>2014-07-26T12:27:25.000Z</time>
      </trkpt>
      <trkpt lat="46.79848" lon="6.49014">
        <ele>1472.1999511719</ele>
        <time>2014-07-26T12:27:33.000Z</time>
      </trkpt>
      <trkpt lat="46.79844" lon="6.49008">
        <ele>1473.4000244141</ele>
        <time>2014-07-26T12:27:41.000Z</time>
      </trkpt>
      <trkpt lat="46.79842" lon="6.49007">
        <ele>1473.8000488281</ele>
        <time>2014-07-26T12:27:47.000Z</time>
      </trkpt>
      <trkpt lat="46.7984" lon="6.49003">
        <ele>1474.5999755859</ele>
        <time>2014-07-26T12:27:51.000Z</time>
      </trkpt>
      <trkpt lat="46.79839" lon="6.48998">
        <ele>1475.1999511719</ele>
        <time>2014-07-26T12:27:57.000Z</time>
      </trkpt>
      <trkpt lat="46.79837" lon="6.48994">
        <ele>1475.5999755859</ele>
        <time>2014-07-26T12:28:02.000Z</time>
      </trkpt>
      <trkpt lat="46.79834" lon="6.48988">
        <ele>1476.4000244141</ele>
        <time>2014-07-26T12:28:09.000Z</time>
      </trkpt>
      <trkpt lat="46.79832" lon="6.48983">
        <ele>1476.8000488281</ele>
        <time>2014-07-26T12:28:14.000Z</time>
      </trkpt>
      <trkpt lat="46.79831" lon="6.48981">
        <ele>1477.1999511719</ele>
        <time>2014-07-26T12:28:15.000Z</time>
      </trkpt>
      <trkpt lat="46.79829" lon="6.48976">
        <ele>1478</ele>
        <time>2014-07-26T12:28:20.000Z</time>
      </trkpt>
      <trkpt lat="46.79829" lon="6.48975">
        <ele>1478</ele>
        <time>2014-07-26T12:28:21.000Z</time>
      </trkpt>
      <trkpt lat="46.79827" lon="6.48973">
        <ele>1478.4000244141</ele>
        <time>2014-07-26T12:28:23.000Z</time>
      </trkpt>
      <trkpt lat="46.79825" lon="6.4897">
        <ele>1479.1999511719</ele>
        <time>2014-07-26T12:28:27.000Z</time>
      </trkpt>
      <trkpt lat="46.79822" lon="6.48963">
        <ele>1480.4000244141</ele>
        <time>2014-07-26T12:28:33.000Z</time>
      </trkpt>
      <trkpt lat="46.79818" lon="6.48955">
        <ele>1480.5999755859</ele>
        <time>2014-07-26T12:28:42.000Z</time>
      </trkpt>
      <trkpt lat="46.79813" lon="6.48944">
        <ele>1481</ele>
        <time>2014-07-26T12:28:51.000Z</time>
      </trkpt>
      <trkpt lat="46.7981" lon="6.48939">
        <ele>1481</ele>
        <time>2014-07-26T12:28:56.000Z</time>
      </trkpt>
      <trkpt lat="46.79809" lon="6.48933">
        <ele>1481.4000244141</ele>
        <time>2014-07-26T12:29:00.000Z</time>
      </trkpt>
      <trkpt lat="46.79804" lon="6.48924">
        <ele>1481.5999755859</ele>
        <time>2014-07-26T12:29:09.000Z</time>
      </trkpt>
      <trkpt lat="46.79799" lon="6.48917">
        <ele>1481.5999755859</ele>
        <time>2014-07-26T12:29:17.000Z</time>
      </trkpt>
      <trkpt lat="46.79799" lon="6.48913">
        <ele>1482</ele>
        <time>2014-07-26T12:29:22.000Z</time>
      </trkpt>
      <trkpt lat="46.79796" lon="6.48908">
        <ele>1481.8000488281</ele>
        <time>2014-07-26T12:29:27.000Z</time>
      </trkpt>
      <trkpt lat="46.7979" lon="6.48905">
        <ele>1481.5999755859</ele>
        <time>2014-07-26T12:29:34.000Z</time>
      </trkpt>
      <trkpt lat="46.79788" lon="6.48904">
        <ele>1481.4000244141</ele>
        <time>2014-07-26T12:29:36.000Z</time>
      </trkpt>
      <trkpt lat="46.79782" lon="6.48899">
        <ele>1481.4000244141</ele>
        <time>2014-07-26T12:29:44.000Z</time>
      </trkpt>
      <trkpt lat="46.79778" lon="6.48892">
        <ele>1482.4000244141</ele>
        <time>2014-07-26T12:29:49.000Z</time>
      </trkpt>
      <trkpt lat="46.79772" lon="6.48884">
        <ele>1483.4000244141</ele>
        <time>2014-07-26T12:29:57.000Z</time>
      </trkpt>
      <trkpt lat="46.7977" lon="6.48882">
        <ele>1483.5999755859</ele>
        <time>2014-07-26T12:29:59.000Z</time>
      </trkpt>
      <trkpt lat="46.79764" lon="6.48875">
        <ele>1484.4000244141</ele>
        <time>2014-07-26T12:30:06.000Z</time>
      </trkpt>
      <trkpt lat="46.79756" lon="6.48867">
        <ele>1485.4000244141</ele>
        <time>2014-07-26T12:30:15.000Z</time>
      </trkpt>
      <trkpt lat="46.79753" lon="6.4886">
        <ele>1486.5999755859</ele>
        <time>2014-07-26T12:30:22.000Z</time>
      </trkpt>
      <trkpt lat="46.79752" lon="6.48857">
        <ele>1487</ele>
        <time>2014-07-26T12:30:24.000Z</time>
      </trkpt>
      <trkpt lat="46.79749" lon="6.48852">
        <ele>1487.8000488281</ele>
        <time>2014-07-26T12:30:29.000Z</time>
      </trkpt>
      <trkpt lat="46.79747" lon="6.48848">
        <ele>1488.4000244141</ele>
        <time>2014-07-26T12:30:34.000Z</time>
      </trkpt>
      <trkpt lat="46.79742" lon="6.48841">
        <ele>1489.1999511719</ele>
        <time>2014-07-26T12:30:42.000Z</time>
      </trkpt>
      <trkpt lat="46.79736" lon="6.48835">
        <ele>1489.5999755859</ele>
        <time>2014-07-26T12:30:51.000Z</time>
      </trkpt>
      <trkpt lat="46.79732" lon="6.48834">
        <ele>1488</ele>
        <time>2014-07-26T12:30:57.000Z</time>
      </trkpt>
      <trkpt lat="46.79725" lon="6.48829">
        <ele>1486.4000244141</ele>
        <time>2014-07-26T12:31:07.000Z</time>
      </trkpt>
      <trkpt lat="46.79719" lon="6.48829">
        <ele>1484.4000244141</ele>
        <time>2014-07-26T12:31:14.000Z</time>
      </trkpt>
      <trkpt lat="46.79717" lon="6.48828">
        <ele>1483.8000488281</ele>
        <time>2014-07-26T12:31:16.000Z</time>
      </trkpt>
      <trkpt lat="46.79712" lon="6.48828">
        <ele>1481.8000488281</ele>
        <time>2014-07-26T12:31:25.000Z</time>
      </trkpt>
      <trkpt lat="46.79708" lon="6.4883">
        <ele>1480</ele>
        <time>2014-07-26T12:31:32.000Z</time>
      </trkpt>
      <trkpt lat="46.79704" lon="6.48829">
        <ele>1478.4000244141</ele>
        <time>2014-07-26T12:31:39.000Z</time>
      </trkpt>
      <trkpt lat="46.79705" lon="6.48828">
        <ele>1479.1999511719</ele>
        <time>2014-07-26T12:31:47.000Z</time>
      </trkpt>
      <trkpt lat="46.79704" lon="6.48828">
        <ele>1478.8000488281</ele>
        <time>2014-07-26T12:31:56.000Z</time>
      </trkpt>
      <trkpt lat="46.79707" lon="6.48831">
        <ele>1479.1999511719</ele>
        <time>2014-07-26T12:34:59.000Z</time>
      </trkpt>
      <trkpt lat="46.79709" lon="6.48832">
        <ele>1480.1999511719</ele>
        <time>2014-07-26T12:35:04.000Z</time>
      </trkpt>
      <trkpt lat="46.79712" lon="6.48836">
        <ele>1480.1999511719</ele>
        <time>2014-07-26T12:35:08.000Z</time>
      </trkpt>
      <trkpt lat="46.79713" lon="6.48842">
        <ele>1479.4000244141</ele>
        <time>2014-07-26T12:35:14.000Z</time>
      </trkpt>
      <trkpt lat="46.79708" lon="6.48849">
        <ele>1476.1999511719</ele>
        <time>2014-07-26T12:35:22.000Z</time>
      </trkpt>
      <trkpt lat="46.79707" lon="6.4885">
        <ele>1475.5999755859</ele>
        <time>2014-07-26T12:35:31.000Z</time>
      </trkpt>
      <trkpt lat="46.79708" lon="6.48849">
        <ele>1476.4000244141</ele>
        <time>2014-07-26T12:36:02.000Z</time>
      </trkpt>
      <trkpt lat="46.79709" lon="6.48847">
        <ele>1476.8000488281</ele>
        <time>2014-07-26T12:36:03.000Z</time>
      </trkpt>
      <trkpt lat="46.79711" lon="6.48838">
        <ele>1479.4000244141</ele>
        <time>2014-07-26T12:36:09.000Z</time>
      </trkpt>
      <trkpt lat="46.79711" lon="6.48836">
        <ele>1479.8000488281</ele>
        <time>2014-07-26T12:36:11.000Z</time>
      </trkpt>
      <trkpt lat="46.79709" lon="6.48833">
        <ele>1479.5999755859</ele>
        <time>2014-07-26T12:36:15.000Z</time>
      </trkpt>
      <trkpt lat="46.79706" lon="6.48832">
        <ele>1478.8000488281</ele>
        <time>2014-07-26T12:36:21.000Z</time>
      </trkpt>
      <trkpt lat="46.79703" lon="6.48831">
        <ele>1477.8000488281</ele>
        <time>2014-07-26T12:36:27.000Z</time>
      </trkpt>
      <trkpt lat="46.79704" lon="6.4883">
        <ele>1478.4000244141</ele>
        <time>2014-07-26T12:40:08.000Z</time>
      </trkpt>
      <trkpt lat="46.79701" lon="6.48833">
        <ele>1476.8000488281</ele>
        <time>2014-07-26T12:42:54.000Z</time>
      </trkpt>
      <trkpt lat="46.79701" lon="6.48834">
        <ele>1476.5999755859</ele>
        <time>2014-07-26T12:43:09.000Z</time>
      </trkpt>
      <trkpt lat="46.797" lon="6.48832">
        <ele>1476.5999755859</ele>
        <time>2014-07-26T12:43:17.000Z</time>
      </trkpt>
      <trkpt lat="46.79697" lon="6.48826">
        <ele>1476.8000488281</ele>
        <time>2014-07-26T12:43:56.000Z</time>
      </trkpt>
      <trkpt lat="46.79697" lon="6.48824">
        <ele>1476.8000488281</ele>
        <time>2014-07-26T12:43:57.000Z</time>
      </trkpt>
      <trkpt lat="46.79695" lon="6.48822">
        <ele>1476.5999755859</ele>
        <time>2014-07-26T12:44:02.000Z</time>
      </trkpt>
      <trkpt lat="46.7969" lon="6.48816">
        <ele>1476.1999511719</ele>
        <time>2014-07-26T12:44:10.000Z</time>
      </trkpt>
      <trkpt lat="46.79688" lon="6.48806">
        <ele>1478.4000244141</ele>
        <time>2014-07-26T12:44:17.000Z</time>
      </trkpt>
      <trkpt lat="46.79688" lon="6.48804">
        <ele>1478.8000488281</ele>
        <time>2014-07-26T12:44:18.000Z</time>
      </trkpt>
      <trkpt lat="46.79686" lon="6.48795">
        <ele>1481</ele>
        <time>2014-07-26T12:44:25.000Z</time>
      </trkpt>
      <trkpt lat="46.79683" lon="6.48787">
        <ele>1482.4000244141</ele>
        <time>2014-07-26T12:44:31.000Z</time>
      </trkpt>
      <trkpt lat="46.79681" lon="6.4878">
        <ele>1483.8000488281</ele>
        <time>2014-07-26T12:44:36.000Z</time>
      </trkpt>
      <trkpt lat="46.7968" lon="6.48773">
        <ele>1485.4000244141</ele>
        <time>2014-07-26T12:44:42.000Z</time>
      </trkpt>
      <trkpt lat="46.79679" lon="6.48764">
        <ele>1487.8000488281</ele>
        <time>2014-07-26T12:44:49.000Z</time>
      </trkpt>
      <trkpt lat="46.79679" lon="6.48763">
        <ele>1488</ele>
        <time>2014-07-26T12:44:50.000Z</time>
      </trkpt>
      <trkpt lat="46.79679" lon="6.48758">
        <ele>1489.4000244141</ele>
        <time>2014-07-26T12:44:53.000Z</time>
      </trkpt>
      <trkpt lat="46.79677" lon="6.4875">
        <ele>1489.8000488281</ele>
        <time>2014-07-26T12:44:59.000Z</time>
      </trkpt>
      <trkpt lat="46.79677" lon="6.48748">
        <ele>1489.8000488281</ele>
        <time>2014-07-26T12:45:00.000Z</time>
      </trkpt>
      <trkpt lat="46.79676" lon="6.48746">
        <ele>1489.8000488281</ele>
        <time>2014-07-26T12:45:02.000Z</time>
      </trkpt>
      <trkpt lat="46.79675" lon="6.48744">
        <ele>1489.5999755859</ele>
        <time>2014-07-26T12:45:04.000Z</time>
      </trkpt>
      <trkpt lat="46.79672" lon="6.48734">
        <ele>1489.5999755859</ele>
        <time>2014-07-26T12:45:12.000Z</time>
      </trkpt>
      <trkpt lat="46.79671" lon="6.48731">
        <ele>1489.8000488281</ele>
        <time>2014-07-26T12:45:15.000Z</time>
      </trkpt>
      <trkpt lat="46.79666" lon="6.48721">
        <ele>1490</ele>
        <time>2014-07-26T12:45:23.000Z</time>
      </trkpt>
      <trkpt lat="46.79664" lon="6.48715">
        <ele>1490.4000244141</ele>
        <time>2014-07-26T12:45:29.000Z</time>
      </trkpt>
      <trkpt lat="46.79662" lon="6.4871">
        <ele>1490.5999755859</ele>
        <time>2014-07-26T12:45:32.000Z</time>
      </trkpt>
      <trkpt lat="46.7966" lon="6.48705">
        <ele>1490.8000488281</ele>
        <time>2014-07-26T12:45:36.000Z</time>
      </trkpt>
      <trkpt lat="46.79659" lon="6.48702">
        <ele>1491</ele>
        <time>2014-07-26T12:45:38.000Z</time>
      </trkpt>
      <trkpt lat="46.79658" lon="6.48697">
        <ele>1491.4000244141</ele>
        <time>2014-07-26T12:45:42.000Z</time>
      </trkpt>
      <trkpt lat="46.79652" lon="6.48678">
        <ele>1491.5999755859</ele>
        <time>2014-07-26T12:45:56.000Z</time>
      </trkpt>
      <trkpt lat="46.79652" lon="6.48677">
        <ele>1491.5999755859</ele>
        <time>2014-07-26T12:45:57.000Z</time>
      </trkpt>
      <trkpt lat="46.7965" lon="6.4867">
        <ele>1491.5999755859</ele>
        <time>2014-07-26T12:46:02.000Z</time>
      </trkpt>
      <trkpt lat="46.79648" lon="6.4866">
        <ele>1491.8000488281</ele>
        <time>2014-07-26T12:46:11.000Z</time>
      </trkpt>
      <trkpt lat="46.79646" lon="6.48651">
        <ele>1491.8000488281</ele>
        <time>2014-07-26T12:46:18.000Z</time>
      </trkpt>
      <trkpt lat="46.79645" lon="6.48648">
        <ele>1492</ele>
        <time>2014-07-26T12:46:20.000Z</time>
      </trkpt>
      <trkpt lat="46.79641" lon="6.48639">
        <ele>1492.8000488281</ele>
        <time>2014-07-26T12:46:27.000Z</time>
      </trkpt>
      <trkpt lat="46.79636" lon="6.48627">
        <ele>1492.8000488281</ele>
        <time>2014-07-26T12:46:36.000Z</time>
      </trkpt>
      <trkpt lat="46.79633" lon="6.48619">
        <ele>1492.1999511719</ele>
        <time>2014-07-26T12:46:42.000Z</time>
      </trkpt>
      <trkpt lat="46.7963" lon="6.48613">
        <ele>1491.8000488281</ele>
        <time>2014-07-26T12:46:47.000Z</time>
      </trkpt>
      <trkpt lat="46.79628" lon="6.4861">
        <ele>1491.5999755859</ele>
        <time>2014-07-26T12:46:58.000Z</time>
      </trkpt>
      <trkpt lat="46.79627" lon="6.48606">
        <ele>1491.4000244141</ele>
        <time>2014-07-26T12:47:04.000Z</time>
      </trkpt>
      <trkpt lat="46.79628" lon="6.48603">
        <ele>1491.4000244141</ele>
        <time>2014-07-26T12:47:12.000Z</time>
      </trkpt>
      <trkpt lat="46.79626" lon="6.48594">
        <ele>1491</ele>
        <time>2014-07-26T12:47:18.000Z</time>
      </trkpt>
      <trkpt lat="46.79625" lon="6.48585">
        <ele>1490.5999755859</ele>
        <time>2014-07-26T12:47:25.000Z</time>
      </trkpt>
      <trkpt lat="46.79623" lon="6.48573">
        <ele>1490</ele>
        <time>2014-07-26T12:47:33.000Z</time>
      </trkpt>
      <trkpt lat="46.79623" lon="6.48571">
        <ele>1489.8000488281</ele>
        <time>2014-07-26T12:47:34.000Z</time>
      </trkpt>
      <trkpt lat="46.7962" lon="6.48564">
        <ele>1489.8000488281</ele>
        <time>2014-07-26T12:47:40.000Z</time>
      </trkpt>
      <trkpt lat="46.79618" lon="6.48561">
        <ele>1490.1999511719</ele>
        <time>2014-07-26T12:47:44.000Z</time>
      </trkpt>
      <trkpt lat="46.79616" lon="6.48554">
        <ele>1490.8000488281</ele>
        <time>2014-07-26T12:47:50.000Z</time>
      </trkpt>
      <trkpt lat="46.79616" lon="6.48553">
        <ele>1491</ele>
        <time>2014-07-26T12:47:51.000Z</time>
      </trkpt>
      <trkpt lat="46.79616" lon="6.48549">
        <ele>1491.5999755859</ele>
        <time>2014-07-26T12:47:55.000Z</time>
      </trkpt>
      <trkpt lat="46.79616" lon="6.48548">
        <ele>1491.5999755859</ele>
        <time>2014-07-26T12:47:56.000Z</time>
      </trkpt>
      <trkpt lat="46.79616" lon="6.48546">
        <ele>1491.8000488281</ele>
        <time>2014-07-26T12:47:57.000Z</time>
      </trkpt>
      <trkpt lat="46.79615" lon="6.48539">
        <ele>1492.8000488281</ele>
        <time>2014-07-26T12:48:02.000Z</time>
      </trkpt>
      <trkpt lat="46.79615" lon="6.48537">
        <ele>1493</ele>
        <time>2014-07-26T12:48:03.000Z</time>
      </trkpt>
      <trkpt lat="46.79612" lon="6.4853">
        <ele>1493.8000488281</ele>
        <time>2014-07-26T12:48:09.000Z</time>
      </trkpt>
      <trkpt lat="46.79609" lon="6.48524">
        <ele>1494.1999511719</ele>
        <time>2014-07-26T12:48:15.000Z</time>
      </trkpt>
      <trkpt lat="46.79608" lon="6.48522">
        <ele>1494.4000244141</ele>
        <time>2014-07-26T12:48:17.000Z</time>
      </trkpt>
      <trkpt lat="46.79605" lon="6.48515">
        <ele>1495</ele>
        <time>2014-07-26T12:48:23.000Z</time>
      </trkpt>
      <trkpt lat="46.79602" lon="6.48507">
        <ele>1494.5999755859</ele>
        <time>2014-07-26T12:48:29.000Z</time>
      </trkpt>
      <trkpt lat="46.79602" lon="6.48505">
        <ele>1494.5999755859</ele>
        <time>2014-07-26T12:48:30.000Z</time>
      </trkpt>
      <trkpt lat="46.79601" lon="6.48492">
        <ele>1493.8000488281</ele>
        <time>2014-07-26T12:48:39.000Z</time>
      </trkpt>
      <trkpt lat="46.796" lon="6.48483">
        <ele>1493.1999511719</ele>
        <time>2014-07-26T12:48:45.000Z</time>
      </trkpt>
      <trkpt lat="46.79599" lon="6.48475">
        <ele>1493.5999755859</ele>
        <time>2014-07-26T12:48:50.000Z</time>
      </trkpt>
      <trkpt lat="46.79597" lon="6.48469">
        <ele>1494</ele>
        <time>2014-07-26T12:48:54.000Z</time>
      </trkpt>
      <trkpt lat="46.79595" lon="6.48459">
        <ele>1494.8000488281</ele>
        <time>2014-07-26T12:49:01.000Z</time>
      </trkpt>
      <trkpt lat="46.79594" lon="6.48458">
        <ele>1495</ele>
        <time>2014-07-26T12:49:02.000Z</time>
      </trkpt>
      <trkpt lat="46.79593" lon="6.48452">
        <ele>1495.4000244141</ele>
        <time>2014-07-26T12:49:06.000Z</time>
      </trkpt>
      <trkpt lat="46.79592" lon="6.4845">
        <ele>1495.4000244141</ele>
        <time>2014-07-26T12:49:07.000Z</time>
      </trkpt>
      <trkpt lat="46.79588" lon="6.48438">
        <ele>1496.4000244141</ele>
        <time>2014-07-26T12:49:15.000Z</time>
      </trkpt>
      <trkpt lat="46.79587" lon="6.48434">
        <ele>1496.8000488281</ele>
        <time>2014-07-26T12:49:18.000Z</time>
      </trkpt>
      <trkpt lat="46.79587" lon="6.48427">
        <ele>1497</ele>
        <time>2014-07-26T12:49:22.000Z</time>
      </trkpt>
      <trkpt lat="46.79587" lon="6.48423">
        <ele>1497.1999511719</ele>
        <time>2014-07-26T12:49:24.000Z</time>
      </trkpt>
      <trkpt lat="46.79586" lon="6.48411">
        <ele>1497.4000244141</ele>
        <time>2014-07-26T12:49:30.000Z</time>
      </trkpt>
      <trkpt lat="46.79587" lon="6.48403">
        <ele>1496.4000244141</ele>
        <time>2014-07-26T12:49:34.000Z</time>
      </trkpt>
      <trkpt lat="46.79589" lon="6.4839">
        <ele>1495.5999755859</ele>
        <time>2014-07-26T12:49:41.000Z</time>
      </trkpt>
      <trkpt lat="46.79591" lon="6.48385">
        <ele>1495</ele>
        <time>2014-07-26T12:49:45.000Z</time>
      </trkpt>
      <trkpt lat="46.79592" lon="6.48378">
        <ele>1495</ele>
        <time>2014-07-26T12:49:50.000Z</time>
      </trkpt>
      <trkpt lat="46.79592" lon="6.48376">
        <ele>1495</ele>
        <time>2014-07-26T12:49:51.000Z</time>
      </trkpt>
      <trkpt lat="46.79592" lon="6.48375">
        <ele>1495</ele>
        <time>2014-07-26T12:49:53.000Z</time>
      </trkpt>
      <trkpt lat="46.79593" lon="6.48371">
        <ele>1494.5999755859</ele>
        <time>2014-07-26T12:49:56.000Z</time>
      </trkpt>
      <trkpt lat="46.79595" lon="6.48363">
        <ele>1494</ele>
        <time>2014-07-26T12:50:02.000Z</time>
      </trkpt>
      <trkpt lat="46.79595" lon="6.48351">
        <ele>1494.1999511719</ele>
        <time>2014-07-26T12:50:08.000Z</time>
      </trkpt>
      <trkpt lat="46.79593" lon="6.48338">
        <ele>1494.5999755859</ele>
        <time>2014-07-26T12:50:16.000Z</time>
      </trkpt>
      <trkpt lat="46.79592" lon="6.48327">
        <ele>1494.4000244141</ele>
        <time>2014-07-26T12:50:23.000Z</time>
      </trkpt>
      <trkpt lat="46.79589" lon="6.48318">
        <ele>1494.5999755859</ele>
        <time>2014-07-26T12:50:29.000Z</time>
      </trkpt>
      <trkpt lat="46.79587" lon="6.48306">
        <ele>1494.5999755859</ele>
        <time>2014-07-26T12:50:38.000Z</time>
      </trkpt>
      <trkpt lat="46.79587" lon="6.48302">
        <ele>1494.4000244141</ele>
        <time>2014-07-26T12:50:40.000Z</time>
      </trkpt>
      <trkpt lat="46.79587" lon="6.48293">
        <ele>1494</ele>
        <time>2014-07-26T12:50:46.000Z</time>
      </trkpt>
      <trkpt lat="46.79586" lon="6.48292">
        <ele>1494</ele>
        <time>2014-07-26T12:50:47.000Z</time>
      </trkpt>
      <trkpt lat="46.79585" lon="6.4829">
        <ele>1494.4000244141</ele>
        <time>2014-07-26T12:50:50.000Z</time>
      </trkpt>
      <trkpt lat="46.79587" lon="6.4828">
        <ele>1493</ele>
        <time>2014-07-26T12:50:56.000Z</time>
      </trkpt>
      <trkpt lat="46.79587" lon="6.48278">
        <ele>1492.8000488281</ele>
        <time>2014-07-26T12:50:57.000Z</time>
      </trkpt>
      <trkpt lat="46.79588" lon="6.48265">
        <ele>1492</ele>
        <time>2014-07-26T12:51:05.000Z</time>
      </trkpt>
      <trkpt lat="46.79587" lon="6.48264">
        <ele>1492</ele>
        <time>2014-07-26T12:51:06.000Z</time>
      </trkpt>
      <trkpt lat="46.79585" lon="6.48254">
        <ele>1492</ele>
        <time>2014-07-26T12:51:12.000Z</time>
      </trkpt>
      <trkpt lat="46.79584" lon="6.48251">
        <ele>1492.1999511719</ele>
        <time>2014-07-26T12:51:15.000Z</time>
      </trkpt>
      <trkpt lat="46.79581" lon="6.48243">
        <ele>1492.5999755859</ele>
        <time>2014-07-26T12:51:21.000Z</time>
      </trkpt>
      <trkpt lat="46.79581" lon="6.48237">
        <ele>1491.8000488281</ele>
        <time>2014-07-26T12:51:26.000Z</time>
      </trkpt>
      <trkpt lat="46.7958" lon="6.48226">
        <ele>1491.4000244141</ele>
        <time>2014-07-26T12:51:32.000Z</time>
      </trkpt>
      <trkpt lat="46.7958" lon="6.48218">
        <ele>1490.8000488281</ele>
        <time>2014-07-26T12:51:36.000Z</time>
      </trkpt>
      <trkpt lat="46.7958" lon="6.48214">
        <ele>1490.8000488281</ele>
        <time>2014-07-26T12:51:38.000Z</time>
      </trkpt>
      <trkpt lat="46.79577" lon="6.48203">
        <ele>1491.5999755859</ele>
        <time>2014-07-26T12:51:44.000Z</time>
      </trkpt>
      <trkpt lat="46.79574" lon="6.48198">
        <ele>1492.1999511719</ele>
        <time>2014-07-26T12:51:48.000Z</time>
      </trkpt>
      <trkpt lat="46.7957" lon="6.48182">
        <ele>1493</ele>
        <time>2014-07-26T12:51:57.000Z</time>
      </trkpt>
      <trkpt lat="46.79569" lon="6.4818">
        <ele>1493</ele>
        <time>2014-07-26T12:51:58.000Z</time>
      </trkpt>
      <trkpt lat="46.79566" lon="6.48171">
        <ele>1493.1999511719</ele>
        <time>2014-07-26T12:52:04.000Z</time>
      </trkpt>
      <trkpt lat="46.79563" lon="6.48164">
        <ele>1493.4000244141</ele>
        <time>2014-07-26T12:52:09.000Z</time>
      </trkpt>
      <trkpt lat="46.7956" lon="6.48157">
        <ele>1493.8000488281</ele>
        <time>2014-07-26T12:52:14.000Z</time>
      </trkpt>
      <trkpt lat="46.79559" lon="6.48147">
        <ele>1493.4000244141</ele>
        <time>2014-07-26T12:52:21.000Z</time>
      </trkpt>
      <trkpt lat="46.79559" lon="6.48146">
        <ele>1493.1999511719</ele>
        <time>2014-07-26T12:52:22.000Z</time>
      </trkpt>
      <trkpt lat="46.7956" lon="6.48143">
        <ele>1492.8000488281</ele>
        <time>2014-07-26T12:52:28.000Z</time>
      </trkpt>
      <trkpt lat="46.79559" lon="6.4814">
        <ele>1492.4000244141</ele>
        <time>2014-07-26T12:52:38.000Z</time>
      </trkpt>
      <trkpt lat="46.79557" lon="6.48138">
        <ele>1492.8000488281</ele>
        <time>2014-07-26T12:52:44.000Z</time>
      </trkpt>
      <trkpt lat="46.79557" lon="6.48132">
        <ele>1492.1999511719</ele>
        <time>2014-07-26T12:52:49.000Z</time>
      </trkpt>
      <trkpt lat="46.79556" lon="6.48126">
        <ele>1491.5999755859</ele>
        <time>2014-07-26T12:52:54.000Z</time>
      </trkpt>
      <trkpt lat="46.79557" lon="6.48122">
        <ele>1491</ele>
        <time>2014-07-26T12:53:01.000Z</time>
      </trkpt>
      <trkpt lat="46.79556" lon="6.48118">
        <ele>1490.5999755859</ele>
        <time>2014-07-26T12:53:06.000Z</time>
      </trkpt>
      <trkpt lat="46.79552" lon="6.4811">
        <ele>1490.4000244141</ele>
        <time>2014-07-26T12:53:14.000Z</time>
      </trkpt>
      <trkpt lat="46.7955" lon="6.48106">
        <ele>1490.4000244141</ele>
        <time>2014-07-26T12:53:18.000Z</time>
      </trkpt>
      <trkpt lat="46.79553" lon="6.481">
        <ele>1489</ele>
        <time>2014-07-26T12:53:25.000Z</time>
      </trkpt>
      <trkpt lat="46.79554" lon="6.48099">
        <ele>1488.5999755859</ele>
        <time>2014-07-26T12:53:30.000Z</time>
      </trkpt>
      <trkpt lat="46.79556" lon="6.481">
        <ele>1488.5999755859</ele>
        <time>2014-07-26T12:53:47.000Z</time>
      </trkpt>
      <trkpt lat="46.79553" lon="6.48105">
        <ele>1489.8000488281</ele>
        <time>2014-07-26T12:53:52.000Z</time>
      </trkpt>
      <trkpt lat="46.79552" lon="6.48108">
        <ele>1490.1999511719</ele>
        <time>2014-07-26T12:53:54.000Z</time>
      </trkpt>
      <trkpt lat="46.79551" lon="6.48109">
        <ele>1490.5999755859</ele>
        <time>2014-07-26T12:54:01.000Z</time>
      </trkpt>
      <trkpt lat="46.79552" lon="6.48103">
        <ele>1489.5999755859</ele>
        <time>2014-07-26T12:54:18.000Z</time>
      </trkpt>
      <trkpt lat="46.7955" lon="6.48102">
        <ele>1490</ele>
        <time>2014-07-26T12:54:27.000Z</time>
      </trkpt>
      <trkpt lat="46.79547" lon="6.48103">
        <ele>1490.5999755859</ele>
        <time>2014-07-26T12:54:32.000Z</time>
      </trkpt>
      <trkpt lat="46.7954" lon="6.48102">
        <ele>1492</ele>
        <time>2014-07-26T12:54:41.000Z</time>
      </trkpt>
      <trkpt lat="46.79538" lon="6.48101">
        <ele>1492.4000244141</ele>
        <time>2014-07-26T12:54:43.000Z</time>
      </trkpt>
      <trkpt lat="46.79534" lon="6.48097">
        <ele>1492.8000488281</ele>
        <time>2014-07-26T12:54:49.000Z</time>
      </trkpt>
      <trkpt lat="46.79533" lon="6.48095">
        <ele>1492.8000488281</ele>
        <time>2014-07-26T12:54:51.000Z</time>
      </trkpt>
      <trkpt lat="46.79533" lon="6.48094">
        <ele>1492.5999755859</ele>
        <time>2014-07-26T12:54:52.000Z</time>
      </trkpt>
      <trkpt lat="46.7953" lon="6.48089">
        <ele>1492.8000488281</ele>
        <time>2014-07-26T12:54:59.000Z</time>
      </trkpt>
      <trkpt lat="46.79526" lon="6.48084">
        <ele>1492.8000488281</ele>
        <time>2014-07-26T12:55:04.000Z</time>
      </trkpt>
      <trkpt lat="46.79526" lon="6.48082">
        <ele>1492.8000488281</ele>
        <time>2014-07-26T12:55:05.000Z</time>
      </trkpt>
      <trkpt lat="46.79524" lon="6.48079">
        <ele>1492.8000488281</ele>
        <time>2014-07-26T12:55:08.000Z</time>
      </trkpt>
      <trkpt lat="46.79522" lon="6.48072">
        <ele>1492.5999755859</ele>
        <time>2014-07-26T12:55:13.000Z</time>
      </trkpt>
      <trkpt lat="46.79521" lon="6.48069">
        <ele>1492.1999511719</ele>
        <time>2014-07-26T12:55:15.000Z</time>
      </trkpt>
      <trkpt lat="46.79518" lon="6.48056">
        <ele>1491.1999511719</ele>
        <time>2014-07-26T12:55:22.000Z</time>
      </trkpt>
      <trkpt lat="46.79514" lon="6.48048">
        <ele>1491.1999511719</ele>
        <time>2014-07-26T12:55:27.000Z</time>
      </trkpt>
      <trkpt lat="46.79511" lon="6.48036">
        <ele>1490.5999755859</ele>
        <time>2014-07-26T12:55:34.000Z</time>
      </trkpt>
      <trkpt lat="46.7951" lon="6.48029">
        <ele>1490</ele>
        <time>2014-07-26T12:55:37.000Z</time>
      </trkpt>
      <trkpt lat="46.79509" lon="6.48024">
        <ele>1489.5999755859</ele>
        <time>2014-07-26T12:55:40.000Z</time>
      </trkpt>
      <trkpt lat="46.79505" lon="6.48013">
        <ele>1489</ele>
        <time>2014-07-26T12:55:47.000Z</time>
      </trkpt>
      <trkpt lat="46.79504" lon="6.48011">
        <ele>1489</ele>
        <time>2014-07-26T12:55:48.000Z</time>
      </trkpt>
      <trkpt lat="46.795" lon="6.47999">
        <ele>1488.5999755859</ele>
        <time>2014-07-26T12:55:55.000Z</time>
      </trkpt>
      <trkpt lat="46.79496" lon="6.47984">
        <ele>1487.1999511719</ele>
        <time>2014-07-26T12:56:03.000Z</time>
      </trkpt>
      <trkpt lat="46.79497" lon="6.47971">
        <ele>1485.4000244141</ele>
        <time>2014-07-26T12:56:10.000Z</time>
      </trkpt>
      <trkpt lat="46.79499" lon="6.47965">
        <ele>1484.1999511719</ele>
        <time>2014-07-26T12:56:17.000Z</time>
      </trkpt>
      <trkpt lat="46.795" lon="6.47963">
        <ele>1483.8000488281</ele>
        <time>2014-07-26T12:56:24.000Z</time>
      </trkpt>
      <trkpt lat="46.79502" lon="6.47955">
        <ele>1482.1999511719</ele>
        <time>2014-07-26T12:56:32.000Z</time>
      </trkpt>
      <trkpt lat="46.79504" lon="6.47951">
        <ele>1481.4000244141</ele>
        <time>2014-07-26T12:56:35.000Z</time>
      </trkpt>
      <trkpt lat="46.79505" lon="6.47947">
        <ele>1480.5999755859</ele>
        <time>2014-07-26T12:56:39.000Z</time>
      </trkpt>
      <trkpt lat="46.79508" lon="6.47937">
        <ele>1478.8000488281</ele>
        <time>2014-07-26T12:56:45.000Z</time>
      </trkpt>
      <trkpt lat="46.79508" lon="6.47935">
        <ele>1478.4000244141</ele>
        <time>2014-07-26T12:56:47.000Z</time>
      </trkpt>
      <trkpt lat="46.79509" lon="6.47925">
        <ele>1477</ele>
        <time>2014-07-26T12:56:56.000Z</time>
      </trkpt>
      <trkpt lat="46.79509" lon="6.47923">
        <ele>1477</ele>
        <time>2014-07-26T12:56:57.000Z</time>
      </trkpt>
      <trkpt lat="46.79509" lon="6.47922">
        <ele>1476.8000488281</ele>
        <time>2014-07-26T12:56:58.000Z</time>
      </trkpt>
      <trkpt lat="46.79509" lon="6.47922">
        <ele>1476.5999755859</ele>
        <time>2014-07-26T12:56:59.000Z</time>
      </trkpt>
      <trkpt lat="46.79506" lon="6.47917">
        <ele>1476.5999755859</ele>
        <time>2014-07-26T12:57:02.000Z</time>
      </trkpt>
      <trkpt lat="46.79505" lon="6.4791">
        <ele>1476</ele>
        <time>2014-07-26T12:57:06.000Z</time>
      </trkpt>
      <trkpt lat="46.79502" lon="6.47903">
        <ele>1475.1999511719</ele>
        <time>2014-07-26T12:57:11.000Z</time>
      </trkpt>
      <trkpt lat="46.79501" lon="6.47901">
        <ele>1475.1999511719</ele>
        <time>2014-07-26T12:57:12.000Z</time>
      </trkpt>
      <trkpt lat="46.79499" lon="6.47897">
        <ele>1475.1999511719</ele>
        <time>2014-07-26T12:57:16.000Z</time>
      </trkpt>
      <trkpt lat="46.79498" lon="6.47894">
        <ele>1475</ele>
        <time>2014-07-26T12:57:18.000Z</time>
      </trkpt>
      <trkpt lat="46.79493" lon="6.47882">
        <ele>1474.4000244141</ele>
        <time>2014-07-26T12:57:25.000Z</time>
      </trkpt>
      <trkpt lat="46.7949" lon="6.47873">
        <ele>1473.8000488281</ele>
        <time>2014-07-26T12:57:31.000Z</time>
      </trkpt>
      <trkpt lat="46.79488" lon="6.47863">
        <ele>1472.8000488281</ele>
        <time>2014-07-26T12:57:37.000Z</time>
      </trkpt>
      <trkpt lat="46.79485" lon="6.4785">
        <ele>1471.5999755859</ele>
        <time>2014-07-26T12:57:44.000Z</time>
      </trkpt>
      <trkpt lat="46.79483" lon="6.47839">
        <ele>1470.5999755859</ele>
        <time>2014-07-26T12:57:51.000Z</time>
      </trkpt>
      <trkpt lat="46.79483" lon="6.47834">
        <ele>1469.8000488281</ele>
        <time>2014-07-26T12:57:55.000Z</time>
      </trkpt>
      <trkpt lat="46.79482" lon="6.47828">
        <ele>1469</ele>
        <time>2014-07-26T12:57:59.000Z</time>
      </trkpt>
      <trkpt lat="46.79481" lon="6.47823">
        <ele>1468.4000244141</ele>
        <time>2014-07-26T12:58:01.000Z</time>
      </trkpt>
      <trkpt lat="46.79479" lon="6.47816">
        <ele>1468</ele>
        <time>2014-07-26T12:58:06.000Z</time>
      </trkpt>
      <trkpt lat="46.79477" lon="6.47809">
        <ele>1468</ele>
        <time>2014-07-26T12:58:10.000Z</time>
      </trkpt>
      <trkpt lat="46.79476" lon="6.47806">
        <ele>1468</ele>
        <time>2014-07-26T12:58:12.000Z</time>
      </trkpt>
      <trkpt lat="46.79477" lon="6.47801">
        <ele>1467.4000244141</ele>
        <time>2014-07-26T12:58:16.000Z</time>
      </trkpt>
      <trkpt lat="46.79476" lon="6.47791">
        <ele>1466.8000488281</ele>
        <time>2014-07-26T12:58:21.000Z</time>
      </trkpt>
      <trkpt lat="46.79475" lon="6.47787">
        <ele>1466.8000488281</ele>
        <time>2014-07-26T12:58:24.000Z</time>
      </trkpt>
      <trkpt lat="46.79474" lon="6.47782">
        <ele>1466.5999755859</ele>
        <time>2014-07-26T12:58:29.000Z</time>
      </trkpt>
      <trkpt lat="46.79473" lon="6.4778">
        <ele>1466.5999755859</ele>
        <time>2014-07-26T12:58:30.000Z</time>
      </trkpt>
      <trkpt lat="46.79473" lon="6.47774">
        <ele>1466</ele>
        <time>2014-07-26T12:58:35.000Z</time>
      </trkpt>
      <trkpt lat="46.79475" lon="6.47773">
        <ele>1465.1999511719</ele>
        <time>2014-07-26T12:58:42.000Z</time>
      </trkpt>
      <trkpt lat="46.79476" lon="6.47772">
        <ele>1465</ele>
        <time>2014-07-26T12:58:54.000Z</time>
      </trkpt>
      <trkpt lat="46.79476" lon="6.47771">
        <ele>1464.5999755859</ele>
        <time>2014-07-26T12:59:00.000Z</time>
      </trkpt>
      <trkpt lat="46.79479" lon="6.47768">
        <ele>1463.5999755859</ele>
        <time>2014-07-26T12:59:15.000Z</time>
      </trkpt>
      <trkpt lat="46.79481" lon="6.47762">
        <ele>1462.1999511719</ele>
        <time>2014-07-26T12:59:22.000Z</time>
      </trkpt>
      <trkpt lat="46.79482" lon="6.4776">
        <ele>1461.8000488281</ele>
        <time>2014-07-26T12:59:33.000Z</time>
      </trkpt>
      <trkpt lat="46.79484" lon="6.47758">
        <ele>1460.8000488281</ele>
        <time>2014-07-26T12:59:42.000Z</time>
      </trkpt>
      <trkpt lat="46.7948" lon="6.47758">
        <ele>1462.1999511719</ele>
        <time>2014-07-26T13:00:45.000Z</time>
      </trkpt>
      <trkpt lat="46.79486" lon="6.4775">
        <ele>1459.4000244141</ele>
        <time>2014-07-26T13:03:10.000Z</time>
      </trkpt>
      <trkpt lat="46.79486" lon="6.47748">
        <ele>1459.1999511719</ele>
        <time>2014-07-26T13:03:11.000Z</time>
      </trkpt>
      <trkpt lat="46.79486" lon="6.47738">
        <ele>1458.1999511719</ele>
        <time>2014-07-26T13:03:16.000Z</time>
      </trkpt>
      <trkpt lat="46.79485" lon="6.47735">
        <ele>1458.1999511719</ele>
        <time>2014-07-26T13:03:18.000Z</time>
      </trkpt>
      <trkpt lat="46.79485" lon="6.4773">
        <ele>1457.8000488281</ele>
        <time>2014-07-26T13:03:23.000Z</time>
      </trkpt>
      <trkpt lat="46.79486" lon="6.47727">
        <ele>1457.4000244141</ele>
        <time>2014-07-26T13:03:25.000Z</time>
      </trkpt>
      <trkpt lat="46.79487" lon="6.47718">
        <ele>1456.5999755859</ele>
        <time>2014-07-26T13:03:30.000Z</time>
      </trkpt>
      <trkpt lat="46.79487" lon="6.47713">
        <ele>1456.1999511719</ele>
        <time>2014-07-26T13:03:32.000Z</time>
      </trkpt>
      <trkpt lat="46.79487" lon="6.47705">
        <ele>1455.5999755859</ele>
        <time>2014-07-26T13:03:38.000Z</time>
      </trkpt>
      <trkpt lat="46.79486" lon="6.47694">
        <ele>1455.4000244141</ele>
        <time>2014-07-26T13:03:43.000Z</time>
      </trkpt>
      <trkpt lat="46.79486" lon="6.47691">
        <ele>1455.1999511719</ele>
        <time>2014-07-26T13:03:45.000Z</time>
      </trkpt>
      <trkpt lat="46.79486" lon="6.47687">
        <ele>1455</ele>
        <time>2014-07-26T13:03:48.000Z</time>
      </trkpt>
      <trkpt lat="46.79487" lon="6.47683">
        <ele>1454.5999755859</ele>
        <time>2014-07-26T13:03:58.000Z</time>
      </trkpt>
      <trkpt lat="46.79486" lon="6.47676">
        <ele>1454.4000244141</ele>
        <time>2014-07-26T13:04:19.000Z</time>
      </trkpt>
      <trkpt lat="46.79486" lon="6.47672">
        <ele>1454.1999511719</ele>
        <time>2014-07-26T13:04:27.000Z</time>
      </trkpt>
      <trkpt lat="46.79484" lon="6.47663">
        <ele>1454.1999511719</ele>
        <time>2014-07-26T13:04:34.000Z</time>
      </trkpt>
      <trkpt lat="46.79484" lon="6.47654">
        <ele>1453.8000488281</ele>
        <time>2014-07-26T13:04:40.000Z</time>
      </trkpt>
      <trkpt lat="46.79484" lon="6.47644">
        <ele>1453.1999511719</ele>
        <time>2014-07-26T13:04:47.000Z</time>
      </trkpt>
      <trkpt lat="46.79486" lon="6.47633">
        <ele>1451.1999511719</ele>
        <time>2014-07-26T13:04:54.000Z</time>
      </trkpt>
      <trkpt lat="46.79486" lon="6.47631">
        <ele>1450.8000488281</ele>
        <time>2014-07-26T13:04:56.000Z</time>
      </trkpt>
      <trkpt lat="46.79487" lon="6.47622">
        <ele>1449.5999755859</ele>
        <time>2014-07-26T13:05:03.000Z</time>
      </trkpt>
      <trkpt lat="46.79487" lon="6.4762">
        <ele>1449.4000244141</ele>
        <time>2014-07-26T13:05:04.000Z</time>
      </trkpt>
      <trkpt lat="46.79487" lon="6.47615">
        <ele>1449</ele>
        <time>2014-07-26T13:05:08.000Z</time>
      </trkpt>
      <trkpt lat="46.79487" lon="6.47606">
        <ele>1447.8000488281</ele>
        <time>2014-07-26T13:05:15.000Z</time>
      </trkpt>
      <trkpt lat="46.79486" lon="6.47593">
        <ele>1446.8000488281</ele>
        <time>2014-07-26T13:05:23.000Z</time>
      </trkpt>
      <trkpt lat="46.79485" lon="6.47586">
        <ele>1446.4000244141</ele>
        <time>2014-07-26T13:05:29.000Z</time>
      </trkpt>
      <trkpt lat="46.79486" lon="6.47579">
        <ele>1445.5999755859</ele>
        <time>2014-07-26T13:05:33.000Z</time>
      </trkpt>
      <trkpt lat="46.79486" lon="6.47571">
        <ele>1444.4000244141</ele>
        <time>2014-07-26T13:05:39.000Z</time>
      </trkpt>
      <trkpt lat="46.79486" lon="6.47565">
        <ele>1443.8000488281</ele>
        <time>2014-07-26T13:05:43.000Z</time>
      </trkpt>
      <trkpt lat="46.79485" lon="6.47557">
        <ele>1443.1999511719</ele>
        <time>2014-07-26T13:05:48.000Z</time>
      </trkpt>
      <trkpt lat="46.79484" lon="6.47552">
        <ele>1442.4000244141</ele>
        <time>2014-07-26T13:05:51.000Z</time>
      </trkpt>
      <trkpt lat="46.79481" lon="6.47539">
        <ele>1442</ele>
        <time>2014-07-26T13:05:58.000Z</time>
      </trkpt>
      <trkpt lat="46.7948" lon="6.47538">
        <ele>1442.1999511719</ele>
        <time>2014-07-26T13:05:59.000Z</time>
      </trkpt>
      <trkpt lat="46.7948" lon="6.47537">
        <ele>1442.1999511719</ele>
        <time>2014-07-26T13:06:01.000Z</time>
      </trkpt>
      <trkpt lat="46.79478" lon="6.47526">
        <ele>1441.4000244141</ele>
        <time>2014-07-26T13:06:07.000Z</time>
      </trkpt>
      <trkpt lat="46.79478" lon="6.47524">
        <ele>1441</ele>
        <time>2014-07-26T13:06:08.000Z</time>
      </trkpt>
      <trkpt lat="46.79478" lon="6.47518">
        <ele>1440</ele>
        <time>2014-07-26T13:06:12.000Z</time>
      </trkpt>
      <trkpt lat="46.79475" lon="6.47509">
        <ele>1439.5999755859</ele>
        <time>2014-07-26T13:06:18.000Z</time>
      </trkpt>
      <trkpt lat="46.79474" lon="6.47502">
        <ele>1439</ele>
        <time>2014-07-26T13:06:22.000Z</time>
      </trkpt>
      <trkpt lat="46.79473" lon="6.47491">
        <ele>1437.8000488281</ele>
        <time>2014-07-26T13:06:28.000Z</time>
      </trkpt>
      <trkpt lat="46.79472" lon="6.47483">
        <ele>1436.5999755859</ele>
        <time>2014-07-26T13:06:32.000Z</time>
      </trkpt>
      <trkpt lat="46.79472" lon="6.47468">
        <ele>1434.5999755859</ele>
        <time>2014-07-26T13:06:41.000Z</time>
      </trkpt>
      <trkpt lat="46.79472" lon="6.47458">
        <ele>1432.5999755859</ele>
        <time>2014-07-26T13:06:47.000Z</time>
      </trkpt>
      <trkpt lat="46.79472" lon="6.47456">
        <ele>1432.4000244141</ele>
        <time>2014-07-26T13:06:48.000Z</time>
      </trkpt>
      <trkpt lat="46.79468" lon="6.47441">
        <ele>1431.5999755859</ele>
        <time>2014-07-26T13:06:58.000Z</time>
      </trkpt>
      <trkpt lat="46.79468" lon="6.47437">
        <ele>1431.1999511719</ele>
        <time>2014-07-26T13:07:01.000Z</time>
      </trkpt>
      <trkpt lat="46.79468" lon="6.47429">
        <ele>1429.5999755859</ele>
        <time>2014-07-26T13:07:07.000Z</time>
      </trkpt>
      <trkpt lat="46.79466" lon="6.4742">
        <ele>1429</ele>
        <time>2014-07-26T13:07:13.000Z</time>
      </trkpt>
      <trkpt lat="46.79464" lon="6.47413">
        <ele>1428.5999755859</ele>
        <time>2014-07-26T13:07:18.000Z</time>
      </trkpt>
      <trkpt lat="46.79463" lon="6.47408">
        <ele>1428.5999755859</ele>
        <time>2014-07-26T13:07:22.000Z</time>
      </trkpt>
      <trkpt lat="46.79461" lon="6.47396">
        <ele>1427.1999511719</ele>
        <time>2014-07-26T13:07:30.000Z</time>
      </trkpt>
      <trkpt lat="46.7946" lon="6.47392">
        <ele>1426.8000488281</ele>
        <time>2014-07-26T13:07:33.000Z</time>
      </trkpt>
      <trkpt lat="46.7946" lon="6.47387">
        <ele>1425.5999755859</ele>
        <time>2014-07-26T13:07:37.000Z</time>
      </trkpt>
      <trkpt lat="46.79459" lon="6.47381">
        <ele>1424.5999755859</ele>
        <time>2014-07-26T13:07:41.000Z</time>
      </trkpt>
      <trkpt lat="46.79457" lon="6.47371">
        <ele>1423.1999511719</ele>
        <time>2014-07-26T13:07:48.000Z</time>
      </trkpt>
      <trkpt lat="46.79457" lon="6.4737">
        <ele>1423</ele>
        <time>2014-07-26T13:07:49.000Z</time>
      </trkpt>
      <trkpt lat="46.79456" lon="6.47361">
        <ele>1421.8000488281</ele>
        <time>2014-07-26T13:07:55.000Z</time>
      </trkpt>
      <trkpt lat="46.79455" lon="6.47356">
        <ele>1421.1999511719</ele>
        <time>2014-07-26T13:07:58.000Z</time>
      </trkpt>
      <trkpt lat="46.7945" lon="6.47348">
        <ele>1421.5999755859</ele>
        <time>2014-07-26T13:08:04.000Z</time>
      </trkpt>
      <trkpt lat="46.79449" lon="6.47337">
        <ele>1419.5999755859</ele>
        <time>2014-07-26T13:08:10.000Z</time>
      </trkpt>
      <trkpt lat="46.79449" lon="6.47335">
        <ele>1419.1999511719</ele>
        <time>2014-07-26T13:08:11.000Z</time>
      </trkpt>
      <trkpt lat="46.79449" lon="6.4733">
        <ele>1418</ele>
        <time>2014-07-26T13:08:14.000Z</time>
      </trkpt>
      <trkpt lat="46.79449" lon="6.47323">
        <ele>1416.4000244141</ele>
        <time>2014-07-26T13:08:21.000Z</time>
      </trkpt>
      <trkpt lat="46.79449" lon="6.47318">
        <ele>1414.8000488281</ele>
        <time>2014-07-26T13:08:29.000Z</time>
      </trkpt>
      <trkpt lat="46.79449" lon="6.4731">
        <ele>1412.8000488281</ele>
        <time>2014-07-26T13:08:33.000Z</time>
      </trkpt>
      <trkpt lat="46.79447" lon="6.47305">
        <ele>1412.5999755859</ele>
        <time>2014-07-26T13:08:37.000Z</time>
      </trkpt>
      <trkpt lat="46.79447" lon="6.47303">
        <ele>1411.8000488281</ele>
        <time>2014-07-26T13:08:39.000Z</time>
      </trkpt>
      <trkpt lat="46.79447" lon="6.47301">
        <ele>1411</ele>
        <time>2014-07-26T13:08:41.000Z</time>
      </trkpt>
      <trkpt lat="46.79446" lon="6.47294">
        <ele>1409.5999755859</ele>
        <time>2014-07-26T13:08:49.000Z</time>
      </trkpt>
      <trkpt lat="46.79445" lon="6.47287">
        <ele>1408.1999511719</ele>
        <time>2014-07-26T13:08:56.000Z</time>
      </trkpt>
      <trkpt lat="46.79444" lon="6.47283">
        <ele>1407.1999511719</ele>
        <time>2014-07-26T13:08:59.000Z</time>
      </trkpt>
      <trkpt lat="46.79443" lon="6.47276">
        <ele>1406</ele>
        <time>2014-07-26T13:09:04.000Z</time>
      </trkpt>
      <trkpt lat="46.79442" lon="6.4727">
        <ele>1404.5999755859</ele>
        <time>2014-07-26T13:09:08.000Z</time>
      </trkpt>
      <trkpt lat="46.7944" lon="6.47265">
        <ele>1404</ele>
        <time>2014-07-26T13:09:13.000Z</time>
      </trkpt>
      <trkpt lat="46.7944" lon="6.4726">
        <ele>1402.8000488281</ele>
        <time>2014-07-26T13:09:17.000Z</time>
      </trkpt>
      <trkpt lat="46.79439" lon="6.47254">
        <ele>1401.5999755859</ele>
        <time>2014-07-26T13:09:20.000Z</time>
      </trkpt>
      <trkpt lat="46.79438" lon="6.47247">
        <ele>1400.4000244141</ele>
        <time>2014-07-26T13:09:26.000Z</time>
      </trkpt>
      <trkpt lat="46.79436" lon="6.4724">
        <ele>1399.5999755859</ele>
        <time>2014-07-26T13:09:31.000Z</time>
      </trkpt>
      <trkpt lat="46.79436" lon="6.47237">
        <ele>1399</ele>
        <time>2014-07-26T13:09:34.000Z</time>
      </trkpt>
      <trkpt lat="46.79435" lon="6.47235">
        <ele>1399.1999511719</ele>
        <time>2014-07-26T13:09:36.000Z</time>
      </trkpt>
      <trkpt lat="46.79433" lon="6.47232">
        <ele>1399.1999511719</ele>
        <time>2014-07-26T13:09:39.000Z</time>
      </trkpt>
      <trkpt lat="46.79433" lon="6.47229">
        <ele>1398.8000488281</ele>
        <time>2014-07-26T13:09:42.000Z</time>
      </trkpt>
      <trkpt lat="46.79432" lon="6.47221">
        <ele>1397</ele>
        <time>2014-07-26T13:09:48.000Z</time>
      </trkpt>
      <trkpt lat="46.79432" lon="6.4722">
        <ele>1396.8000488281</ele>
        <time>2014-07-26T13:09:49.000Z</time>
      </trkpt>
      <trkpt lat="46.79431" lon="6.47218">
        <ele>1396.1999511719</ele>
        <time>2014-07-26T13:09:51.000Z</time>
      </trkpt>
      <trkpt lat="46.79428" lon="6.47206">
        <ele>1394.8000488281</ele>
        <time>2014-07-26T13:10:00.000Z</time>
      </trkpt>
      <trkpt lat="46.79427" lon="6.47204">
        <ele>1394.8000488281</ele>
        <time>2014-07-26T13:10:02.000Z</time>
      </trkpt>
      <trkpt lat="46.79424" lon="6.47195">
        <ele>1394.1999511719</ele>
        <time>2014-07-26T13:10:09.000Z</time>
      </trkpt>
      <trkpt lat="46.79423" lon="6.47191">
        <ele>1393.1999511719</ele>
        <time>2014-07-26T13:10:12.000Z</time>
      </trkpt>
      <trkpt lat="46.79422" lon="6.47184">
        <ele>1391.8000488281</ele>
        <time>2014-07-26T13:10:18.000Z</time>
      </trkpt>
      <trkpt lat="46.79418" lon="6.47173">
        <ele>1391.1999511719</ele>
        <time>2014-07-26T13:10:26.000Z</time>
      </trkpt>
      <trkpt lat="46.79418" lon="6.47172">
        <ele>1391</ele>
        <time>2014-07-26T13:10:27.000Z</time>
      </trkpt>
      <trkpt lat="46.79416" lon="6.47164">
        <ele>1390.1999511719</ele>
        <time>2014-07-26T13:10:31.000Z</time>
      </trkpt>
      <trkpt lat="46.79414" lon="6.47159">
        <ele>1389.4000244141</ele>
        <time>2014-07-26T13:10:35.000Z</time>
      </trkpt>
      <trkpt lat="46.79411" lon="6.47149">
        <ele>1388.5999755859</ele>
        <time>2014-07-26T13:10:42.000Z</time>
      </trkpt>
      <trkpt lat="46.79411" lon="6.47147">
        <ele>1388.1999511719</ele>
        <time>2014-07-26T13:10:43.000Z</time>
      </trkpt>
      <trkpt lat="46.79409" lon="6.47141">
        <ele>1387</ele>
        <time>2014-07-26T13:10:46.000Z</time>
      </trkpt>
      <trkpt lat="46.79404" lon="6.47131">
        <ele>1386.5999755859</ele>
        <time>2014-07-26T13:10:53.000Z</time>
      </trkpt>
      <trkpt lat="46.79404" lon="6.47129">
        <ele>1386.1999511719</ele>
        <time>2014-07-26T13:10:54.000Z</time>
      </trkpt>
      <trkpt lat="46.79399" lon="6.47122">
        <ele>1386.4000244141</ele>
        <time>2014-07-26T13:11:00.000Z</time>
      </trkpt>
      <trkpt lat="46.79396" lon="6.47117">
        <ele>1385.8000488281</ele>
        <time>2014-07-26T13:11:04.000Z</time>
      </trkpt>
      <trkpt lat="46.79394" lon="6.47106">
        <ele>1384</ele>
        <time>2014-07-26T13:11:10.000Z</time>
      </trkpt>
      <trkpt lat="46.79394" lon="6.47105">
        <ele>1383.5999755859</ele>
        <time>2014-07-26T13:11:11.000Z</time>
      </trkpt>
      <trkpt lat="46.79389" lon="6.47095">
        <ele>1382.4000244141</ele>
        <time>2014-07-26T13:11:18.000Z</time>
      </trkpt>
      <trkpt lat="46.79387" lon="6.47089">
        <ele>1381.5999755859</ele>
        <time>2014-07-26T13:11:21.000Z</time>
      </trkpt>
      <trkpt lat="46.79386" lon="6.47087">
        <ele>1381.5999755859</ele>
        <time>2014-07-26T13:11:23.000Z</time>
      </trkpt>
      <trkpt lat="46.79383" lon="6.47077">
        <ele>1380.1999511719</ele>
        <time>2014-07-26T13:11:30.000Z</time>
      </trkpt>
      <trkpt lat="46.7938" lon="6.4707">
        <ele>1379</ele>
        <time>2014-07-26T13:11:35.000Z</time>
      </trkpt>
      <trkpt lat="46.79378" lon="6.47063">
        <ele>1378</ele>
        <time>2014-07-26T13:11:39.000Z</time>
      </trkpt>
      <trkpt lat="46.79375" lon="6.47055">
        <ele>1376.5999755859</ele>
        <time>2014-07-26T13:11:44.000Z</time>
      </trkpt>
      <trkpt lat="46.79372" lon="6.4705">
        <ele>1376.1999511719</ele>
        <time>2014-07-26T13:11:48.000Z</time>
      </trkpt>
      <trkpt lat="46.7937" lon="6.47047">
        <ele>1376.4000244141</ele>
        <time>2014-07-26T13:11:51.000Z</time>
      </trkpt>
      <trkpt lat="46.79367" lon="6.47043">
        <ele>1376.1999511719</ele>
        <time>2014-07-26T13:11:55.000Z</time>
      </trkpt>
      <trkpt lat="46.79362" lon="6.47035">
        <ele>1376</ele>
        <time>2014-07-26T13:12:01.000Z</time>
      </trkpt>
      <trkpt lat="46.7936" lon="6.47034">
        <ele>1376.5999755859</ele>
        <time>2014-07-26T13:12:08.000Z</time>
      </trkpt>
      <trkpt lat="46.79358" lon="6.47029">
        <ele>1376</ele>
        <time>2014-07-26T13:12:13.000Z</time>
      </trkpt>
      <trkpt lat="46.79355" lon="6.47022">
        <ele>1375</ele>
        <time>2014-07-26T13:12:18.000Z</time>
      </trkpt>
      <trkpt lat="46.79352" lon="6.47015">
        <ele>1374.4000244141</ele>
        <time>2014-07-26T13:12:24.000Z</time>
      </trkpt>
      <trkpt lat="46.79351" lon="6.47014">
        <ele>1374.4000244141</ele>
        <time>2014-07-26T13:12:25.000Z</time>
      </trkpt>
      <trkpt lat="46.79347" lon="6.47004">
        <ele>1373.4000244141</ele>
        <time>2014-07-26T13:12:32.000Z</time>
      </trkpt>
      <trkpt lat="46.79345" lon="6.46999">
        <ele>1372.8000488281</ele>
        <time>2014-07-26T13:12:36.000Z</time>
      </trkpt>
      <trkpt lat="46.79343" lon="6.46994">
        <ele>1372</ele>
        <time>2014-07-26T13:12:39.000Z</time>
      </trkpt>
      <trkpt lat="46.79341" lon="6.46987">
        <ele>1371.4000244141</ele>
        <time>2014-07-26T13:12:44.000Z</time>
      </trkpt>
      <trkpt lat="46.79336" lon="6.46978">
        <ele>1370.1999511719</ele>
        <time>2014-07-26T13:12:50.000Z</time>
      </trkpt>
      <trkpt lat="46.79335" lon="6.46976">
        <ele>1370.1999511719</ele>
        <time>2014-07-26T13:12:51.000Z</time>
      </trkpt>
      <trkpt lat="46.79332" lon="6.46967">
        <ele>1368.5999755859</ele>
        <time>2014-07-26T13:12:57.000Z</time>
      </trkpt>
      <trkpt lat="46.7933" lon="6.46962">
        <ele>1367.8000488281</ele>
        <time>2014-07-26T13:13:00.000Z</time>
      </trkpt>
      <trkpt lat="46.79327" lon="6.46957">
        <ele>1367.4000244141</ele>
        <time>2014-07-26T13:13:05.000Z</time>
      </trkpt>
      <trkpt lat="46.7932" lon="6.46947">
        <ele>1367.1999511719</ele>
        <time>2014-07-26T13:13:13.000Z</time>
      </trkpt>
      <trkpt lat="46.7932" lon="6.46945">
        <ele>1367</ele>
        <time>2014-07-26T13:13:14.000Z</time>
      </trkpt>
      <trkpt lat="46.79315" lon="6.46937">
        <ele>1366.8000488281</ele>
        <time>2014-07-26T13:13:20.000Z</time>
      </trkpt>
      <trkpt lat="46.79314" lon="6.46935">
        <ele>1366.5999755859</ele>
        <time>2014-07-26T13:13:21.000Z</time>
      </trkpt>
      <trkpt lat="46.79313" lon="6.46934">
        <ele>1366.8000488281</ele>
        <time>2014-07-26T13:13:22.000Z</time>
      </trkpt>
      <trkpt lat="46.79313" lon="6.46933">
        <ele>1366.5999755859</ele>
        <time>2014-07-26T13:13:23.000Z</time>
      </trkpt>
      <trkpt lat="46.79311" lon="6.46927">
        <ele>1365.4000244141</ele>
        <time>2014-07-26T13:13:28.000Z</time>
      </trkpt>
      <trkpt lat="46.79311" lon="6.46925">
        <ele>1365</ele>
        <time>2014-07-26T13:13:29.000Z</time>
      </trkpt>
      <trkpt lat="46.79307" lon="6.46916">
        <ele>1363.8000488281</ele>
        <time>2014-07-26T13:13:35.000Z</time>
      </trkpt>
      <trkpt lat="46.79303" lon="6.46911">
        <ele>1364.4000244141</ele>
        <time>2014-07-26T13:13:40.000Z</time>
      </trkpt>
      <trkpt lat="46.79299" lon="6.46905">
        <ele>1364.1999511719</ele>
        <time>2014-07-26T13:13:46.000Z</time>
      </trkpt>
      <trkpt lat="46.79296" lon="6.469">
        <ele>1364</ele>
        <time>2014-07-26T13:13:52.000Z</time>
      </trkpt>
      <trkpt lat="46.79292" lon="6.46893">
        <ele>1363.5999755859</ele>
        <time>2014-07-26T13:13:58.000Z</time>
      </trkpt>
      <trkpt lat="46.79287" lon="6.46885">
        <ele>1362.5999755859</ele>
        <time>2014-07-26T13:14:04.000Z</time>
      </trkpt>
      <trkpt lat="46.79285" lon="6.46879">
        <ele>1361.5999755859</ele>
        <time>2014-07-26T13:14:07.000Z</time>
      </trkpt>
      <trkpt lat="46.7928" lon="6.46872">
        <ele>1361.1999511719</ele>
        <time>2014-07-26T13:14:13.000Z</time>
      </trkpt>
      <trkpt lat="46.79277" lon="6.46866">
        <ele>1360.5999755859</ele>
        <time>2014-07-26T13:14:17.000Z</time>
      </trkpt>
      <trkpt lat="46.79273" lon="6.46861">
        <ele>1360.1999511719</ele>
        <time>2014-07-26T13:14:21.000Z</time>
      </trkpt>
      <trkpt lat="46.79269" lon="6.46852">
        <ele>1359.1999511719</ele>
        <time>2014-07-26T13:14:27.000Z</time>
      </trkpt>
      <trkpt lat="46.79267" lon="6.46848">
        <ele>1358.8000488281</ele>
        <time>2014-07-26T13:14:31.000Z</time>
      </trkpt>
      <trkpt lat="46.79264" lon="6.46843">
        <ele>1358</ele>
        <time>2014-07-26T13:14:35.000Z</time>
      </trkpt>
      <trkpt lat="46.7926" lon="6.46835">
        <ele>1357</ele>
        <time>2014-07-26T13:14:40.000Z</time>
      </trkpt>
      <trkpt lat="46.79257" lon="6.46825">
        <ele>1355.4000244141</ele>
        <time>2014-07-26T13:14:46.000Z</time>
      </trkpt>
      <trkpt lat="46.79253" lon="6.46819">
        <ele>1355</ele>
        <time>2014-07-26T13:14:51.000Z</time>
      </trkpt>
      <trkpt lat="46.79251" lon="6.46812">
        <ele>1354</ele>
        <time>2014-07-26T13:14:57.000Z</time>
      </trkpt>
      <trkpt lat="46.79246" lon="6.46802">
        <ele>1353</ele>
        <time>2014-07-26T13:15:03.000Z</time>
      </trkpt>
      <trkpt lat="46.79242" lon="6.46796">
        <ele>1352.8000488281</ele>
        <time>2014-07-26T13:15:09.000Z</time>
      </trkpt>
      <trkpt lat="46.79241" lon="6.46795">
        <ele>1352.8000488281</ele>
        <time>2014-07-26T13:15:10.000Z</time>
      </trkpt>
      <trkpt lat="46.7924" lon="6.46794">
        <ele>1353</ele>
        <time>2014-07-26T13:15:11.000Z</time>
      </trkpt>
      <trkpt lat="46.79237" lon="6.46789">
        <ele>1352.5999755859</ele>
        <time>2014-07-26T13:15:14.000Z</time>
      </trkpt>
      <trkpt lat="46.79234" lon="6.46786">
        <ele>1353.1999511719</ele>
        <time>2014-07-26T13:15:17.000Z</time>
      </trkpt>
      <trkpt lat="46.79229" lon="6.46776">
        <ele>1352.1999511719</ele>
        <time>2014-07-26T13:15:22.000Z</time>
      </trkpt>
      <trkpt lat="46.79226" lon="6.46772">
        <ele>1352</ele>
        <time>2014-07-26T13:15:26.000Z</time>
      </trkpt>
      <trkpt lat="46.79224" lon="6.46768">
        <ele>1352</ele>
        <time>2014-07-26T13:15:29.000Z</time>
      </trkpt>
      <trkpt lat="46.7922" lon="6.46764">
        <ele>1352.4000244141</ele>
        <time>2014-07-26T13:15:33.000Z</time>
      </trkpt>
      <trkpt lat="46.79213" lon="6.46757">
        <ele>1353.4000244141</ele>
        <time>2014-07-26T13:15:40.000Z</time>
      </trkpt>
      <trkpt lat="46.79212" lon="6.46756">
        <ele>1353.4000244141</ele>
        <time>2014-07-26T13:15:41.000Z</time>
      </trkpt>
      <trkpt lat="46.79209" lon="6.46751">
        <ele>1353.4000244141</ele>
        <time>2014-07-26T13:15:45.000Z</time>
      </trkpt>
      <trkpt lat="46.79206" lon="6.46748">
        <ele>1353.1999511719</ele>
        <time>2014-07-26T13:15:49.000Z</time>
      </trkpt>
      <trkpt lat="46.79205" lon="6.46746">
        <ele>1353.4000244141</ele>
        <time>2014-07-26T13:15:51.000Z</time>
      </trkpt>
      <trkpt lat="46.79204" lon="6.46744">
        <ele>1353.4000244141</ele>
        <time>2014-07-26T13:15:54.000Z</time>
      </trkpt>
      <trkpt lat="46.79197" lon="6.46738">
        <ele>1354.1999511719</ele>
        <time>2014-07-26T13:16:01.000Z</time>
      </trkpt>
      <trkpt lat="46.79197" lon="6.46737">
        <ele>1354</ele>
        <time>2014-07-26T13:16:02.000Z</time>
      </trkpt>
      <trkpt lat="46.79196" lon="6.46731">
        <ele>1352.4000244141</ele>
        <time>2014-07-26T13:16:06.000Z</time>
      </trkpt>
      <trkpt lat="46.79194" lon="6.46724">
        <ele>1350.1999511719</ele>
        <time>2014-07-26T13:16:11.000Z</time>
      </trkpt>
      <trkpt lat="46.79195" lon="6.46721">
        <ele>1349</ele>
        <time>2014-07-26T13:16:13.000Z</time>
      </trkpt>
      <trkpt lat="46.79197" lon="6.46717">
        <ele>1346.8000488281</ele>
        <time>2014-07-26T13:16:17.000Z</time>
      </trkpt>
      <trkpt lat="46.79199" lon="6.46718">
        <ele>1346.1999511719</ele>
        <time>2014-07-26T13:16:19.000Z</time>
      </trkpt>
      <trkpt lat="46.79202" lon="6.46719">
        <ele>1345.1999511719</ele>
        <time>2014-07-26T13:16:23.000Z</time>
      </trkpt>
      <trkpt lat="46.79206" lon="6.46722">
        <ele>1344.8000488281</ele>
        <time>2014-07-26T13:16:28.000Z</time>
      </trkpt>
      <trkpt lat="46.79211" lon="6.46725">
        <ele>1344.4000244141</ele>
        <time>2014-07-26T13:16:33.000Z</time>
      </trkpt>
      <trkpt lat="46.79213" lon="6.46729">
        <ele>1344.5999755859</ele>
        <time>2014-07-26T13:16:37.000Z</time>
      </trkpt>
      <trkpt lat="46.79216" lon="6.46732">
        <ele>1344.5999755859</ele>
        <time>2014-07-26T13:16:44.000Z</time>
      </trkpt>
      <trkpt lat="46.79221" lon="6.46738">
        <ele>1344.5999755859</ele>
        <time>2014-07-26T13:16:50.000Z</time>
      </trkpt>
      <trkpt lat="46.79221" lon="6.46741">
        <ele>1345</ele>
        <time>2014-07-26T13:16:52.000Z</time>
      </trkpt>
      <trkpt lat="46.79224" lon="6.46744">
        <ele>1345</ele>
        <time>2014-07-26T13:16:58.000Z</time>
      </trkpt>
      <trkpt lat="46.79227" lon="6.46748">
        <ele>1344.8000488281</ele>
        <time>2014-07-26T13:17:02.000Z</time>
      </trkpt>
      <trkpt lat="46.79231" lon="6.46753">
        <ele>1344.5999755859</ele>
        <time>2014-07-26T13:17:07.000Z</time>
      </trkpt>
      <trkpt lat="46.79238" lon="6.46757">
        <ele>1343.1999511719</ele>
        <time>2014-07-26T13:17:13.000Z</time>
      </trkpt>
      <trkpt lat="46.79239" lon="6.46758">
        <ele>1343</ele>
        <time>2014-07-26T13:17:14.000Z</time>
      </trkpt>
      <trkpt lat="46.79243" lon="6.46761">
        <ele>1342.4000244141</ele>
        <time>2014-07-26T13:17:17.000Z</time>
      </trkpt>
      <trkpt lat="46.7925" lon="6.46767">
        <ele>1341.1999511719</ele>
        <time>2014-07-26T13:17:24.000Z</time>
      </trkpt>
      <trkpt lat="46.79252" lon="6.4677">
        <ele>1341.1999511719</ele>
        <time>2014-07-26T13:17:26.000Z</time>
      </trkpt>
      <trkpt lat="46.79259" lon="6.46774">
        <ele>1339.8000488281</ele>
        <time>2014-07-26T13:17:32.000Z</time>
      </trkpt>
      <trkpt lat="46.79267" lon="6.46781">
        <ele>1338.5999755859</ele>
        <time>2014-07-26T13:17:38.000Z</time>
      </trkpt>
      <trkpt lat="46.79275" lon="6.46789">
        <ele>1338.1999511719</ele>
        <time>2014-07-26T13:17:45.000Z</time>
      </trkpt>
      <trkpt lat="46.79278" lon="6.46793">
        <ele>1337.8000488281</ele>
        <time>2014-07-26T13:17:49.000Z</time>
      </trkpt>
      <trkpt lat="46.79283" lon="6.46797">
        <ele>1337.4000244141</ele>
        <time>2014-07-26T13:17:55.000Z</time>
      </trkpt>
      <trkpt lat="46.79289" lon="6.46802">
        <ele>1336.4000244141</ele>
        <time>2014-07-26T13:18:00.000Z</time>
      </trkpt>
      <trkpt lat="46.79291" lon="6.46803">
        <ele>1336</ele>
        <time>2014-07-26T13:18:01.000Z</time>
      </trkpt>
      <trkpt lat="46.79299" lon="6.46811">
        <ele>1335.1999511719</ele>
        <time>2014-07-26T13:18:08.000Z</time>
      </trkpt>
      <trkpt lat="46.79305" lon="6.46819">
        <ele>1335.1999511719</ele>
        <time>2014-07-26T13:18:15.000Z</time>
      </trkpt>
      <trkpt lat="46.7931" lon="6.46823">
        <ele>1334.4000244141</ele>
        <time>2014-07-26T13:18:20.000Z</time>
      </trkpt>
      <trkpt lat="46.79315" lon="6.46827">
        <ele>1333.5999755859</ele>
        <time>2014-07-26T13:18:26.000Z</time>
      </trkpt>
      <trkpt lat="46.79317" lon="6.46828">
        <ele>1333.4000244141</ele>
        <time>2014-07-26T13:18:28.000Z</time>
      </trkpt>
      <trkpt lat="46.79324" lon="6.46833">
        <ele>1332.4000244141</ele>
        <time>2014-07-26T13:18:35.000Z</time>
      </trkpt>
      <trkpt lat="46.79333" lon="6.46838">
        <ele>1330.8000488281</ele>
        <time>2014-07-26T13:18:43.000Z</time>
      </trkpt>
      <trkpt lat="46.79344" lon="6.46842">
        <ele>1329</ele>
        <time>2014-07-26T13:18:50.000Z</time>
      </trkpt>
      <trkpt lat="46.79351" lon="6.46848">
        <ele>1328.5999755859</ele>
        <time>2014-07-26T13:18:57.000Z</time>
      </trkpt>
      <trkpt lat="46.79357" lon="6.46853">
        <ele>1328</ele>
        <time>2014-07-26T13:19:03.000Z</time>
      </trkpt>
      <trkpt lat="46.7936" lon="6.46855">
        <ele>1327.8000488281</ele>
        <time>2014-07-26T13:19:06.000Z</time>
      </trkpt>
      <trkpt lat="46.79368" lon="6.4686">
        <ele>1327.1999511719</ele>
        <time>2014-07-26T13:19:12.000Z</time>
      </trkpt>
      <trkpt lat="46.79374" lon="6.46867">
        <ele>1327.1999511719</ele>
        <time>2014-07-26T13:19:18.000Z</time>
      </trkpt>
      <trkpt lat="46.79375" lon="6.4687">
        <ele>1327.4000244141</ele>
        <time>2014-07-26T13:19:20.000Z</time>
      </trkpt>
      <trkpt lat="46.79379" lon="6.46873">
        <ele>1327</ele>
        <time>2014-07-26T13:19:24.000Z</time>
      </trkpt>
      <trkpt lat="46.79383" lon="6.46878">
        <ele>1327.4000244141</ele>
        <time>2014-07-26T13:19:30.000Z</time>
      </trkpt>
      <trkpt lat="46.7939" lon="6.46883">
        <ele>1327</ele>
        <time>2014-07-26T13:19:35.000Z</time>
      </trkpt>
      <trkpt lat="46.79397" lon="6.4689">
        <ele>1326.8000488281</ele>
        <time>2014-07-26T13:19:41.000Z</time>
      </trkpt>
      <trkpt lat="46.79404" lon="6.46898">
        <ele>1327</ele>
        <time>2014-07-26T13:19:47.000Z</time>
      </trkpt>
      <trkpt lat="46.79404" lon="6.46899">
        <ele>1327.1999511719</ele>
        <time>2014-07-26T13:19:48.000Z</time>
      </trkpt>
      <trkpt lat="46.79414" lon="6.4691">
        <ele>1326</ele>
        <time>2014-07-26T13:19:56.000Z</time>
      </trkpt>
      <trkpt lat="46.79422" lon="6.46922">
        <ele>1325.1999511719</ele>
        <time>2014-07-26T13:20:05.000Z</time>
      </trkpt>
      <trkpt lat="46.79424" lon="6.46925">
        <ele>1325.1999511719</ele>
        <time>2014-07-26T13:20:07.000Z</time>
      </trkpt>
      <trkpt lat="46.7943" lon="6.46932">
        <ele>1324.8000488281</ele>
        <time>2014-07-26T13:20:13.000Z</time>
      </trkpt>
      <trkpt lat="46.79436" lon="6.46941">
        <ele>1324</ele>
        <time>2014-07-26T13:20:20.000Z</time>
      </trkpt>
      <trkpt lat="46.79437" lon="6.46943">
        <ele>1324</ele>
        <time>2014-07-26T13:20:21.000Z</time>
      </trkpt>
      <trkpt lat="46.79447" lon="6.46954">
        <ele>1322.8000488281</ele>
        <time>2014-07-26T13:20:30.000Z</time>
      </trkpt>
      <trkpt lat="46.7945" lon="6.46957">
        <ele>1322.4000244141</ele>
        <time>2014-07-26T13:20:33.000Z</time>
      </trkpt>
      <trkpt lat="46.79458" lon="6.46966">
        <ele>1321.1999511719</ele>
        <time>2014-07-26T13:20:41.000Z</time>
      </trkpt>
      <trkpt lat="46.79464" lon="6.46972">
        <ele>1320.1999511719</ele>
        <time>2014-07-26T13:20:48.000Z</time>
      </trkpt>
      <trkpt lat="46.79474" lon="6.46984">
        <ele>1319.1999511719</ele>
        <time>2014-07-26T13:20:59.000Z</time>
      </trkpt>
      <trkpt lat="46.7948" lon="6.46991">
        <ele>1318.8000488281</ele>
        <time>2014-07-26T13:21:05.000Z</time>
      </trkpt>
      <trkpt lat="46.79484" lon="6.46997">
        <ele>1318.4000244141</ele>
        <time>2014-07-26T13:21:09.000Z</time>
      </trkpt>
      <trkpt lat="46.7949" lon="6.47005">
        <ele>1318</ele>
        <time>2014-07-26T13:21:16.000Z</time>
      </trkpt>
      <trkpt lat="46.79491" lon="6.47006">
        <ele>1318</ele>
        <time>2014-07-26T13:21:17.000Z</time>
      </trkpt>
      <trkpt lat="46.795" lon="6.47014">
        <ele>1317.5999755859</ele>
        <time>2014-07-26T13:21:25.000Z</time>
      </trkpt>
      <trkpt lat="46.79508" lon="6.47022">
        <ele>1317</ele>
        <time>2014-07-26T13:21:33.000Z</time>
      </trkpt>
      <trkpt lat="46.79511" lon="6.47025">
        <ele>1316.8000488281</ele>
        <time>2014-07-26T13:21:36.000Z</time>
      </trkpt>
      <trkpt lat="46.7952" lon="6.47033">
        <ele>1316.4000244141</ele>
        <time>2014-07-26T13:21:44.000Z</time>
      </trkpt>
      <trkpt lat="46.79526" lon="6.47039">
        <ele>1316</ele>
        <time>2014-07-26T13:21:50.000Z</time>
      </trkpt>
      <trkpt lat="46.79533" lon="6.47046">
        <ele>1315.5999755859</ele>
        <time>2014-07-26T13:21:57.000Z</time>
      </trkpt>
      <trkpt lat="46.79543" lon="6.47056">
        <ele>1315.1999511719</ele>
        <time>2014-07-26T13:22:07.000Z</time>
      </trkpt>
      <trkpt lat="46.7955" lon="6.47062">
        <ele>1314.8000488281</ele>
        <time>2014-07-26T13:22:14.000Z</time>
      </trkpt>
      <trkpt lat="46.79553" lon="6.47067">
        <ele>1314.5999755859</ele>
        <time>2014-07-26T13:22:18.000Z</time>
      </trkpt>
      <trkpt lat="46.79559" lon="6.47072">
        <ele>1313.5999755859</ele>
        <time>2014-07-26T13:22:24.000Z</time>
      </trkpt>
      <trkpt lat="46.79567" lon="6.4708">
        <ele>1312.4000244141</ele>
        <time>2014-07-26T13:22:32.000Z</time>
      </trkpt>
      <trkpt lat="46.79575" lon="6.47087">
        <ele>1311.5999755859</ele>
        <time>2014-07-26T13:22:40.000Z</time>
      </trkpt>
      <trkpt lat="46.79582" lon="6.47093">
        <ele>1311.5999755859</ele>
        <time>2014-07-26T13:22:47.000Z</time>
      </trkpt>
      <trkpt lat="46.79593" lon="6.47103">
        <ele>1311.4000244141</ele>
        <time>2014-07-26T13:22:57.000Z</time>
      </trkpt>
      <trkpt lat="46.79601" lon="6.47109">
        <ele>1311.4000244141</ele>
        <time>2014-07-26T13:23:04.000Z</time>
      </trkpt>
      <trkpt lat="46.79609" lon="6.47117">
        <ele>1311.1999511719</ele>
        <time>2014-07-26T13:23:12.000Z</time>
      </trkpt>
      <trkpt lat="46.79616" lon="6.47122">
        <ele>1311</ele>
        <time>2014-07-26T13:23:19.000Z</time>
      </trkpt>
      <trkpt lat="46.79624" lon="6.4713">
        <ele>1311</ele>
        <time>2014-07-26T13:23:27.000Z</time>
      </trkpt>
      <trkpt lat="46.79632" lon="6.47134">
        <ele>1310.8000488281</ele>
        <time>2014-07-26T13:23:34.000Z</time>
      </trkpt>
      <trkpt lat="46.79638" lon="6.4714">
        <ele>1310.5999755859</ele>
        <time>2014-07-26T13:23:40.000Z</time>
      </trkpt>
      <trkpt lat="46.79645" lon="6.47144">
        <ele>1310.4000244141</ele>
        <time>2014-07-26T13:23:46.000Z</time>
      </trkpt>
      <trkpt lat="46.79649" lon="6.47147">
        <ele>1310.4000244141</ele>
        <time>2014-07-26T13:23:50.000Z</time>
      </trkpt>
      <trkpt lat="46.79655" lon="6.47153">
        <ele>1310.1999511719</ele>
        <time>2014-07-26T13:23:55.000Z</time>
      </trkpt>
      <trkpt lat="46.79663" lon="6.47157">
        <ele>1309.4000244141</ele>
        <time>2014-07-26T13:24:02.000Z</time>
      </trkpt>
      <trkpt lat="46.79672" lon="6.47163">
        <ele>1308.8000488281</ele>
        <time>2014-07-26T13:24:10.000Z</time>
      </trkpt>
      <trkpt lat="46.79681" lon="6.4717">
        <ele>1308</ele>
        <time>2014-07-26T13:24:19.000Z</time>
      </trkpt>
      <trkpt lat="46.79691" lon="6.47177">
        <ele>1307.1999511719</ele>
        <time>2014-07-26T13:24:28.000Z</time>
      </trkpt>
      <trkpt lat="46.797" lon="6.47183">
        <ele>1306.5999755859</ele>
        <time>2014-07-26T13:24:36.000Z</time>
      </trkpt>
      <trkpt lat="46.79706" lon="6.47188">
        <ele>1306</ele>
        <time>2014-07-26T13:24:42.000Z</time>
      </trkpt>
      <trkpt lat="46.79714" lon="6.47193">
        <ele>1305.4000244141</ele>
        <time>2014-07-26T13:24:49.000Z</time>
      </trkpt>
      <trkpt lat="46.79723" lon="6.47198">
        <ele>1304.5999755859</ele>
        <time>2014-07-26T13:24:58.000Z</time>
      </trkpt>
      <trkpt lat="46.7973" lon="6.47203">
        <ele>1304</ele>
        <time>2014-07-26T13:25:05.000Z</time>
      </trkpt>
      <trkpt lat="46.79736" lon="6.47207">
        <ele>1303.4000244141</ele>
        <time>2014-07-26T13:25:10.000Z</time>
      </trkpt>
      <trkpt lat="46.79741" lon="6.47209">
        <ele>1303</ele>
        <time>2014-07-26T13:25:14.000Z</time>
      </trkpt>
      <trkpt lat="46.79751" lon="6.47214">
        <ele>1302.4000244141</ele>
        <time>2014-07-26T13:25:23.000Z</time>
      </trkpt>
      <trkpt lat="46.79752" lon="6.47215">
        <ele>1302.4000244141</ele>
        <time>2014-07-26T13:25:24.000Z</time>
      </trkpt>
      <trkpt lat="46.7976" lon="6.47219">
        <ele>1301.8000488281</ele>
        <time>2014-07-26T13:25:32.000Z</time>
      </trkpt>
      <trkpt lat="46.79767" lon="6.47221">
        <ele>1301.4000244141</ele>
        <time>2014-07-26T13:25:38.000Z</time>
      </trkpt>
      <trkpt lat="46.79775" lon="6.47226">
        <ele>1301</ele>
        <time>2014-07-26T13:25:45.000Z</time>
      </trkpt>
      <trkpt lat="46.79776" lon="6.47226">
        <ele>1301</ele>
        <time>2014-07-26T13:25:46.000Z</time>
      </trkpt>
      <trkpt lat="46.79785" lon="6.47232">
        <ele>1300.4000244141</ele>
        <time>2014-07-26T13:25:54.000Z</time>
      </trkpt>
      <trkpt lat="46.79794" lon="6.47235">
        <ele>1299.8000488281</ele>
        <time>2014-07-26T13:26:01.000Z</time>
      </trkpt>
      <trkpt lat="46.79797" lon="6.47237">
        <ele>1299.5999755859</ele>
        <time>2014-07-26T13:26:04.000Z</time>
      </trkpt>
      <trkpt lat="46.79806" lon="6.4724">
        <ele>1298.8000488281</ele>
        <time>2014-07-26T13:26:10.000Z</time>
      </trkpt>
      <trkpt lat="46.79814" lon="6.47243">
        <ele>1298.1999511719</ele>
        <time>2014-07-26T13:26:17.000Z</time>
      </trkpt>
      <trkpt lat="46.79819" lon="6.47244">
        <ele>1297.8000488281</ele>
        <time>2014-07-26T13:26:20.000Z</time>
      </trkpt>
      <trkpt lat="46.79828" lon="6.47248">
        <ele>1297.1999511719</ele>
        <time>2014-07-26T13:26:28.000Z</time>
      </trkpt>
      <trkpt lat="46.79836" lon="6.47251">
        <ele>1296.8000488281</ele>
        <time>2014-07-26T13:26:35.000Z</time>
      </trkpt>
      <trkpt lat="46.79845" lon="6.47253">
        <ele>1296.1999511719</ele>
        <time>2014-07-26T13:26:42.000Z</time>
      </trkpt>
      <trkpt lat="46.79854" lon="6.47256">
        <ele>1295.5999755859</ele>
        <time>2014-07-26T13:26:50.000Z</time>
      </trkpt>
      <trkpt lat="46.79863" lon="6.47259">
        <ele>1295</ele>
        <time>2014-07-26T13:26:57.000Z</time>
      </trkpt>
      <trkpt lat="46.79873" lon="6.47262">
        <ele>1294.4000244141</ele>
        <time>2014-07-26T13:27:05.000Z</time>
      </trkpt>
      <trkpt lat="46.79881" lon="6.47262">
        <ele>1293.8000488281</ele>
        <time>2014-07-26T13:27:12.000Z</time>
      </trkpt>
      <trkpt lat="46.79886" lon="6.47263">
        <ele>1293.4000244141</ele>
        <time>2014-07-26T13:27:16.000Z</time>
      </trkpt>
      <trkpt lat="46.7989" lon="6.47263">
        <ele>1293</ele>
        <time>2014-07-26T13:27:21.000Z</time>
      </trkpt>
      <trkpt lat="46.79899" lon="6.47264">
        <ele>1292.4000244141</ele>
        <time>2014-07-26T13:27:28.000Z</time>
      </trkpt>
      <trkpt lat="46.79908" lon="6.47264">
        <ele>1291.5999755859</ele>
        <time>2014-07-26T13:27:35.000Z</time>
      </trkpt>
      <trkpt lat="46.79917" lon="6.47264">
        <ele>1291</ele>
        <time>2014-07-26T13:27:42.000Z</time>
      </trkpt>
      <trkpt lat="46.79924" lon="6.47265">
        <ele>1290.5999755859</ele>
        <time>2014-07-26T13:27:48.000Z</time>
      </trkpt>
      <trkpt lat="46.79928" lon="6.47266">
        <ele>1290.4000244141</ele>
        <time>2014-07-26T13:27:51.000Z</time>
      </trkpt>
      <trkpt lat="46.79938" lon="6.47266">
        <ele>1289.5999755859</ele>
        <time>2014-07-26T13:27:59.000Z</time>
      </trkpt>
      <trkpt lat="46.79946" lon="6.47268">
        <ele>1289.1999511719</ele>
        <time>2014-07-26T13:28:05.000Z</time>
      </trkpt>
      <trkpt lat="46.79954" lon="6.47268">
        <ele>1288.8000488281</ele>
        <time>2014-07-26T13:28:11.000Z</time>
      </trkpt>
      <trkpt lat="46.79964" lon="6.4727">
        <ele>1288.1999511719</ele>
        <time>2014-07-26T13:28:19.000Z</time>
      </trkpt>
      <trkpt lat="46.79973" lon="6.47273">
        <ele>1287.8000488281</ele>
        <time>2014-07-26T13:28:26.000Z</time>
      </trkpt>
      <trkpt lat="46.79979" lon="6.47272">
        <ele>1287.4000244141</ele>
        <time>2014-07-26T13:28:31.000Z</time>
      </trkpt>
      <trkpt lat="46.7998" lon="6.47272">
        <ele>1287.4000244141</ele>
        <time>2014-07-26T13:28:32.000Z</time>
      </trkpt>
      <trkpt lat="46.79985" lon="6.4727">
        <ele>1287</ele>
        <time>2014-07-26T13:28:36.000Z</time>
      </trkpt>
      <trkpt lat="46.79994" lon="6.47264">
        <ele>1286.1999511719</ele>
        <time>2014-07-26T13:28:44.000Z</time>
      </trkpt>
      <trkpt lat="46.80001" lon="6.47257">
        <ele>1285.1999511719</ele>
        <time>2014-07-26T13:28:52.000Z</time>
      </trkpt>
      <trkpt lat="46.80002" lon="6.47256">
        <ele>1285.1999511719</ele>
        <time>2014-07-26T13:28:53.000Z</time>
      </trkpt>
      <trkpt lat="46.80007" lon="6.47252">
        <ele>1284.5999755859</ele>
        <time>2014-07-26T13:28:57.000Z</time>
      </trkpt>
      <trkpt lat="46.80016" lon="6.47243">
        <ele>1283.1999511719</ele>
        <time>2014-07-26T13:29:05.000Z</time>
      </trkpt>
      <trkpt lat="46.80022" lon="6.47236">
        <ele>1282.4000244141</ele>
        <time>2014-07-26T13:29:10.000Z</time>
      </trkpt>
      <trkpt lat="46.80027" lon="6.47231">
        <ele>1281.8000488281</ele>
        <time>2014-07-26T13:29:15.000Z</time>
      </trkpt>
      <trkpt lat="46.8003" lon="6.47229">
        <ele>1281.4000244141</ele>
        <time>2014-07-26T13:29:23.000Z</time>
      </trkpt>
      <trkpt lat="46.80036" lon="6.47224">
        <ele>1280.8000488281</ele>
        <time>2014-07-26T13:29:30.000Z</time>
      </trkpt>
      <trkpt lat="46.80044" lon="6.47217">
        <ele>1280.1999511719</ele>
        <time>2014-07-26T13:29:36.000Z</time>
      </trkpt>
      <trkpt lat="46.8005" lon="6.4721">
        <ele>1279.5999755859</ele>
        <time>2014-07-26T13:29:42.000Z</time>
      </trkpt>
      <trkpt lat="46.80057" lon="6.47203">
        <ele>1278.4000244141</ele>
        <time>2014-07-26T13:29:48.000Z</time>
      </trkpt>
      <trkpt lat="46.80062" lon="6.47198">
        <ele>1277.4000244141</ele>
        <time>2014-07-26T13:29:53.000Z</time>
      </trkpt>
      <trkpt lat="46.80066" lon="6.47193">
        <ele>1276.8000488281</ele>
        <time>2014-07-26T13:29:57.000Z</time>
      </trkpt>
      <trkpt lat="46.80072" lon="6.47185">
        <ele>1275.5999755859</ele>
        <time>2014-07-26T13:30:03.000Z</time>
      </trkpt>
      <trkpt lat="46.80076" lon="6.47182">
        <ele>1275.1999511719</ele>
        <time>2014-07-26T13:30:09.000Z</time>
      </trkpt>
      <trkpt lat="46.80081" lon="6.47183">
        <ele>1274.5999755859</ele>
        <time>2014-07-26T13:30:26.000Z</time>
      </trkpt>
      <trkpt lat="46.80084" lon="6.47182">
        <ele>1274.4000244141</ele>
        <time>2014-07-26T13:30:31.000Z</time>
      </trkpt>
      <trkpt lat="46.8009" lon="6.47178">
        <ele>1273.5999755859</ele>
        <time>2014-07-26T13:30:38.000Z</time>
      </trkpt>
      <trkpt lat="46.80091" lon="6.47178">
        <ele>1273.5999755859</ele>
        <time>2014-07-26T13:30:39.000Z</time>
      </trkpt>
      <trkpt lat="46.80092" lon="6.47178">
        <ele>1273.4000244141</ele>
        <time>2014-07-26T13:30:45.000Z</time>
      </trkpt>
      <trkpt lat="46.80093" lon="6.47178">
        <ele>1273.4000244141</ele>
        <time>2014-07-26T13:30:50.000Z</time>
      </trkpt>
      <trkpt lat="46.80099" lon="6.47178">
        <ele>1272.8000488281</ele>
        <time>2014-07-26T13:30:55.000Z</time>
      </trkpt>
      <trkpt lat="46.80107" lon="6.47175">
        <ele>1272</ele>
        <time>2014-07-26T13:31:02.000Z</time>
      </trkpt>
      <trkpt lat="46.80112" lon="6.47173">
        <ele>1271.4000244141</ele>
        <time>2014-07-26T13:31:06.000Z</time>
      </trkpt>
      <trkpt lat="46.80123" lon="6.4717">
        <ele>1270.4000244141</ele>
        <time>2014-07-26T13:31:15.000Z</time>
      </trkpt>
      <trkpt lat="46.80131" lon="6.47168">
        <ele>1269.8000488281</ele>
        <time>2014-07-26T13:31:22.000Z</time>
      </trkpt>
      <trkpt lat="46.8014" lon="6.47167">
        <ele>1268.8000488281</ele>
        <time>2014-07-26T13:31:29.000Z</time>
      </trkpt>
      <trkpt lat="46.80147" lon="6.47165">
        <ele>1268.1999511719</ele>
        <time>2014-07-26T13:31:35.000Z</time>
      </trkpt>
      <trkpt lat="46.80154" lon="6.47165">
        <ele>1267.5999755859</ele>
        <time>2014-07-26T13:31:40.000Z</time>
      </trkpt>
      <trkpt lat="46.80166" lon="6.47168">
        <ele>1266.5999755859</ele>
        <time>2014-07-26T13:31:50.000Z</time>
      </trkpt>
      <trkpt lat="46.80173" lon="6.47167">
        <ele>1266</ele>
        <time>2014-07-26T13:31:56.000Z</time>
      </trkpt>
      <trkpt lat="46.80184" lon="6.47168">
        <ele>1265.5999755859</ele>
        <time>2014-07-26T13:32:05.000Z</time>
      </trkpt>
      <trkpt lat="46.80188" lon="6.47168">
        <ele>1265.4000244141</ele>
        <time>2014-07-26T13:32:09.000Z</time>
      </trkpt>
      <trkpt lat="46.80197" lon="6.47167">
        <ele>1265</ele>
        <time>2014-07-26T13:32:17.000Z</time>
      </trkpt>
      <trkpt lat="46.80199" lon="6.47168">
        <ele>1265</ele>
        <time>2014-07-26T13:32:18.000Z</time>
      </trkpt>
      <trkpt lat="46.80207" lon="6.47168">
        <ele>1264.8000488281</ele>
        <time>2014-07-26T13:32:25.000Z</time>
      </trkpt>
      <trkpt lat="46.80219" lon="6.47168">
        <ele>1264.1999511719</ele>
        <time>2014-07-26T13:32:35.000Z</time>
      </trkpt>
      <trkpt lat="46.80227" lon="6.47169">
        <ele>1264</ele>
        <time>2014-07-26T13:32:41.000Z</time>
      </trkpt>
      <trkpt lat="46.80237" lon="6.47169">
        <ele>1263.5999755859</ele>
        <time>2014-07-26T13:32:49.000Z</time>
      </trkpt>
      <trkpt lat="46.80247" lon="6.4717">
        <ele>1263</ele>
        <time>2014-07-26T13:32:57.000Z</time>
      </trkpt>
      <trkpt lat="46.80262" lon="6.47172">
        <ele>1261.8000488281</ele>
        <time>2014-07-26T13:33:09.000Z</time>
      </trkpt>
      <trkpt lat="46.80276" lon="6.47174">
        <ele>1261.4000244141</ele>
        <time>2014-07-26T13:33:20.000Z</time>
      </trkpt>
      <trkpt lat="46.80288" lon="6.47177">
        <ele>1260.8000488281</ele>
        <time>2014-07-26T13:33:29.000Z</time>
      </trkpt>
      <trkpt lat="46.80295" lon="6.47179">
        <ele>1260.5999755859</ele>
        <time>2014-07-26T13:33:35.000Z</time>
      </trkpt>
      <trkpt lat="46.80302" lon="6.4718">
        <ele>1260.1999511719</ele>
        <time>2014-07-26T13:33:41.000Z</time>
      </trkpt>
      <trkpt lat="46.80311" lon="6.47182">
        <ele>1260</ele>
        <time>2014-07-26T13:33:47.000Z</time>
      </trkpt>
      <trkpt lat="46.80321" lon="6.47187">
        <ele>1259.4000244141</ele>
        <time>2014-07-26T13:33:55.000Z</time>
      </trkpt>
      <trkpt lat="46.80332" lon="6.47196">
        <ele>1258.5999755859</ele>
        <time>2014-07-26T13:34:05.000Z</time>
      </trkpt>
      <trkpt lat="46.80341" lon="6.47203">
        <ele>1258</ele>
        <time>2014-07-26T13:34:12.000Z</time>
      </trkpt>
      <trkpt lat="46.80351" lon="6.47214">
        <ele>1257</ele>
        <time>2014-07-26T13:34:21.000Z</time>
      </trkpt>
      <trkpt lat="46.80359" lon="6.47224">
        <ele>1256.1999511719</ele>
        <time>2014-07-26T13:34:29.000Z</time>
      </trkpt>
      <trkpt lat="46.80364" lon="6.47229">
        <ele>1255.8000488281</ele>
        <time>2014-07-26T13:34:33.000Z</time>
      </trkpt>
      <trkpt lat="46.80371" lon="6.47239">
        <ele>1255.1999511719</ele>
        <time>2014-07-26T13:34:40.000Z</time>
      </trkpt>
      <trkpt lat="46.80375" lon="6.47243">
        <ele>1255.1999511719</ele>
        <time>2014-07-26T13:34:44.000Z</time>
      </trkpt>
      <trkpt lat="46.80384" lon="6.47254">
        <ele>1254.8000488281</ele>
        <time>2014-07-26T13:34:52.000Z</time>
      </trkpt>
      <trkpt lat="46.8039" lon="6.47262">
        <ele>1254.4000244141</ele>
        <time>2014-07-26T13:34:59.000Z</time>
      </trkpt>
      <trkpt lat="46.80397" lon="6.47271">
        <ele>1254.1999511719</ele>
        <time>2014-07-26T13:35:06.000Z</time>
      </trkpt>
      <trkpt lat="46.80401" lon="6.47277">
        <ele>1254</ele>
        <time>2014-07-26T13:35:11.000Z</time>
      </trkpt>
      <trkpt lat="46.80409" lon="6.47285">
        <ele>1253.8000488281</ele>
        <time>2014-07-26T13:35:18.000Z</time>
      </trkpt>
      <trkpt lat="46.80415" lon="6.47293">
        <ele>1253.8000488281</ele>
        <time>2014-07-26T13:35:24.000Z</time>
      </trkpt>
      <trkpt lat="46.80421" lon="6.47303">
        <ele>1253.5999755859</ele>
        <time>2014-07-26T13:35:32.000Z</time>
      </trkpt>
      <trkpt lat="46.80428" lon="6.47314">
        <ele>1253.5999755859</ele>
        <time>2014-07-26T13:35:40.000Z</time>
      </trkpt>
      <trkpt lat="46.80435" lon="6.47325">
        <ele>1253.1999511719</ele>
        <time>2014-07-26T13:35:48.000Z</time>
      </trkpt>
      <trkpt lat="46.80444" lon="6.47337">
        <ele>1252.5999755859</ele>
        <time>2014-07-26T13:35:57.000Z</time>
      </trkpt>
      <trkpt lat="46.80451" lon="6.47347">
        <ele>1252.1999511719</ele>
        <time>2014-07-26T13:36:04.000Z</time>
      </trkpt>
      <trkpt lat="46.80457" lon="6.47354">
        <ele>1252</ele>
        <time>2014-07-26T13:36:10.000Z</time>
      </trkpt>
      <trkpt lat="46.80462" lon="6.47363">
        <ele>1251.5999755859</ele>
        <time>2014-07-26T13:36:16.000Z</time>
      </trkpt>
      <trkpt lat="46.80469" lon="6.47372">
        <ele>1251.1999511719</ele>
        <time>2014-07-26T13:36:23.000Z</time>
      </trkpt>
      <trkpt lat="46.80474" lon="6.47379">
        <ele>1250.8000488281</ele>
        <time>2014-07-26T13:36:28.000Z</time>
      </trkpt>
      <trkpt lat="46.80479" lon="6.47387">
        <ele>1250.5999755859</ele>
        <time>2014-07-26T13:36:33.000Z</time>
      </trkpt>
      <trkpt lat="46.80487" lon="6.47398">
        <ele>1250</ele>
        <time>2014-07-26T13:36:42.000Z</time>
      </trkpt>
      <trkpt lat="46.80489" lon="6.47399">
        <ele>1250</ele>
        <time>2014-07-26T13:36:44.000Z</time>
      </trkpt>
      <trkpt lat="46.80497" lon="6.4741">
        <ele>1249.5999755859</ele>
        <time>2014-07-26T13:36:52.000Z</time>
      </trkpt>
      <trkpt lat="46.80505" lon="6.47421">
        <ele>1249.4000244141</ele>
        <time>2014-07-26T13:37:00.000Z</time>
      </trkpt>
      <trkpt lat="46.80506" lon="6.47422">
        <ele>1249.1999511719</ele>
        <time>2014-07-26T13:37:01.000Z</time>
      </trkpt>
      <trkpt lat="46.80513" lon="6.47429">
        <ele>1249</ele>
        <time>2014-07-26T13:37:08.000Z</time>
      </trkpt>
      <trkpt lat="46.80514" lon="6.47431">
        <ele>1249</ele>
        <time>2014-07-26T13:37:09.000Z</time>
      </trkpt>
      <trkpt lat="46.80516" lon="6.47435">
        <ele>1249</ele>
        <time>2014-07-26T13:37:12.000Z</time>
      </trkpt>
      <trkpt lat="46.8052" lon="6.4744">
        <ele>1248.5999755859</ele>
        <time>2014-07-26T13:37:17.000Z</time>
      </trkpt>
      <trkpt lat="46.80526" lon="6.47449">
        <ele>1248.4000244141</ele>
        <time>2014-07-26T13:37:23.000Z</time>
      </trkpt>
      <trkpt lat="46.80532" lon="6.47459">
        <ele>1248</ele>
        <time>2014-07-26T13:37:30.000Z</time>
      </trkpt>
      <trkpt lat="46.80539" lon="6.47469">
        <ele>1247.5999755859</ele>
        <time>2014-07-26T13:37:38.000Z</time>
      </trkpt>
      <trkpt lat="46.80544" lon="6.47477">
        <ele>1247.4000244141</ele>
        <time>2014-07-26T13:37:45.000Z</time>
      </trkpt>
      <trkpt lat="46.80545" lon="6.47478">
        <ele>1247.4000244141</ele>
        <time>2014-07-26T13:37:46.000Z</time>
      </trkpt>
      <trkpt lat="46.80551" lon="6.47487">
        <ele>1247</ele>
        <time>2014-07-26T13:37:53.000Z</time>
      </trkpt>
      <trkpt lat="46.80553" lon="6.4749">
        <ele>1246.8000488281</ele>
        <time>2014-07-26T13:37:56.000Z</time>
      </trkpt>
      <trkpt lat="46.80556" lon="6.47495">
        <ele>1246.5999755859</ele>
        <time>2014-07-26T13:38:00.000Z</time>
      </trkpt>
      <trkpt lat="46.80558" lon="6.47498">
        <ele>1246.4000244141</ele>
        <time>2014-07-26T13:38:03.000Z</time>
      </trkpt>
      <trkpt lat="46.80565" lon="6.47505">
        <ele>1246.1999511719</ele>
        <time>2014-07-26T13:38:09.000Z</time>
      </trkpt>
      <trkpt lat="46.80567" lon="6.47508">
        <ele>1246</ele>
        <time>2014-07-26T13:38:12.000Z</time>
      </trkpt>
      <trkpt lat="46.80573" lon="6.4752">
        <ele>1245.4000244141</ele>
        <time>2014-07-26T13:38:19.000Z</time>
      </trkpt>
      <trkpt lat="46.80574" lon="6.47521">
        <ele>1245.4000244141</ele>
        <time>2014-07-26T13:38:20.000Z</time>
      </trkpt>
      <trkpt lat="46.80576" lon="6.47524">
        <ele>1245.1999511719</ele>
        <time>2014-07-26T13:38:22.000Z</time>
      </trkpt>
      <trkpt lat="46.80581" lon="6.47532">
        <ele>1244.8000488281</ele>
        <time>2014-07-26T13:38:28.000Z</time>
      </trkpt>
      <trkpt lat="46.80582" lon="6.47533">
        <ele>1244.8000488281</ele>
        <time>2014-07-26T13:38:29.000Z</time>
      </trkpt>
      <trkpt lat="46.80583" lon="6.47535">
        <ele>1244.5999755859</ele>
        <time>2014-07-26T13:38:30.000Z</time>
      </trkpt>
      <trkpt lat="46.80587" lon="6.47545">
        <ele>1244</ele>
        <time>2014-07-26T13:38:36.000Z</time>
      </trkpt>
      <trkpt lat="46.80594" lon="6.47553">
        <ele>1243.8000488281</ele>
        <time>2014-07-26T13:38:43.000Z</time>
      </trkpt>
      <trkpt lat="46.80598" lon="6.47561">
        <ele>1243.1999511719</ele>
        <time>2014-07-26T13:38:49.000Z</time>
      </trkpt>
      <trkpt lat="46.80603" lon="6.47572">
        <ele>1242.8000488281</ele>
        <time>2014-07-26T13:38:55.000Z</time>
      </trkpt>
      <trkpt lat="46.80607" lon="6.4758">
        <ele>1242.4000244141</ele>
        <time>2014-07-26T13:39:00.000Z</time>
      </trkpt>
      <trkpt lat="46.80613" lon="6.47592">
        <ele>1242</ele>
        <time>2014-07-26T13:39:08.000Z</time>
      </trkpt>
      <trkpt lat="46.80619" lon="6.47606">
        <ele>1241.4000244141</ele>
        <time>2014-07-26T13:39:17.000Z</time>
      </trkpt>
      <trkpt lat="46.80627" lon="6.4762">
        <ele>1240.8000488281</ele>
        <time>2014-07-26T13:39:26.000Z</time>
      </trkpt>
      <trkpt lat="46.80633" lon="6.4763">
        <ele>1240.4000244141</ele>
        <time>2014-07-26T13:39:33.000Z</time>
      </trkpt>
      <trkpt lat="46.80634" lon="6.47631">
        <ele>1240.4000244141</ele>
        <time>2014-07-26T13:39:34.000Z</time>
      </trkpt>
      <trkpt lat="46.80639" lon="6.4764">
        <ele>1240.1999511719</ele>
        <time>2014-07-26T13:39:41.000Z</time>
      </trkpt>
      <trkpt lat="46.80642" lon="6.47643">
        <ele>1240</ele>
        <time>2014-07-26T13:39:44.000Z</time>
      </trkpt>
      <trkpt lat="46.80646" lon="6.4765">
        <ele>1239.8000488281</ele>
        <time>2014-07-26T13:39:51.000Z</time>
      </trkpt>
      <trkpt lat="46.80652" lon="6.4766">
        <ele>1239.4000244141</ele>
        <time>2014-07-26T13:39:59.000Z</time>
      </trkpt>
      <trkpt lat="46.80653" lon="6.47664">
        <ele>1239.1999511719</ele>
        <time>2014-07-26T13:40:01.000Z</time>
      </trkpt>
      <trkpt lat="46.80652" lon="6.47673">
        <ele>1238.5999755859</ele>
        <time>2014-07-26T13:40:07.000Z</time>
      </trkpt>
      <trkpt lat="46.80647" lon="6.47677">
        <ele>1238.1999511719</ele>
        <time>2014-07-26T13:40:12.000Z</time>
      </trkpt>
      <trkpt lat="46.80646" lon="6.47677">
        <ele>1238.1999511719</ele>
        <time>2014-07-26T13:40:13.000Z</time>
      </trkpt>
      <trkpt lat="46.8064" lon="6.47675">
        <ele>1238.4000244141</ele>
        <time>2014-07-26T13:40:20.000Z</time>
      </trkpt>
      <trkpt lat="46.80631" lon="6.47672">
        <ele>1238.4000244141</ele>
        <time>2014-07-26T13:40:28.000Z</time>
      </trkpt>
      <trkpt lat="46.8063" lon="6.47671">
        <ele>1238.4000244141</ele>
        <time>2014-07-26T13:40:29.000Z</time>
      </trkpt>
      <trkpt lat="46.80618" lon="6.47667">
        <ele>1238.5999755859</ele>
        <time>2014-07-26T13:40:39.000Z</time>
      </trkpt>
      <trkpt lat="46.80608" lon="6.47662">
        <ele>1238.5999755859</ele>
        <time>2014-07-26T13:40:48.000Z</time>
      </trkpt>
      <trkpt lat="46.80597" lon="6.47662">
        <ele>1238.5999755859</ele>
        <time>2014-07-26T13:40:57.000Z</time>
      </trkpt>
      <trkpt lat="46.80588" lon="6.47668">
        <ele>1238.1999511719</ele>
        <time>2014-07-26T13:41:05.000Z</time>
      </trkpt>
      <trkpt lat="46.8058" lon="6.47676">
        <ele>1238</ele>
        <time>2014-07-26T13:41:13.000Z</time>
      </trkpt>
      <trkpt lat="46.80575" lon="6.47682">
        <ele>1237.8000488281</ele>
        <time>2014-07-26T13:41:18.000Z</time>
      </trkpt>
      <trkpt lat="46.80568" lon="6.47693">
        <ele>1237.1999511719</ele>
        <time>2014-07-26T13:41:25.000Z</time>
      </trkpt>
      <trkpt lat="46.80559" lon="6.47706">
        <ele>1236.4000244141</ele>
        <time>2014-07-26T13:41:33.000Z</time>
      </trkpt>
      <trkpt lat="46.80552" lon="6.47714">
        <ele>1235.8000488281</ele>
        <time>2014-07-26T13:41:40.000Z</time>
      </trkpt>
      <trkpt lat="46.80544" lon="6.47724">
        <ele>1235.4000244141</ele>
        <time>2014-07-26T13:41:48.000Z</time>
      </trkpt>
      <trkpt lat="46.80536" lon="6.47736">
        <ele>1235.1999511719</ele>
        <time>2014-07-26T13:41:57.000Z</time>
      </trkpt>
      <trkpt lat="46.80527" lon="6.47748">
        <ele>1234.8000488281</ele>
        <time>2014-07-26T13:42:07.000Z</time>
      </trkpt>
      <trkpt lat="46.80519" lon="6.47758">
        <ele>1234.4000244141</ele>
        <time>2014-07-26T13:42:16.000Z</time>
      </trkpt>
      <trkpt lat="46.80513" lon="6.47767">
        <ele>1234.1999511719</ele>
        <time>2014-07-26T13:42:24.000Z</time>
      </trkpt>
      <trkpt lat="46.80507" lon="6.47773">
        <ele>1234.1999511719</ele>
        <time>2014-07-26T13:42:30.000Z</time>
      </trkpt>
      <trkpt lat="46.80501" lon="6.47782">
        <ele>1234.1999511719</ele>
        <time>2014-07-26T13:42:38.000Z</time>
      </trkpt>
      <trkpt lat="46.80493" lon="6.47792">
        <ele>1234</ele>
        <time>2014-07-26T13:42:47.000Z</time>
      </trkpt>
      <trkpt lat="46.80484" lon="6.47804">
        <ele>1234</ele>
        <time>2014-07-26T13:42:57.000Z</time>
      </trkpt>
      <trkpt lat="46.80476" lon="6.47816">
        <ele>1234.4000244141</ele>
        <time>2014-07-26T13:43:07.000Z</time>
      </trkpt>
      <trkpt lat="46.80468" lon="6.47826">
        <ele>1235.1999511719</ele>
        <time>2014-07-26T13:43:15.000Z</time>
      </trkpt>
      <trkpt lat="46.80464" lon="6.47831">
        <ele>1235.5999755859</ele>
        <time>2014-07-26T13:43:19.000Z</time>
      </trkpt>
      <trkpt lat="46.80458" lon="6.47841">
        <ele>1236.1999511719</ele>
        <time>2014-07-26T13:43:26.000Z</time>
      </trkpt>
      <trkpt lat="46.80457" lon="6.47843">
        <ele>1236.4000244141</ele>
        <time>2014-07-26T13:43:27.000Z</time>
      </trkpt>
      <trkpt lat="46.80449" lon="6.47854">
        <ele>1237.1999511719</ele>
        <time>2014-07-26T13:43:35.000Z</time>
      </trkpt>
      <trkpt lat="46.80441" lon="6.47865">
        <ele>1238.4000244141</ele>
        <time>2014-07-26T13:43:43.000Z</time>
      </trkpt>
      <trkpt lat="46.80436" lon="6.47873">
        <ele>1239.1999511719</ele>
        <time>2014-07-26T13:43:49.000Z</time>
      </trkpt>
      <trkpt lat="46.80429" lon="6.47882">
        <ele>1240.1999511719</ele>
        <time>2014-07-26T13:43:57.000Z</time>
      </trkpt>
      <trkpt lat="46.80423" lon="6.47889">
        <ele>1241.1999511719</ele>
        <time>2014-07-26T13:44:04.000Z</time>
      </trkpt>
      <trkpt lat="46.80421" lon="6.47892">
        <ele>1241.5999755859</ele>
        <time>2014-07-26T13:44:06.000Z</time>
      </trkpt>
      <trkpt lat="46.80416" lon="6.47901">
        <ele>1242.4000244141</ele>
        <time>2014-07-26T13:44:13.000Z</time>
      </trkpt>
      <trkpt lat="46.80413" lon="6.47909">
        <ele>1243.1999511719</ele>
        <time>2014-07-26T13:44:18.000Z</time>
      </trkpt>
      <trkpt lat="46.8041" lon="6.47915">
        <ele>1243.5999755859</ele>
        <time>2014-07-26T13:44:23.000Z</time>
      </trkpt>
      <trkpt lat="46.8041" lon="6.47916">
        <ele>1243.5999755859</ele>
        <time>2014-07-26T13:44:24.000Z</time>
      </trkpt>
    </trkseg>
  </trk>
</gpx>